<?xml version='1.0' encoding='UTF-8'?><gpx version="1.1" creator="JPX - https://github.com/jenetics/jpx" xmlns="http://www.topografix.com/GPX/1/1"><trk><trkseg><trkpt lat="45.10063470576739" lon="9.328437297507476"><ele>57.0</ele><time>2026-03-28T14:32:09.999Z</time></trkpt><trkpt lat="45.100658909372726" lon="9.328329345701546"><ele>57.0</ele><time>2026-03-28T14:32:10.999Z</time></trkpt><trkpt lat="45.10070508723032" lon="9.328236899663974"><ele>57.0</ele><time>2026-03-28T14:32:11.999Z</time></trkpt><trkpt lat="45.100765852053385" lon="9.328159546130543"><ele>57.0</ele><time>2026-03-28T14:32:12.999Z</time></trkpt><trkpt lat="45.10084081934648" lon="9.3280857020471"><ele>57.0</ele><time>2026-03-28T14:32:13.999Z</time></trkpt><trkpt lat="45.10091373729799" lon="9.327993505574646"><ele>57.0</ele><time>2026-03-28T14:32:14.999Z</time></trkpt><trkpt lat="45.10098022521276" lon="9.327899630374182"><ele>57.2</ele><time>2026-03-28T14:32:15.999Z</time></trkpt><trkpt lat="45.10104015869712" lon="9.32779592761622"><ele>57.400000000000006</ele><time>2026-03-28T14:32:16.999Z</time></trkpt><trkpt lat="45.10109417452683" lon="9.327689122911885"><ele>57.599999999999994</ele><time>2026-03-28T14:32:17.999Z</time></trkpt><trkpt lat="45.1011412492778" lon="9.327580345376726"><ele>57.8</ele><time>2026-03-28T14:32:18.999Z</time></trkpt><trkpt lat="45.10118557362244" lon="9.327469555816116"><ele>58.0</ele><time>2026-03-28T14:32:19.999Z</time></trkpt><trkpt lat="45.1012289345758" lon="9.327354531744568"><ele>57.99999999999999</ele><time>2026-03-28T14:32:20.999Z</time></trkpt><trkpt lat="45.10125893606334" lon="9.327242663644762"><ele>58.0</ele><time>2026-03-28T14:32:21.999Z</time></trkpt><trkpt lat="45.10129418482661" lon="9.327154501379239"><ele>58.0</ele><time>2026-03-28T14:32:22.999Z</time></trkpt><trkpt lat="45.101383941529996" lon="9.327012702005334"><ele>58.0</ele><time>2026-03-28T14:32:24.999Z</time></trkpt><trkpt lat="45.10143722663052" lon="9.326928964121096"><ele>57.99999999999999</ele><time>2026-03-28T14:32:25.999Z</time></trkpt><trkpt lat="45.101469766367735" lon="9.32683168866939"><ele>58.0</ele><time>2026-03-28T14:32:26.999Z</time></trkpt><trkpt lat="45.1014961104795" lon="9.326724085797604"><ele>58.0</ele><time>2026-03-28T14:32:27.999Z</time></trkpt><trkpt lat="45.10153836075604" lon="9.326635202862285"><ele>58.0</ele><time>2026-03-28T14:32:28.999Z</time></trkpt><trkpt lat="45.101568822658116" lon="9.326485633106644"><ele>58.0</ele><time>2026-03-28T14:32:30.999Z</time></trkpt><trkpt lat="45.1016285504123" lon="9.326360323007272"><ele>58.0</ele><time>2026-03-28T14:32:32.999Z</time></trkpt><trkpt lat="45.1016813319039" lon="9.326259312708855"><ele>58.0</ele><time>2026-03-28T14:32:34.999Z</time></trkpt><trkpt lat="45.10180792678781" lon="9.326305916105028"><ele>57.666666666666664</ele><time>2026-03-28T14:32:35.999Z</time></trkpt><trkpt lat="45.10187791029786" lon="9.326318462396879"><ele>57.33333333333333</ele><time>2026-03-28T14:32:36.999Z</time></trkpt><trkpt lat="45.10194427340453" lon="9.326332597272328"><ele>57.0</ele><time>2026-03-28T14:32:37.999Z</time></trkpt><trkpt lat="45.10200753716723" lon="9.326349969292528"><ele>56.66666666666667</ele><time>2026-03-28T14:32:38.999Z</time></trkpt><trkpt lat="45.102129689290436" lon="9.326370990090185"><ele>56.333333333333336</ele><time>2026-03-28T14:32:40.999Z</time></trkpt><trkpt lat="45.10219329014411" lon="9.326388046006587"><ele>56.0</ele><time>2026-03-28T14:32:41.999Z</time></trkpt><trkpt lat="45.102266687269434" lon="9.326403759778541"><ele>55.833333333333336</ele><time>2026-03-28T14:32:42.999Z</time></trkpt><trkpt lat="45.10234932127911" lon="9.32642157478489"><ele>55.66666666666667</ele><time>2026-03-28T14:32:43.999Z</time></trkpt><trkpt lat="45.1024441396147" lon="9.326447857023362"><ele>55.5</ele><time>2026-03-28T14:32:44.999Z</time></trkpt><trkpt lat="45.102536940232746" lon="9.32646955501311"><ele>55.33333333333333</ele><time>2026-03-28T14:32:45.999Z</time></trkpt><trkpt lat="45.1026300367346" lon="9.326493976492923"><ele>55.166666666666664</ele><time>2026-03-28T14:32:46.999Z</time></trkpt><trkpt lat="45.102704044636035" lon="9.326508494597144"><ele>55.0</ele><time>2026-03-28T14:32:47.999Z</time></trkpt><trkpt lat="45.102779378146884" lon="9.326518587942436"><ele>54.6</ele><time>2026-03-28T14:32:48.999Z</time></trkpt><trkpt lat="45.10285698139554" lon="9.326528387672886"><ele>54.2</ele><time>2026-03-28T14:32:49.999Z</time></trkpt><trkpt lat="45.10292667348733" lon="9.326543053802483"><ele>53.8</ele><time>2026-03-28T14:32:50.999Z</time></trkpt><trkpt lat="45.103031417173455" lon="9.326580910170446"><ele>53.4</ele><time>2026-03-28T14:32:52.999Z</time></trkpt><trkpt lat="45.10312234107244" lon="9.326653392251073"><ele>53.0</ele><time>2026-03-28T14:32:54.999Z</time></trkpt><trkpt lat="45.103198658842445" lon="9.326737730409556"><ele>53.0</ele><time>2026-03-28T14:32:56.999Z</time></trkpt><trkpt lat="45.10326588851765" lon="9.32693069140177"><ele>53.0</ele><time>2026-03-28T14:32:59.999Z</time></trkpt><trkpt lat="45.103207137682666" lon="9.326547336337342"><ele>53.0</ele><time>2026-03-28T14:33:01.999Z</time></trkpt><trkpt lat="45.10307003588617" lon="9.326554628284875"><ele>53.0</ele><time>2026-03-28T14:33:03.999Z</time></trkpt><trkpt lat="45.10294415998539" lon="9.326548633374204"><ele>53.0</ele><time>2026-03-28T14:33:04.999Z</time></trkpt><trkpt lat="45.102818728008806" lon="9.32651997326233"><ele>53.0</ele><time>2026-03-28T14:33:05.999Z</time></trkpt><trkpt lat="45.10268594982652" lon="9.326479547212704"><ele>53.0</ele><time>2026-03-28T14:33:06.999Z</time></trkpt><trkpt lat="45.10257058839432" lon="9.326446593103144"><ele>53.0</ele><time>2026-03-28T14:33:07.999Z</time></trkpt><trkpt lat="45.10244592445416" lon="9.326431760234637"><ele>53.0</ele><time>2026-03-28T14:33:08.999Z</time></trkpt><trkpt lat="45.10231689100316" lon="9.326401689357054"><ele>53.0</ele><time>2026-03-28T14:33:09.999Z</time></trkpt><trkpt lat="45.10218880596472" lon="9.326374926133242"><ele>53.0</ele><time>2026-03-28T14:33:10.999Z</time></trkpt><trkpt lat="45.10206230929079" lon="9.326345248860989"><ele>53.599999999999994</ele><time>2026-03-28T14:33:12Z</time></trkpt><trkpt lat="45.101939825656885" lon="9.326317806143466"><ele>54.199999999999996</ele><time>2026-03-28T14:33:13Z</time></trkpt><trkpt lat="45.10185068630214" lon="9.326298035889835"><ele>54.8</ele><time>2026-03-28T14:33:14Z</time></trkpt><trkpt lat="45.10177792976679" lon="9.3262867526613"><ele>55.4</ele><time>2026-03-28T14:33:15Z</time></trkpt><trkpt lat="45.101664653272756" lon="9.32629441353367"><ele>56.0</ele><time>2026-03-28T14:33:17Z</time></trkpt><trkpt lat="45.10154194302462" lon="9.326339988741548"><ele>56.833333333333336</ele><time>2026-03-28T14:33:19Z</time></trkpt><trkpt lat="45.101468574649026" lon="9.326363989668774"><ele>57.66666666666667</ele><time>2026-03-28T14:33:20Z</time></trkpt><trkpt lat="45.101400147120195" lon="9.326380956036186"><ele>58.5</ele><time>2026-03-28T14:33:21Z</time></trkpt><trkpt lat="45.101336167020676" lon="9.326366626715128"><ele>59.33333333333333</ele><time>2026-03-28T14:33:22Z</time></trkpt><trkpt lat="45.10121683222434" lon="9.32636812930681"><ele>60.166666666666664</ele><time>2026-03-28T14:33:24Z</time></trkpt><trkpt lat="45.10110500043525" lon="9.326377337836629"><ele>61.0</ele><time>2026-03-28T14:33:26Z</time></trkpt><trkpt lat="45.10098955906034" lon="9.32632008944598"><ele>60.99999999999999</ele><time>2026-03-28T14:33:28Z</time></trkpt><trkpt lat="45.100910725540885" lon="9.326195274242755"><ele>61.0</ele><time>2026-03-28T14:33:30Z</time></trkpt><trkpt lat="45.10088212567346" lon="9.326097618197903"><ele>61.0</ele><time>2026-03-28T14:33:31Z</time></trkpt><trkpt lat="45.10086493248951" lon="9.325986473107033"><ele>61.0</ele><time>2026-03-28T14:33:32Z</time></trkpt><trkpt lat="45.10083969701151" lon="9.32586880469667"><ele>60.99999999999999</ele><time>2026-03-28T14:33:33Z</time></trkpt><trkpt lat="45.10080454354159" lon="9.32576284599117"><ele>61.0</ele><time>2026-03-28T14:33:34Z</time></trkpt><trkpt lat="45.10075897267539" lon="9.32566621233545"><ele>61.166666666666664</ele><time>2026-03-28T14:33:35Z</time></trkpt><trkpt lat="45.100706069309304" lon="9.325578971858807"><ele>61.33333333333333</ele><time>2026-03-28T14:33:36Z</time></trkpt><trkpt lat="45.10064618216946" lon="9.32550024799602"><ele>61.5</ele><time>2026-03-28T14:33:37Z</time></trkpt><trkpt lat="45.10058525390635" lon="9.325423654436838"><ele>61.66666666666667</ele><time>2026-03-28T14:33:38Z</time></trkpt><trkpt lat="45.10053621302261" lon="9.325360731875167"><ele>61.833333333333336</ele><time>2026-03-28T14:33:39Z</time></trkpt><trkpt lat="45.10047050234052" lon="9.325239193636005"><ele>62.0</ele><time>2026-03-28T14:33:41Z</time></trkpt><trkpt lat="45.10047822030221" lon="9.32506678908356"><ele>62.16666666666667</ele><time>2026-03-28T14:33:43Z</time></trkpt><trkpt lat="45.10049587758312" lon="9.324953432219424"><ele>62.333333333333336</ele><time>2026-03-28T14:33:44Z</time></trkpt><trkpt lat="45.100527259465366" lon="9.324835047827888"><ele>62.5</ele><time>2026-03-28T14:33:45Z</time></trkpt><trkpt lat="45.100559721224855" lon="9.324709172364557"><ele>62.66666666666667</ele><time>2026-03-28T14:33:46Z</time></trkpt><trkpt lat="45.10059505831562" lon="9.324603931325957"><ele>62.833333333333336</ele><time>2026-03-28T14:33:47Z</time></trkpt><trkpt lat="45.100624962834296" lon="9.324500830569777"><ele>63.0</ele><time>2026-03-28T14:33:48Z</time></trkpt><trkpt lat="45.10066361978595" lon="9.324337418039097"><ele>63.0</ele><time>2026-03-28T14:33:50Z</time></trkpt><trkpt lat="45.10071007373194" lon="9.324194136916077"><ele>63.0</ele><time>2026-03-28T14:33:52Z</time></trkpt><trkpt lat="45.100748995106926" lon="9.3240500925188"><ele>63.0</ele><time>2026-03-28T14:33:54Z</time></trkpt><trkpt lat="45.1007739635656" lon="9.32393982690831"><ele>63.0</ele><time>2026-03-28T14:33:55Z</time></trkpt><trkpt lat="45.10080247575212" lon="9.323816604006085"><ele>63.0</ele><time>2026-03-28T14:33:56Z</time></trkpt><trkpt lat="45.10083739156798" lon="9.323681596611008"><ele>62.0</ele><time>2026-03-28T14:33:56.999Z</time></trkpt><trkpt lat="45.100883200775044" lon="9.323533088891063"><ele>61.0</ele><time>2026-03-28T14:33:57.999Z</time></trkpt><trkpt lat="45.1009293405113" lon="9.323362433808319"><ele>60.0</ele><time>2026-03-28T14:33:58.999Z</time></trkpt><trkpt lat="45.100975130633195" lon="9.32321726960704"><ele>59.0</ele><time>2026-03-28T14:33:59.999Z</time></trkpt><trkpt lat="45.100994968115614" lon="9.323081742059806"><ele>59.75</ele><time>2026-03-28T14:34:00.999Z</time></trkpt><trkpt lat="45.101018392251085" lon="9.3229381075803"><ele>60.5</ele><time>2026-03-28T14:34:01.999Z</time></trkpt><trkpt lat="45.10104595213376" lon="9.322758383456947"><ele>61.25</ele><time>2026-03-28T14:34:02.999Z</time></trkpt><trkpt lat="45.10106122320298" lon="9.322541667083186"><ele>62.0</ele><time>2026-03-28T14:34:03.999Z</time></trkpt><trkpt lat="45.10105095972774" lon="9.32230215634085"><ele>62.0</ele><time>2026-03-28T14:34:04.999Z</time></trkpt><trkpt lat="45.101032200470705" lon="9.322105726589804"><ele>62.0</ele><time>2026-03-28T14:34:05.999Z</time></trkpt><trkpt lat="45.10102356958104" lon="9.321943880598326"><ele>62.0</ele><time>2026-03-28T14:34:06.999Z</time></trkpt><trkpt lat="45.101019709476375" lon="9.32178485968533"><ele>62.0</ele><time>2026-03-28T14:34:07.999Z</time></trkpt><trkpt lat="45.10101499696847" lon="9.321635262000957"><ele>62.0</ele><time>2026-03-28T14:34:08.999Z</time></trkpt><trkpt lat="45.10099670108046" lon="9.321498729094749"><ele>62.0</ele><time>2026-03-28T14:34:09.999Z</time></trkpt><trkpt lat="45.10098492406692" lon="9.321358281260217"><ele>62.0</ele><time>2026-03-28T14:34:10.999Z</time></trkpt><trkpt lat="45.10097259847539" lon="9.32121261233166"><ele>62.0</ele><time>2026-03-28T14:34:11.999Z</time></trkpt><trkpt lat="45.10096147817784" lon="9.321073302093087"><ele>62.0</ele><time>2026-03-28T14:34:12.999Z</time></trkpt><trkpt lat="45.100949116537535" lon="9.320942327501555"><ele>62.0</ele><time>2026-03-28T14:34:13.999Z</time></trkpt><trkpt lat="45.100933391491935" lon="9.320844167495306"><ele>62.0</ele><time>2026-03-28T14:34:14.999Z</time></trkpt><trkpt lat="45.10088891270563" lon="9.320770329953934"><ele>62.0</ele><time>2026-03-28T14:34:15.999Z</time></trkpt><trkpt lat="45.10083456405706" lon="9.320704316016943"><ele>62.0</ele><time>2026-03-28T14:34:16.999Z</time></trkpt><trkpt lat="45.10076900280606" lon="9.320625271669396"><ele>62.0</ele><time>2026-03-28T14:34:18.999Z</time></trkpt><trkpt lat="45.100833945551855" lon="9.320348107932567"><ele>62.0</ele><time>2026-03-28T14:34:20.999Z</time></trkpt><trkpt lat="45.10086309696658" lon="9.320205457850546"><ele>62.0</ele><time>2026-03-28T14:34:21.999Z</time></trkpt><trkpt lat="45.10089986397979" lon="9.320060201699054"><ele>62.0</ele><time>2026-03-28T14:34:22.999Z</time></trkpt><trkpt lat="45.10094768999015" lon="9.319906036783575"><ele>62.0</ele><time>2026-03-28T14:34:23.999Z</time></trkpt><trkpt lat="45.10099037330717" lon="9.319737506755466"><ele>61.8</ele><time>2026-03-28T14:34:24.999Z</time></trkpt><trkpt lat="45.10102938589031" lon="9.319569011549598"><ele>61.6</ele><time>2026-03-28T14:34:25.999Z</time></trkpt><trkpt lat="45.10105743824287" lon="9.31940215031085"><ele>61.39999999999999</ele><time>2026-03-28T14:34:26.999Z</time></trkpt><trkpt lat="45.101081698368475" lon="9.319256803962414"><ele>61.199999999999996</ele><time>2026-03-28T14:34:27.999Z</time></trkpt><trkpt lat="45.10109783041013" lon="9.319126400965677"><ele>61.0</ele><time>2026-03-28T14:34:28.999Z</time></trkpt><trkpt lat="45.10110506934608" lon="9.319017267975669"><ele>61.0</ele><time>2026-03-28T14:34:29.999Z</time></trkpt><trkpt lat="45.101119471366395" lon="9.31890262388465"><ele>60.99999999999999</ele><time>2026-03-28T14:34:30.999Z</time></trkpt><trkpt lat="45.10113758848304" lon="9.318771496809894"><ele>60.99999999999999</ele><time>2026-03-28T14:34:31.999Z</time></trkpt><trkpt lat="45.10114847108643" lon="9.318651141743096"><ele>61.0</ele><time>2026-03-28T14:34:32.999Z</time></trkpt><trkpt lat="45.10117313855915" lon="9.31846633841544"><ele>61.0</ele><time>2026-03-28T14:34:33.999Z</time></trkpt><trkpt lat="45.10119519206064" lon="9.318305222774036"><ele>61.0</ele><time>2026-03-28T14:34:34.999Z</time></trkpt><trkpt lat="45.10121750921367" lon="9.318130096842525"><ele>61.0</ele><time>2026-03-28T14:34:35.999Z</time></trkpt><trkpt lat="45.101250522415874" lon="9.317958132053173"><ele>61.0</ele><time>2026-03-28T14:34:36.999Z</time></trkpt><trkpt lat="45.101265562235405" lon="9.317786586825516"><ele>61.0</ele><time>2026-03-28T14:34:37.999Z</time></trkpt><trkpt lat="45.10128981742589" lon="9.317630341951995"><ele>60.666666666666664</ele><time>2026-03-28T14:34:38.999Z</time></trkpt><trkpt lat="45.10131214379709" lon="9.317500685457642"><ele>60.33333333333333</ele><time>2026-03-28T14:34:39.999Z</time></trkpt><trkpt lat="45.10133060156107" lon="9.317387989721556"><ele>60.0</ele><time>2026-03-28T14:34:40.999Z</time></trkpt><trkpt lat="45.1013491466352" lon="9.317281633326601"><ele>59.66666666666667</ele><time>2026-03-28T14:34:41.999Z</time></trkpt><trkpt lat="45.10136545247892" lon="9.317173896695188"><ele>59.333333333333336</ele><time>2026-03-28T14:34:42.999Z</time></trkpt><trkpt lat="45.10138068356707" lon="9.31706006960955"><ele>59.0</ele><time>2026-03-28T14:34:43.999Z</time></trkpt><trkpt lat="45.10139427183564" lon="9.316963020028352"><ele>59.00000000000001</ele><time>2026-03-28T14:34:44.999Z</time></trkpt><trkpt lat="45.10140994353869" lon="9.31687347434683"><ele>59.0</ele><time>2026-03-28T14:34:45.999Z</time></trkpt><trkpt lat="45.10142687991342" lon="9.31677267821115"><ele>59.0</ele><time>2026-03-28T14:34:46.999Z</time></trkpt><trkpt lat="45.10144842289225" lon="9.316659076899832"><ele>59.0</ele><time>2026-03-28T14:34:47.999Z</time></trkpt><trkpt lat="45.1014711599341" lon="9.316533770821216"><ele>59.00000000000001</ele><time>2026-03-28T14:34:48.999Z</time></trkpt><trkpt lat="45.10149447412509" lon="9.316407683218051"><ele>59.0</ele><time>2026-03-28T14:34:49.999Z</time></trkpt><trkpt lat="45.10151582504189" lon="9.316270321075184"><ele>59.25</ele><time>2026-03-28T14:34:50.999Z</time></trkpt><trkpt lat="45.10154081299493" lon="9.316102265254584"><ele>59.5</ele><time>2026-03-28T14:34:51.999Z</time></trkpt><trkpt lat="45.10156671421139" lon="9.315934343299515"><ele>59.75</ele><time>2026-03-28T14:34:52.999Z</time></trkpt><trkpt lat="45.1015967210774" lon="9.315741673177195"><ele>60.0</ele><time>2026-03-28T14:34:53.999Z</time></trkpt><trkpt lat="45.10163168316724" lon="9.315520761268559"><ele>59.66666666666667</ele><time>2026-03-28T14:34:54.999Z</time></trkpt><trkpt lat="45.10167404889932" lon="9.315272050164774"><ele>59.333333333333336</ele><time>2026-03-28T14:34:55.999Z</time></trkpt><trkpt lat="45.10171361737031" lon="9.31500083223994"><ele>59.0</ele><time>2026-03-28T14:34:56.999Z</time></trkpt><trkpt lat="45.10175689940955" lon="9.314712234558604"><ele>59.0</ele><time>2026-03-28T14:34:57.999Z</time></trkpt><trkpt lat="45.101797053993955" lon="9.314419634673683"><ele>59.0</ele><time>2026-03-28T14:34:58.999Z</time></trkpt><trkpt lat="45.101831221015004" lon="9.314154648458027"><ele>59.0</ele><time>2026-03-28T14:34:59.999Z</time></trkpt><trkpt lat="45.101863841538" lon="9.313922479386257"><ele>59.25</ele><time>2026-03-28T14:35:00.999Z</time></trkpt><trkpt lat="45.10189331167054" lon="9.313710397166277"><ele>59.5</ele><time>2026-03-28T14:35:01.999Z</time></trkpt><trkpt lat="45.10192518374429" lon="9.31350951753661"><ele>59.75</ele><time>2026-03-28T14:35:02.999Z</time></trkpt><trkpt lat="45.10195154786061" lon="9.313316225233164"><ele>60.0</ele><time>2026-03-28T14:35:03.999Z</time></trkpt><trkpt lat="45.101974953009254" lon="9.313130851330179"><ele>60.0</ele><time>2026-03-28T14:35:04.999Z</time></trkpt><trkpt lat="45.101997003428096" lon="9.312949943312109"><ele>60.0</ele><time>2026-03-28T14:35:05.999Z</time></trkpt><trkpt lat="45.1020211946378" lon="9.312776795100673"><ele>60.0</ele><time>2026-03-28T14:35:06.999Z</time></trkpt><trkpt lat="45.102056403572085" lon="9.312599434556637"><ele>60.0</ele><time>2026-03-28T14:35:07.999Z</time></trkpt><trkpt lat="45.10208153967062" lon="9.31241398208278"><ele>60.0</ele><time>2026-03-28T14:35:08.999Z</time></trkpt><trkpt lat="45.102119185821124" lon="9.312234252130697"><ele>60.0</ele><time>2026-03-28T14:35:09.999Z</time></trkpt><trkpt lat="45.10215898473893" lon="9.312058150216153"><ele>60.0</ele><time>2026-03-28T14:35:10.999Z</time></trkpt><trkpt lat="45.102199484834436" lon="9.311888003641597"><ele>60.0</ele><time>2026-03-28T14:35:11.999Z</time></trkpt><trkpt lat="45.10223667397654" lon="9.311731284377322"><ele>60.0</ele><time>2026-03-28T14:35:12.999Z</time></trkpt><trkpt lat="45.10227061749507" lon="9.311598698174725"><ele>60.0</ele><time>2026-03-28T14:35:13.999Z</time></trkpt><trkpt lat="45.102283377083644" lon="9.311472837010015"><ele>60.0</ele><time>2026-03-28T14:35:14.999Z</time></trkpt><trkpt lat="45.10228506172733" lon="9.311356074733313"><ele>60.0</ele><time>2026-03-28T14:35:15.999Z</time></trkpt><trkpt lat="45.10227770428083" lon="9.311237403593694"><ele>60.0</ele><time>2026-03-28T14:35:16.999Z</time></trkpt><trkpt lat="45.10225723884032" lon="9.31110880734979"><ele>60.0</ele><time>2026-03-28T14:35:17.999Z</time></trkpt><trkpt lat="45.1022197583846" lon="9.310977300748714"><ele>60.0</ele><time>2026-03-28T14:35:18.999Z</time></trkpt><trkpt lat="45.1021693001282" lon="9.310851685953464"><ele>60.0</ele><time>2026-03-28T14:35:19.999Z</time></trkpt><trkpt lat="45.10210930850502" lon="9.310725875926648"><ele>60.0</ele><time>2026-03-28T14:35:20.999Z</time></trkpt><trkpt lat="45.102047014729855" lon="9.31059422733858"><ele>60.0</ele><time>2026-03-28T14:35:21.999Z</time></trkpt><trkpt lat="45.10198755181847" lon="9.310455842325688"><ele>60.0</ele><time>2026-03-28T14:35:22.999Z</time></trkpt><trkpt lat="45.101947851699244" lon="9.310297820670584"><ele>60.0</ele><time>2026-03-28T14:35:23.999Z</time></trkpt><trkpt lat="45.10189394406436" lon="9.310146144746335"><ele>60.0</ele><time>2026-03-28T14:35:24.999Z</time></trkpt><trkpt lat="45.101822717222234" lon="9.31000672578321"><ele>60.0</ele><time>2026-03-28T14:35:25.999Z</time></trkpt><trkpt lat="45.101761782795734" lon="9.309854935106966"><ele>60.0</ele><time>2026-03-28T14:35:26.999Z</time></trkpt><trkpt lat="45.101687576703384" lon="9.309711167120982"><ele>59.25</ele><time>2026-03-28T14:35:27.999Z</time></trkpt><trkpt lat="45.101617444181514" lon="9.309560933040704"><ele>58.5</ele><time>2026-03-28T14:35:29Z</time></trkpt><trkpt lat="45.101569624201126" lon="9.309398038921968"><ele>57.75</ele><time>2026-03-28T14:35:30Z</time></trkpt><trkpt lat="45.10151996504257" lon="9.309230588409164"><ele>57.0</ele><time>2026-03-28T14:35:31Z</time></trkpt><trkpt lat="45.10146649509407" lon="9.309061358706684"><ele>56.5</ele><time>2026-03-28T14:35:32Z</time></trkpt><trkpt lat="45.10141609660427" lon="9.30889002271587"><ele>56.0</ele><time>2026-03-28T14:35:33Z</time></trkpt><trkpt lat="45.101374930731616" lon="9.308715286089814"><ele>55.5</ele><time>2026-03-28T14:35:34Z</time></trkpt><trkpt lat="45.101350099307055" lon="9.30853482818153"><ele>55.0</ele><time>2026-03-28T14:35:35Z</time></trkpt><trkpt lat="45.101342758214955" lon="9.308341286796871"><ele>55.0</ele><time>2026-03-28T14:35:36Z</time></trkpt><trkpt lat="45.10134778779251" lon="9.308139693286563"><ele>55.0</ele><time>2026-03-28T14:35:37Z</time></trkpt><trkpt lat="45.101364259911634" lon="9.30791909029284"><ele>55.0</ele><time>2026-03-28T14:35:38Z</time></trkpt><trkpt lat="45.10139033747373" lon="9.307697651793415"><ele>56.0</ele><time>2026-03-28T14:35:39Z</time></trkpt><trkpt lat="45.10141265722566" lon="9.307455733765897"><ele>57.0</ele><time>2026-03-28T14:35:40Z</time></trkpt><trkpt lat="45.10143136858629" lon="9.307191310960535"><ele>58.0</ele><time>2026-03-28T14:35:41Z</time></trkpt><trkpt lat="45.1014495166632" lon="9.30693197986841"><ele>58.0</ele><time>2026-03-28T14:35:42Z</time></trkpt><trkpt lat="45.10146125655611" lon="9.306699166920048"><ele>58.0</ele><time>2026-03-28T14:35:43Z</time></trkpt><trkpt lat="45.10147525657206" lon="9.30650071784626"><ele>58.0</ele><time>2026-03-28T14:35:44Z</time></trkpt><trkpt lat="45.10148773410271" lon="9.306321808217351"><ele>58.0</ele><time>2026-03-28T14:35:45Z</time></trkpt><trkpt lat="45.101500897758754" lon="9.306156514010619"><ele>57.83333333333333</ele><time>2026-03-28T14:35:46Z</time></trkpt><trkpt lat="45.10150707699725" lon="9.306018009698107"><ele>57.666666666666664</ele><time>2026-03-28T14:35:47Z</time></trkpt><trkpt lat="45.1015037169647" lon="9.30591068855978"><ele>57.5</ele><time>2026-03-28T14:35:48Z</time></trkpt><trkpt lat="45.10148804739772" lon="9.30581840008972"><ele>57.33333333333333</ele><time>2026-03-28T14:35:49Z</time></trkpt><trkpt lat="45.101392729583566" lon="9.30571826604568"><ele>57.166666666666664</ele><time>2026-03-28T14:35:51Z</time></trkpt><trkpt lat="45.10132724012114" lon="9.305689651865897"><ele>57.0</ele><time>2026-03-28T14:35:52Z</time></trkpt><trkpt lat="45.1012552168018" lon="9.30562229944438"><ele>57.0</ele><time>2026-03-28T14:35:53Z</time></trkpt><trkpt lat="45.10115756910029" lon="9.305583759118232"><ele>57.0</ele><time>2026-03-28T14:35:54Z</time></trkpt><trkpt lat="45.10104605693119" lon="9.305516696824466"><ele>57.0</ele><time>2026-03-28T14:35:55Z</time></trkpt><trkpt lat="45.100930584822194" lon="9.305453373124623"><ele>57.0</ele><time>2026-03-28T14:35:56Z</time></trkpt><trkpt lat="45.10080108046165" lon="9.305380274671851"><ele>57.75</ele><time>2026-03-28T14:35:57Z</time></trkpt><trkpt lat="45.10066030631821" lon="9.305299875519111"><ele>58.5</ele><time>2026-03-28T14:35:58Z</time></trkpt><trkpt lat="45.1005156669111" lon="9.305212542496523"><ele>59.25</ele><time>2026-03-28T14:35:59Z</time></trkpt><trkpt lat="45.10039234474513" lon="9.305142477033137"><ele>60.0</ele><time>2026-03-28T14:36:00Z</time></trkpt><trkpt lat="45.100282907746" lon="9.305074049238105"><ele>60.0</ele><time>2026-03-28T14:36:01Z</time></trkpt><trkpt lat="45.10018330780683" lon="9.305008038023367"><ele>60.0</ele><time>2026-03-28T14:36:02Z</time></trkpt><trkpt lat="45.10010120482173" lon="9.304926467418086"><ele>60.0</ele><time>2026-03-28T14:36:03Z</time></trkpt><trkpt lat="45.10005107715894" lon="9.304818015816009"><ele>60.0</ele><time>2026-03-28T14:36:04Z</time></trkpt><trkpt lat="45.10001376997581" lon="9.304674482069965"><ele>60.0</ele><time>2026-03-28T14:36:05Z</time></trkpt><trkpt lat="45.09999094203649" lon="9.304510183171603"><ele>59.75</ele><time>2026-03-28T14:36:06Z</time></trkpt><trkpt lat="45.09997116780716" lon="9.304329275776457"><ele>59.5</ele><time>2026-03-28T14:36:07Z</time></trkpt><trkpt lat="45.09994935913223" lon="9.304136902050068"><ele>59.25</ele><time>2026-03-28T14:36:08Z</time></trkpt><trkpt lat="45.099937464417245" lon="9.303921733995182"><ele>59.0</ele><time>2026-03-28T14:36:08.999Z</time></trkpt><trkpt lat="45.09990381059144" lon="9.303706991003459"><ele>59.0</ele><time>2026-03-28T14:36:09.999Z</time></trkpt><trkpt lat="45.09987996511419" lon="9.303489935784189"><ele>59.0</ele><time>2026-03-28T14:36:10.999Z</time></trkpt><trkpt lat="45.099853790773295" lon="9.303257037147018"><ele>59.0</ele><time>2026-03-28T14:36:11.999Z</time></trkpt><trkpt lat="45.09982646695231" lon="9.30302751118272"><ele>58.66666666666667</ele><time>2026-03-28T14:36:12.999Z</time></trkpt><trkpt lat="45.099805999128314" lon="9.302797494332946"><ele>58.33333333333333</ele><time>2026-03-28T14:36:13.999Z</time></trkpt><trkpt lat="45.09981087068731" lon="9.3025639294275"><ele>58.0</ele><time>2026-03-28T14:36:14.999Z</time></trkpt><trkpt lat="45.099828592464696" lon="9.302358778293687"><ele>58.0</ele><time>2026-03-28T14:36:15.999Z</time></trkpt><trkpt lat="45.09982936152916" lon="9.30216815278488"><ele>58.0</ele><time>2026-03-28T14:36:16.999Z</time></trkpt><trkpt lat="45.099819000851475" lon="9.301998307779815"><ele>58.0</ele><time>2026-03-28T14:36:17.999Z</time></trkpt><trkpt lat="45.09979866689258" lon="9.301818291050239"><ele>58.0</ele><time>2026-03-28T14:36:18.999Z</time></trkpt><trkpt lat="45.09977317718094" lon="9.301651025026214"><ele>58.0</ele><time>2026-03-28T14:36:19.999Z</time></trkpt><trkpt lat="45.099745768175566" lon="9.30146397992482"><ele>58.0</ele><time>2026-03-28T14:36:20.999Z</time></trkpt><trkpt lat="45.09971446208075" lon="9.301276343510791"><ele>58.0</ele><time>2026-03-28T14:36:21.999Z</time></trkpt><trkpt lat="45.09968093768667" lon="9.301084067215928"><ele>58.0</ele><time>2026-03-28T14:36:22.999Z</time></trkpt><trkpt lat="45.099648607033025" lon="9.300880363179772"><ele>58.5</ele><time>2026-03-28T14:36:23.999Z</time></trkpt><trkpt lat="45.099612914709255" lon="9.300674151287549"><ele>59.0</ele><time>2026-03-28T14:36:24.999Z</time></trkpt><trkpt lat="45.099574136702856" lon="9.300475789779911"><ele>59.5</ele><time>2026-03-28T14:36:25.999Z</time></trkpt><trkpt lat="45.09953894526982" lon="9.300275702831556"><ele>60.0</ele><time>2026-03-28T14:36:26.999Z</time></trkpt><trkpt lat="45.09950576135281" lon="9.300071052663924"><ele>60.0</ele><time>2026-03-28T14:36:27.999Z</time></trkpt><trkpt lat="45.09947168976737" lon="9.299872599656542"><ele>60.0</ele><time>2026-03-28T14:36:28.999Z</time></trkpt><trkpt lat="45.0994428590049" lon="9.299694302424635"><ele>60.0</ele><time>2026-03-28T14:36:29.999Z</time></trkpt><trkpt lat="45.09941511481209" lon="9.299530738174484"><ele>60.0</ele><time>2026-03-28T14:36:30.999Z</time></trkpt><trkpt lat="45.09939440563795" lon="9.299389478339199"><ele>59.6</ele><time>2026-03-28T14:36:31.999Z</time></trkpt><trkpt lat="45.09939226502968" lon="9.299253423016566"><ele>59.2</ele><time>2026-03-28T14:36:32.999Z</time></trkpt><trkpt lat="45.099411612788145" lon="9.299106503264184"><ele>58.8</ele><time>2026-03-28T14:36:33.999Z</time></trkpt><trkpt lat="45.09947025065329" lon="9.29896749464304"><ele>58.4</ele><time>2026-03-28T14:36:34.999Z</time></trkpt><trkpt lat="45.09954189601378" lon="9.298839164255275"><ele>58.0</ele><time>2026-03-28T14:36:35.999Z</time></trkpt><trkpt lat="45.099577084468905" lon="9.29868778928735"><ele>58.0</ele><time>2026-03-28T14:36:36.999Z</time></trkpt><trkpt lat="45.099577718127414" lon="9.298513565727854"><ele>58.0</ele><time>2026-03-28T14:36:37.999Z</time></trkpt><trkpt lat="45.0995584201208" lon="9.298331623614084"><ele>58.0</ele><time>2026-03-28T14:36:38.999Z</time></trkpt><trkpt lat="45.09954127276692" lon="9.298167411984842"><ele>58.0</ele><time>2026-03-28T14:36:39.999Z</time></trkpt><trkpt lat="45.09952955375163" lon="9.29802509504319"><ele>58.0</ele><time>2026-03-28T14:36:40.999Z</time></trkpt><trkpt lat="45.09952802963172" lon="9.297900539293643"><ele>58.0</ele><time>2026-03-28T14:36:41.999Z</time></trkpt><trkpt lat="45.09954900421402" lon="9.297767240049945"><ele>58.0</ele><time>2026-03-28T14:36:43.999Z</time></trkpt><trkpt lat="45.09955482996684" lon="9.297648419768276"><ele>58.0</ele><time>2026-03-28T14:36:45.999Z</time></trkpt><trkpt lat="45.099521077528664" lon="9.297530940196065"><ele>58.0</ele><time>2026-03-28T14:36:46.999Z</time></trkpt><trkpt lat="45.09949403510363" lon="9.297399518552988"><ele>58.0</ele><time>2026-03-28T14:36:47.999Z</time></trkpt><trkpt lat="45.09946267334688" lon="9.297254674418767"><ele>58.0</ele><time>2026-03-28T14:36:48.999Z</time></trkpt><trkpt lat="45.09942666252862" lon="9.29709707014321"><ele>58.0</ele><time>2026-03-28T14:36:49.999Z</time></trkpt><trkpt lat="45.09939739822758" lon="9.296929783417301"><ele>58.0</ele><time>2026-03-28T14:36:50.999Z</time></trkpt><trkpt lat="45.09935166263414" lon="9.29677262821198"><ele>58.166666666666664</ele><time>2026-03-28T14:36:51.999Z</time></trkpt><trkpt lat="45.0993152093277" lon="9.296617785440604"><ele>58.33333333333333</ele><time>2026-03-28T14:36:52.999Z</time></trkpt><trkpt lat="45.09928061950129" lon="9.296481901723851"><ele>58.5</ele><time>2026-03-28T14:36:53.999Z</time></trkpt><trkpt lat="45.09925086824753" lon="9.296352218774043"><ele>58.66666666666667</ele><time>2026-03-28T14:36:54.999Z</time></trkpt><trkpt lat="45.099240233017625" lon="9.296263706057752"><ele>58.833333333333336</ele><time>2026-03-28T14:36:55.999Z</time></trkpt><trkpt lat="45.099211888153945" lon="9.29618352297156"><ele>59.0</ele><time>2026-03-28T14:36:56.999Z</time></trkpt><trkpt lat="45.09913379803457" lon="9.296125556325201"><ele>59.6</ele><time>2026-03-28T14:36:57.999Z</time></trkpt><trkpt lat="45.09905960547842" lon="9.296103389611284"><ele>60.2</ele><time>2026-03-28T14:36:58.999Z</time></trkpt><trkpt lat="45.098976681803904" lon="9.296084302557498"><ele>60.800000000000004</ele><time>2026-03-28T14:36:59.999Z</time></trkpt><trkpt lat="45.098881965366076" lon="9.296094705652651"><ele>61.400000000000006</ele><time>2026-03-28T14:37:00.999Z</time></trkpt><trkpt lat="45.098772901262244" lon="9.296102163223079"><ele>62.0</ele><time>2026-03-28T14:37:01.999Z</time></trkpt><trkpt lat="45.09865018834262" lon="9.29612725954217"><ele>62.0</ele><time>2026-03-28T14:37:02.999Z</time></trkpt><trkpt lat="45.09851560720918" lon="9.296131995035362"><ele>62.0</ele><time>2026-03-28T14:37:03.999Z</time></trkpt><trkpt lat="45.09838778849556" lon="9.296138445496116"><ele>62.0</ele><time>2026-03-28T14:37:04.999Z</time></trkpt><trkpt lat="45.09826018944476" lon="9.296145794018571"><ele>62.0</ele><time>2026-03-28T14:37:05.999Z</time></trkpt><trkpt lat="45.098134965180876" lon="9.296150938943764"><ele>62.0</ele><time>2026-03-28T14:37:06.999Z</time></trkpt><trkpt lat="45.09800416685415" lon="9.29615954071388"><ele>62.0</ele><time>2026-03-28T14:37:07.999Z</time></trkpt><trkpt lat="45.09787042558724" lon="9.296165443218445"><ele>62.0</ele><time>2026-03-28T14:37:08.999Z</time></trkpt><trkpt lat="45.09774031137285" lon="9.296177250633743"><ele>62.0</ele><time>2026-03-28T14:37:09.999Z</time></trkpt><trkpt lat="45.09760848574496" lon="9.296189247973638"><ele>62.0</ele><time>2026-03-28T14:37:10.999Z</time></trkpt><trkpt lat="45.097474879448434" lon="9.296189011462387"><ele>62.0</ele><time>2026-03-28T14:37:11.999Z</time></trkpt><trkpt lat="45.09733866901683" lon="9.29620766814901"><ele>62.0</ele><time>2026-03-28T14:37:12.999Z</time></trkpt><trkpt lat="45.097200932364736" lon="9.29620877053128"><ele>62.0</ele><time>2026-03-28T14:37:13.999Z</time></trkpt><trkpt lat="45.097071361519994" lon="9.296220021092472"><ele>61.75</ele><time>2026-03-28T14:37:14.999Z</time></trkpt><trkpt lat="45.09693928468131" lon="9.296216098531417"><ele>61.5</ele><time>2026-03-28T14:37:15.999Z</time></trkpt><trkpt lat="45.09680518147657" lon="9.296235055783125"><ele>61.25</ele><time>2026-03-28T14:37:16.999Z</time></trkpt><trkpt lat="45.096668402070854" lon="9.29624251266477"><ele>61.0</ele><time>2026-03-28T14:37:17.999Z</time></trkpt><trkpt lat="45.09653410874815" lon="9.296251041019596"><ele>61.0</ele><time>2026-03-28T14:37:18.999Z</time></trkpt><trkpt lat="45.09639667611926" lon="9.296258253002977"><ele>61.0</ele><time>2026-03-28T14:37:19.999Z</time></trkpt><trkpt lat="45.09625509989994" lon="9.296266356288468"><ele>61.0</ele><time>2026-03-28T14:37:20.999Z</time></trkpt><trkpt lat="45.09611181735632" lon="9.296279810408233"><ele>61.0</ele><time>2026-03-28T14:37:21.999Z</time></trkpt><trkpt lat="45.09596723424942" lon="9.296291220402198"><ele>61.0</ele><time>2026-03-28T14:37:22.999Z</time></trkpt><trkpt lat="45.095821858111115" lon="9.296298141376022"><ele>61.0</ele><time>2026-03-28T14:37:23.999Z</time></trkpt><trkpt lat="45.09567554816103" lon="9.296303883433433"><ele>61.0</ele><time>2026-03-28T14:37:24.999Z</time></trkpt><trkpt lat="45.09553201422927" lon="9.296301931570994"><ele>61.0</ele><time>2026-03-28T14:37:25.999Z</time></trkpt><trkpt lat="45.09539295464407" lon="9.296290563691963"><ele>61.5</ele><time>2026-03-28T14:37:26.999Z</time></trkpt><trkpt lat="45.095251119878675" lon="9.296274199727725"><ele>62.0</ele><time>2026-03-28T14:37:27.999Z</time></trkpt><trkpt lat="45.09511214738592" lon="9.296250516813117"><ele>62.5</ele><time>2026-03-28T14:37:28.999Z</time></trkpt><trkpt lat="45.09497140523899" lon="9.296221203854872"><ele>63.0</ele><time>2026-03-28T14:37:29.999Z</time></trkpt><trkpt lat="45.0948361754751" lon="9.296195140317161"><ele>63.5</ele><time>2026-03-28T14:37:30.999Z</time></trkpt><trkpt lat="45.09470401671071" lon="9.296175277148624"><ele>64.0</ele><time>2026-03-28T14:37:31.999Z</time></trkpt><trkpt lat="45.0945633431197" lon="9.296150221393145"><ele>64.5</ele><time>2026-03-28T14:37:32.999Z</time></trkpt><trkpt lat="45.09443089981426" lon="9.296125954177919"><ele>65.0</ele><time>2026-03-28T14:37:33.999Z</time></trkpt><trkpt lat="45.094299769593334" lon="9.296097615174467"><ele>65.0</ele><time>2026-03-28T14:37:34.999Z</time></trkpt><trkpt lat="45.094169646444875" lon="9.296063356887728"><ele>65.0</ele><time>2026-03-28T14:37:35.999Z</time></trkpt><trkpt lat="45.09403491632231" lon="9.296022429880649"><ele>65.0</ele><time>2026-03-28T14:37:36.999Z</time></trkpt><trkpt lat="45.09389790408509" lon="9.295981658226827"><ele>65.0</ele><time>2026-03-28T14:37:38Z</time></trkpt><trkpt lat="45.09377053014457" lon="9.29593963186245"><ele>64.75</ele><time>2026-03-28T14:37:39Z</time></trkpt><trkpt lat="45.09363667525405" lon="9.295901067902218"><ele>64.5</ele><time>2026-03-28T14:37:40Z</time></trkpt><trkpt lat="45.09350316964202" lon="9.295851003500568"><ele>64.25</ele><time>2026-03-28T14:37:41Z</time></trkpt><trkpt lat="45.09336731449715" lon="9.295812833770775"><ele>64.0</ele><time>2026-03-28T14:37:42Z</time></trkpt><trkpt lat="45.09323511692178" lon="9.295782539157884"><ele>64.0</ele><time>2026-03-28T14:37:43Z</time></trkpt><trkpt lat="45.09309838139828" lon="9.29575368808917"><ele>64.0</ele><time>2026-03-28T14:37:44Z</time></trkpt><trkpt lat="45.0929559842081" lon="9.295727061646442"><ele>64.0</ele><time>2026-03-28T14:37:45Z</time></trkpt><trkpt lat="45.09281557446454" lon="9.2957000278532"><ele>64.0</ele><time>2026-03-28T14:37:46Z</time></trkpt><trkpt lat="45.092671893631426" lon="9.295669073708583"><ele>64.0</ele><time>2026-03-28T14:37:47Z</time></trkpt><trkpt lat="45.09252778125212" lon="9.295639775471333"><ele>64.0</ele><time>2026-03-28T14:37:48Z</time></trkpt><trkpt lat="45.0923890140067" lon="9.295616512958508"><ele>64.0</ele><time>2026-03-28T14:37:49Z</time></trkpt><trkpt lat="45.0922508693043" lon="9.295596204185316"><ele>64.0</ele><time>2026-03-28T14:37:50Z</time></trkpt><trkpt lat="45.09211169856187" lon="9.295582206887197"><ele>64.0</ele><time>2026-03-28T14:37:51Z</time></trkpt><trkpt lat="45.091975497694236" lon="9.295565487358918"><ele>64.0</ele><time>2026-03-28T14:37:52Z</time></trkpt><trkpt lat="45.09185485775901" lon="9.295549465574588"><ele>64.0</ele><time>2026-03-28T14:37:53Z</time></trkpt><trkpt lat="45.09174927351556" lon="9.295535266175003"><ele>64.0</ele><time>2026-03-28T14:37:54Z</time></trkpt><trkpt lat="45.09165158273404" lon="9.295520330719974"><ele>63.99999999999999</ele><time>2026-03-28T14:37:55Z</time></trkpt><trkpt lat="45.09155771380099" lon="9.295505781690844"><ele>64.0</ele><time>2026-03-28T14:37:56Z</time></trkpt><trkpt lat="45.091475778345384" lon="9.29549304558015"><ele>64.0</ele><time>2026-03-28T14:37:57Z</time></trkpt><trkpt lat="45.091402656738985" lon="9.29548214655651"><ele>64.0</ele><time>2026-03-28T14:37:58Z</time></trkpt><trkpt lat="45.09134031362361" lon="9.295469347210531"><ele>63.99999999999999</ele><time>2026-03-28T14:37:59Z</time></trkpt><trkpt lat="45.09127186885025" lon="9.295451345336264"><ele>64.0</ele><time>2026-03-28T14:38:00Z</time></trkpt><trkpt lat="45.091202576859644" lon="9.295431531715248"><ele>64.0</ele><time>2026-03-28T14:38:01Z</time></trkpt><trkpt lat="45.09111990781101" lon="9.295412255516599"><ele>64.0</ele><time>2026-03-28T14:38:02Z</time></trkpt><trkpt lat="45.091027531497716" lon="9.295399478766821"><ele>64.0</ele><time>2026-03-28T14:38:03Z</time></trkpt><trkpt lat="45.09093274479626" lon="9.295399100976079"><ele>64.0</ele><time>2026-03-28T14:38:04Z</time></trkpt><trkpt lat="45.09081052703713" lon="9.295380047255623"><ele>64.0</ele><time>2026-03-28T14:38:05Z</time></trkpt><trkpt lat="45.090684555331876" lon="9.29534639533771"><ele>64.0</ele><time>2026-03-28T14:38:06Z</time></trkpt><trkpt lat="45.09053882927001" lon="9.295308093365419"><ele>64.0</ele><time>2026-03-28T14:38:07Z</time></trkpt><trkpt lat="45.09038281237785" lon="9.295278389973465"><ele>64.0</ele><time>2026-03-28T14:38:08Z</time></trkpt><trkpt lat="45.090220353782705" lon="9.295257205423907"><ele>64.0</ele><time>2026-03-28T14:38:09Z</time></trkpt><trkpt lat="45.09004571594775" lon="9.295234207699567"><ele>64.0</ele><time>2026-03-28T14:38:10Z</time></trkpt><trkpt lat="45.08988375124427" lon="9.295210795088462"><ele>64.0</ele><time>2026-03-28T14:38:11Z</time></trkpt><trkpt lat="45.08972180814738" lon="9.29519081787992"><ele>64.33333333333333</ele><time>2026-03-28T14:38:12Z</time></trkpt><trkpt lat="45.089565089092055" lon="9.295173149029289"><ele>64.66666666666667</ele><time>2026-03-28T14:38:13Z</time></trkpt><trkpt lat="45.08941072087894" lon="9.295154618966764"><ele>65.0</ele><time>2026-03-28T14:38:14Z</time></trkpt><trkpt lat="45.08925152826877" lon="9.295133376160791"><ele>65.0</ele><time>2026-03-28T14:38:15Z</time></trkpt><trkpt lat="45.089093364966566" lon="9.295115769208488"><ele>65.0</ele><time>2026-03-28T14:38:16Z</time></trkpt><trkpt lat="45.08894778573387" lon="9.295100372762224"><ele>65.0</ele><time>2026-03-28T14:38:17Z</time></trkpt><trkpt lat="45.088815945475666" lon="9.295089818342523"><ele>65.0</ele><time>2026-03-28T14:38:18Z</time></trkpt><trkpt lat="45.08869770176963" lon="9.295085607918358"><ele>65.25</ele><time>2026-03-28T14:38:19Z</time></trkpt><trkpt lat="45.08857840062291" lon="9.295077939565523"><ele>65.5</ele><time>2026-03-28T14:38:20Z</time></trkpt><trkpt lat="45.088460394764525" lon="9.295074941778713"><ele>65.75</ele><time>2026-03-28T14:38:21Z</time></trkpt><trkpt lat="45.08834048332685" lon="9.295083072289687"><ele>66.0</ele><time>2026-03-28T14:38:22Z</time></trkpt><trkpt lat="45.08823211994126" lon="9.295097201975105"><ele>66.16666666666667</ele><time>2026-03-28T14:38:23Z</time></trkpt><trkpt lat="45.08813341503998" lon="9.295105268379581"><ele>66.33333333333333</ele><time>2026-03-28T14:38:24Z</time></trkpt><trkpt lat="45.088060342708104" lon="9.295109818182297"><ele>66.5</ele><time>2026-03-28T14:38:25Z</time></trkpt><trkpt lat="45.08796207922256" lon="9.295061714165127"><ele>66.66666666666666</ele><time>2026-03-28T14:38:27Z</time></trkpt><trkpt lat="45.08789877060992" lon="9.294989184121905"><ele>66.83333333333333</ele><time>2026-03-28T14:38:28Z</time></trkpt><trkpt lat="45.08785879991884" lon="9.29489059138879"><ele>67.0</ele><time>2026-03-28T14:38:29Z</time></trkpt><trkpt lat="45.0878433046758" lon="9.29477069189414"><ele>67.0</ele><time>2026-03-28T14:38:30Z</time></trkpt><trkpt lat="45.087836244900245" lon="9.294643372956273"><ele>67.0</ele><time>2026-03-28T14:38:31Z</time></trkpt><trkpt lat="45.0878298450299" lon="9.294506925051126"><ele>67.0</ele><time>2026-03-28T14:38:32Z</time></trkpt><trkpt lat="45.087811559613144" lon="9.29438834313599"><ele>67.0</ele><time>2026-03-28T14:38:33Z</time></trkpt><trkpt lat="45.08778279115881" lon="9.294303908933028"><ele>67.0</ele><time>2026-03-28T14:38:34Z</time></trkpt><trkpt lat="45.08773135428276" lon="9.29425090000257"><ele>67.0</ele><time>2026-03-28T14:38:35Z</time></trkpt><trkpt lat="45.08764778058772" lon="9.294220786049516"><ele>67.0</ele><time>2026-03-28T14:38:36Z</time></trkpt><trkpt lat="45.08755222269921" lon="9.294215305716339"><ele>67.0</ele><time>2026-03-28T14:38:37Z</time></trkpt><trkpt lat="45.08743954397505" lon="9.294210513376527"><ele>67.0</ele><time>2026-03-28T14:38:38Z</time></trkpt><trkpt lat="45.08731320871054" lon="9.294207116702344"><ele>67.0</ele><time>2026-03-28T14:38:39Z</time></trkpt><trkpt lat="45.08717695995955" lon="9.294199606979207"><ele>66.33333333333333</ele><time>2026-03-28T14:38:39.999Z</time></trkpt><trkpt lat="45.08702575206451" lon="9.294184553142841"><ele>65.66666666666667</ele><time>2026-03-28T14:38:40.999Z</time></trkpt><trkpt lat="45.08686390987318" lon="9.29416792906644"><ele>65.0</ele><time>2026-03-28T14:38:41.999Z</time></trkpt><trkpt lat="45.086688114721404" lon="9.29415169907587"><ele>66.25</ele><time>2026-03-28T14:38:42.999Z</time></trkpt><trkpt lat="45.08652284388116" lon="9.29414205272709"><ele>67.5</ele><time>2026-03-28T14:38:43.999Z</time></trkpt><trkpt lat="45.086381836664934" lon="9.294135850095858"><ele>68.75</ele><time>2026-03-28T14:38:44.999Z</time></trkpt><trkpt lat="45.08626319186071" lon="9.294125078699658"><ele>70.0</ele><time>2026-03-28T14:38:45.999Z</time></trkpt><trkpt lat="45.086160585946054" lon="9.294116699118574"><ele>70.0</ele><time>2026-03-28T14:38:46.999Z</time></trkpt><trkpt lat="45.08609460516676" lon="9.294108909729175"><ele>70.0</ele><time>2026-03-28T14:38:47.999Z</time></trkpt><trkpt lat="45.08602679968569" lon="9.294055404565269"><ele>70.0</ele><time>2026-03-28T14:38:50.999Z</time></trkpt><trkpt lat="45.08605898256048" lon="9.293857033854351"><ele>70.0</ele><time>2026-03-28T14:38:52.999Z</time></trkpt><trkpt lat="45.086059074094294" lon="9.29373450805014"><ele>70.0</ele><time>2026-03-28T14:38:53.999Z</time></trkpt><trkpt lat="45.08607459095194" lon="9.29358138482454"><ele>69.5</ele><time>2026-03-28T14:38:54.999Z</time></trkpt><trkpt lat="45.08608532890843" lon="9.293406814859354"><ele>69.0</ele><time>2026-03-28T14:38:55.999Z</time></trkpt><trkpt lat="45.08609182765727" lon="9.293204663114789"><ele>68.5</ele><time>2026-03-28T14:38:56.999Z</time></trkpt><trkpt lat="45.08609932666332" lon="9.292983676061457"><ele>68.0</ele><time>2026-03-28T14:38:57.999Z</time></trkpt><trkpt lat="45.08610676464214" lon="9.292754772229577"><ele>67.33333333333334</ele><time>2026-03-28T14:38:58.999Z</time></trkpt><trkpt lat="45.086121491896606" lon="9.292496389179922"><ele>66.66666666666667</ele><time>2026-03-28T14:38:59.999Z</time></trkpt><trkpt lat="45.08613107674762" lon="9.292273947978444"><ele>66.0</ele><time>2026-03-28T14:39:00.999Z</time></trkpt><trkpt lat="45.08614703352594" lon="9.29207044499345"><ele>66.0</ele><time>2026-03-28T14:39:01.999Z</time></trkpt><trkpt lat="45.08615372262426" lon="9.291872107698955"><ele>66.0</ele><time>2026-03-28T14:39:02.999Z</time></trkpt><trkpt lat="45.086159369133775" lon="9.291672489226324"><ele>66.0</ele><time>2026-03-28T14:39:03.999Z</time></trkpt><trkpt lat="45.08617165224413" lon="9.29146942852326"><ele>66.0</ele><time>2026-03-28T14:39:04.999Z</time></trkpt><trkpt lat="45.0861717793702" lon="9.291260955126791"><ele>66.33333333333333</ele><time>2026-03-28T14:39:05.999Z</time></trkpt><trkpt lat="45.08616980480911" lon="9.291048135911643"><ele>66.66666666666666</ele><time>2026-03-28T14:39:06.999Z</time></trkpt><trkpt lat="45.086168262020145" lon="9.29083560514709"><ele>67.0</ele><time>2026-03-28T14:39:07.999Z</time></trkpt><trkpt lat="45.08616701152061" lon="9.290612929522387"><ele>67.0</ele><time>2026-03-28T14:39:08.999Z</time></trkpt><trkpt lat="45.08616607423811" lon="9.290391468416207"><ele>67.0</ele><time>2026-03-28T14:39:09.999Z</time></trkpt><trkpt lat="45.08616679241062" lon="9.290166136841751"><ele>67.0</ele><time>2026-03-28T14:39:10.999Z</time></trkpt><trkpt lat="45.08616887703121" lon="9.28993627898823"><ele>66.0</ele><time>2026-03-28T14:39:11.999Z</time></trkpt><trkpt lat="45.0861612801097" lon="9.289697091683212"><ele>65.0</ele><time>2026-03-28T14:39:12.999Z</time></trkpt><trkpt lat="45.08615782122474" lon="9.289462526637886"><ele>64.0</ele><time>2026-03-28T14:39:13.999Z</time></trkpt><trkpt lat="45.086154470560686" lon="9.289219553440184"><ele>64.0</ele><time>2026-03-28T14:39:14.999Z</time></trkpt><trkpt lat="45.086152559182125" lon="9.288968979353367"><ele>64.0</ele><time>2026-03-28T14:39:15.999Z</time></trkpt><trkpt lat="45.0861564868564" lon="9.288712021262478"><ele>64.0</ele><time>2026-03-28T14:39:16.999Z</time></trkpt><trkpt lat="45.08616720888434" lon="9.288453789115513"><ele>64.66666666666666</ele><time>2026-03-28T14:39:17.999Z</time></trkpt><trkpt lat="45.08618394874863" lon="9.288208556712299"><ele>65.33333333333333</ele><time>2026-03-28T14:39:18.999Z</time></trkpt><trkpt lat="45.0862031530917" lon="9.28796174053707"><ele>66.0</ele><time>2026-03-28T14:39:19.999Z</time></trkpt><trkpt lat="45.08622102839758" lon="9.287727048743996"><ele>66.0</ele><time>2026-03-28T14:39:20.999Z</time></trkpt><trkpt lat="45.08623704342659" lon="9.287508402513094"><ele>66.0</ele><time>2026-03-28T14:39:21.999Z</time></trkpt><trkpt lat="45.08624886968947" lon="9.287301589352163"><ele>66.0</ele><time>2026-03-28T14:39:22.999Z</time></trkpt><trkpt lat="45.08626202804264" lon="9.287118289814488"><ele>66.0</ele><time>2026-03-28T14:39:23.999Z</time></trkpt><trkpt lat="45.086277877317364" lon="9.286956276797856"><ele>65.8</ele><time>2026-03-28T14:39:24.999Z</time></trkpt><trkpt lat="45.086308978847484" lon="9.286820666573119"><ele>65.6</ele><time>2026-03-28T14:39:25.999Z</time></trkpt><trkpt lat="45.08635302800561" lon="9.286717558199891"><ele>65.4</ele><time>2026-03-28T14:39:26.999Z</time></trkpt><trkpt lat="45.08640739164024" lon="9.286611516829282"><ele>65.2</ele><time>2026-03-28T14:39:27.999Z</time></trkpt><trkpt lat="45.086453449732126" lon="9.286502049277233"><ele>65.0</ele><time>2026-03-28T14:39:28.999Z</time></trkpt><trkpt lat="45.086467616177366" lon="9.286370180108216"><ele>65.0</ele><time>2026-03-28T14:39:30Z</time></trkpt><trkpt lat="45.0864428684195" lon="9.286224885650967"><ele>65.0</ele><time>2026-03-28T14:39:31Z</time></trkpt><trkpt lat="45.08642424181" lon="9.286068569998047"><ele>65.0</ele><time>2026-03-28T14:39:32Z</time></trkpt><trkpt lat="45.08646697401735" lon="9.28587227931248"><ele>65.0</ele><time>2026-03-28T14:39:33Z</time></trkpt><trkpt lat="45.08649245647527" lon="9.285633042089495"><ele>65.0</ele><time>2026-03-28T14:39:34Z</time></trkpt><trkpt lat="45.08653307808185" lon="9.28533552920823"><ele>65.0</ele><time>2026-03-28T14:39:35Z</time></trkpt><trkpt lat="45.086581213969616" lon="9.284967817016476"><ele>64.5</ele><time>2026-03-28T14:39:36Z</time></trkpt><trkpt lat="45.0866188011018" lon="9.284579631489077"><ele>64.0</ele><time>2026-03-28T14:39:37Z</time></trkpt><trkpt lat="45.086656615608184" lon="9.284159139734243"><ele>63.0</ele><time>2026-03-28T14:39:38Z</time></trkpt><trkpt lat="45.08669531882784" lon="9.283767055366008"><ele>62.0</ele><time>2026-03-28T14:39:39Z</time></trkpt><trkpt lat="45.08672680685208" lon="9.28342307196499"><ele>62.0</ele><time>2026-03-28T14:39:40Z</time></trkpt><trkpt lat="45.086758358901626" lon="9.283100833268124"><ele>62.0</ele><time>2026-03-28T14:39:41Z</time></trkpt><trkpt lat="45.08679233904373" lon="9.282802749162546"><ele>62.0</ele><time>2026-03-28T14:39:42Z</time></trkpt><trkpt lat="45.086835603481916" lon="9.282523881862604"><ele>62.333333333333336</ele><time>2026-03-28T14:39:43Z</time></trkpt><trkpt lat="45.08686355492837" lon="9.282262026039795"><ele>62.66666666666667</ele><time>2026-03-28T14:39:44Z</time></trkpt><trkpt lat="45.08687295386897" lon="9.282020787752623"><ele>63.0</ele><time>2026-03-28T14:39:45Z</time></trkpt><trkpt lat="45.086900555374065" lon="9.281789308299379"><ele>63.0</ele><time>2026-03-28T14:39:46Z</time></trkpt><trkpt lat="45.08692966952473" lon="9.281558582646765"><ele>63.0</ele><time>2026-03-28T14:39:47Z</time></trkpt><trkpt lat="45.08695516557925" lon="9.28133373118058"><ele>63.0</ele><time>2026-03-28T14:39:48Z</time></trkpt><trkpt lat="45.08697561530085" lon="9.28110512394927"><ele>62.66666666666667</ele><time>2026-03-28T14:39:49Z</time></trkpt><trkpt lat="45.086997074547035" lon="9.280871550575203"><ele>62.333333333333336</ele><time>2026-03-28T14:39:50Z</time></trkpt><trkpt lat="45.08700929934808" lon="9.280640979486249"><ele>62.0</ele><time>2026-03-28T14:39:51Z</time></trkpt><trkpt lat="45.08699939556211" lon="9.280409585365515"><ele>62.0</ele><time>2026-03-28T14:39:52Z</time></trkpt><trkpt lat="45.08696414881403" lon="9.28017151187087"><ele>62.0</ele><time>2026-03-28T14:39:53Z</time></trkpt><trkpt lat="45.0869085853434" lon="9.279928174346333"><ele>62.0</ele><time>2026-03-28T14:39:54Z</time></trkpt><trkpt lat="45.086832607437344" lon="9.279686640067773"><ele>62.66666666666667</ele><time>2026-03-28T14:39:55Z</time></trkpt><trkpt lat="45.0867379665205" lon="9.279450230227194"><ele>63.33333333333333</ele><time>2026-03-28T14:39:56Z</time></trkpt><trkpt lat="45.08662534052264" lon="9.279234481657998"><ele>64.0</ele><time>2026-03-28T14:39:57Z</time></trkpt><trkpt lat="45.0865192798328" lon="9.27906301923644"><ele>64.2</ele><time>2026-03-28T14:39:58Z</time></trkpt><trkpt lat="45.08643149023154" lon="9.278916842531958"><ele>64.4</ele><time>2026-03-28T14:39:59Z</time></trkpt><trkpt lat="45.08635805674191" lon="9.278779359960277"><ele>64.6</ele><time>2026-03-28T14:40:00Z</time></trkpt><trkpt lat="45.08629558200362" lon="9.27866469427081"><ele>64.8</ele><time>2026-03-28T14:40:01Z</time></trkpt><trkpt lat="45.08625585486299" lon="9.278565672216494"><ele>65.0</ele><time>2026-03-28T14:40:02Z</time></trkpt><trkpt lat="45.0862260171703" lon="9.278478618445787"><ele>65.00000000000001</ele><time>2026-03-28T14:40:03Z</time></trkpt><trkpt lat="45.08621526647978" lon="9.27838435810945"><ele>65.0</ele><time>2026-03-28T14:40:04Z</time></trkpt><trkpt lat="45.08619895137485" lon="9.27829604307414"><ele>65.0</ele><time>2026-03-28T14:40:05Z</time></trkpt><trkpt lat="45.08616970699078" lon="9.27821443172156"><ele>65.0</ele><time>2026-03-28T14:40:06Z</time></trkpt><trkpt lat="45.08611841859373" lon="9.278159824740118"><ele>65.0</ele><time>2026-03-28T14:40:07Z</time></trkpt><trkpt lat="45.08605218601575" lon="9.278141869466335"><ele>65.00000000000001</ele><time>2026-03-28T14:40:08Z</time></trkpt><trkpt lat="45.08597071360896" lon="9.278187325079559"><ele>65.0</ele><time>2026-03-28T14:40:09Z</time></trkpt><trkpt lat="45.08589823821512" lon="9.278263486011673"><ele>65.0</ele><time>2026-03-28T14:40:10Z</time></trkpt><trkpt lat="45.08577925771631" lon="9.278226273434498"><ele>65.0</ele><time>2026-03-28T14:40:11Z</time></trkpt><trkpt lat="45.085622116850686" lon="9.278178305431588"><ele>65.0</ele><time>2026-03-28T14:40:12Z</time></trkpt><trkpt lat="45.08546172006453" lon="9.278118379210733"><ele>65.0</ele><time>2026-03-28T14:40:13Z</time></trkpt><trkpt lat="45.08528156226866" lon="9.278038314855575"><ele>65.0</ele><time>2026-03-28T14:40:14Z</time></trkpt><trkpt lat="45.08507962204045" lon="9.27792485337996"><ele>65.0</ele><time>2026-03-28T14:40:15Z</time></trkpt><trkpt lat="45.084842161841785" lon="9.277832413790424"><ele>65.0</ele><time>2026-03-28T14:40:16Z</time></trkpt><trkpt lat="45.084614815210536" lon="9.277761350802386"><ele>65.0</ele><time>2026-03-28T14:40:17Z</time></trkpt><trkpt lat="45.08441157678302" lon="9.277700371741775"><ele>65.0</ele><time>2026-03-28T14:40:18Z</time></trkpt><trkpt lat="45.08422409089825" lon="9.277639025677528"><ele>65.0</ele><time>2026-03-28T14:40:19Z</time></trkpt><trkpt lat="45.084033471354076" lon="9.27758746620757"><ele>65.0</ele><time>2026-03-28T14:40:20Z</time></trkpt><trkpt lat="45.083845606414044" lon="9.277541353564539"><ele>65.0</ele><time>2026-03-28T14:40:21Z</time></trkpt><trkpt lat="45.08365574914506" lon="9.277507231060945"><ele>65.0</ele><time>2026-03-28T14:40:22Z</time></trkpt><trkpt lat="45.08346524440296" lon="9.277480099385235"><ele>65.0</ele><time>2026-03-28T14:40:23Z</time></trkpt><trkpt lat="45.08327535046932" lon="9.277453022623865"><ele>65.0</ele><time>2026-03-28T14:40:24Z</time></trkpt><trkpt lat="45.08308055166946" lon="9.277431735638956"><ele>65.0</ele><time>2026-03-28T14:40:25Z</time></trkpt><trkpt lat="45.0828819222704" lon="9.277412404822831"><ele>65.0</ele><time>2026-03-28T14:40:26Z</time></trkpt><trkpt lat="45.08267859605864" lon="9.277395109113655"><ele>65.0</ele><time>2026-03-28T14:40:27Z</time></trkpt><trkpt lat="45.0824443543779" lon="9.277386091068086"><ele>65.5</ele><time>2026-03-28T14:40:28Z</time></trkpt><trkpt lat="45.08219879388079" lon="9.277397277776808"><ele>66.0</ele><time>2026-03-28T14:40:29Z</time></trkpt><trkpt lat="45.08198844919341" lon="9.27741701980917"><ele>66.0</ele><time>2026-03-28T14:40:30Z</time></trkpt><trkpt lat="45.081800362630055" lon="9.277429798516387"><ele>66.0</ele><time>2026-03-28T14:40:31Z</time></trkpt><trkpt lat="45.08162682992523" lon="9.277436318040852"><ele>66.0</ele><time>2026-03-28T14:40:32Z</time></trkpt><trkpt lat="45.081475752792684" lon="9.277426064553671"><ele>65.75</ele><time>2026-03-28T14:40:33Z</time></trkpt><trkpt lat="45.08135770403416" lon="9.27739345181589"><ele>65.5</ele><time>2026-03-28T14:40:34Z</time></trkpt><trkpt lat="45.08125894288978" lon="9.277318481293838"><ele>65.25</ele><time>2026-03-28T14:40:35Z</time></trkpt><trkpt lat="45.08118662059045" lon="9.27720668844803"><ele>65.0</ele><time>2026-03-28T14:40:36Z</time></trkpt><trkpt lat="45.0811474090764" lon="9.27704171064976"><ele>65.5</ele><time>2026-03-28T14:40:37Z</time></trkpt><trkpt lat="45.081137592153766" lon="9.276872358267191"><ele>66.0</ele><time>2026-03-28T14:40:38Z</time></trkpt><trkpt lat="45.08112425920168" lon="9.276676293710311"><ele>66.5</ele><time>2026-03-28T14:40:39Z</time></trkpt><trkpt lat="45.08114237121057" lon="9.276459765262082"><ele>67.0</ele><time>2026-03-28T14:40:40Z</time></trkpt><trkpt lat="45.081164511376464" lon="9.276210698980082"><ele>67.0</ele><time>2026-03-28T14:40:41Z</time></trkpt><trkpt lat="45.08120805357654" lon="9.275936777544635"><ele>67.0</ele><time>2026-03-28T14:40:42Z</time></trkpt><trkpt lat="45.08122484438949" lon="9.27565165451629"><ele>67.0</ele><time>2026-03-28T14:40:43Z</time></trkpt><trkpt lat="45.081244343256756" lon="9.2753430553939"><ele>66.5</ele><time>2026-03-28T14:40:44Z</time></trkpt><trkpt lat="45.08126311449741" lon="9.275026547853653"><ele>66.0</ele><time>2026-03-28T14:40:45Z</time></trkpt><trkpt lat="45.08128305809905" lon="9.274699761362564"><ele>66.0</ele><time>2026-03-28T14:40:46Z</time></trkpt><trkpt lat="45.0813022684733" lon="9.274401776937227"><ele>66.0</ele><time>2026-03-28T14:40:47Z</time></trkpt><trkpt lat="45.08131524054937" lon="9.274132444503891"><ele>66.0</ele><time>2026-03-28T14:40:48Z</time></trkpt><trkpt lat="45.081332743852755" lon="9.27388792606249"><ele>65.66666666666667</ele><time>2026-03-28T14:40:49Z</time></trkpt><trkpt lat="45.081342653799794" lon="9.273656280540598"><ele>65.33333333333334</ele><time>2026-03-28T14:40:50Z</time></trkpt><trkpt lat="45.08135072500092" lon="9.273432512676266"><ele>65.0</ele><time>2026-03-28T14:40:51Z</time></trkpt><trkpt lat="45.08136799190779" lon="9.27322178442806"><ele>65.0</ele><time>2026-03-28T14:40:52Z</time></trkpt><trkpt lat="45.08138672707326" lon="9.273045376809964"><ele>65.0</ele><time>2026-03-28T14:40:53Z</time></trkpt><trkpt lat="45.08139819807995" lon="9.272879725811004"><ele>65.0</ele><time>2026-03-28T14:40:54Z</time></trkpt><trkpt lat="45.081414066403276" lon="9.272721340112593"><ele>65.0</ele><time>2026-03-28T14:40:55Z</time></trkpt><trkpt lat="45.081421273912454" lon="9.272560266977765"><ele>65.0</ele><time>2026-03-28T14:40:56Z</time></trkpt><trkpt lat="45.08143127618675" lon="9.272388160916712"><ele>65.0</ele><time>2026-03-28T14:40:57Z</time></trkpt><trkpt lat="45.08144320533941" lon="9.27221349308749"><ele>65.0</ele><time>2026-03-28T14:40:58Z</time></trkpt><trkpt lat="45.081452557740825" lon="9.272020144037896"><ele>65.0</ele><time>2026-03-28T14:40:59Z</time></trkpt><trkpt lat="45.08146252455699" lon="9.271851673373755"><ele>65.0</ele><time>2026-03-28T14:41:00Z</time></trkpt><trkpt lat="45.081483844547016" lon="9.271703069719758"><ele>65.0</ele><time>2026-03-28T14:41:01Z</time></trkpt><trkpt lat="45.081492404622345" lon="9.271574626271056"><ele>65.0</ele><time>2026-03-28T14:41:02Z</time></trkpt><trkpt lat="45.08149827314479" lon="9.271463098134186"><ele>65.0</ele><time>2026-03-28T14:41:03Z</time></trkpt><trkpt lat="45.08150520876419" lon="9.271356263127398"><ele>65.0</ele><time>2026-03-28T14:41:04Z</time></trkpt><trkpt lat="45.08150913832665" lon="9.271248749867919"><ele>65.0</ele><time>2026-03-28T14:41:05Z</time></trkpt><trkpt lat="45.08152405253833" lon="9.271140516226183"><ele>65.0</ele><time>2026-03-28T14:41:06Z</time></trkpt><trkpt lat="45.081557311723024" lon="9.271018814638206"><ele>65.0</ele><time>2026-03-28T14:41:06.999Z</time></trkpt><trkpt lat="45.0815979517985" lon="9.27092285299016"><ele>65.0</ele><time>2026-03-28T14:41:07.999Z</time></trkpt><trkpt lat="45.081622833862056" lon="9.270804874505608"><ele>65.0</ele><time>2026-03-28T14:41:08.999Z</time></trkpt><trkpt lat="45.08161663485286" lon="9.270649585496429"><ele>65.0</ele><time>2026-03-28T14:41:09.999Z</time></trkpt><trkpt lat="45.08157722722066" lon="9.270488669038839"><ele>65.0</ele><time>2026-03-28T14:41:10.999Z</time></trkpt><trkpt lat="45.0815723484941" lon="9.270313862137407"><ele>65.0</ele><time>2026-03-28T14:41:11.999Z</time></trkpt><trkpt lat="45.0815758232363" lon="9.27010130140657"><ele>65.0</ele><time>2026-03-28T14:41:12.999Z</time></trkpt><trkpt lat="45.08163026433921" lon="9.2698823750839"><ele>65.0</ele><time>2026-03-28T14:41:13.999Z</time></trkpt><trkpt lat="45.081678469429576" lon="9.269660720624632"><ele>65.0</ele><time>2026-03-28T14:41:14.999Z</time></trkpt><trkpt lat="45.081755484785276" lon="9.269425359241632"><ele>65.0</ele><time>2026-03-28T14:41:15.999Z</time></trkpt><trkpt lat="45.081869456528736" lon="9.269171243249748"><ele>65.0</ele><time>2026-03-28T14:41:16.999Z</time></trkpt><trkpt lat="45.08198685878116" lon="9.268908825081258"><ele>65.0</ele><time>2026-03-28T14:41:17.999Z</time></trkpt><trkpt lat="45.08210728380686" lon="9.268658906024372"><ele>65.0</ele><time>2026-03-28T14:41:18.999Z</time></trkpt><trkpt lat="45.082222464315265" lon="9.268384592258279"><ele>65.0</ele><time>2026-03-28T14:41:19.999Z</time></trkpt><trkpt lat="45.08233896452842" lon="9.26810381296096"><ele>66.0</ele><time>2026-03-28T14:41:20.999Z</time></trkpt><trkpt lat="45.082458382898295" lon="9.267818359871962"><ele>67.0</ele><time>2026-03-28T14:41:21.999Z</time></trkpt><trkpt lat="45.082575772632296" lon="9.267538784087787"><ele>66.5</ele><time>2026-03-28T14:41:22.999Z</time></trkpt><trkpt lat="45.082695154209574" lon="9.26725852276609"><ele>66.0</ele><time>2026-03-28T14:41:23.999Z</time></trkpt><trkpt lat="45.08281027414744" lon="9.266977309566"><ele>66.0</ele><time>2026-03-28T14:41:24.999Z</time></trkpt><trkpt lat="45.08293180195136" lon="9.26670709067163"><ele>66.0</ele><time>2026-03-28T14:41:25.999Z</time></trkpt><trkpt lat="45.08305029818615" lon="9.266433667646083"><ele>66.0</ele><time>2026-03-28T14:41:26.999Z</time></trkpt><trkpt lat="45.08316930881999" lon="9.26615840551348"><ele>66.0</ele><time>2026-03-28T14:41:27.999Z</time></trkpt><trkpt lat="45.08328452823648" lon="9.265887160740059"><ele>66.0</ele><time>2026-03-28T14:41:28.999Z</time></trkpt><trkpt lat="45.08339377102734" lon="9.265624593404052"><ele>66.0</ele><time>2026-03-28T14:41:29.999Z</time></trkpt><trkpt lat="45.083488903637" lon="9.265384909431237"><ele>66.0</ele><time>2026-03-28T14:41:30.999Z</time></trkpt><trkpt lat="45.08357244535093" lon="9.265186626414046"><ele>66.0</ele><time>2026-03-28T14:41:31.999Z</time></trkpt><trkpt lat="45.08363870304074" lon="9.265024289799964"><ele>66.0</ele><time>2026-03-28T14:41:32.999Z</time></trkpt><trkpt lat="45.08369972539992" lon="9.264876156795383"><ele>66.0</ele><time>2026-03-28T14:41:33.999Z</time></trkpt><trkpt lat="45.08375935612457" lon="9.264738616337105"><ele>66.0</ele><time>2026-03-28T14:41:34.999Z</time></trkpt><trkpt lat="45.083821520582276" lon="9.264585901588632"><ele>66.25</ele><time>2026-03-28T14:41:36Z</time></trkpt><trkpt lat="45.08388793608743" lon="9.26441943328605"><ele>66.5</ele><time>2026-03-28T14:41:37Z</time></trkpt><trkpt lat="45.08396308383219" lon="9.264245022285836"><ele>66.75</ele><time>2026-03-28T14:41:38Z</time></trkpt><trkpt lat="45.08404240847295" lon="9.264055613445588"><ele>67.0</ele><time>2026-03-28T14:41:39Z</time></trkpt><trkpt lat="45.08412706544363" lon="9.26385585227734"><ele>67.0</ele><time>2026-03-28T14:41:40Z</time></trkpt><trkpt lat="45.0842204147828" lon="9.263628994008254"><ele>67.0</ele><time>2026-03-28T14:41:41Z</time></trkpt><trkpt lat="45.084319164454435" lon="9.263402920041436"><ele>67.0</ele><time>2026-03-28T14:41:42Z</time></trkpt><trkpt lat="45.084425513984115" lon="9.263173140102316"><ele>66.66666666666666</ele><time>2026-03-28T14:41:43Z</time></trkpt><trkpt lat="45.084544266588246" lon="9.262929903602618"><ele>66.33333333333333</ele><time>2026-03-28T14:41:44Z</time></trkpt><trkpt lat="45.08467042501195" lon="9.262684567089487"><ele>66.0</ele><time>2026-03-28T14:41:45Z</time></trkpt><trkpt lat="45.08480793745596" lon="9.262444097073619"><ele>65.5</ele><time>2026-03-28T14:41:46Z</time></trkpt><trkpt lat="45.0849513152502" lon="9.262200621151727"><ele>65.0</ele><time>2026-03-28T14:41:47Z</time></trkpt><trkpt lat="45.08509965199073" lon="9.261954393235555"><ele>65.0</ele><time>2026-03-28T14:41:48Z</time></trkpt><trkpt lat="45.08524638045924" lon="9.261698810051735"><ele>65.0</ele><time>2026-03-28T14:41:49Z</time></trkpt><trkpt lat="45.08539319206142" lon="9.261445650527097"><ele>65.0</ele><time>2026-03-28T14:41:50Z</time></trkpt><trkpt lat="45.08553785780969" lon="9.261190029921783"><ele>65.0</ele><time>2026-03-28T14:41:51Z</time></trkpt><trkpt lat="45.085668498152764" lon="9.260955945394697"><ele>65.0</ele><time>2026-03-28T14:41:52Z</time></trkpt><trkpt lat="45.08579090479009" lon="9.260744388426454"><ele>65.33333333333334</ele><time>2026-03-28T14:41:53Z</time></trkpt><trkpt lat="45.08590648886979" lon="9.260543456922212"><ele>65.66666666666667</ele><time>2026-03-28T14:41:54Z</time></trkpt><trkpt lat="45.08601961025006" lon="9.260340564947096"><ele>66.0</ele><time>2026-03-28T14:41:55Z</time></trkpt><trkpt lat="45.08613270599097" lon="9.260136221999892"><ele>66.0</ele><time>2026-03-28T14:41:56Z</time></trkpt><trkpt lat="45.08624694835804" lon="9.259938114995638"><ele>66.0</ele><time>2026-03-28T14:41:57Z</time></trkpt><trkpt lat="45.08636050502251" lon="9.2597366712547"><ele>66.0</ele><time>2026-03-28T14:41:58Z</time></trkpt><trkpt lat="45.08647284129514" lon="9.25953943759572"><ele>65.66666666666667</ele><time>2026-03-28T14:41:59Z</time></trkpt><trkpt lat="45.08658549317575" lon="9.259340106818108"><ele>65.33333333333334</ele><time>2026-03-28T14:42:00Z</time></trkpt><trkpt lat="45.08670032848006" lon="9.25913778286179"><ele>65.0</ele><time>2026-03-28T14:42:01Z</time></trkpt><trkpt lat="45.086815480897556" lon="9.258941760631991"><ele>65.66666666666667</ele><time>2026-03-28T14:42:02Z</time></trkpt><trkpt lat="45.086934001001055" lon="9.258741648435807"><ele>66.33333333333333</ele><time>2026-03-28T14:42:03Z</time></trkpt><trkpt lat="45.08704692684292" lon="9.258545117491865"><ele>67.0</ele><time>2026-03-28T14:42:04Z</time></trkpt><trkpt lat="45.08715411788728" lon="9.258373320968639"><ele>67.0</ele><time>2026-03-28T14:42:05Z</time></trkpt><trkpt lat="45.087266055228" lon="9.258218920945405"><ele>67.0</ele><time>2026-03-28T14:42:06Z</time></trkpt><trkpt lat="45.087387609932954" lon="9.258070433582708"><ele>67.0</ele><time>2026-03-28T14:42:07Z</time></trkpt><trkpt lat="45.08751767220298" lon="9.257930246620342"><ele>67.0</ele><time>2026-03-28T14:42:08Z</time></trkpt><trkpt lat="45.087643145356395" lon="9.257793394627168"><ele>67.0</ele><time>2026-03-28T14:42:09Z</time></trkpt><trkpt lat="45.08776515700658" lon="9.257661793680287"><ele>67.0</ele><time>2026-03-28T14:42:10Z</time></trkpt><trkpt lat="45.08786967427577" lon="9.257534997159318"><ele>67.0</ele><time>2026-03-28T14:42:11Z</time></trkpt><trkpt lat="45.0879605514604" lon="9.257438608181376"><ele>67.0</ele><time>2026-03-28T14:42:12Z</time></trkpt><trkpt lat="45.08802055832846" lon="9.257311423294816"><ele>67.0</ele><time>2026-03-28T14:42:13Z</time></trkpt><trkpt lat="45.088078521206384" lon="9.257209859788519"><ele>67.0</ele><time>2026-03-28T14:42:14Z</time></trkpt><trkpt lat="45.08813358965787" lon="9.257111589781239"><ele>67.0</ele><time>2026-03-28T14:42:15Z</time></trkpt><trkpt lat="45.088197152667405" lon="9.257018849141275"><ele>67.0</ele><time>2026-03-28T14:42:16Z</time></trkpt><trkpt lat="45.08827719767494" lon="9.256970084416587"><ele>67.0</ele><time>2026-03-28T14:42:17Z</time></trkpt><trkpt lat="45.088348340921236" lon="9.256888834678104"><ele>67.0</ele><time>2026-03-28T14:42:18Z</time></trkpt><trkpt lat="45.088399089252796" lon="9.256778264756768"><ele>67.0</ele><time>2026-03-28T14:42:19Z</time></trkpt><trkpt lat="45.08842285340749" lon="9.25663471999339"><ele>67.0</ele><time>2026-03-28T14:42:20Z</time></trkpt><trkpt lat="45.088480096054234" lon="9.256516281038493"><ele>67.0</ele><time>2026-03-28T14:42:21Z</time></trkpt><trkpt lat="45.088552866330126" lon="9.25641716468714"><ele>67.0</ele><time>2026-03-28T14:42:22Z</time></trkpt><trkpt lat="45.08864193738303" lon="9.256313940346779"><ele>67.0</ele><time>2026-03-28T14:42:23Z</time></trkpt><trkpt lat="45.0887408066545" lon="9.256213207355373"><ele>67.0</ele><time>2026-03-28T14:42:24Z</time></trkpt><trkpt lat="45.088852896186" lon="9.25611821149464"><ele>67.0</ele><time>2026-03-28T14:42:25Z</time></trkpt><trkpt lat="45.08897501304192" lon="9.256032337168495"><ele>67.0</ele><time>2026-03-28T14:42:26Z</time></trkpt><trkpt lat="45.089099941676274" lon="9.255955056515695"><ele>67.0</ele><time>2026-03-28T14:42:27Z</time></trkpt><trkpt lat="45.089221270470894" lon="9.255888615155186"><ele>67.0</ele><time>2026-03-28T14:42:28Z</time></trkpt><trkpt lat="45.08934803031657" lon="9.255803218674146"><ele>67.0</ele><time>2026-03-28T14:42:29Z</time></trkpt><trkpt lat="45.089477529793726" lon="9.255726093001716"><ele>67.0</ele><time>2026-03-28T14:42:30Z</time></trkpt><trkpt lat="45.08961076589871" lon="9.255639912495097"><ele>67.0</ele><time>2026-03-28T14:42:31Z</time></trkpt><trkpt lat="45.08974731491089" lon="9.255554342411578"><ele>67.0</ele><time>2026-03-28T14:42:32Z</time></trkpt><trkpt lat="45.089879332948115" lon="9.255462958125145"><ele>67.0</ele><time>2026-03-28T14:42:33Z</time></trkpt><trkpt lat="45.09002562960661" lon="9.255389915463638"><ele>66.33333333333333</ele><time>2026-03-28T14:42:34Z</time></trkpt><trkpt lat="45.09016692270325" lon="9.255308296826296"><ele>65.66666666666667</ele><time>2026-03-28T14:42:35Z</time></trkpt><trkpt lat="45.09030571393942" lon="9.255220122489543"><ele>65.0</ele><time>2026-03-28T14:42:36Z</time></trkpt><trkpt lat="45.09044603141565" lon="9.255132339370784"><ele>65.0</ele><time>2026-03-28T14:42:37Z</time></trkpt><trkpt lat="45.09058972584774" lon="9.25504382483486"><ele>65.0</ele><time>2026-03-28T14:42:38Z</time></trkpt><trkpt lat="45.0907267999844" lon="9.254955243926277"><ele>65.0</ele><time>2026-03-28T14:42:39Z</time></trkpt><trkpt lat="45.090851052773225" lon="9.254870916781256"><ele>65.0</ele><time>2026-03-28T14:42:40Z</time></trkpt><trkpt lat="45.09097015423259" lon="9.254796824645911"><ele>65.0</ele><time>2026-03-28T14:42:41Z</time></trkpt><trkpt lat="45.091085881974685" lon="9.254725560105626"><ele>65.0</ele><time>2026-03-28T14:42:42Z</time></trkpt><trkpt lat="45.091200294310624" lon="9.254654568433839"><ele>65.0</ele><time>2026-03-28T14:42:43Z</time></trkpt><trkpt lat="45.09131298320887" lon="9.254581313053759"><ele>65.0</ele><time>2026-03-28T14:42:44Z</time></trkpt><trkpt lat="45.09142438848402" lon="9.25451269262813"><ele>65.0</ele><time>2026-03-28T14:42:45Z</time></trkpt><trkpt lat="45.09153480704693" lon="9.254442190204005"><ele>65.0</ele><time>2026-03-28T14:42:46Z</time></trkpt><trkpt lat="45.09164875900817" lon="9.254370425816608"><ele>65.0</ele><time>2026-03-28T14:42:47Z</time></trkpt><trkpt lat="45.09176280758273" lon="9.254298186282664"><ele>65.0</ele><time>2026-03-28T14:42:48Z</time></trkpt><trkpt lat="45.09187113326373" lon="9.254232203339757"><ele>65.2</ele><time>2026-03-28T14:42:49Z</time></trkpt><trkpt lat="45.091971589098335" lon="9.254165057461021"><ele>65.4</ele><time>2026-03-28T14:42:50Z</time></trkpt><trkpt lat="45.09205778095552" lon="9.254110950713862"><ele>65.6</ele><time>2026-03-28T14:42:51Z</time></trkpt><trkpt lat="45.09214298272852" lon="9.254058539568625"><ele>65.8</ele><time>2026-03-28T14:42:52Z</time></trkpt><trkpt lat="45.0922245405075" lon="9.254009011341186"><ele>66.0</ele><time>2026-03-28T14:42:53Z</time></trkpt><trkpt lat="45.0923049901662" lon="9.25395920225413"><ele>65.66666666666667</ele><time>2026-03-28T14:42:54Z</time></trkpt><trkpt lat="45.09238640325285" lon="9.253905524200142"><ele>65.33333333333333</ele><time>2026-03-28T14:42:55Z</time></trkpt><trkpt lat="45.092464385315864" lon="9.253854508942124"><ele>65.0</ele><time>2026-03-28T14:42:56Z</time></trkpt><trkpt lat="45.09253644282174" lon="9.253799078999107"><ele>64.66666666666666</ele><time>2026-03-28T14:42:57Z</time></trkpt><trkpt lat="45.0926005581222" lon="9.253751102889023"><ele>64.33333333333333</ele><time>2026-03-28T14:42:58Z</time></trkpt><trkpt lat="45.09266932068347" lon="9.253701939895498"><ele>64.0</ele><time>2026-03-28T14:42:59Z</time></trkpt><trkpt lat="45.09274638908544" lon="9.253664207306247"><ele>64.0</ele><time>2026-03-28T14:43:00Z</time></trkpt><trkpt lat="45.092825474828466" lon="9.253623564196047"><ele>64.0</ele><time>2026-03-28T14:43:01Z</time></trkpt><trkpt lat="45.09290513775474" lon="9.253611182545013"><ele>64.0</ele><time>2026-03-28T14:43:02Z</time></trkpt><trkpt lat="45.092982761440595" lon="9.25351419189787"><ele>64.0</ele><time>2026-03-28T14:43:03Z</time></trkpt><trkpt lat="45.093062467450466" lon="9.253433921352626"><ele>64.0</ele><time>2026-03-28T14:43:04Z</time></trkpt><trkpt lat="45.09316644654797" lon="9.253387248266089"><ele>64.25</ele><time>2026-03-28T14:43:05Z</time></trkpt><trkpt lat="45.09327495399387" lon="9.253321948157767"><ele>64.5</ele><time>2026-03-28T14:43:06Z</time></trkpt><trkpt lat="45.09338843939996" lon="9.253247145306222"><ele>64.75</ele><time>2026-03-28T14:43:07Z</time></trkpt><trkpt lat="45.09350872424694" lon="9.253149932061088"><ele>65.0</ele><time>2026-03-28T14:43:08Z</time></trkpt><trkpt lat="45.09364066774701" lon="9.253066793442722"><ele>65.0</ele><time>2026-03-28T14:43:09Z</time></trkpt><trkpt lat="45.09376767482639" lon="9.25297275813499"><ele>65.0</ele><time>2026-03-28T14:43:10Z</time></trkpt><trkpt lat="45.0938807274323" lon="9.252880509025285"><ele>65.0</ele><time>2026-03-28T14:43:11Z</time></trkpt><trkpt lat="45.093979093309045" lon="9.252790535011206"><ele>65.0</ele><time>2026-03-28T14:43:12Z</time></trkpt><trkpt lat="45.09406434037213" lon="9.25270382861064"><ele>65.2</ele><time>2026-03-28T14:43:13Z</time></trkpt><trkpt lat="45.0941445701681" lon="9.252619222405755"><ele>65.4</ele><time>2026-03-28T14:43:14Z</time></trkpt><trkpt lat="45.09422053472627" lon="9.252533378858823"><ele>65.6</ele><time>2026-03-28T14:43:15Z</time></trkpt><trkpt lat="45.09429251645787" lon="9.252446489801615"><ele>65.8</ele><time>2026-03-28T14:43:16Z</time></trkpt><trkpt lat="45.09436103147491" lon="9.252357988459385"><ele>66.0</ele><time>2026-03-28T14:43:17Z</time></trkpt><trkpt lat="45.09443146691902" lon="9.252271103829798"><ele>65.6</ele><time>2026-03-28T14:43:18Z</time></trkpt><trkpt lat="45.09450147982014" lon="9.252181176167124"><ele>65.19999999999999</ele><time>2026-03-28T14:43:19Z</time></trkpt><trkpt lat="45.0945774762749" lon="9.252082419035267"><ele>64.80000000000001</ele><time>2026-03-28T14:43:20Z</time></trkpt><trkpt lat="45.09465489658983" lon="9.251985667781117"><ele>64.4</ele><time>2026-03-28T14:43:21Z</time></trkpt><trkpt lat="45.094735117070485" lon="9.251887670711568"><ele>64.0</ele><time>2026-03-28T14:43:22Z</time></trkpt><trkpt lat="45.09481984765625" lon="9.251785131402704"><ele>64.0</ele><time>2026-03-28T14:43:23Z</time></trkpt><trkpt lat="45.094910551340575" lon="9.251682111053412"><ele>64.0</ele><time>2026-03-28T14:43:24Z</time></trkpt><trkpt lat="45.09500748202842" lon="9.251582132788958"><ele>64.0</ele><time>2026-03-28T14:43:25Z</time></trkpt><trkpt lat="45.09509567943668" lon="9.251498500814694"><ele>64.0</ele><time>2026-03-28T14:43:26Z</time></trkpt><trkpt lat="45.0951741720896" lon="9.25142516816589"><ele>64.0</ele><time>2026-03-28T14:43:27Z</time></trkpt><trkpt lat="45.095251982413835" lon="9.251360712041482"><ele>64.4</ele><time>2026-03-28T14:43:28Z</time></trkpt><trkpt lat="45.095333485056315" lon="9.251295215993213"><ele>64.80000000000001</ele><time>2026-03-28T14:43:29Z</time></trkpt><trkpt lat="45.0954139893172" lon="9.25123145226028"><ele>65.19999999999999</ele><time>2026-03-28T14:43:30Z</time></trkpt><trkpt lat="45.0954976843686" lon="9.251164706936255"><ele>65.6</ele><time>2026-03-28T14:43:31Z</time></trkpt><trkpt lat="45.09558029542171" lon="9.251098054206674"><ele>66.0</ele><time>2026-03-28T14:43:32Z</time></trkpt><trkpt lat="45.095666858901396" lon="9.251029526376527"><ele>65.25</ele><time>2026-03-28T14:43:33Z</time></trkpt><trkpt lat="45.095757444032735" lon="9.250959768291384"><ele>64.5</ele><time>2026-03-28T14:43:34Z</time></trkpt><trkpt lat="45.09585203114756" lon="9.250882918944594"><ele>63.75</ele><time>2026-03-28T14:43:35Z</time></trkpt><trkpt lat="45.095955261329024" lon="9.250799489677243"><ele>63.0</ele><time>2026-03-28T14:43:36Z</time></trkpt><trkpt lat="45.096062930665404" lon="9.250711051306157"><ele>63.0</ele><time>2026-03-28T14:43:37Z</time></trkpt><trkpt lat="45.09618137838604" lon="9.250619225420063"><ele>63.0</ele><time>2026-03-28T14:43:38Z</time></trkpt><trkpt lat="45.096306943060895" lon="9.250525314602243"><ele>63.0</ele><time>2026-03-28T14:43:39Z</time></trkpt><trkpt lat="45.096432654807785" lon="9.250428029302716"><ele>63.0</ele><time>2026-03-28T14:43:40Z</time></trkpt><trkpt lat="45.096553385525574" lon="9.250329189549355"><ele>63.0</ele><time>2026-03-28T14:43:41Z</time></trkpt><trkpt lat="45.09666165204537" lon="9.25024145380929"><ele>63.0</ele><time>2026-03-28T14:43:42Z</time></trkpt><trkpt lat="45.096763950510876" lon="9.250156732795375"><ele>63.0</ele><time>2026-03-28T14:43:43Z</time></trkpt><trkpt lat="45.09686887876553" lon="9.250070182428324"><ele>63.0</ele><time>2026-03-28T14:43:44Z</time></trkpt><trkpt lat="45.09696530353663" lon="9.249993408417039"><ele>63.0</ele><time>2026-03-28T14:43:45Z</time></trkpt><trkpt lat="45.097058610926815" lon="9.24992503694285"><ele>63.0</ele><time>2026-03-28T14:43:46Z</time></trkpt><trkpt lat="45.097144782414674" lon="9.2498825216796"><ele>63.0</ele><time>2026-03-28T14:43:47Z</time></trkpt><trkpt lat="45.097229994103344" lon="9.249873209648914"><ele>63.0</ele><time>2026-03-28T14:43:48Z</time></trkpt><trkpt lat="45.097312789438774" lon="9.249878518060164"><ele>63.0</ele><time>2026-03-28T14:43:49Z</time></trkpt><trkpt lat="45.09739405488446" lon="9.249856909451129"><ele>63.0</ele><time>2026-03-28T14:43:50Z</time></trkpt><trkpt lat="45.09746388252142" lon="9.249770856334102"><ele>63.25</ele><time>2026-03-28T14:43:51Z</time></trkpt><trkpt lat="45.09751974039409" lon="9.249649151658433"><ele>63.5</ele><time>2026-03-28T14:43:52Z</time></trkpt><trkpt lat="45.0975980354703" lon="9.249535058149538"><ele>63.75</ele><time>2026-03-28T14:43:53Z</time></trkpt><trkpt lat="45.097696942418786" lon="9.249425101380503"><ele>64.0</ele><time>2026-03-28T14:43:54Z</time></trkpt><trkpt lat="45.09780432023977" lon="9.24931592280963"><ele>64.0</ele><time>2026-03-28T14:43:55Z</time></trkpt><trkpt lat="45.0979162038424" lon="9.249215721759924"><ele>64.0</ele><time>2026-03-28T14:43:56Z</time></trkpt><trkpt lat="45.09803794807475" lon="9.2491211149829"><ele>64.0</ele><time>2026-03-28T14:43:57Z</time></trkpt><trkpt lat="45.0981624417493" lon="9.249024191127916"><ele>64.0</ele><time>2026-03-28T14:43:58Z</time></trkpt><trkpt lat="45.09828712317616" lon="9.248923185880777"><ele>63.75</ele><time>2026-03-28T14:43:59Z</time></trkpt><trkpt lat="45.09841124236651" lon="9.248817353925372"><ele>63.5</ele><time>2026-03-28T14:44:00Z</time></trkpt><trkpt lat="45.0985401974287" lon="9.248707263111804"><ele>63.25</ele><time>2026-03-28T14:44:01Z</time></trkpt><trkpt lat="45.09867088700714" lon="9.248596602571185"><ele>63.0</ele><time>2026-03-28T14:44:02Z</time></trkpt><trkpt lat="45.098799099368556" lon="9.248489168572238"><ele>63.0</ele><time>2026-03-28T14:44:03Z</time></trkpt><trkpt lat="45.09893340001765" lon="9.248379035253587"><ele>63.0</ele><time>2026-03-28T14:44:04Z</time></trkpt><trkpt lat="45.099068592041846" lon="9.248269622914975"><ele>63.0</ele><time>2026-03-28T14:44:05Z</time></trkpt><trkpt lat="45.099207649102425" lon="9.248156234430638"><ele>63.0</ele><time>2026-03-28T14:44:06Z</time></trkpt><trkpt lat="45.099350993932276" lon="9.248038004550777"><ele>63.0</ele><time>2026-03-28T14:44:07Z</time></trkpt><trkpt lat="45.09949145473763" lon="9.24791905403528"><ele>63.0</ele><time>2026-03-28T14:44:08Z</time></trkpt><trkpt lat="45.09963720234594" lon="9.247798764866774"><ele>63.0</ele><time>2026-03-28T14:44:09Z</time></trkpt><trkpt lat="45.09978192468947" lon="9.247673032370098"><ele>63.0</ele><time>2026-03-28T14:44:10Z</time></trkpt><trkpt lat="45.099930339234724" lon="9.247552272025226"><ele>63.0</ele><time>2026-03-28T14:44:11Z</time></trkpt><trkpt lat="45.10008057907541" lon="9.247432317421408"><ele>62.75</ele><time>2026-03-28T14:44:12Z</time></trkpt><trkpt lat="45.100215055399595" lon="9.247320005007223"><ele>62.5</ele><time>2026-03-28T14:44:13Z</time></trkpt><trkpt lat="45.1003424540054" lon="9.247220579542548"><ele>62.25</ele><time>2026-03-28T14:44:14Z</time></trkpt><trkpt lat="45.100466831992016" lon="9.24712670114214"><ele>62.0</ele><time>2026-03-28T14:44:15Z</time></trkpt><trkpt lat="45.100594678296645" lon="9.247028051749023"><ele>61.75</ele><time>2026-03-28T14:44:16Z</time></trkpt><trkpt lat="45.10072580942649" lon="9.246923654589581"><ele>61.5</ele><time>2026-03-28T14:44:17Z</time></trkpt><trkpt lat="45.100861573521065" lon="9.246814155614109"><ele>61.25</ele><time>2026-03-28T14:44:18Z</time></trkpt><trkpt lat="45.10098192103539" lon="9.246711196482119"><ele>61.0</ele><time>2026-03-28T14:44:19Z</time></trkpt><trkpt lat="45.10109275167214" lon="9.246621091190868"><ele>61.0</ele><time>2026-03-28T14:44:20Z</time></trkpt><trkpt lat="45.10120032421533" lon="9.246537877125496"><ele>61.0</ele><time>2026-03-28T14:44:21Z</time></trkpt><trkpt lat="45.101304884545414" lon="9.24645621470263"><ele>61.0</ele><time>2026-03-28T14:44:22Z</time></trkpt><trkpt lat="45.10140400229271" lon="9.246378250047586"><ele>61.0</ele><time>2026-03-28T14:44:23Z</time></trkpt><trkpt lat="45.10150306169823" lon="9.246302768390303"><ele>61.4</ele><time>2026-03-28T14:44:24Z</time></trkpt><trkpt lat="45.101597010290774" lon="9.246227280013905"><ele>61.8</ele><time>2026-03-28T14:44:25Z</time></trkpt><trkpt lat="45.101694001261926" lon="9.246157505553072"><ele>62.199999999999996</ele><time>2026-03-28T14:44:26Z</time></trkpt><trkpt lat="45.1017872054151" lon="9.246087717586148"><ele>62.599999999999994</ele><time>2026-03-28T14:44:27Z</time></trkpt><trkpt lat="45.10188434043893" lon="9.246019750135735"><ele>63.0</ele><time>2026-03-28T14:44:28Z</time></trkpt><trkpt lat="45.10197638191562" lon="9.245957776309481"><ele>63.0</ele><time>2026-03-28T14:44:29Z</time></trkpt><trkpt lat="45.10206739219906" lon="9.245892825962104"><ele>63.0</ele><time>2026-03-28T14:44:30Z</time></trkpt><trkpt lat="45.10215693792356" lon="9.245826927919635"><ele>63.0</ele><time>2026-03-28T14:44:31Z</time></trkpt><trkpt lat="45.10224787123709" lon="9.245760707750193"><ele>63.0</ele><time>2026-03-28T14:44:32Z</time></trkpt><trkpt lat="45.102341018375434" lon="9.245692940247894"><ele>63.0</ele><time>2026-03-28T14:44:33Z</time></trkpt><trkpt lat="45.1024366124692" lon="9.245620899405472"><ele>63.166666666666664</ele><time>2026-03-28T14:44:34Z</time></trkpt><trkpt lat="45.102524711518086" lon="9.24555321558887"><ele>63.33333333333333</ele><time>2026-03-28T14:44:35Z</time></trkpt><trkpt lat="45.10260630915112" lon="9.24549175088351"><ele>63.5</ele><time>2026-03-28T14:44:36Z</time></trkpt><trkpt lat="45.10268213326967" lon="9.245436405281644"><ele>63.666666666666664</ele><time>2026-03-28T14:44:37Z</time></trkpt><trkpt lat="45.102742874151005" lon="9.245387747504898"><ele>63.83333333333333</ele><time>2026-03-28T14:44:38Z</time></trkpt><trkpt lat="45.10281971211709" lon="9.245321540061061"><ele>64.0</ele><time>2026-03-28T14:44:40Z</time></trkpt><trkpt lat="45.10288836497681" lon="9.245259864971793"><ele>64.0</ele><time>2026-03-28T14:44:43Z</time></trkpt><trkpt lat="45.102979669167844" lon="9.245181979917286"><ele>64.0</ele><time>2026-03-28T14:44:46Z</time></trkpt><trkpt lat="45.103080989082464" lon="9.245107009205967"><ele>64.0</ele><time>2026-03-28T14:44:48Z</time></trkpt><trkpt lat="45.10317933944894" lon="9.245034959433626"><ele>64.0</ele><time>2026-03-28T14:44:50Z</time></trkpt><trkpt lat="45.10329788174009" lon="9.244953010178483"><ele>63.800000000000004</ele><time>2026-03-28T14:44:52Z</time></trkpt><trkpt lat="45.103375267256915" lon="9.244901741468102"><ele>63.60000000000001</ele><time>2026-03-28T14:44:53Z</time></trkpt><trkpt lat="45.1034607775734" lon="9.244843199931132"><ele>63.4</ele><time>2026-03-28T14:44:54Z</time></trkpt><trkpt lat="45.103540843085725" lon="9.244783385105844"><ele>63.2</ele><time>2026-03-28T14:44:55Z</time></trkpt><trkpt lat="45.10362636197017" lon="9.244713887354324"><ele>63.0</ele><time>2026-03-28T14:44:56Z</time></trkpt><trkpt lat="45.10372217732921" lon="9.244642175093244"><ele>62.8</ele><time>2026-03-28T14:44:57Z</time></trkpt><trkpt lat="45.10381201324769" lon="9.244569824981568"><ele>62.599999999999994</ele><time>2026-03-28T14:44:58Z</time></trkpt><trkpt lat="45.10390576077815" lon="9.244497455954576"><ele>62.400000000000006</ele><time>2026-03-28T14:44:59Z</time></trkpt><trkpt lat="45.104003568544655" lon="9.24442249631782"><ele>62.2</ele><time>2026-03-28T14:45:00Z</time></trkpt><trkpt lat="45.10409745304977" lon="9.244350592582622"><ele>62.0</ele><time>2026-03-28T14:45:01Z</time></trkpt><trkpt lat="45.10417983289899" lon="9.244286762815548"><ele>62.00000000000001</ele><time>2026-03-28T14:45:02Z</time></trkpt><trkpt lat="45.10425374124919" lon="9.244230003142652"><ele>62.0</ele><time>2026-03-28T14:45:03Z</time></trkpt><trkpt lat="45.10432400346254" lon="9.244183962652372"><ele>62.0</ele><time>2026-03-28T14:45:04Z</time></trkpt><trkpt lat="45.10439152498908" lon="9.244133694250607"><ele>62.0</ele><time>2026-03-28T14:45:05Z</time></trkpt><trkpt lat="45.10445995966694" lon="9.244085675706096"><ele>62.00000000000001</ele><time>2026-03-28T14:45:06Z</time></trkpt><trkpt lat="45.10453265849088" lon="9.244035194554483"><ele>62.0</ele><time>2026-03-28T14:45:07Z</time></trkpt><trkpt lat="45.10460432934407" lon="9.243985099408851"><ele>62.0</ele><time>2026-03-28T14:45:08Z</time></trkpt><trkpt lat="45.104678920127924" lon="9.243935627364818"><ele>62.0</ele><time>2026-03-28T14:45:09Z</time></trkpt><trkpt lat="45.104757621975146" lon="9.243880031210209"><ele>62.0</ele><time>2026-03-28T14:45:10Z</time></trkpt><trkpt lat="45.10485024610174" lon="9.243814487736492"><ele>62.0</ele><time>2026-03-28T14:45:11Z</time></trkpt><trkpt lat="45.104943325638224" lon="9.243747673819337"><ele>62.0</ele><time>2026-03-28T14:45:12Z</time></trkpt><trkpt lat="45.10504183919918" lon="9.243680655475107"><ele>62.0</ele><time>2026-03-28T14:45:13Z</time></trkpt><trkpt lat="45.10514280642202" lon="9.243611937528014"><ele>62.0</ele><time>2026-03-28T14:45:14Z</time></trkpt><trkpt lat="45.105249286987686" lon="9.243538211515116"><ele>62.0</ele><time>2026-03-28T14:45:15Z</time></trkpt><trkpt lat="45.105345898138246" lon="9.243473741938923"><ele>62.0</ele><time>2026-03-28T14:45:16Z</time></trkpt><trkpt lat="45.10543373446094" lon="9.243417033815447"><ele>62.0</ele><time>2026-03-28T14:45:17Z</time></trkpt><trkpt lat="45.10552475563902" lon="9.243361698758708"><ele>62.0</ele><time>2026-03-28T14:45:18Z</time></trkpt><trkpt lat="45.105622051086236" lon="9.243309749597474"><ele>62.0</ele><time>2026-03-28T14:45:19Z</time></trkpt><trkpt lat="45.105715854184474" lon="9.243264496958522"><ele>62.0</ele><time>2026-03-28T14:45:20Z</time></trkpt><trkpt lat="45.10581809332045" lon="9.243223322435426"><ele>62.0</ele><time>2026-03-28T14:45:21Z</time></trkpt><trkpt lat="45.10592022438671" lon="9.243180143800739"><ele>62.0</ele><time>2026-03-28T14:45:22Z</time></trkpt><trkpt lat="45.106028040236936" lon="9.243146701705504"><ele>61.0</ele><time>2026-03-28T14:45:23Z</time></trkpt><trkpt lat="45.10613744580822" lon="9.243119041653884"><ele>60.0</ele><time>2026-03-28T14:45:24Z</time></trkpt><trkpt lat="45.10625001631439" lon="9.243099140171054"><ele>59.0</ele><time>2026-03-28T14:45:25Z</time></trkpt><trkpt lat="45.10636802584546" lon="9.243079612629991"><ele>58.0</ele><time>2026-03-28T14:45:26Z</time></trkpt><trkpt lat="45.10648914360385" lon="9.243058866267138"><ele>57.25</ele><time>2026-03-28T14:45:27Z</time></trkpt><trkpt lat="45.10661382378026" lon="9.243036579121318"><ele>56.5</ele><time>2026-03-28T14:45:28Z</time></trkpt><trkpt lat="45.106739553391975" lon="9.243006746666815"><ele>55.75</ele><time>2026-03-28T14:45:29Z</time></trkpt><trkpt lat="45.106869813556685" lon="9.242976999548816"><ele>55.0</ele><time>2026-03-28T14:45:30Z</time></trkpt><trkpt lat="45.107005554999134" lon="9.242944271417578"><ele>55.0</ele><time>2026-03-28T14:45:31Z</time></trkpt><trkpt lat="45.10714578986637" lon="9.242911300078053"><ele>55.0</ele><time>2026-03-28T14:45:32Z</time></trkpt><trkpt lat="45.1072850993186" lon="9.242879978448787"><ele>55.0</ele><time>2026-03-28T14:45:33Z</time></trkpt><trkpt lat="45.1074233377762" lon="9.24285076576624"><ele>55.0</ele><time>2026-03-28T14:45:34Z</time></trkpt><trkpt lat="45.107559533162565" lon="9.24281728441602"><ele>55.75</ele><time>2026-03-28T14:45:35Z</time></trkpt><trkpt lat="45.10769581798702" lon="9.242787182454348"><ele>56.5</ele><time>2026-03-28T14:45:36Z</time></trkpt><trkpt lat="45.107831312279444" lon="9.242757627119424"><ele>57.25</ele><time>2026-03-28T14:45:37Z</time></trkpt><trkpt lat="45.107960068438786" lon="9.242731139008564"><ele>58.0</ele><time>2026-03-28T14:45:38Z</time></trkpt><trkpt lat="45.108069529395145" lon="9.242714214154079"><ele>58.0</ele><time>2026-03-28T14:45:39Z</time></trkpt><trkpt lat="45.10817103076406" lon="9.242697814725755"><ele>58.0</ele><time>2026-03-28T14:45:40Z</time></trkpt><trkpt lat="45.10825251899482" lon="9.242684915246427"><ele>58.0</ele><time>2026-03-28T14:45:41Z</time></trkpt><trkpt lat="45.108347558318336" lon="9.242724744978007"><ele>58.0</ele><time>2026-03-28T14:45:43Z</time></trkpt><trkpt lat="45.10844650782378" lon="9.243044361868073"><ele>58.0</ele><time>2026-03-28T14:45:46Z</time></trkpt><trkpt lat="45.10849782675357" lon="9.243168495672604"><ele>58.0</ele><time>2026-03-28T14:45:47Z</time></trkpt><trkpt lat="45.10855666181466" lon="9.243293300619511"><ele>58.0</ele><time>2026-03-28T14:45:48Z</time></trkpt><trkpt lat="45.10862070204352" lon="9.243429171270295"><ele>58.0</ele><time>2026-03-28T14:45:49Z</time></trkpt><trkpt lat="45.10867645043858" lon="9.243566492018969"><ele>58.0</ele><time>2026-03-28T14:45:50Z</time></trkpt><trkpt lat="45.10872841596621" lon="9.24370307193845"><ele>58.0</ele><time>2026-03-28T14:45:51Z</time></trkpt><trkpt lat="45.1087708152961" lon="9.243779707366615"><ele>58.0</ele><time>2026-03-28T14:45:52Z</time></trkpt><trkpt lat="45.10882151209546" lon="9.24384612560816"><ele>58.0</ele><time>2026-03-28T14:45:53Z</time></trkpt><trkpt lat="45.108851289725145" lon="9.24396331003073"><ele>58.0</ele><time>2026-03-28T14:45:54Z</time></trkpt><trkpt lat="45.10894872775581" lon="9.244179179812427"><ele>58.0</ele><time>2026-03-28T14:45:55Z</time></trkpt><trkpt lat="45.10901304135524" lon="9.244326102742704"><ele>57.75</ele><time>2026-03-28T14:45:56Z</time></trkpt><trkpt lat="45.10908292146667" lon="9.244473071262393"><ele>57.5</ele><time>2026-03-28T14:45:57Z</time></trkpt><trkpt lat="45.10914336467972" lon="9.24461857389227"><ele>57.25</ele><time>2026-03-28T14:45:58Z</time></trkpt><trkpt lat="45.109225940932895" lon="9.244814985910601"><ele>57.0</ele><time>2026-03-28T14:45:59Z</time></trkpt><trkpt lat="45.10930367918356" lon="9.244994188280083"><ele>57.0</ele><time>2026-03-28T14:46:00Z</time></trkpt><trkpt lat="45.109369884676624" lon="9.24513563449108"><ele>57.0</ele><time>2026-03-28T14:46:01Z</time></trkpt><trkpt lat="45.109420426644235" lon="9.245256366045515"><ele>57.0</ele><time>2026-03-28T14:46:02Z</time></trkpt><trkpt lat="45.10946201475818" lon="9.245346661397118"><ele>57.0</ele><time>2026-03-28T14:46:03Z</time></trkpt><trkpt lat="45.10951454807453" lon="9.245449334984988"><ele>57.0</ele><time>2026-03-28T14:46:05Z</time></trkpt><trkpt lat="45.10957362291053" lon="9.245537049428563"><ele>57.0</ele><time>2026-03-28T14:46:08Z</time></trkpt><trkpt lat="45.10983500488432" lon="9.245447047718496"><ele>57.0</ele><time>2026-03-28T14:46:10Z</time></trkpt><trkpt lat="45.10993305523325" lon="9.245447786256433"><ele>57.0</ele><time>2026-03-28T14:46:11Z</time></trkpt><trkpt lat="45.11003425239646" lon="9.245448252673556"><ele>56.6</ele><time>2026-03-28T14:46:12Z</time></trkpt><trkpt lat="45.11014285330433" lon="9.24544704184552"><ele>56.2</ele><time>2026-03-28T14:46:13Z</time></trkpt><trkpt lat="45.11024977468302" lon="9.245445138731599"><ele>55.8</ele><time>2026-03-28T14:46:14Z</time></trkpt><trkpt lat="45.11034908402107" lon="9.245442437894516"><ele>55.4</ele><time>2026-03-28T14:46:15Z</time></trkpt><trkpt lat="45.11044451105158" lon="9.24543806499085"><ele>55.0</ele><time>2026-03-28T14:46:16Z</time></trkpt><trkpt lat="45.11054509686275" lon="9.245437275480299"><ele>55.0</ele><time>2026-03-28T14:46:17Z</time></trkpt><trkpt lat="45.11064403446606" lon="9.245432495585806"><ele>55.0</ele><time>2026-03-28T14:46:18Z</time></trkpt><trkpt lat="45.11074789240589" lon="9.245430056716891"><ele>55.0</ele><time>2026-03-28T14:46:19Z</time></trkpt><trkpt lat="45.11084381556214" lon="9.245426756140839"><ele>55.0</ele><time>2026-03-28T14:46:20Z</time></trkpt><trkpt lat="45.110936937638826" lon="9.245423876924518"><ele>55.0</ele><time>2026-03-28T14:46:21Z</time></trkpt><trkpt lat="45.11102162825725" lon="9.245422069782423"><ele>54.83333333333333</ele><time>2026-03-28T14:46:22Z</time></trkpt><trkpt lat="45.111097264625414" lon="9.245420261223757"><ele>54.666666666666664</ele><time>2026-03-28T14:46:23Z</time></trkpt><trkpt lat="45.111167925693024" lon="9.245418333070482"><ele>54.5</ele><time>2026-03-28T14:46:24Z</time></trkpt><trkpt lat="45.11125382881202" lon="9.24542185607723"><ele>54.33333333333333</ele><time>2026-03-28T14:46:25Z</time></trkpt><trkpt lat="45.11134663233011" lon="9.245433290111384"><ele>54.166666666666664</ele><time>2026-03-28T14:46:26Z</time></trkpt><trkpt lat="45.111449096074246" lon="9.24545807815085"><ele>54.0</ele><time>2026-03-28T14:46:27Z</time></trkpt><trkpt lat="45.111553656994374" lon="9.245488357974653"><ele>54.0</ele><time>2026-03-28T14:46:28Z</time></trkpt><trkpt lat="45.11165650484425" lon="9.245526294673871"><ele>54.00000000000001</ele><time>2026-03-28T14:46:29Z</time></trkpt><trkpt lat="45.11176203607521" lon="9.245559878125666"><ele>54.00000000000001</ele><time>2026-03-28T14:46:30Z</time></trkpt><trkpt lat="45.1118688924979" lon="9.245595408815348"><ele>54.0</ele><time>2026-03-28T14:46:31Z</time></trkpt><trkpt lat="45.11197927157201" lon="9.245627715817042"><ele>54.0</ele><time>2026-03-28T14:46:32Z</time></trkpt><trkpt lat="45.11209282986362" lon="9.245661394616441"><ele>54.0</ele><time>2026-03-28T14:46:33Z</time></trkpt><trkpt lat="45.11219626300277" lon="9.245694006936668"><ele>54.00000000000001</ele><time>2026-03-28T14:46:34Z</time></trkpt><trkpt lat="45.11229461767216" lon="9.245724076997142"><ele>54.00000000000001</ele><time>2026-03-28T14:46:35Z</time></trkpt><trkpt lat="45.11239196017492" lon="9.245755254677453"><ele>54.0</ele><time>2026-03-28T14:46:36Z</time></trkpt><trkpt lat="45.11249120098785" lon="9.245778000059206"><ele>54.0</ele><time>2026-03-28T14:46:37Z</time></trkpt><trkpt lat="45.11259836062959" lon="9.245815841862214"><ele>54.0</ele><time>2026-03-28T14:46:38Z</time></trkpt><trkpt lat="45.11270476308538" lon="9.245848385726562"><ele>54.00000000000001</ele><time>2026-03-28T14:46:39Z</time></trkpt><trkpt lat="45.11281996127577" lon="9.245882248684126"><ele>54.00000000000001</ele><time>2026-03-28T14:46:40Z</time></trkpt><trkpt lat="45.112923787974836" lon="9.245913751988887"><ele>54.0</ele><time>2026-03-28T14:46:41Z</time></trkpt><trkpt lat="45.113016455428664" lon="9.245941177988856"><ele>54.0</ele><time>2026-03-28T14:46:42Z</time></trkpt><trkpt lat="45.11310005716928" lon="9.24596477545915"><ele>54.0</ele><time>2026-03-28T14:46:43Z</time></trkpt><trkpt lat="45.11317985734095" lon="9.24598916781802"><ele>54.00000000000001</ele><time>2026-03-28T14:46:44Z</time></trkpt><trkpt lat="45.11325235864718" lon="9.246013204647443"><ele>54.00000000000001</ele><time>2026-03-28T14:46:45Z</time></trkpt><trkpt lat="45.113372711571884" lon="9.24607444865196"><ele>54.0</ele><time>2026-03-28T14:46:47Z</time></trkpt><trkpt lat="45.11350845705643" lon="9.246122881666246"><ele>54.0</ele><time>2026-03-28T14:46:49Z</time></trkpt><trkpt lat="45.11359436631832" lon="9.246148996963079"><ele>54.2</ele><time>2026-03-28T14:46:50Z</time></trkpt><trkpt lat="45.11368207995831" lon="9.246177733292553"><ele>54.400000000000006</ele><time>2026-03-28T14:46:51Z</time></trkpt><trkpt lat="45.113771473169116" lon="9.246202791640796"><ele>54.6</ele><time>2026-03-28T14:46:52Z</time></trkpt><trkpt lat="45.11386184632782" lon="9.246230786176246"><ele>54.8</ele><time>2026-03-28T14:46:53Z</time></trkpt><trkpt lat="45.113958429032465" lon="9.246259760586174"><ele>55.0</ele><time>2026-03-28T14:46:54Z</time></trkpt><trkpt lat="45.114058521437144" lon="9.246286922732418"><ele>54.99999999999999</ele><time>2026-03-28T14:46:55Z</time></trkpt><trkpt lat="45.11415336674109" lon="9.24631446858099"><ele>55.0</ele><time>2026-03-28T14:46:56Z</time></trkpt><trkpt lat="45.114251563318966" lon="9.24634307636098"><ele>55.0</ele><time>2026-03-28T14:46:57Z</time></trkpt><trkpt lat="45.11434731735449" lon="9.24637156655767"><ele>55.0</ele><time>2026-03-28T14:46:58Z</time></trkpt><trkpt lat="45.11442829478637" lon="9.246395993427091"><ele>54.99999999999999</ele><time>2026-03-28T14:46:59Z</time></trkpt><trkpt lat="45.11449600260339" lon="9.24641501396326"><ele>55.0</ele><time>2026-03-28T14:47:00Z</time></trkpt><trkpt lat="45.114577243925005" lon="9.24644345298919"><ele>54.99999999999999</ele><time>2026-03-28T14:47:01Z</time></trkpt><trkpt lat="45.11465659538863" lon="9.246470327328701"><ele>55.0</ele><time>2026-03-28T14:47:02Z</time></trkpt><trkpt lat="45.11473690674528" lon="9.246491802742458"><ele>55.0</ele><time>2026-03-28T14:47:03Z</time></trkpt><trkpt lat="45.114805259561685" lon="9.246515803800998"><ele>55.0</ele><time>2026-03-28T14:47:04Z</time></trkpt><trkpt lat="45.11487984410059" lon="9.246537424915838"><ele>54.99999999999999</ele><time>2026-03-28T14:47:05Z</time></trkpt><trkpt lat="45.11495500281007" lon="9.246556272440484"><ele>55.0</ele><time>2026-03-28T14:47:06Z</time></trkpt><trkpt lat="45.11503312143942" lon="9.246581977852543"><ele>54.99999999999999</ele><time>2026-03-28T14:47:07Z</time></trkpt><trkpt lat="45.115112607895156" lon="9.246606989191486"><ele>55.0</ele><time>2026-03-28T14:47:08Z</time></trkpt><trkpt lat="45.115188027746385" lon="9.24662979263457"><ele>55.0</ele><time>2026-03-28T14:47:09Z</time></trkpt><trkpt lat="45.11526490272863" lon="9.246651874914843"><ele>55.0</ele><time>2026-03-28T14:47:10Z</time></trkpt><trkpt lat="45.11534774240723" lon="9.24667206251783"><ele>54.99999999999999</ele><time>2026-03-28T14:47:11Z</time></trkpt><trkpt lat="45.11543350067777" lon="9.24667889106983"><ele>55.0</ele><time>2026-03-28T14:47:12Z</time></trkpt><trkpt lat="45.115511031108284" lon="9.246676303066904"><ele>54.99999999999999</ele><time>2026-03-28T14:47:13Z</time></trkpt><trkpt lat="45.11559629808648" lon="9.246677757300645"><ele>55.0</ele><time>2026-03-28T14:47:14Z</time></trkpt><trkpt lat="45.1156795369682" lon="9.246683059570572"><ele>55.0</ele><time>2026-03-28T14:47:15Z</time></trkpt><trkpt lat="45.115756404729886" lon="9.246679927976691"><ele>55.0</ele><time>2026-03-28T14:47:16Z</time></trkpt><trkpt lat="45.11584639917801" lon="9.246683518409755"><ele>54.99999999999999</ele><time>2026-03-28T14:47:17Z</time></trkpt><trkpt lat="45.11594122848895" lon="9.24668099110601"><ele>55.0</ele><time>2026-03-28T14:47:18Z</time></trkpt><trkpt lat="45.11602683052691" lon="9.246673300574724"><ele>54.99999999999999</ele><time>2026-03-28T14:47:19Z</time></trkpt><trkpt lat="45.11609735941293" lon="9.246671050204716"><ele>55.0</ele><time>2026-03-28T14:47:20Z</time></trkpt><trkpt lat="45.116168726960936" lon="9.246671011987619"><ele>55.0</ele><time>2026-03-28T14:47:21Z</time></trkpt><trkpt lat="45.11624746301263" lon="9.246668215990983"><ele>55.0</ele><time>2026-03-28T14:47:22Z</time></trkpt><trkpt lat="45.11632511424334" lon="9.246666948689596"><ele>54.99999999999999</ele><time>2026-03-28T14:47:23Z</time></trkpt><trkpt lat="45.11640411909334" lon="9.246664813791083"><ele>55.0</ele><time>2026-03-28T14:47:24Z</time></trkpt><trkpt lat="45.11648602959392" lon="9.246662556945195"><ele>54.83333333333333</ele><time>2026-03-28T14:47:25Z</time></trkpt><trkpt lat="45.11657137175873" lon="9.246658448971344"><ele>54.666666666666664</ele><time>2026-03-28T14:47:26Z</time></trkpt><trkpt lat="45.11665649244261" lon="9.246657615075542"><ele>54.5</ele><time>2026-03-28T14:47:27Z</time></trkpt><trkpt lat="45.11673672416069" lon="9.24665561635934"><ele>54.33333333333333</ele><time>2026-03-28T14:47:28Z</time></trkpt><trkpt lat="45.11681918158157" lon="9.246654196692447"><ele>54.166666666666664</ele><time>2026-03-28T14:47:29Z</time></trkpt><trkpt lat="45.11690131734988" lon="9.24665040071083"><ele>54.0</ele><time>2026-03-28T14:47:30Z</time></trkpt><trkpt lat="45.11699091518956" lon="9.246649294784296"><ele>54.0</ele><time>2026-03-28T14:47:31Z</time></trkpt><trkpt lat="45.11707870765826" lon="9.24664484712647"><ele>54.0</ele><time>2026-03-28T14:47:32Z</time></trkpt><trkpt lat="45.11716383833502" lon="9.246643746508207"><ele>54.0</ele><time>2026-03-28T14:47:33Z</time></trkpt><trkpt lat="45.117243133415634" lon="9.246637021801874"><ele>54.0</ele><time>2026-03-28T14:47:34Z</time></trkpt><trkpt lat="45.11732552600845" lon="9.246639342473557"><ele>54.0</ele><time>2026-03-28T14:47:35Z</time></trkpt><trkpt lat="45.11740310781399" lon="9.246637539253937"><ele>54.0</ele><time>2026-03-28T14:47:36Z</time></trkpt><trkpt lat="45.11748453468193" lon="9.24663706184603"><ele>54.0</ele><time>2026-03-28T14:47:37Z</time></trkpt><trkpt lat="45.11757156912763" lon="9.246634254306208"><ele>54.0</ele><time>2026-03-28T14:47:38Z</time></trkpt><trkpt lat="45.11765216721521" lon="9.24663234103406"><ele>54.0</ele><time>2026-03-28T14:47:39Z</time></trkpt><trkpt lat="45.117730975733295" lon="9.24662968104589"><ele>54.0</ele><time>2026-03-28T14:47:40Z</time></trkpt><trkpt lat="45.117804260646615" lon="9.246629570113502"><ele>54.0</ele><time>2026-03-28T14:47:41Z</time></trkpt><trkpt lat="45.117867877990534" lon="9.246626523478596"><ele>54.0</ele><time>2026-03-28T14:47:42Z</time></trkpt><trkpt lat="45.11793740421017" lon="9.246622654316875"><ele>54.0</ele><time>2026-03-28T14:47:43Z</time></trkpt><trkpt lat="45.11802064675612" lon="9.246620035797198"><ele>54.0</ele><time>2026-03-28T14:47:44Z</time></trkpt><trkpt lat="45.11809911183757" lon="9.24661946077066"><ele>54.0</ele><time>2026-03-28T14:47:45Z</time></trkpt><trkpt lat="45.118173121713774" lon="9.246615402820353"><ele>54.0</ele><time>2026-03-28T14:47:46Z</time></trkpt><trkpt lat="45.11824999857146" lon="9.246613318709585"><ele>54.0</ele><time>2026-03-28T14:47:47Z</time></trkpt><trkpt lat="45.118324102042095" lon="9.246607895552646"><ele>54.0</ele><time>2026-03-28T14:47:48Z</time></trkpt><trkpt lat="45.11840003811251" lon="9.24660575603195"><ele>54.333333333333336</ele><time>2026-03-28T14:47:49Z</time></trkpt><trkpt lat="45.11846335274173" lon="9.246602043854415"><ele>54.66666666666667</ele><time>2026-03-28T14:47:50Z</time></trkpt><trkpt lat="45.118575585320606" lon="9.24659495057321"><ele>55.0</ele><time>2026-03-28T14:47:52Z</time></trkpt><trkpt lat="45.11863960767154" lon="9.246588034265033"><ele>55.333333333333336</ele><time>2026-03-28T14:47:54Z</time></trkpt><trkpt lat="45.11870210261433" lon="9.246680405504762"><ele>55.66666666666667</ele><time>2026-03-28T14:48:11Z</time></trkpt><trkpt lat="45.11872600210015" lon="9.246771779302831"><ele>56.0</ele><time>2026-03-28T14:48:12Z</time></trkpt><trkpt lat="45.11876275804499" lon="9.246883135368659"><ele>56.00000000000001</ele><time>2026-03-28T14:48:13Z</time></trkpt><trkpt lat="45.11878245435956" lon="9.246977284763808"><ele>56.0</ele><time>2026-03-28T14:48:14Z</time></trkpt><trkpt lat="45.11881092682166" lon="9.247065537210442"><ele>56.0</ele><time>2026-03-28T14:48:15Z</time></trkpt><trkpt lat="45.11886062118442" lon="9.247158860042056"><ele>56.0</ele><time>2026-03-28T14:48:16Z</time></trkpt><trkpt lat="45.11889070092417" lon="9.247266076286627"><ele>56.00000000000001</ele><time>2026-03-28T14:48:17Z</time></trkpt><trkpt lat="45.11893630312717" lon="9.247411767587582"><ele>56.0</ele><time>2026-03-28T14:48:18Z</time></trkpt><trkpt lat="45.11897674513271" lon="9.247532224090458"><ele>56.0</ele><time>2026-03-28T14:48:19Z</time></trkpt><trkpt lat="45.11901439333987" lon="9.247648865539473"><ele>55.99999999999999</ele><time>2026-03-28T14:48:20Z</time></trkpt><trkpt lat="45.11905581127001" lon="9.247778710737212"><ele>55.99999999999999</ele><time>2026-03-28T14:48:21Z</time></trkpt><trkpt lat="45.11910041910158" lon="9.247918194024498"><ele>56.0</ele><time>2026-03-28T14:48:22Z</time></trkpt><trkpt lat="45.1191416023488" lon="9.248043634922613"><ele>56.0</ele><time>2026-03-28T14:48:23Z</time></trkpt><trkpt lat="45.11918513902722" lon="9.248157926469261"><ele>55.8</ele><time>2026-03-28T14:48:24Z</time></trkpt><trkpt lat="45.11922372243507" lon="9.248278406855745"><ele>55.599999999999994</ele><time>2026-03-28T14:48:25Z</time></trkpt><trkpt lat="45.11926476031356" lon="9.248426789621394"><ele>55.4</ele><time>2026-03-28T14:48:26Z</time></trkpt><trkpt lat="45.11930038509229" lon="9.248554518103088"><ele>55.2</ele><time>2026-03-28T14:48:27Z</time></trkpt><trkpt lat="45.11935955628274" lon="9.2487272281457"><ele>55.0</ele><time>2026-03-28T14:48:28Z</time></trkpt><trkpt lat="45.11941230064666" lon="9.248886538504872"><ele>54.8</ele><time>2026-03-28T14:48:29Z</time></trkpt><trkpt lat="45.119456645090196" lon="9.249008110034744"><ele>54.6</ele><time>2026-03-28T14:48:30Z</time></trkpt><trkpt lat="45.11949573832029" lon="9.249125063089359"><ele>54.400000000000006</ele><time>2026-03-28T14:48:31Z</time></trkpt><trkpt lat="45.11952715773559" lon="9.249240659799408"><ele>54.2</ele><time>2026-03-28T14:48:32Z</time></trkpt><trkpt lat="45.1195717503282" lon="9.249383122045312"><ele>54.0</ele><time>2026-03-28T14:48:33Z</time></trkpt><trkpt lat="45.119610138371904" lon="9.249526787610527"><ele>54.0</ele><time>2026-03-28T14:48:34Z</time></trkpt><trkpt lat="45.119660579196285" lon="9.249695992676148"><ele>54.0</ele><time>2026-03-28T14:48:35Z</time></trkpt><trkpt lat="45.11971456123152" lon="9.249865587504292"><ele>54.0</ele><time>2026-03-28T14:48:36Z</time></trkpt><trkpt lat="45.11975239132677" lon="9.250007173395087"><ele>54.0</ele><time>2026-03-28T14:48:37Z</time></trkpt><trkpt lat="45.1197921049137" lon="9.250144554076492"><ele>54.0</ele><time>2026-03-28T14:48:38Z</time></trkpt><trkpt lat="45.11983985454604" lon="9.250279715552994"><ele>54.0</ele><time>2026-03-28T14:48:39Z</time></trkpt><trkpt lat="45.11989906555744" lon="9.250434350709586"><ele>54.0</ele><time>2026-03-28T14:48:40Z</time></trkpt><trkpt lat="45.11994644787234" lon="9.250589389373195"><ele>54.0</ele><time>2026-03-28T14:48:41Z</time></trkpt><trkpt lat="45.11999649674462" lon="9.250762417116631"><ele>54.25</ele><time>2026-03-28T14:48:42Z</time></trkpt><trkpt lat="45.12004876375854" lon="9.250952512373665"><ele>54.5</ele><time>2026-03-28T14:48:43Z</time></trkpt><trkpt lat="45.12010272672304" lon="9.251116788738269"><ele>54.75</ele><time>2026-03-28T14:48:44Z</time></trkpt><trkpt lat="45.12016357197297" lon="9.25128102240629"><ele>55.0</ele><time>2026-03-28T14:48:45Z</time></trkpt><trkpt lat="45.120216486799" lon="9.251449695199076"><ele>54.75</ele><time>2026-03-28T14:48:46Z</time></trkpt><trkpt lat="45.1202793390296" lon="9.251651466300746"><ele>54.5</ele><time>2026-03-28T14:48:47Z</time></trkpt><trkpt lat="45.12030833136326" lon="9.251758002528971"><ele>54.25</ele><time>2026-03-28T14:48:48Z</time></trkpt><trkpt lat="45.12034106336567" lon="9.251898018443002"><ele>54.0</ele><time>2026-03-28T14:48:49Z</time></trkpt><trkpt lat="45.12039675822715" lon="9.25207159227534"><ele>54.0</ele><time>2026-03-28T14:48:50Z</time></trkpt><trkpt lat="45.12044551731822" lon="9.252237323013482"><ele>54.0</ele><time>2026-03-28T14:48:51Z</time></trkpt><trkpt lat="45.120493875258894" lon="9.25238699417954"><ele>54.0</ele><time>2026-03-28T14:48:52Z</time></trkpt><trkpt lat="45.12054144326923" lon="9.252530249287883"><ele>54.0</ele><time>2026-03-28T14:48:53Z</time></trkpt><trkpt lat="45.12059881863108" lon="9.252698701625402"><ele>54.0</ele><time>2026-03-28T14:48:54Z</time></trkpt><trkpt lat="45.12064957467916" lon="9.252856842759854"><ele>54.0</ele><time>2026-03-28T14:48:55Z</time></trkpt><trkpt lat="45.12070132055555" lon="9.253016722226178"><ele>54.0</ele><time>2026-03-28T14:48:56Z</time></trkpt><trkpt lat="45.120754248482136" lon="9.253185441815212"><ele>54.0</ele><time>2026-03-28T14:48:57Z</time></trkpt><trkpt lat="45.12080687258975" lon="9.253356814763281"><ele>54.0</ele><time>2026-03-28T14:48:58Z</time></trkpt><trkpt lat="45.12084252541678" lon="9.253496066748795"><ele>54.0</ele><time>2026-03-28T14:48:59Z</time></trkpt><trkpt lat="45.120897812168" lon="9.253655840702171"><ele>54.0</ele><time>2026-03-28T14:49:00Z</time></trkpt><trkpt lat="45.12094537400156" lon="9.253803164575853"><ele>54.0</ele><time>2026-03-28T14:49:01Z</time></trkpt><trkpt lat="45.12098271575496" lon="9.253951608776838"><ele>54.0</ele><time>2026-03-28T14:49:02Z</time></trkpt><trkpt lat="45.12102781951981" lon="9.25408199491501"><ele>54.00000000000001</ele><time>2026-03-28T14:49:03Z</time></trkpt><trkpt lat="45.121075228325914" lon="9.254194306379135"><ele>54.00000000000001</ele><time>2026-03-28T14:49:04Z</time></trkpt><trkpt lat="45.121117630501736" lon="9.254334539044107"><ele>54.0</ele><time>2026-03-28T14:49:05Z</time></trkpt><trkpt lat="45.12116343523252" lon="9.254488366017137"><ele>54.0</ele><time>2026-03-28T14:49:06Z</time></trkpt><trkpt lat="45.121203070421835" lon="9.254633148486747"><ele>53.75</ele><time>2026-03-28T14:49:07Z</time></trkpt><trkpt lat="45.12125580908157" lon="9.254788348153092"><ele>53.5</ele><time>2026-03-28T14:49:08Z</time></trkpt><trkpt lat="45.12131160992355" lon="9.254968186279878"><ele>53.25</ele><time>2026-03-28T14:49:09Z</time></trkpt><trkpt lat="45.12137306725556" lon="9.255136900447981"><ele>53.0</ele><time>2026-03-28T14:49:10Z</time></trkpt><trkpt lat="45.121435828887385" lon="9.25530854892528"><ele>53.0</ele><time>2026-03-28T14:49:11Z</time></trkpt><trkpt lat="45.121512514342776" lon="9.255468934018984"><ele>53.0</ele><time>2026-03-28T14:49:12Z</time></trkpt><trkpt lat="45.121548170230135" lon="9.255681505878758"><ele>53.0</ele><time>2026-03-28T14:49:14Z</time></trkpt><trkpt lat="45.121578690637904" lon="9.25580861425649"><ele>53.0</ele><time>2026-03-28T14:49:15Z</time></trkpt><trkpt lat="45.1216116746716" lon="9.25593556721344"><ele>53.16666666666667</ele><time>2026-03-28T14:49:16Z</time></trkpt><trkpt lat="45.12163677712623" lon="9.256050121336154"><ele>53.333333333333336</ele><time>2026-03-28T14:49:17Z</time></trkpt><trkpt lat="45.12167766769205" lon="9.256159068580184"><ele>53.5</ele><time>2026-03-28T14:49:18Z</time></trkpt><trkpt lat="45.1217232063408" lon="9.256281125764703"><ele>53.66666666666667</ele><time>2026-03-28T14:49:19Z</time></trkpt><trkpt lat="45.121748558074806" lon="9.256382669465477"><ele>53.833333333333336</ele><time>2026-03-28T14:49:20Z</time></trkpt><trkpt lat="45.12178896757911" lon="9.25647748777534"><ele>54.0</ele><time>2026-03-28T14:49:21Z</time></trkpt><trkpt lat="45.12183081220793" lon="9.25662928688063"><ele>54.0</ele><time>2026-03-28T14:49:23Z</time></trkpt><trkpt lat="45.121871450348976" lon="9.256715300547365"><ele>54.0</ele><time>2026-03-28T14:49:24Z</time></trkpt><trkpt lat="45.12189068784049" lon="9.25681243836988"><ele>54.0</ele><time>2026-03-28T14:49:25Z</time></trkpt><trkpt lat="45.12192688834908" lon="9.256926053832526"><ele>54.0</ele><time>2026-03-28T14:49:26Z</time></trkpt><trkpt lat="45.12197088327361" lon="9.257054048488284"><ele>54.0</ele><time>2026-03-28T14:49:27Z</time></trkpt><trkpt lat="45.12199907582475" lon="9.257153953388434"><ele>54.0</ele><time>2026-03-28T14:49:28Z</time></trkpt><trkpt lat="45.122049976666865" lon="9.25729697381086"><ele>54.0</ele><time>2026-03-28T14:49:30Z</time></trkpt><trkpt lat="45.122077119369585" lon="9.257389980291341"><ele>54.0</ele><time>2026-03-28T14:49:31Z</time></trkpt><trkpt lat="45.12210647173442" lon="9.257493303813623"><ele>54.0</ele><time>2026-03-28T14:49:32Z</time></trkpt><trkpt lat="45.122137333232615" lon="9.257603607474099"><ele>54.0</ele><time>2026-03-28T14:49:33Z</time></trkpt><trkpt lat="45.12216944918412" lon="9.257698401432188"><ele>54.0</ele><time>2026-03-28T14:49:34Z</time></trkpt><trkpt lat="45.12219949215168" lon="9.257789116501868"><ele>54.0</ele><time>2026-03-28T14:49:35Z</time></trkpt><trkpt lat="45.12223443992939" lon="9.257904224887369"><ele>54.0</ele><time>2026-03-28T14:49:36Z</time></trkpt><trkpt lat="45.12226958061659" lon="9.258019400000931"><ele>54.00000000000001</ele><time>2026-03-28T14:49:37Z</time></trkpt><trkpt lat="45.12231802518265" lon="9.258171101842802"><ele>54.00000000000001</ele><time>2026-03-28T14:49:38Z</time></trkpt><trkpt lat="45.122358007692725" lon="9.258296666454592"><ele>54.0</ele><time>2026-03-28T14:49:39Z</time></trkpt><trkpt lat="45.122394283158656" lon="9.258424507259665"><ele>54.0</ele><time>2026-03-28T14:49:40Z</time></trkpt><trkpt lat="45.122444893026554" lon="9.258570022358091"><ele>54.0</ele><time>2026-03-28T14:49:41Z</time></trkpt><trkpt lat="45.122496288489245" lon="9.258721838452066"><ele>54.00000000000001</ele><time>2026-03-28T14:49:42Z</time></trkpt><trkpt lat="45.12253724943389" lon="9.2588541607867"><ele>54.00000000000001</ele><time>2026-03-28T14:49:43Z</time></trkpt><trkpt lat="45.12258505098988" lon="9.259000559787932"><ele>54.0</ele><time>2026-03-28T14:49:44Z</time></trkpt><trkpt lat="45.122635184845144" lon="9.259134146902301"><ele>54.0</ele><time>2026-03-28T14:49:45Z</time></trkpt><trkpt lat="45.122691196640346" lon="9.259296960349047"><ele>54.0</ele><time>2026-03-28T14:49:46Z</time></trkpt><trkpt lat="45.12274949127515" lon="9.2594917960847"><ele>54.0</ele><time>2026-03-28T14:49:48Z</time></trkpt><trkpt lat="45.122784478688864" lon="9.259620051467657"><ele>54.0</ele><time>2026-03-28T14:49:49Z</time></trkpt><trkpt lat="45.12285015792276" lon="9.259774268411618"><ele>54.0</ele><time>2026-03-28T14:49:50Z</time></trkpt><trkpt lat="45.12290569864833" lon="9.259922219337637"><ele>54.2</ele><time>2026-03-28T14:49:51Z</time></trkpt><trkpt lat="45.122959769107325" lon="9.260078974045344"><ele>54.400000000000006</ele><time>2026-03-28T14:49:52Z</time></trkpt><trkpt lat="45.122994668279254" lon="9.260197494289068"><ele>54.6</ele><time>2026-03-28T14:49:53Z</time></trkpt><trkpt lat="45.123033995820755" lon="9.26031597554063"><ele>54.8</ele><time>2026-03-28T14:49:54Z</time></trkpt><trkpt lat="45.12306631557721" lon="9.260414885111393"><ele>55.0</ele><time>2026-03-28T14:49:55Z</time></trkpt><trkpt lat="45.12309021181504" lon="9.26052070078533"><ele>54.99999999999999</ele><time>2026-03-28T14:49:56Z</time></trkpt><trkpt lat="45.123121009442265" lon="9.260635923771723"><ele>55.0</ele><time>2026-03-28T14:49:57Z</time></trkpt><trkpt lat="45.12314343517266" lon="9.260745859901327"><ele>55.0</ele><time>2026-03-28T14:49:58Z</time></trkpt><trkpt lat="45.1231436830053" lon="9.26085701203029"><ele>55.0</ele><time>2026-03-28T14:49:59Z</time></trkpt><trkpt lat="45.12312088502653" lon="9.260963893304066"><ele>54.99999999999999</ele><time>2026-03-28T14:50:00Z</time></trkpt><trkpt lat="45.12307185762421" lon="9.261031908488997"><ele>55.0</ele><time>2026-03-28T14:50:01Z</time></trkpt><trkpt lat="45.12301807030833" lon="9.26111119782001"><ele>54.99999999999999</ele><time>2026-03-28T14:50:02Z</time></trkpt><trkpt lat="45.12295362160948" lon="9.2611629846478"><ele>55.0</ele><time>2026-03-28T14:50:03Z</time></trkpt><trkpt lat="45.12289564314579" lon="9.261230668194068"><ele>55.0</ele><time>2026-03-28T14:50:04Z</time></trkpt><trkpt lat="45.1228673843426" lon="9.261366987273327"><ele>55.0</ele><time>2026-03-28T14:50:06Z</time></trkpt><trkpt lat="45.1229491328076" lon="9.261365136123644"><ele>54.99999999999999</ele><time>2026-03-28T14:51:00Z</time></trkpt><trkpt lat="45.12303583623505" lon="9.261281650999614"><ele>55.0</ele><time>2026-03-28T14:51:02Z</time></trkpt><trkpt lat="45.123138843211684" lon="9.261188457432088"><ele>55.0</ele><time>2026-03-28T14:51:04Z</time></trkpt><trkpt lat="45.123222795333525" lon="9.261124450646529"><ele>55.0</ele><time>2026-03-28T14:51:06Z</time></trkpt><trkpt lat="45.123292474163534" lon="9.261147704671243"><ele>55.0</ele><time>2026-03-28T14:51:08Z</time></trkpt><trkpt lat="45.12334652619187" lon="9.261377390497522"><ele>55.0</ele><time>2026-03-28T14:51:11Z</time></trkpt><trkpt lat="45.12335844630705" lon="9.261472581812887"><ele>55.0</ele><time>2026-03-28T14:51:12Z</time></trkpt><trkpt lat="45.123390964662676" lon="9.2616005051521"><ele>56.0</ele><time>2026-03-28T14:51:13Z</time></trkpt><trkpt lat="45.12340935038214" lon="9.261719737672912"><ele>57.0</ele><time>2026-03-28T14:51:14Z</time></trkpt><trkpt lat="45.12343049189498" lon="9.261837105194598"><ele>58.0</ele><time>2026-03-28T14:51:15Z</time></trkpt><trkpt lat="45.12345170007093" lon="9.261942910122636"><ele>59.0</ele><time>2026-03-28T14:51:16Z</time></trkpt><trkpt lat="45.12347461255788" lon="9.262068571133641"><ele>60.0</ele><time>2026-03-28T14:51:17Z</time></trkpt><trkpt lat="45.12349107743213" lon="9.26225162210291"><ele>59.6</ele><time>2026-03-28T14:51:19Z</time></trkpt><trkpt lat="45.12353067931194" lon="9.262403461641924"><ele>59.2</ele><time>2026-03-28T14:51:21Z</time></trkpt><trkpt lat="45.12353190984428" lon="9.262509692341608"><ele>58.8</ele><time>2026-03-28T14:51:23Z</time></trkpt><trkpt lat="45.12355486698319" lon="9.262613220043166"><ele>58.4</ele><time>2026-03-28T14:51:25Z</time></trkpt><trkpt lat="45.123657237966164" lon="9.262706098983676"><ele>58.0</ele><time>2026-03-28T14:51:27Z</time></trkpt><trkpt lat="45.12373713409009" lon="9.26259374576738"><ele>58.0</ele><time>2026-03-28T14:51:29Z</time></trkpt><trkpt lat="45.123781323900836" lon="9.262506831234"><ele>58.0</ele><time>2026-03-28T14:51:31Z</time></trkpt><trkpt lat="45.1237239837475" lon="9.262601732487164"><ele>58.0</ele><time>2026-03-28T14:52:32Z</time></trkpt><trkpt lat="45.12365799202916" lon="9.262681737429348"><ele>58.0</ele><time>2026-03-28T14:52:35Z</time></trkpt><trkpt lat="45.12351418067721" lon="9.262179351339455"><ele>58.33333333333333</ele><time>2026-03-28T14:52:43Z</time></trkpt><trkpt lat="45.123485943714854" lon="9.262070925639836"><ele>58.666666666666664</ele><time>2026-03-28T14:52:45Z</time></trkpt><trkpt lat="45.12346207970443" lon="9.261965797746056"><ele>59.0</ele><time>2026-03-28T14:52:47Z</time></trkpt><trkpt lat="45.12343735550034" lon="9.261848387200764"><ele>59.33333333333333</ele><time>2026-03-28T14:52:49Z</time></trkpt><trkpt lat="45.12341731873817" lon="9.26172707666384"><ele>59.666666666666664</ele><time>2026-03-28T14:52:51Z</time></trkpt><trkpt lat="45.12339720640554" lon="9.261604088496407"><ele>60.0</ele><time>2026-03-28T14:52:53Z</time></trkpt><trkpt lat="45.123375952177945" lon="9.261480189090136"><ele>59.833333333333336</ele><time>2026-03-28T14:52:55Z</time></trkpt><trkpt lat="45.123345514045454" lon="9.261372271122408"><ele>59.66666666666667</ele><time>2026-03-28T14:52:57Z</time></trkpt><trkpt lat="45.123326271149736" lon="9.26126178903077"><ele>59.5</ele><time>2026-03-28T14:52:59Z</time></trkpt><trkpt lat="45.12329680588138" lon="9.261159145493739"><ele>59.333333333333336</ele><time>2026-03-28T14:53:01Z</time></trkpt><trkpt lat="45.1232113131332" lon="9.261105070912443"><ele>59.16666666666667</ele><time>2026-03-28T14:53:03Z</time></trkpt><trkpt lat="45.12311030584714" lon="9.26118385220743"><ele>59.0</ele><time>2026-03-28T14:53:05Z</time></trkpt><trkpt lat="45.123045171904515" lon="9.261251920177898"><ele>58.333333333333336</ele><time>2026-03-28T14:53:07Z</time></trkpt><trkpt lat="45.12299192039156" lon="9.261309400846777"><ele>57.66666666666667</ele><time>2026-03-28T14:53:09Z</time></trkpt><trkpt lat="45.12293374552348" lon="9.261355221296563"><ele>57.0</ele><time>2026-03-28T14:53:12Z</time></trkpt><trkpt lat="45.12286405924616" lon="9.261297222438639"><ele>56.33333333333333</ele><time>2026-03-28T14:54:44Z</time></trkpt><trkpt lat="45.122901845664266" lon="9.26118094663105"><ele>55.666666666666664</ele><time>2026-03-28T14:54:46Z</time></trkpt><trkpt lat="45.12295980458917" lon="9.261126819925764"><ele>55.0</ele><time>2026-03-28T14:54:47Z</time></trkpt><trkpt lat="45.12307977650532" lon="9.26124276451454"><ele>55.0</ele><time>2026-03-28T14:54:48Z</time></trkpt><trkpt lat="45.12316855917327" lon="9.261171333195069"><ele>55.0</ele><time>2026-03-28T14:54:50Z</time></trkpt><trkpt lat="45.12323622505752" lon="9.261118664619623"><ele>55.0</ele><time>2026-03-28T14:54:52Z</time></trkpt><trkpt lat="45.12326935265373" lon="9.26104276104288"><ele>55.0</ele><time>2026-03-28T14:54:55Z</time></trkpt><trkpt lat="45.1231198955604" lon="9.260640591837905"><ele>55.0</ele><time>2026-03-28T14:54:56Z</time></trkpt><trkpt lat="45.123091422679224" lon="9.260536068812621"><ele>55.0</ele><time>2026-03-28T14:54:58Z</time></trkpt><trkpt lat="45.123062267768894" lon="9.260408445254397"><ele>55.0</ele><time>2026-03-28T14:55:00Z</time></trkpt><trkpt lat="45.12302809278088" lon="9.260301945352097"><ele>55.0</ele><time>2026-03-28T14:55:01Z</time></trkpt><trkpt lat="45.1229785223459" lon="9.260158417054539"><ele>55.0</ele><time>2026-03-28T14:55:02Z</time></trkpt><trkpt lat="45.12293598750265" lon="9.26003632428234"><ele>55.0</ele><time>2026-03-28T14:55:03Z</time></trkpt><trkpt lat="45.12290894321445" lon="9.259935878142494"><ele>55.0</ele><time>2026-03-28T14:55:04Z</time></trkpt><trkpt lat="45.12285931082212" lon="9.25978834460749"><ele>55.0</ele><time>2026-03-28T14:55:06Z</time></trkpt><trkpt lat="45.12282171460994" lon="9.259669304732098"><ele>55.0</ele><time>2026-03-28T14:55:08Z</time></trkpt><trkpt lat="45.12277248730246" lon="9.259530153068672"><ele>55.0</ele><time>2026-03-28T14:55:10Z</time></trkpt><trkpt lat="45.122746191275084" lon="9.25944501888988"><ele>54.83333333333333</ele><time>2026-03-28T14:55:11Z</time></trkpt><trkpt lat="45.12271734735637" lon="9.259346969804149"><ele>54.666666666666664</ele><time>2026-03-28T14:55:12Z</time></trkpt><trkpt lat="45.12268259402066" lon="9.259241737739904"><ele>54.5</ele><time>2026-03-28T14:55:13Z</time></trkpt><trkpt lat="45.12265107176177" lon="9.259136740960116"><ele>54.33333333333333</ele><time>2026-03-28T14:55:14Z</time></trkpt><trkpt lat="45.12261669315355" lon="9.259033597935957"><ele>54.166666666666664</ele><time>2026-03-28T14:55:15Z</time></trkpt><trkpt lat="45.12257946052752" lon="9.258909562291532"><ele>54.0</ele><time>2026-03-28T14:55:16Z</time></trkpt><trkpt lat="45.122535019752405" lon="9.258776982288909"><ele>54.0</ele><time>2026-03-28T14:55:17Z</time></trkpt><trkpt lat="45.12248991321305" lon="9.258636976347661"><ele>54.00000000000001</ele><time>2026-03-28T14:55:18Z</time></trkpt><trkpt lat="45.122444916921104" lon="9.258506169941677"><ele>54.00000000000001</ele><time>2026-03-28T14:55:19Z</time></trkpt><trkpt lat="45.12240205117113" lon="9.25836193194312"><ele>54.0</ele><time>2026-03-28T14:55:20Z</time></trkpt><trkpt lat="45.122357489412515" lon="9.258217550309883"><ele>54.0</ele><time>2026-03-28T14:55:21Z</time></trkpt><trkpt lat="45.12231185322352" lon="9.258085232019834"><ele>54.0</ele><time>2026-03-28T14:55:22Z</time></trkpt><trkpt lat="45.12226617006917" lon="9.257946642188099"><ele>54.0</ele><time>2026-03-28T14:55:23Z</time></trkpt><trkpt lat="45.12221744594516" lon="9.257805169713402"><ele>54.0</ele><time>2026-03-28T14:55:24Z</time></trkpt><trkpt lat="45.12217295424405" lon="9.257655859846983"><ele>54.0</ele><time>2026-03-28T14:55:25Z</time></trkpt><trkpt lat="45.12212323677153" lon="9.257503238119595"><ele>54.0</ele><time>2026-03-28T14:55:26Z</time></trkpt><trkpt lat="45.12207242202757" lon="9.257349825529428"><ele>54.0</ele><time>2026-03-28T14:55:27Z</time></trkpt><trkpt lat="45.12202266480248" lon="9.257190175285515"><ele>54.0</ele><time>2026-03-28T14:55:28Z</time></trkpt><trkpt lat="45.12196630119433" lon="9.257014832514816"><ele>54.0</ele><time>2026-03-28T14:55:29Z</time></trkpt><trkpt lat="45.12191638321089" lon="9.256839519490905"><ele>54.0</ele><time>2026-03-28T14:55:30Z</time></trkpt><trkpt lat="45.121859776843806" lon="9.256659240478823"><ele>54.0</ele><time>2026-03-28T14:55:31Z</time></trkpt><trkpt lat="45.121813710055015" lon="9.256509854690508"><ele>54.0</ele><time>2026-03-28T14:55:32Z</time></trkpt><trkpt lat="45.12176661040288" lon="9.256376605032688"><ele>54.0</ele><time>2026-03-28T14:55:33Z</time></trkpt><trkpt lat="45.12171937934861" lon="9.256226269779614"><ele>54.0</ele><time>2026-03-28T14:55:34Z</time></trkpt><trkpt lat="45.12166766490653" lon="9.256052596892756"><ele>54.0</ele><time>2026-03-28T14:55:35Z</time></trkpt><trkpt lat="45.12161611097614" lon="9.255887677826655"><ele>54.0</ele><time>2026-03-28T14:55:36Z</time></trkpt><trkpt lat="45.121574178026464" lon="9.255749170535626"><ele>54.0</ele><time>2026-03-28T14:55:37Z</time></trkpt><trkpt lat="45.121534884265216" lon="9.25561488058762"><ele>53.75</ele><time>2026-03-28T14:55:38Z</time></trkpt><trkpt lat="45.12149053117422" lon="9.25548058020352"><ele>53.5</ele><time>2026-03-28T14:55:39Z</time></trkpt><trkpt lat="45.12144453412796" lon="9.255330271097403"><ele>53.25</ele><time>2026-03-28T14:55:40Z</time></trkpt><trkpt lat="45.12139404456085" lon="9.255179193405642"><ele>53.0</ele><time>2026-03-28T14:55:41Z</time></trkpt><trkpt lat="45.12135023560318" lon="9.25502541930086"><ele>53.0</ele><time>2026-03-28T14:55:42Z</time></trkpt><trkpt lat="45.12129966080086" lon="9.254859460466783"><ele>53.0</ele><time>2026-03-28T14:55:43Z</time></trkpt><trkpt lat="45.12124228830418" lon="9.25467530609151"><ele>53.0</ele><time>2026-03-28T14:55:44Z</time></trkpt><trkpt lat="45.12118433329241" lon="9.254495056529906"><ele>53.0</ele><time>2026-03-28T14:55:45Z</time></trkpt><trkpt lat="45.121127785216984" lon="9.254312259499645"><ele>53.25</ele><time>2026-03-28T14:55:46Z</time></trkpt><trkpt lat="45.121076141118955" lon="9.254146628439896"><ele>53.5</ele><time>2026-03-28T14:55:47Z</time></trkpt><trkpt lat="45.12102432367006" lon="9.2539893840928"><ele>53.75</ele><time>2026-03-28T14:55:48Z</time></trkpt><trkpt lat="45.12096628554263" lon="9.253814994139033"><ele>54.0</ele><time>2026-03-28T14:55:49Z</time></trkpt><trkpt lat="45.120915289403435" lon="9.253640399770175"><ele>54.0</ele><time>2026-03-28T14:55:50Z</time></trkpt><trkpt lat="45.12085920296432" lon="9.253455589223572"><ele>54.0</ele><time>2026-03-28T14:55:51Z</time></trkpt><trkpt lat="45.120795891653714" lon="9.253264465528389"><ele>54.0</ele><time>2026-03-28T14:55:52Z</time></trkpt><trkpt lat="45.12073112713478" lon="9.253060549237663"><ele>54.0</ele><time>2026-03-28T14:55:53Z</time></trkpt><trkpt lat="45.12066504619819" lon="9.252855720846297"><ele>54.0</ele><time>2026-03-28T14:55:54Z</time></trkpt><trkpt lat="45.120609546435176" lon="9.252682734238785"><ele>54.0</ele><time>2026-03-28T14:55:55Z</time></trkpt><trkpt lat="45.12055777304392" lon="9.252535610618274"><ele>54.0</ele><time>2026-03-28T14:55:56Z</time></trkpt><trkpt lat="45.12050178059171" lon="9.252368148226523"><ele>54.0</ele><time>2026-03-28T14:55:57Z</time></trkpt><trkpt lat="45.120445958024845" lon="9.252186574648979"><ele>54.0</ele><time>2026-03-28T14:55:58Z</time></trkpt><trkpt lat="45.12038820459951" lon="9.252000514702718"><ele>54.0</ele><time>2026-03-28T14:55:59Z</time></trkpt><trkpt lat="45.12033347139909" lon="9.251816998321615"><ele>54.0</ele><time>2026-03-28T14:56:00Z</time></trkpt><trkpt lat="45.12027725119464" lon="9.25163137969559"><ele>54.0</ele><time>2026-03-28T14:56:01Z</time></trkpt><trkpt lat="45.120218488907625" lon="9.251448404007675"><ele>54.25</ele><time>2026-03-28T14:56:02Z</time></trkpt><trkpt lat="45.120169157723986" lon="9.25129169452844"><ele>54.5</ele><time>2026-03-28T14:56:03Z</time></trkpt><trkpt lat="45.12012146845977" lon="9.251148836792536"><ele>54.75</ele><time>2026-03-28T14:56:04Z</time></trkpt><trkpt lat="45.120069736743915" lon="9.250992060151738"><ele>55.0</ele><time>2026-03-28T14:56:05Z</time></trkpt><trkpt lat="45.12001392336756" lon="9.25083396731851"><ele>55.0</ele><time>2026-03-28T14:56:06Z</time></trkpt><trkpt lat="45.119974474307014" lon="9.250701808914437"><ele>55.0</ele><time>2026-03-28T14:56:07Z</time></trkpt><trkpt lat="45.119941893244224" lon="9.250588771588825"><ele>55.0</ele><time>2026-03-28T14:56:08Z</time></trkpt><trkpt lat="45.119904217905145" lon="9.250484163212327"><ele>55.0</ele><time>2026-03-28T14:56:09Z</time></trkpt><trkpt lat="45.11986391125714" lon="9.25035080312191"><ele>55.0</ele><time>2026-03-28T14:56:10Z</time></trkpt><trkpt lat="45.11980742287757" lon="9.250177337572856"><ele>54.75</ele><time>2026-03-28T14:56:11Z</time></trkpt><trkpt lat="45.11975144910059" lon="9.250006010931765"><ele>54.5</ele><time>2026-03-28T14:56:12Z</time></trkpt><trkpt lat="45.119690862675576" lon="9.249820099781287"><ele>54.25</ele><time>2026-03-28T14:56:13Z</time></trkpt><trkpt lat="45.11963951625452" lon="9.249653874146858"><ele>54.0</ele><time>2026-03-28T14:56:14Z</time></trkpt><trkpt lat="45.11959206482005" lon="9.249518060638225"><ele>54.0</ele><time>2026-03-28T14:56:15Z</time></trkpt><trkpt lat="45.11954065339841" lon="9.249356816627923"><ele>54.0</ele><time>2026-03-28T14:56:16Z</time></trkpt><trkpt lat="45.11948857295994" lon="9.249190702068349"><ele>54.0</ele><time>2026-03-28T14:56:17Z</time></trkpt><trkpt lat="45.11943490682966" lon="9.249022524711174"><ele>54.0</ele><time>2026-03-28T14:56:18Z</time></trkpt><trkpt lat="45.119378702526156" lon="9.248860866117628"><ele>54.25</ele><time>2026-03-28T14:56:19Z</time></trkpt><trkpt lat="45.11933663101276" lon="9.248719253018548"><ele>54.5</ele><time>2026-03-28T14:56:20Z</time></trkpt><trkpt lat="45.119284647731355" lon="9.248569997846566"><ele>54.75</ele><time>2026-03-28T14:56:21Z</time></trkpt><trkpt lat="45.11923018565756" lon="9.248407011649693"><ele>55.0</ele><time>2026-03-28T14:56:22Z</time></trkpt><trkpt lat="45.11917965833057" lon="9.24825197844899"><ele>55.0</ele><time>2026-03-28T14:56:23Z</time></trkpt><trkpt lat="45.1191388658753" lon="9.24812750492409"><ele>55.0</ele><time>2026-03-28T14:56:24Z</time></trkpt><trkpt lat="45.11909912114786" lon="9.247995474913"><ele>55.0</ele><time>2026-03-28T14:56:25Z</time></trkpt><trkpt lat="45.119051772761296" lon="9.247845288518551"><ele>55.0</ele><time>2026-03-28T14:56:26Z</time></trkpt><trkpt lat="45.11900248504633" lon="9.247682339241788"><ele>55.0</ele><time>2026-03-28T14:56:27Z</time></trkpt><trkpt lat="45.11899578894162" lon="9.247518810107056"><ele>55.25</ele><time>2026-03-28T14:56:28Z</time></trkpt><trkpt lat="45.11894113110879" lon="9.247349212124542"><ele>55.5</ele><time>2026-03-28T14:56:29Z</time></trkpt><trkpt lat="45.11887713744057" lon="9.24720190250667"><ele>55.75</ele><time>2026-03-28T14:56:30Z</time></trkpt><trkpt lat="45.11883707280846" lon="9.247026329220207"><ele>56.0</ele><time>2026-03-28T14:56:31Z</time></trkpt><trkpt lat="45.118772789714626" lon="9.246882845373133"><ele>56.0</ele><time>2026-03-28T14:56:32Z</time></trkpt><trkpt lat="45.11872970193935" lon="9.24673475496368"><ele>56.0</ele><time>2026-03-28T14:56:33Z</time></trkpt><trkpt lat="45.11867691444738" lon="9.246577098546789"><ele>56.0</ele><time>2026-03-28T14:56:34Z</time></trkpt><trkpt lat="45.11864275571408" lon="9.246423381855873"><ele>56.0</ele><time>2026-03-28T14:56:35Z</time></trkpt><trkpt lat="45.11858612387843" lon="9.246302022440657"><ele>55.75</ele><time>2026-03-28T14:56:36Z</time></trkpt><trkpt lat="45.118546006943546" lon="9.246162674667112"><ele>55.5</ele><time>2026-03-28T14:56:37Z</time></trkpt><trkpt lat="45.11849954286318" lon="9.246012802624998"><ele>55.25</ele><time>2026-03-28T14:56:38Z</time></trkpt><trkpt lat="45.118448681675325" lon="9.24586221488153"><ele>55.0</ele><time>2026-03-28T14:56:39Z</time></trkpt><trkpt lat="45.11839575052625" lon="9.245712500144261"><ele>55.0</ele><time>2026-03-28T14:56:40Z</time></trkpt><trkpt lat="45.11834778913309" lon="9.245556441893138"><ele>55.0</ele><time>2026-03-28T14:56:41Z</time></trkpt><trkpt lat="45.11829509038415" lon="9.245391797122766"><ele>55.0</ele><time>2026-03-28T14:56:42Z</time></trkpt><trkpt lat="45.11824895663285" lon="9.24519947380645"><ele>55.0</ele><time>2026-03-28T14:56:43Z</time></trkpt><trkpt lat="45.11818532021778" lon="9.245001661499337"><ele>55.0</ele><time>2026-03-28T14:56:44Z</time></trkpt><trkpt lat="45.11812358860916" lon="9.244808816586055"><ele>55.0</ele><time>2026-03-28T14:56:45Z</time></trkpt><trkpt lat="45.118060886685946" lon="9.244656925042033"><ele>55.0</ele><time>2026-03-28T14:56:46Z</time></trkpt><trkpt lat="45.11801191503327" lon="9.244514998973832"><ele>55.0</ele><time>2026-03-28T14:56:47Z</time></trkpt><trkpt lat="45.11796939462585" lon="9.244368094464084"><ele>55.0</ele><time>2026-03-28T14:56:48Z</time></trkpt><trkpt lat="45.11792949305421" lon="9.244251963150521"><ele>55.0</ele><time>2026-03-28T14:56:49Z</time></trkpt><trkpt lat="45.117900349568046" lon="9.244111100132566"><ele>55.0</ele><time>2026-03-28T14:56:50Z</time></trkpt><trkpt lat="45.11783510233924" lon="9.243964165299323"><ele>55.0</ele><time>2026-03-28T14:56:51Z</time></trkpt><trkpt lat="45.11778774839186" lon="9.243795906204053"><ele>55.0</ele><time>2026-03-28T14:56:52Z</time></trkpt><trkpt lat="45.117737788290725" lon="9.243642277201497"><ele>55.0</ele><time>2026-03-28T14:56:53Z</time></trkpt><trkpt lat="45.117686733630585" lon="9.243497312782019"><ele>55.0</ele><time>2026-03-28T14:56:54Z</time></trkpt><trkpt lat="45.11765243849086" lon="9.243336273114066"><ele>55.0</ele><time>2026-03-28T14:56:55Z</time></trkpt><trkpt lat="45.11760402772487" lon="9.243184464773297"><ele>55.0</ele><time>2026-03-28T14:56:56Z</time></trkpt><trkpt lat="45.1175394096692" lon="9.243036089816938"><ele>55.0</ele><time>2026-03-28T14:56:57Z</time></trkpt><trkpt lat="45.11748617874859" lon="9.24286665695159"><ele>55.0</ele><time>2026-03-28T14:56:58Z</time></trkpt><trkpt lat="45.11742909941023" lon="9.242687013149705"><ele>55.0</ele><time>2026-03-28T14:56:59Z</time></trkpt><trkpt lat="45.11739924742758" lon="9.242537346050169"><ele>55.0</ele><time>2026-03-28T14:57:00Z</time></trkpt><trkpt lat="45.11736041187559" lon="9.24241462323747"><ele>55.0</ele><time>2026-03-28T14:57:01Z</time></trkpt><trkpt lat="45.117328293380545" lon="9.242313126766776"><ele>55.0</ele><time>2026-03-28T14:57:02Z</time></trkpt><trkpt lat="45.11729210177486" lon="9.242238188439517"><ele>55.0</ele><time>2026-03-28T14:57:03Z</time></trkpt><trkpt lat="45.117250809386604" lon="9.2421105415118"><ele>55.0</ele><time>2026-03-28T14:57:05Z</time></trkpt><trkpt lat="45.11723086887732" lon="9.242005259213327"><ele>55.0</ele><time>2026-03-28T14:57:12Z</time></trkpt><trkpt lat="45.11709768932062" lon="9.241982284800002"><ele>54.666666666666664</ele><time>2026-03-28T14:57:14Z</time></trkpt><trkpt lat="45.116986377643954" lon="9.241998223911857"><ele>54.33333333333333</ele><time>2026-03-28T14:57:15Z</time></trkpt><trkpt lat="45.116823203501646" lon="9.242004902500776"><ele>54.0</ele><time>2026-03-28T14:57:16Z</time></trkpt><trkpt lat="45.11664413533596" lon="9.242000489109067"><ele>54.0</ele><time>2026-03-28T14:57:17Z</time></trkpt><trkpt lat="45.116441481306445" lon="9.24199606689901"><ele>54.0</ele><time>2026-03-28T14:57:18Z</time></trkpt><trkpt lat="45.11626827447907" lon="9.242000477437434"><ele>54.0</ele><time>2026-03-28T14:57:19Z</time></trkpt><trkpt lat="45.11612336755555" lon="9.241997964356022"><ele>54.0</ele><time>2026-03-28T14:57:20Z</time></trkpt><trkpt lat="45.11598682762268" lon="9.241997176342863"><ele>54.0</ele><time>2026-03-28T14:57:21Z</time></trkpt><trkpt lat="45.11586113381157" lon="9.24199067978201"><ele>54.0</ele><time>2026-03-28T14:57:22Z</time></trkpt><trkpt lat="45.1157483367899" lon="9.241986424962542"><ele>54.0</ele><time>2026-03-28T14:57:23Z</time></trkpt><trkpt lat="45.11564822779431" lon="9.241989020445642"><ele>54.2</ele><time>2026-03-28T14:57:24Z</time></trkpt><trkpt lat="45.11555106385016" lon="9.241985735684686"><ele>54.400000000000006</ele><time>2026-03-28T14:57:25Z</time></trkpt><trkpt lat="45.115464734032365" lon="9.241985769062131"><ele>54.6</ele><time>2026-03-28T14:57:26Z</time></trkpt><trkpt lat="45.11537298045977" lon="9.241984750633415"><ele>54.8</ele><time>2026-03-28T14:57:27Z</time></trkpt><trkpt lat="45.11527978216723" lon="9.241986599403933"><ele>55.0</ele><time>2026-03-28T14:57:28Z</time></trkpt><trkpt lat="45.11517512756257" lon="9.241981072661059"><ele>55.0</ele><time>2026-03-28T14:57:29Z</time></trkpt><trkpt lat="45.11507408527969" lon="9.241977974888634"><ele>55.0</ele><time>2026-03-28T14:57:30Z</time></trkpt><trkpt lat="45.11497535150532" lon="9.241972597233968"><ele>55.0</ele><time>2026-03-28T14:57:31Z</time></trkpt><trkpt lat="45.1148826593663" lon="9.241969622129446"><ele>55.0</ele><time>2026-03-28T14:57:32Z</time></trkpt><trkpt lat="45.114775224241704" lon="9.241965066841303"><ele>55.0</ele><time>2026-03-28T14:57:33Z</time></trkpt><trkpt lat="45.114668799796654" lon="9.24196787666199"><ele>54.8</ele><time>2026-03-28T14:57:34Z</time></trkpt><trkpt lat="45.11457159414966" lon="9.241965975524865"><ele>54.6</ele><time>2026-03-28T14:57:35Z</time></trkpt><trkpt lat="45.114473553213855" lon="9.241963733299011"><ele>54.400000000000006</ele><time>2026-03-28T14:57:36Z</time></trkpt><trkpt lat="45.11437474845084" lon="9.241957632522155"><ele>54.2</ele><time>2026-03-28T14:57:37Z</time></trkpt><trkpt lat="45.11427676301121" lon="9.241955667799388"><ele>54.0</ele><time>2026-03-28T14:57:38Z</time></trkpt><trkpt lat="45.11417571053411" lon="9.241953456125092"><ele>54.0</ele><time>2026-03-28T14:57:39Z</time></trkpt><trkpt lat="45.114077164703325" lon="9.241951320417693"><ele>54.00000000000001</ele><time>2026-03-28T14:57:40Z</time></trkpt><trkpt lat="45.1139747220673" lon="9.241952184964253"><ele>54.00000000000001</ele><time>2026-03-28T14:57:41Z</time></trkpt><trkpt lat="45.11386619509626" lon="9.241955120620927"><ele>54.0</ele><time>2026-03-28T14:57:42Z</time></trkpt><trkpt lat="45.11375874376756" lon="9.241955256128627"><ele>54.0</ele><time>2026-03-28T14:57:43Z</time></trkpt><trkpt lat="45.11364313325393" lon="9.241949704776813"><ele>54.0</ele><time>2026-03-28T14:57:44Z</time></trkpt><trkpt lat="45.11352158559722" lon="9.241943468873336"><ele>54.0</ele><time>2026-03-28T14:57:45Z</time></trkpt><trkpt lat="45.11339614069395" lon="9.241936935872033"><ele>54.0</ele><time>2026-03-28T14:57:46Z</time></trkpt><trkpt lat="45.113262433209" lon="9.24193356525386"><ele>54.0</ele><time>2026-03-28T14:57:47Z</time></trkpt><trkpt lat="45.11311768730698" lon="9.241931651106823"><ele>54.66666666666667</ele><time>2026-03-28T14:57:48Z</time></trkpt><trkpt lat="45.112960467395816" lon="9.241930898269949"><ele>55.333333333333336</ele><time>2026-03-28T14:57:49Z</time></trkpt><trkpt lat="45.11278169256255" lon="9.241925885189543"><ele>56.0</ele><time>2026-03-28T14:57:50Z</time></trkpt><trkpt lat="45.11262342465696" lon="9.241918703743341"><ele>56.0</ele><time>2026-03-28T14:57:51Z</time></trkpt><trkpt lat="45.112489124089905" lon="9.241919739633575"><ele>56.0</ele><time>2026-03-28T14:57:52Z</time></trkpt><trkpt lat="45.112375653777065" lon="9.241893490215784"><ele>56.0</ele><time>2026-03-28T14:57:53Z</time></trkpt><trkpt lat="45.11227026453785" lon="9.24191645752191"><ele>56.0</ele><time>2026-03-28T14:57:54Z</time></trkpt><trkpt lat="45.112150640953715" lon="9.241925162214267"><ele>56.0</ele><time>2026-03-28T14:57:55Z</time></trkpt><trkpt lat="45.11201744743789" lon="9.241949151086386"><ele>56.0</ele><time>2026-03-28T14:57:56Z</time></trkpt><trkpt lat="45.11187304784897" lon="9.241972659035039"><ele>56.0</ele><time>2026-03-28T14:57:57Z</time></trkpt><trkpt lat="45.111733335663416" lon="9.241991032912715"><ele>56.0</ele><time>2026-03-28T14:57:58Z</time></trkpt><trkpt lat="45.11162169866285" lon="9.24200850365329"><ele>55.8</ele><time>2026-03-28T14:57:59Z</time></trkpt><trkpt lat="45.11152346305629" lon="9.24202704256228"><ele>55.599999999999994</ele><time>2026-03-28T14:58:00Z</time></trkpt><trkpt lat="45.111431566055955" lon="9.242045755604305"><ele>55.4</ele><time>2026-03-28T14:58:01Z</time></trkpt><trkpt lat="45.11133234053379" lon="9.24206706110069"><ele>55.2</ele><time>2026-03-28T14:58:02Z</time></trkpt><trkpt lat="45.11122418341007" lon="9.242086053048999"><ele>55.0</ele><time>2026-03-28T14:58:03Z</time></trkpt><trkpt lat="45.11111848013966" lon="9.242110717191911"><ele>54.99999999999999</ele><time>2026-03-28T14:58:04Z</time></trkpt><trkpt lat="45.11102026427547" lon="9.242131730265957"><ele>55.0</ele><time>2026-03-28T14:58:05Z</time></trkpt><trkpt lat="45.110935271864136" lon="9.242152333266036"><ele>55.0</ele><time>2026-03-28T14:58:06Z</time></trkpt><trkpt lat="45.110864711747524" lon="9.242158056550549"><ele>55.0</ele><time>2026-03-28T14:58:07Z</time></trkpt><trkpt lat="45.11079564130758" lon="9.242179051148268"><ele>54.99999999999999</ele><time>2026-03-28T14:58:08Z</time></trkpt><trkpt lat="45.110685002262166" lon="9.242193114268412"><ele>55.0</ele><time>2026-03-28T14:58:10Z</time></trkpt><trkpt lat="45.11059090442399" lon="9.242205759742397"><ele>55.5</ele><time>2026-03-28T14:58:12Z</time></trkpt><trkpt lat="45.11051261250788" lon="9.242140116967008"><ele>56.0</ele><time>2026-03-28T14:58:23Z</time></trkpt><trkpt lat="45.11045151383401" lon="9.242097249561379"><ele>56.5</ele><time>2026-03-28T14:58:24Z</time></trkpt><trkpt lat="45.11031711863574" lon="9.242179634035589"><ele>57.0</ele><time>2026-03-28T14:58:25Z</time></trkpt><trkpt lat="45.11016304511527" lon="9.242207752834291"><ele>57.0</ele><time>2026-03-28T14:58:26Z</time></trkpt><trkpt lat="45.109979543486276" lon="9.242246511591203"><ele>57.0</ele><time>2026-03-28T14:58:27Z</time></trkpt><trkpt lat="45.10974329459342" lon="9.24230188220998"><ele>57.0</ele><time>2026-03-28T14:58:28Z</time></trkpt><trkpt lat="45.10949747930412" lon="9.24235082390288"><ele>56.66666666666667</ele><time>2026-03-28T14:58:29Z</time></trkpt><trkpt lat="45.10928562473709" lon="9.242401788650184"><ele>56.333333333333336</ele><time>2026-03-28T14:58:30Z</time></trkpt><trkpt lat="45.10909307149656" lon="9.242434137487013"><ele>56.0</ele><time>2026-03-28T14:58:31Z</time></trkpt><trkpt lat="45.10890215635044" lon="9.242464404729484"><ele>56.0</ele><time>2026-03-28T14:58:32Z</time></trkpt><trkpt lat="45.1087253141074" lon="9.242498348673827"><ele>56.0</ele><time>2026-03-28T14:58:33Z</time></trkpt><trkpt lat="45.10854585028676" lon="9.242535338832829"><ele>56.0</ele><time>2026-03-28T14:58:34Z</time></trkpt><trkpt lat="45.10835600270469" lon="9.242576460609948"><ele>56.66666666666667</ele><time>2026-03-28T14:58:35Z</time></trkpt><trkpt lat="45.10816420709479" lon="9.242615759586316"><ele>57.33333333333333</ele><time>2026-03-28T14:58:36Z</time></trkpt><trkpt lat="45.107974161776646" lon="9.242657793266215"><ele>58.0</ele><time>2026-03-28T14:58:37Z</time></trkpt><trkpt lat="45.10778133435096" lon="9.242698443979867"><ele>58.0</ele><time>2026-03-28T14:58:38Z</time></trkpt><trkpt lat="45.10757921566179" lon="9.242742768196363"><ele>58.0</ele><time>2026-03-28T14:58:39Z</time></trkpt><trkpt lat="45.107378982305875" lon="9.24278819615889"><ele>58.0</ele><time>2026-03-28T14:58:40Z</time></trkpt><trkpt lat="45.10717707635653" lon="9.24283102750725"><ele>57.0</ele><time>2026-03-28T14:58:41Z</time></trkpt><trkpt lat="45.1069684504113" lon="9.24287324747179"><ele>56.0</ele><time>2026-03-28T14:58:42Z</time></trkpt><trkpt lat="45.106773452561214" lon="9.24290830366454"><ele>55.0</ele><time>2026-03-28T14:58:43Z</time></trkpt><trkpt lat="45.1065916486659" lon="9.242945228182391"><ele>56.0</ele><time>2026-03-28T14:58:44Z</time></trkpt><trkpt lat="45.10642535652332" lon="9.242979114616826"><ele>57.0</ele><time>2026-03-28T14:58:45Z</time></trkpt><trkpt lat="45.10626868503427" lon="9.243009972962938"><ele>58.0</ele><time>2026-03-28T14:58:46Z</time></trkpt><trkpt lat="45.10610757579473" lon="9.24304745700033"><ele>58.0</ele><time>2026-03-28T14:58:47Z</time></trkpt><trkpt lat="45.1059488079141" lon="9.243094616479192"><ele>58.0</ele><time>2026-03-28T14:58:48Z</time></trkpt><trkpt lat="45.10578952743527" lon="9.24314444926606"><ele>58.0</ele><time>2026-03-28T14:58:49Z</time></trkpt><trkpt lat="45.105632026310715" lon="9.243220112979834"><ele>59.33333333333333</ele><time>2026-03-28T14:58:50Z</time></trkpt><trkpt lat="45.105480986275985" lon="9.24330665129925"><ele>60.66666666666667</ele><time>2026-03-28T14:58:51Z</time></trkpt><trkpt lat="45.10532544812663" lon="9.243404584235376"><ele>62.0</ele><time>2026-03-28T14:58:52Z</time></trkpt><trkpt lat="45.10517468542776" lon="9.243505455932874"><ele>62.0</ele><time>2026-03-28T14:58:53Z</time></trkpt><trkpt lat="45.10502878450352" lon="9.243606502475004"><ele>62.0</ele><time>2026-03-28T14:58:54Z</time></trkpt><trkpt lat="45.10490242298864" lon="9.243697024357548"><ele>62.0</ele><time>2026-03-28T14:58:55Z</time></trkpt><trkpt lat="45.10478609314757" lon="9.243779793843544"><ele>62.0</ele><time>2026-03-28T14:58:56Z</time></trkpt><trkpt lat="45.10467816913585" lon="9.243849828000807"><ele>62.0</ele><time>2026-03-28T14:58:57Z</time></trkpt><trkpt lat="45.1045820588463" lon="9.243919248157788"><ele>62.0</ele><time>2026-03-28T14:58:58Z</time></trkpt><trkpt lat="45.10450490077259" lon="9.243975922405342"><ele>62.0</ele><time>2026-03-28T14:58:59Z</time></trkpt><trkpt lat="45.10443695791572" lon="9.244028129208951"><ele>62.0</ele><time>2026-03-28T14:59:00Z</time></trkpt><trkpt lat="45.10433699133428" lon="9.24409756902765"><ele>62.0</ele><time>2026-03-28T14:59:02Z</time></trkpt><trkpt lat="45.10427706822166" lon="9.244141604458889"><ele>62.0</ele><time>2026-03-28T14:59:04Z</time></trkpt><trkpt lat="45.10422733983741" lon="9.244211346456542"><ele>62.0</ele><time>2026-03-28T14:59:28Z</time></trkpt><trkpt lat="45.10412697573679" lon="9.244285583469239"><ele>62.0</ele><time>2026-03-28T14:59:30Z</time></trkpt><trkpt lat="45.104006116456276" lon="9.244372999732922"><ele>62.0</ele><time>2026-03-28T14:59:32Z</time></trkpt><trkpt lat="45.1039332738079" lon="9.244432127549462"><ele>62.0</ele><time>2026-03-28T14:59:33Z</time></trkpt><trkpt lat="45.103848526662425" lon="9.244503743532492"><ele>62.0</ele><time>2026-03-28T14:59:34Z</time></trkpt><trkpt lat="45.1037575319107" lon="9.244574360754736"><ele>62.0</ele><time>2026-03-28T14:59:35Z</time></trkpt><trkpt lat="45.10365629278792" lon="9.244648270482395"><ele>62.0</ele><time>2026-03-28T14:59:36Z</time></trkpt><trkpt lat="45.10355952589338" lon="9.244725236384935"><ele>62.0</ele><time>2026-03-28T14:59:37Z</time></trkpt><trkpt lat="45.103457106195144" lon="9.244803669642058"><ele>62.0</ele><time>2026-03-28T14:59:38Z</time></trkpt><trkpt lat="45.10334692134621" lon="9.244891072565661"><ele>62.5</ele><time>2026-03-28T14:59:39Z</time></trkpt><trkpt lat="45.1032346402638" lon="9.2449749616258"><ele>63.0</ele><time>2026-03-28T14:59:40Z</time></trkpt><trkpt lat="45.1031268646338" lon="9.245056707856518"><ele>63.5</ele><time>2026-03-28T14:59:41Z</time></trkpt><trkpt lat="45.10301263267755" lon="9.245145696758389"><ele>64.0</ele><time>2026-03-28T14:59:42Z</time></trkpt><trkpt lat="45.102899822184646" lon="9.245235026297125"><ele>64.0</ele><time>2026-03-28T14:59:43Z</time></trkpt><trkpt lat="45.10277451796465" lon="9.245333041553295"><ele>64.0</ele><time>2026-03-28T14:59:44Z</time></trkpt><trkpt lat="45.10265154246398" lon="9.245426429599984"><ele>64.0</ele><time>2026-03-28T14:59:45Z</time></trkpt><trkpt lat="45.10252684326644" lon="9.245520837798622"><ele>64.0</ele><time>2026-03-28T14:59:46Z</time></trkpt><trkpt lat="45.10239973171559" lon="9.245618088735695"><ele>63.75</ele><time>2026-03-28T14:59:47Z</time></trkpt><trkpt lat="45.10227158924154" lon="9.24571194654742"><ele>63.5</ele><time>2026-03-28T14:59:48Z</time></trkpt><trkpt lat="45.10214361272647" lon="9.245803670462324"><ele>63.25</ele><time>2026-03-28T14:59:49Z</time></trkpt><trkpt lat="45.10201461610799" lon="9.245894425541856"><ele>63.0</ele><time>2026-03-28T14:59:50Z</time></trkpt><trkpt lat="45.10188599738168" lon="9.245983896512952"><ele>63.0</ele><time>2026-03-28T14:59:51Z</time></trkpt><trkpt lat="45.101755093830995" lon="9.246074033495532"><ele>63.0</ele><time>2026-03-28T14:59:52Z</time></trkpt><trkpt lat="45.10162104492544" lon="9.246167779714659"><ele>63.0</ele><time>2026-03-28T14:59:53Z</time></trkpt><trkpt lat="45.10148307326317" lon="9.246263479171072"><ele>63.0</ele><time>2026-03-28T14:59:54Z</time></trkpt><trkpt lat="45.10134431552052" lon="9.246364811612622"><ele>62.0</ele><time>2026-03-28T14:59:55Z</time></trkpt><trkpt lat="45.101209672632194" lon="9.246471541251221"><ele>61.0</ele><time>2026-03-28T14:59:56Z</time></trkpt><trkpt lat="45.101072649375375" lon="9.246581254431245"><ele>60.0</ele><time>2026-03-28T14:59:57Z</time></trkpt><trkpt lat="45.100927179881104" lon="9.246695975466535"><ele>60.0</ele><time>2026-03-28T14:59:58Z</time></trkpt><trkpt lat="45.10078632808629" lon="9.24681309779525"><ele>60.0</ele><time>2026-03-28T14:59:59Z</time></trkpt><trkpt lat="45.10065657883369" lon="9.246916935147885"><ele>60.0</ele><time>2026-03-28T15:00:00Z</time></trkpt><trkpt lat="45.100527505293016" lon="9.247021541335863"><ele>60.33333333333333</ele><time>2026-03-28T15:00:01Z</time></trkpt><trkpt lat="45.100395055173294" lon="9.247128469083492"><ele>60.666666666666664</ele><time>2026-03-28T15:00:02Z</time></trkpt><trkpt lat="45.10025476671836" lon="9.247240921847252"><ele>61.0</ele><time>2026-03-28T15:00:03Z</time></trkpt><trkpt lat="45.100107739155966" lon="9.247359022313654"><ele>61.33333333333333</ele><time>2026-03-28T15:00:04Z</time></trkpt><trkpt lat="45.099957152965494" lon="9.247481614111583"><ele>61.66666666666667</ele><time>2026-03-28T15:00:05Z</time></trkpt><trkpt lat="45.099808824766306" lon="9.247604442693381"><ele>62.0</ele><time>2026-03-28T15:00:06Z</time></trkpt><trkpt lat="45.09965037140911" lon="9.247730211688456"><ele>62.333333333333336</ele><time>2026-03-28T15:00:07Z</time></trkpt><trkpt lat="45.09949144417213" lon="9.24786137458431"><ele>62.66666666666667</ele><time>2026-03-28T15:00:08Z</time></trkpt><trkpt lat="45.099341859038354" lon="9.247990342845803"><ele>63.0</ele><time>2026-03-28T15:00:09Z</time></trkpt><trkpt lat="45.099200980916294" lon="9.248107945759367"><ele>63.0</ele><time>2026-03-28T15:00:10Z</time></trkpt><trkpt lat="45.09905721592509" lon="9.248218769163167"><ele>63.0</ele><time>2026-03-28T15:00:11Z</time></trkpt><trkpt lat="45.0989130436491" lon="9.24833501790119"><ele>63.0</ele><time>2026-03-28T15:00:12Z</time></trkpt><trkpt lat="45.09877067652972" lon="9.248447651012814"><ele>63.0</ele><time>2026-03-28T15:00:13Z</time></trkpt><trkpt lat="45.09864335509182" lon="9.248555761733588"><ele>63.0</ele><time>2026-03-28T15:00:14Z</time></trkpt><trkpt lat="45.09851745478061" lon="9.248662551926019"><ele>63.0</ele><time>2026-03-28T15:00:15Z</time></trkpt><trkpt lat="45.098389156004" lon="9.24876942164503"><ele>63.0</ele><time>2026-03-28T15:00:16Z</time></trkpt><trkpt lat="45.09826476517894" lon="9.248870216455574"><ele>63.25</ele><time>2026-03-28T15:00:17Z</time></trkpt><trkpt lat="45.0981472858994" lon="9.248968089388413"><ele>63.5</ele><time>2026-03-28T15:00:18Z</time></trkpt><trkpt lat="45.098037097035366" lon="9.249060948652994"><ele>63.75</ele><time>2026-03-28T15:00:19Z</time></trkpt><trkpt lat="45.09793314105723" lon="9.24915279281708"><ele>64.0</ele><time>2026-03-28T15:00:20Z</time></trkpt><trkpt lat="45.09782691014804" lon="9.249239374842022"><ele>64.0</ele><time>2026-03-28T15:00:21Z</time></trkpt><trkpt lat="45.097731501225" lon="9.249319283443093"><ele>64.0</ele><time>2026-03-28T15:00:22Z</time></trkpt><trkpt lat="45.09764883661498" lon="9.249388942691336"><ele>64.0</ele><time>2026-03-28T15:00:23Z</time></trkpt><trkpt lat="45.097566849848896" lon="9.249455834665357"><ele>64.0</ele><time>2026-03-28T15:00:24Z</time></trkpt><trkpt lat="45.09747528775396" lon="9.249509949152147"><ele>64.0</ele><time>2026-03-28T15:00:25Z</time></trkpt><trkpt lat="45.097371057848584" lon="9.249502446213114"><ele>64.0</ele><time>2026-03-28T15:00:26Z</time></trkpt><trkpt lat="45.09728875224548" lon="9.249536485545017"><ele>64.0</ele><time>2026-03-28T15:00:27Z</time></trkpt><trkpt lat="45.09720970318808" lon="9.249576215653018"><ele>64.0</ele><time>2026-03-28T15:00:28Z</time></trkpt><trkpt lat="45.09715399500457" lon="9.249712021578466"><ele>64.0</ele><time>2026-03-28T15:00:29Z</time></trkpt><trkpt lat="45.09708344384956" lon="9.249818972253557"><ele>64.0</ele><time>2026-03-28T15:00:30Z</time></trkpt><trkpt lat="45.096987343961665" lon="9.249913133519623"><ele>63.75</ele><time>2026-03-28T15:00:31Z</time></trkpt><trkpt lat="45.09688147700477" lon="9.250001545252134"><ele>63.5</ele><time>2026-03-28T15:00:32Z</time></trkpt><trkpt lat="45.096772372278906" lon="9.250091974045523"><ele>63.25</ele><time>2026-03-28T15:00:33Z</time></trkpt><trkpt lat="45.09665903164447" lon="9.250184950095772"><ele>63.0</ele><time>2026-03-28T15:00:34Z</time></trkpt><trkpt lat="45.09653602490052" lon="9.250281427571636"><ele>63.0</ele><time>2026-03-28T15:00:35Z</time></trkpt><trkpt lat="45.09641575973162" lon="9.250373821734275"><ele>63.0</ele><time>2026-03-28T15:00:36Z</time></trkpt><trkpt lat="45.0962906716201" lon="9.250468263632442"><ele>63.0</ele><time>2026-03-28T15:00:37Z</time></trkpt><trkpt lat="45.096170376999694" lon="9.250564895805196"><ele>63.0</ele><time>2026-03-28T15:00:38Z</time></trkpt><trkpt lat="45.0960449705814" lon="9.25066645213626"><ele>63.0</ele><time>2026-03-28T15:00:39Z</time></trkpt><trkpt lat="45.09591874202676" lon="9.250766202601138"><ele>63.0</ele><time>2026-03-28T15:00:40Z</time></trkpt><trkpt lat="45.095789183522996" lon="9.250869695956329"><ele>63.0</ele><time>2026-03-28T15:00:41Z</time></trkpt><trkpt lat="45.095654613344934" lon="9.250974422757741"><ele>63.0</ele><time>2026-03-28T15:00:42Z</time></trkpt><trkpt lat="45.0955141994935" lon="9.251084338757643"><ele>64.0</ele><time>2026-03-28T15:00:43Z</time></trkpt><trkpt lat="45.095371350361305" lon="9.251194866785973"><ele>65.0</ele><time>2026-03-28T15:00:44Z</time></trkpt><trkpt lat="45.095225089488025" lon="9.251318346807409"><ele>66.0</ele><time>2026-03-28T15:00:45Z</time></trkpt><trkpt lat="45.09508034887482" lon="9.251444856591714"><ele>66.0</ele><time>2026-03-28T15:00:46Z</time></trkpt><trkpt lat="45.094929009057125" lon="9.251593943205725"><ele>66.0</ele><time>2026-03-28T15:00:47Z</time></trkpt><trkpt lat="45.09477558488084" lon="9.251765744276645"><ele>66.0</ele><time>2026-03-28T15:00:48Z</time></trkpt><trkpt lat="45.09464499391377" lon="9.251934677981104"><ele>66.0</ele><time>2026-03-28T15:00:49Z</time></trkpt><trkpt lat="45.0945270984094" lon="9.252086585428989"><ele>66.0</ele><time>2026-03-28T15:00:50Z</time></trkpt><trkpt lat="45.094415652161224" lon="9.252227547814089"><ele>66.0</ele><time>2026-03-28T15:00:51Z</time></trkpt><trkpt lat="45.094296592776494" lon="9.252373699169063"><ele>66.0</ele><time>2026-03-28T15:00:52Z</time></trkpt><trkpt lat="45.09417399334174" lon="9.25251442848076"><ele>66.0</ele><time>2026-03-28T15:00:53Z</time></trkpt><trkpt lat="45.09405567515849" lon="9.252654205482958"><ele>66.0</ele><time>2026-03-28T15:00:54Z</time></trkpt><trkpt lat="45.093929138826574" lon="9.252783959573065"><ele>65.75</ele><time>2026-03-28T15:00:55Z</time></trkpt><trkpt lat="45.09379534988197" lon="9.252897136714699"><ele>65.5</ele><time>2026-03-28T15:00:56Z</time></trkpt><trkpt lat="45.093661511556036" lon="9.252993706154337"><ele>65.25</ele><time>2026-03-28T15:00:57Z</time></trkpt><trkpt lat="45.09354391606918" lon="9.253080497803216"><ele>65.0</ele><time>2026-03-28T15:00:58Z</time></trkpt><trkpt lat="45.09342886387327" lon="9.253160475948022"><ele>65.0</ele><time>2026-03-28T15:00:59Z</time></trkpt><trkpt lat="45.093319829892714" lon="9.253229796666435"><ele>65.0</ele><time>2026-03-28T15:01:00Z</time></trkpt><trkpt lat="45.093220692415315" lon="9.253288391821785"><ele>65.0</ele><time>2026-03-28T15:01:01Z</time></trkpt><trkpt lat="45.0931342974607" lon="9.253332214219352"><ele>65.0</ele><time>2026-03-28T15:01:02Z</time></trkpt><trkpt lat="45.093054867940744" lon="9.25335740450363"><ele>65.0</ele><time>2026-03-28T15:01:03Z</time></trkpt><trkpt lat="45.09298647820457" lon="9.253366903202116"><ele>64.83333333333334</ele><time>2026-03-28T15:01:04Z</time></trkpt><trkpt lat="45.09292132800939" lon="9.253357460323839"><ele>64.66666666666667</ele><time>2026-03-28T15:01:05Z</time></trkpt><trkpt lat="45.09284933884757" lon="9.253341584220697"><ele>64.5</ele><time>2026-03-28T15:01:06Z</time></trkpt><trkpt lat="45.09277797653248" lon="9.253351221311233"><ele>64.33333333333333</ele><time>2026-03-28T15:01:07Z</time></trkpt><trkpt lat="45.092714429546" lon="9.25340260844041"><ele>64.16666666666666</ele><time>2026-03-28T15:01:08Z</time></trkpt><trkpt lat="45.092666253323685" lon="9.253516497136802"><ele>64.0</ele><time>2026-03-28T15:01:09Z</time></trkpt><trkpt lat="45.092611334916235" lon="9.253617696726252"><ele>64.0</ele><time>2026-03-28T15:01:10Z</time></trkpt><trkpt lat="45.09254353854795" lon="9.253712155922493"><ele>64.0</ele><time>2026-03-28T15:01:11Z</time></trkpt><trkpt lat="45.09246581245868" lon="9.253820172996896"><ele>64.0</ele><time>2026-03-28T15:01:12Z</time></trkpt><trkpt lat="45.092340607957134" lon="9.253882320740603"><ele>64.0</ele><time>2026-03-28T15:01:13Z</time></trkpt><trkpt lat="45.092212421221" lon="9.253953797846236"><ele>64.5</ele><time>2026-03-28T15:01:14Z</time></trkpt><trkpt lat="45.09208137411544" lon="9.254038056911522"><ele>65.0</ele><time>2026-03-28T15:01:15Z</time></trkpt><trkpt lat="45.0919474248005" lon="9.25413040152972"><ele>65.5</ele><time>2026-03-28T15:01:16Z</time></trkpt><trkpt lat="45.091812529191955" lon="9.254219270950554"><ele>66.0</ele><time>2026-03-28T15:01:17Z</time></trkpt><trkpt lat="45.091665051923144" lon="9.254310511877987"><ele>65.66666666666667</ele><time>2026-03-28T15:01:18Z</time></trkpt><trkpt lat="45.09151954123013" lon="9.254405003459098"><ele>65.33333333333334</ele><time>2026-03-28T15:01:19Z</time></trkpt><trkpt lat="45.09136700346816" lon="9.254502649390565"><ele>65.0</ele><time>2026-03-28T15:01:20Z</time></trkpt><trkpt lat="45.09121405962393" lon="9.25460292004817"><ele>65.0</ele><time>2026-03-28T15:01:21Z</time></trkpt><trkpt lat="45.091052843769816" lon="9.254698414022686"><ele>65.0</ele><time>2026-03-28T15:01:22Z</time></trkpt><trkpt lat="45.09090003191138" lon="9.254793327128551"><ele>65.0</ele><time>2026-03-28T15:01:23Z</time></trkpt><trkpt lat="45.090741851079116" lon="9.254893726461788"><ele>65.0</ele><time>2026-03-28T15:01:24Z</time></trkpt><trkpt lat="45.09058367485931" lon="9.25499691450556"><ele>65.0</ele><time>2026-03-28T15:01:25Z</time></trkpt><trkpt lat="45.090427415587214" lon="9.255094930439233"><ele>65.0</ele><time>2026-03-28T15:01:26Z</time></trkpt><trkpt lat="45.09026872485094" lon="9.255189740073476"><ele>65.0</ele><time>2026-03-28T15:01:27Z</time></trkpt><trkpt lat="45.09010554924027" lon="9.25528513987545"><ele>65.0</ele><time>2026-03-28T15:01:28Z</time></trkpt><trkpt lat="45.08994377219301" lon="9.255384860095145"><ele>65.0</ele><time>2026-03-28T15:01:29Z</time></trkpt><trkpt lat="45.089784391976345" lon="9.255485745085306"><ele>64.66666666666667</ele><time>2026-03-28T15:01:30Z</time></trkpt><trkpt lat="45.089612523677154" lon="9.255591041766142"><ele>64.33333333333333</ele><time>2026-03-28T15:01:31Z</time></trkpt><trkpt lat="45.08944526432242" lon="9.255692989317717"><ele>64.0</ele><time>2026-03-28T15:01:32Z</time></trkpt><trkpt lat="45.08930183473345" lon="9.25577722409862"><ele>64.75</ele><time>2026-03-28T15:01:33Z</time></trkpt><trkpt lat="45.089166712494524" lon="9.255863079370346"><ele>65.5</ele><time>2026-03-28T15:01:34Z</time></trkpt><trkpt lat="45.08903842753524" lon="9.255942829653833"><ele>66.25</ele><time>2026-03-28T15:01:35Z</time></trkpt><trkpt lat="45.08891356329525" lon="9.256022796213834"><ele>67.0</ele><time>2026-03-28T15:01:36Z</time></trkpt><trkpt lat="45.08879344463719" lon="9.256112529873315"><ele>67.0</ele><time>2026-03-28T15:01:37Z</time></trkpt><trkpt lat="45.08868891961188" lon="9.256201512747053"><ele>67.0</ele><time>2026-03-28T15:01:38Z</time></trkpt><trkpt lat="45.088591992038864" lon="9.25629814908484"><ele>67.0</ele><time>2026-03-28T15:01:39Z</time></trkpt><trkpt lat="45.08851893565189" lon="9.256376585865642"><ele>67.0</ele><time>2026-03-28T15:01:40Z</time></trkpt><trkpt lat="45.08840111882893" lon="9.256475580364103"><ele>67.0</ele><time>2026-03-28T15:01:41Z</time></trkpt><trkpt lat="45.088336686574344" lon="9.256538596023919"><ele>67.0</ele><time>2026-03-28T15:01:42Z</time></trkpt><trkpt lat="45.088240908129066" lon="9.25649230687488"><ele>67.0</ele><time>2026-03-28T15:01:43Z</time></trkpt><trkpt lat="45.08815913618052" lon="9.256524495718436"><ele>67.0</ele><time>2026-03-28T15:01:44Z</time></trkpt><trkpt lat="45.08808772251151" lon="9.256578767803697"><ele>67.0</ele><time>2026-03-28T15:01:45Z</time></trkpt><trkpt lat="45.0880093083922" lon="9.256640931575934"><ele>67.0</ele><time>2026-03-28T15:01:46Z</time></trkpt><trkpt lat="45.087898920732805" lon="9.256720719300908"><ele>67.33333333333333</ele><time>2026-03-28T15:01:47Z</time></trkpt><trkpt lat="45.08775544775084" lon="9.256775025878893"><ele>67.66666666666667</ele><time>2026-03-28T15:01:48Z</time></trkpt><trkpt lat="45.0875776263979" lon="9.256835789231536"><ele>68.0</ele><time>2026-03-28T15:01:49Z</time></trkpt><trkpt lat="45.08737738463398" lon="9.256930646360095"><ele>66.5</ele><time>2026-03-28T15:01:50Z</time></trkpt><trkpt lat="45.08715964331503" lon="9.25705158258547"><ele>65.0</ele><time>2026-03-28T15:01:51Z</time></trkpt><trkpt lat="45.086926931059885" lon="9.257168784055187"><ele>65.0</ele><time>2026-03-28T15:01:52Z</time></trkpt><trkpt lat="45.0866912718912" lon="9.257293208867676"><ele>65.0</ele><time>2026-03-28T15:01:53Z</time></trkpt><trkpt lat="45.08645441631081" lon="9.257416652236115"><ele>65.0</ele><time>2026-03-28T15:01:54Z</time></trkpt><trkpt lat="45.08620590981525" lon="9.257520524521627"><ele>65.0</ele><time>2026-03-28T15:01:55Z</time></trkpt><trkpt lat="45.08596344505677" lon="9.257615565922936"><ele>65.0</ele><time>2026-03-28T15:01:56Z</time></trkpt><trkpt lat="45.08572635923036" lon="9.257696206282157"><ele>65.0</ele><time>2026-03-28T15:01:57Z</time></trkpt><trkpt lat="45.085497224208574" lon="9.257766019347166"><ele>65.0</ele><time>2026-03-28T15:01:58Z</time></trkpt><trkpt lat="45.08526637500586" lon="9.257825840879548"><ele>65.0</ele><time>2026-03-28T15:01:59Z</time></trkpt><trkpt lat="45.085040761764276" lon="9.2578810171838"><ele>65.66666666666667</ele><time>2026-03-28T15:02:00Z</time></trkpt><trkpt lat="45.08481872985606" lon="9.257924459176365"><ele>66.33333333333333</ele><time>2026-03-28T15:02:01Z</time></trkpt><trkpt lat="45.08459810653654" lon="9.2579644228164"><ele>67.0</ele><time>2026-03-28T15:02:02Z</time></trkpt><trkpt lat="45.084380407045856" lon="9.258000378017716"><ele>67.0</ele><time>2026-03-28T15:02:03Z</time></trkpt><trkpt lat="45.08416284648946" lon="9.258051029837715"><ele>67.0</ele><time>2026-03-28T15:02:04Z</time></trkpt><trkpt lat="45.08394027438297" lon="9.258093330470986"><ele>67.0</ele><time>2026-03-28T15:02:05Z</time></trkpt><trkpt lat="45.08371879797064" lon="9.258144797728"><ele>68.0</ele><time>2026-03-28T15:02:06Z</time></trkpt><trkpt lat="45.08349450632213" lon="9.258198817957698"><ele>69.0</ele><time>2026-03-28T15:02:07Z</time></trkpt><trkpt lat="45.08326811290508" lon="9.25825196024881"><ele>69.0</ele><time>2026-03-28T15:02:08Z</time></trkpt><trkpt lat="45.083039879277536" lon="9.258317321204618"><ele>69.0</ele><time>2026-03-28T15:02:09Z</time></trkpt><trkpt lat="45.08281252087113" lon="9.25837966286913"><ele>69.0</ele><time>2026-03-28T15:02:10Z</time></trkpt><trkpt lat="45.082585927623974" lon="9.258446268299974"><ele>69.0</ele><time>2026-03-28T15:02:11Z</time></trkpt><trkpt lat="45.08235076429625" lon="9.258524806156238"><ele>68.5</ele><time>2026-03-28T15:02:12Z</time></trkpt><trkpt lat="45.08211621763932" lon="9.258601380913218"><ele>68.0</ele><time>2026-03-28T15:02:13Z</time></trkpt><trkpt lat="45.081876167895196" lon="9.258668210663295"><ele>68.0</ele><time>2026-03-28T15:02:14Z</time></trkpt><trkpt lat="45.081634537767265" lon="9.258738515585396"><ele>68.0</ele><time>2026-03-28T15:02:15Z</time></trkpt><trkpt lat="45.08138159982562" lon="9.258807722702686"><ele>68.0</ele><time>2026-03-28T15:02:16Z</time></trkpt><trkpt lat="45.08113284294575" lon="9.25887457196673"><ele>68.0</ele><time>2026-03-28T15:02:17Z</time></trkpt><trkpt lat="45.08088696537578" lon="9.25895075221062"><ele>68.0</ele><time>2026-03-28T15:02:18Z</time></trkpt><trkpt lat="45.08063764624281" lon="9.25902702085041"><ele>68.0</ele><time>2026-03-28T15:02:19Z</time></trkpt><trkpt lat="45.080388096752884" lon="9.25910800790322"><ele>68.0</ele><time>2026-03-28T15:02:20Z</time></trkpt><trkpt lat="45.08014540934149" lon="9.259183985842537"><ele>68.0</ele><time>2026-03-28T15:02:21Z</time></trkpt><trkpt lat="45.07989877826775" lon="9.259263165080943"><ele>68.5</ele><time>2026-03-28T15:02:22Z</time></trkpt><trkpt lat="45.07967042366123" lon="9.259337477341598"><ele>69.0</ele><time>2026-03-28T15:02:23Z</time></trkpt><trkpt lat="45.07945570786999" lon="9.259393221935873"><ele>69.0</ele><time>2026-03-28T15:02:24Z</time></trkpt><trkpt lat="45.07924169176539" lon="9.259446835521976"><ele>69.0</ele><time>2026-03-28T15:02:25Z</time></trkpt><trkpt lat="45.07904646230065" lon="9.259502375116364"><ele>69.0</ele><time>2026-03-28T15:02:26Z</time></trkpt><trkpt lat="45.07884621116692" lon="9.259556916247755"><ele>69.66666666666667</ele><time>2026-03-28T15:02:27Z</time></trkpt><trkpt lat="45.07865974694672" lon="9.259612355474877"><ele>70.33333333333334</ele><time>2026-03-28T15:02:28Z</time></trkpt><trkpt lat="45.07847056497963" lon="9.25966966887025"><ele>71.0</ele><time>2026-03-28T15:02:29Z</time></trkpt><trkpt lat="45.07829053730616" lon="9.259721632479586"><ele>71.0</ele><time>2026-03-28T15:02:30Z</time></trkpt><trkpt lat="45.07811416422898" lon="9.25977845766698"><ele>71.0</ele><time>2026-03-28T15:02:31Z</time></trkpt><trkpt lat="45.07794517031786" lon="9.259830785137037"><ele>71.0</ele><time>2026-03-28T15:02:32Z</time></trkpt><trkpt lat="45.07778297733273" lon="9.259877942050707"><ele>71.0</ele><time>2026-03-28T15:02:33Z</time></trkpt><trkpt lat="45.07762580755335" lon="9.25992071498788"><ele>71.0</ele><time>2026-03-28T15:02:34Z</time></trkpt><trkpt lat="45.077466301405465" lon="9.259969312268078"><ele>71.0</ele><time>2026-03-28T15:02:35Z</time></trkpt><trkpt lat="45.07730967704649" lon="9.260018304286831"><ele>71.66666666666667</ele><time>2026-03-28T15:02:36Z</time></trkpt><trkpt lat="45.07715078485869" lon="9.260065097257577"><ele>72.33333333333333</ele><time>2026-03-28T15:02:37Z</time></trkpt><trkpt lat="45.076993228423575" lon="9.260116329756936"><ele>73.0</ele><time>2026-03-28T15:02:38Z</time></trkpt><trkpt lat="45.07683805519035" lon="9.26015944328573"><ele>73.0</ele><time>2026-03-28T15:02:39Z</time></trkpt><trkpt lat="45.0766958582465" lon="9.260205871154401"><ele>73.0</ele><time>2026-03-28T15:02:40Z</time></trkpt><trkpt lat="45.076549388864656" lon="9.260251055190405"><ele>73.0</ele><time>2026-03-28T15:02:41Z</time></trkpt><trkpt lat="45.07640112924809" lon="9.260308612642321"><ele>72.75</ele><time>2026-03-28T15:02:42Z</time></trkpt><trkpt lat="45.07626310197834" lon="9.260365086732284"><ele>72.5</ele><time>2026-03-28T15:02:43Z</time></trkpt><trkpt lat="45.07612687461294" lon="9.260433263996589"><ele>72.25</ele><time>2026-03-28T15:02:44Z</time></trkpt><trkpt lat="45.07598870759286" lon="9.260497552073902"><ele>72.0</ele><time>2026-03-28T15:02:45Z</time></trkpt><trkpt lat="45.07586309405981" lon="9.260546355699118"><ele>72.25</ele><time>2026-03-28T15:02:46Z</time></trkpt><trkpt lat="45.07573829509335" lon="9.260598828035945"><ele>72.5</ele><time>2026-03-28T15:02:47Z</time></trkpt><trkpt lat="45.07561543513161" lon="9.260652553664809"><ele>72.75</ele><time>2026-03-28T15:02:48Z</time></trkpt><trkpt lat="45.07549031630038" lon="9.260713796100323"><ele>73.0</ele><time>2026-03-28T15:02:49Z</time></trkpt><trkpt lat="45.07536849310005" lon="9.260790934177315"><ele>73.25</ele><time>2026-03-28T15:02:50Z</time></trkpt><trkpt lat="45.07523806984206" lon="9.260890350867738"><ele>73.5</ele><time>2026-03-28T15:02:51Z</time></trkpt><trkpt lat="45.07511281765605" lon="9.260990844095232"><ele>73.75</ele><time>2026-03-28T15:02:52Z</time></trkpt><trkpt lat="45.07498971467135" lon="9.261096927445584"><ele>74.0</ele><time>2026-03-28T15:02:53Z</time></trkpt><trkpt lat="45.0748685076249" lon="9.261210608419084"><ele>74.0</ele><time>2026-03-28T15:02:54Z</time></trkpt><trkpt lat="45.07473345012278" lon="9.261328486352125"><ele>74.0</ele><time>2026-03-28T15:02:55Z</time></trkpt><trkpt lat="45.074608009305415" lon="9.261448087183126"><ele>74.0</ele><time>2026-03-28T15:02:56Z</time></trkpt><trkpt lat="45.0744748558231" lon="9.261568789376708"><ele>74.0</ele><time>2026-03-28T15:02:57Z</time></trkpt><trkpt lat="45.0743373784348" lon="9.261696653913742"><ele>74.0</ele><time>2026-03-28T15:02:58Z</time></trkpt><trkpt lat="45.07419631948667" lon="9.261841508959582"><ele>74.0</ele><time>2026-03-28T15:02:59Z</time></trkpt><trkpt lat="45.074038695745784" lon="9.26200396835046"><ele>74.0</ele><time>2026-03-28T15:03:00Z</time></trkpt><trkpt lat="45.07385712625249" lon="9.26214459166622"><ele>74.0</ele><time>2026-03-28T15:03:01Z</time></trkpt><trkpt lat="45.073685038404825" lon="9.262319452205647"><ele>74.0</ele><time>2026-03-28T15:03:02Z</time></trkpt><trkpt lat="45.07350681065009" lon="9.262473905414769"><ele>74.0</ele><time>2026-03-28T15:03:03Z</time></trkpt><trkpt lat="45.073331765727765" lon="9.262633629016937"><ele>74.0</ele><time>2026-03-28T15:03:04Z</time></trkpt><trkpt lat="45.07314927274776" lon="9.262808171055575"><ele>74.0</ele><time>2026-03-28T15:03:05Z</time></trkpt><trkpt lat="45.07295584483367" lon="9.26299117674794"><ele>74.0</ele><time>2026-03-28T15:03:06Z</time></trkpt><trkpt lat="45.0727558220004" lon="9.263172608366812"><ele>74.0</ele><time>2026-03-28T15:03:07Z</time></trkpt><trkpt lat="45.072552343037174" lon="9.263343556242427"><ele>74.5</ele><time>2026-03-28T15:03:08Z</time></trkpt><trkpt lat="45.07234646277292" lon="9.26350717605231"><ele>75.0</ele><time>2026-03-28T15:03:09Z</time></trkpt><trkpt lat="45.07214998040845" lon="9.263683664814886"><ele>75.0</ele><time>2026-03-28T15:03:10Z</time></trkpt><trkpt lat="45.071951108004384" lon="9.26386392038219"><ele>75.0</ele><time>2026-03-28T15:03:11Z</time></trkpt><trkpt lat="45.071751266982275" lon="9.264041224885895"><ele>75.66666666666667</ele><time>2026-03-28T15:03:12Z</time></trkpt><trkpt lat="45.071568693072635" lon="9.26421583304078"><ele>76.33333333333334</ele><time>2026-03-28T15:03:13Z</time></trkpt><trkpt lat="45.07139552141531" lon="9.264375185812794"><ele>77.0</ele><time>2026-03-28T15:03:14Z</time></trkpt><trkpt lat="45.07123368814299" lon="9.264524920358802"><ele>77.0</ele><time>2026-03-28T15:03:15Z</time></trkpt><trkpt lat="45.07106151789665" lon="9.264679881937518"><ele>77.0</ele><time>2026-03-28T15:03:16Z</time></trkpt><trkpt lat="45.070887531595154" lon="9.264835908200723"><ele>77.0</ele><time>2026-03-28T15:03:17Z</time></trkpt><trkpt lat="45.07071428484564" lon="9.264995865573626"><ele>77.66666666666667</ele><time>2026-03-28T15:03:18Z</time></trkpt><trkpt lat="45.070552912977725" lon="9.265149962019706"><ele>78.33333333333333</ele><time>2026-03-28T15:03:19Z</time></trkpt><trkpt lat="45.070398509946784" lon="9.265290555947212"><ele>79.0</ele><time>2026-03-28T15:03:20Z</time></trkpt><trkpt lat="45.07026728229552" lon="9.265413336252237"><ele>79.0</ele><time>2026-03-28T15:03:21Z</time></trkpt><trkpt lat="45.07014691683084" lon="9.265522934052584"><ele>79.0</ele><time>2026-03-28T15:03:22Z</time></trkpt><trkpt lat="45.0700291822845" lon="9.265630255606409"><ele>79.0</ele><time>2026-03-28T15:03:23Z</time></trkpt><trkpt lat="45.069927069779" lon="9.265728354184395"><ele>79.0</ele><time>2026-03-28T15:03:24Z</time></trkpt><trkpt lat="45.06983667939125" lon="9.265815772632203"><ele>79.4</ele><time>2026-03-28T15:03:25Z</time></trkpt><trkpt lat="45.0697349792036" lon="9.265902807987281"><ele>79.80000000000001</ele><time>2026-03-28T15:03:26Z</time></trkpt><trkpt lat="45.069640453077774" lon="9.2659846438144"><ele>80.19999999999999</ele><time>2026-03-28T15:03:27Z</time></trkpt><trkpt lat="45.069551269119614" lon="9.266063144120704"><ele>80.6</ele><time>2026-03-28T15:03:28Z</time></trkpt><trkpt lat="45.069473397056605" lon="9.266129942344596"><ele>81.0</ele><time>2026-03-28T15:03:29Z</time></trkpt><trkpt lat="45.06940827737493" lon="9.266185539363722"><ele>81.0</ele><time>2026-03-28T15:03:30Z</time></trkpt><trkpt lat="45.06935321572517" lon="9.266229851309411"><ele>81.0</ele><time>2026-03-28T15:03:31Z</time></trkpt><trkpt lat="45.06924875032982" lon="9.266288393105842"><ele>81.0</ele><time>2026-03-28T15:03:33Z</time></trkpt><trkpt lat="45.0691698526646" lon="9.26631727971564"><ele>81.0</ele><time>2026-03-28T15:03:35Z</time></trkpt><trkpt lat="45.069074362372106" lon="9.266347562105986"><ele>81.0</ele><time>2026-03-28T15:03:46Z</time></trkpt><trkpt lat="45.06901528517145" lon="9.26638236954432"><ele>81.0</ele><time>2026-03-28T15:03:47Z</time></trkpt><trkpt lat="45.068919451366526" lon="9.266488539123882"><ele>81.6</ele><time>2026-03-28T15:03:49Z</time></trkpt><trkpt lat="45.0688491348123" lon="9.266648033758338"><ele>82.19999999999999</ele><time>2026-03-28T15:03:51Z</time></trkpt><trkpt lat="45.06879569825249" lon="9.26673701901694"><ele>82.80000000000001</ele><time>2026-03-28T15:03:52Z</time></trkpt><trkpt lat="45.0687339664831" lon="9.26682123646762"><ele>83.4</ele><time>2026-03-28T15:03:53Z</time></trkpt><trkpt lat="45.06866057504372" lon="9.26688763761774"><ele>84.0</ele><time>2026-03-28T15:03:54Z</time></trkpt><trkpt lat="45.06858982598701" lon="9.266947919816444"><ele>84.0</ele><time>2026-03-28T15:03:55Z</time></trkpt><trkpt lat="45.06851590791623" lon="9.267011519447463"><ele>84.0</ele><time>2026-03-28T15:03:56Z</time></trkpt><trkpt lat="45.068451086638575" lon="9.267060135476093"><ele>84.0</ele><time>2026-03-28T15:03:57Z</time></trkpt><trkpt lat="45.06839095072041" lon="9.267092438172764"><ele>84.0</ele><time>2026-03-28T15:03:58Z</time></trkpt><trkpt lat="45.068272073484486" lon="9.26706200718012"><ele>84.0</ele><time>2026-03-28T15:04:00Z</time></trkpt><trkpt lat="45.06821779711824" lon="9.266969803211863"><ele>84.0</ele><time>2026-03-28T15:04:01Z</time></trkpt><trkpt lat="45.068141260944294" lon="9.266912246937082"><ele>84.33333333333333</ele><time>2026-03-28T15:04:02Z</time></trkpt><trkpt lat="45.06807467121614" lon="9.266847477704925"><ele>84.66666666666667</ele><time>2026-03-28T15:04:03Z</time></trkpt><trkpt lat="45.06800147859404" lon="9.266788051770588"><ele>85.0</ele><time>2026-03-28T15:04:04Z</time></trkpt><trkpt lat="45.06793911183411" lon="9.266684703096317"><ele>85.33333333333334</ele><time>2026-03-28T15:04:05Z</time></trkpt><trkpt lat="45.06786332156076" lon="9.26665149924173"><ele>85.66666666666667</ele><time>2026-03-28T15:04:06Z</time></trkpt><trkpt lat="45.06779445813053" lon="9.266610374811274"><ele>86.0</ele><time>2026-03-28T15:04:07Z</time></trkpt><trkpt lat="45.067727191614765" lon="9.266574558847124"><ele>86.0</ele><time>2026-03-28T15:04:08Z</time></trkpt><trkpt lat="45.067667217750454" lon="9.266539561869916"><ele>86.0</ele><time>2026-03-28T15:04:09Z</time></trkpt><trkpt lat="45.067599241039815" lon="9.266477296882774"><ele>86.0</ele><time>2026-03-28T15:04:11Z</time></trkpt><trkpt lat="45.06754176435062" lon="9.266630230982063"><ele>86.0</ele><time>2026-03-28T15:04:12Z</time></trkpt><trkpt lat="45.067510255975" lon="9.266740335968752"><ele>86.0</ele><time>2026-03-28T15:04:13Z</time></trkpt><trkpt lat="45.067481174812904" lon="9.266900769252034"><ele>86.25</ele><time>2026-03-28T15:04:14Z</time></trkpt><trkpt lat="45.06744170375027" lon="9.267071654342303"><ele>86.5</ele><time>2026-03-28T15:04:15Z</time></trkpt><trkpt lat="45.06738100346757" lon="9.267305771282976"><ele>86.75</ele><time>2026-03-28T15:04:16Z</time></trkpt><trkpt lat="45.067343940943495" lon="9.267465770137028"><ele>87.0</ele><time>2026-03-28T15:04:17Z</time></trkpt><trkpt lat="45.0673129882027" lon="9.267601487276297"><ele>88.0</ele><time>2026-03-28T15:04:18Z</time></trkpt><trkpt lat="45.067286161831476" lon="9.267708288012905"><ele>89.0</ele><time>2026-03-28T15:04:19Z</time></trkpt><trkpt lat="45.067300429186474" lon="9.267837665493468"><ele>90.0</ele><time>2026-03-28T15:04:20Z</time></trkpt><trkpt lat="45.06732698862728" lon="9.267991366129289"><ele>91.0</ele><time>2026-03-28T15:04:21Z</time></trkpt><trkpt lat="45.067392988842215" lon="9.268186664068912"><ele>92.0</ele><time>2026-03-28T15:04:22Z</time></trkpt><trkpt lat="45.06744305605649" lon="9.268367429650718"><ele>92.0</ele><time>2026-03-28T15:04:23Z</time></trkpt><trkpt lat="45.067514440715264" lon="9.268541603632341"><ele>92.0</ele><time>2026-03-28T15:04:24Z</time></trkpt><trkpt lat="45.06755787476341" lon="9.26867548457864"><ele>92.0</ele><time>2026-03-28T15:04:25Z</time></trkpt><trkpt lat="45.067628788105665" lon="9.268818383573706"><ele>92.0</ele><time>2026-03-28T15:04:26Z</time></trkpt><trkpt lat="45.067718495382" lon="9.268961596436332"><ele>93.0</ele><time>2026-03-28T15:04:27Z</time></trkpt><trkpt lat="45.06782590916071" lon="9.269098246398265"><ele>94.0</ele><time>2026-03-28T15:04:28Z</time></trkpt><trkpt lat="45.06794007397068" lon="9.26922646750929"><ele>95.0</ele><time>2026-03-28T15:04:29Z</time></trkpt><trkpt lat="45.06804748065254" lon="9.269347906391305"><ele>96.0</ele><time>2026-03-28T15:04:30Z</time></trkpt><trkpt lat="45.06813871676431" lon="9.269450891428374"><ele>96.0</ele><time>2026-03-28T15:04:31Z</time></trkpt><trkpt lat="45.06821797190045" lon="9.269523128830345"><ele>96.0</ele><time>2026-03-28T15:04:32Z</time></trkpt><trkpt lat="45.06828922448787" lon="9.269624526997003"><ele>96.0</ele><time>2026-03-28T15:04:33Z</time></trkpt><trkpt lat="45.06836787306498" lon="9.269746576601262"><ele>96.0</ele><time>2026-03-28T15:04:34Z</time></trkpt><trkpt lat="45.068434438330996" lon="9.269879582042448"><ele>96.0</ele><time>2026-03-28T15:04:35Z</time></trkpt><trkpt lat="45.06849483269347" lon="9.270006990878416"><ele>95.66666666666667</ele><time>2026-03-28T15:04:36Z</time></trkpt><trkpt lat="45.06854166323801" lon="9.270096868613535"><ele>95.33333333333333</ele><time>2026-03-28T15:04:37Z</time></trkpt><trkpt lat="45.06861122391807" lon="9.270173339833397"><ele>95.0</ele><time>2026-03-28T15:04:38Z</time></trkpt><trkpt lat="45.068699328469435" lon="9.270241505593567"><ele>94.66666666666666</ele><time>2026-03-28T15:04:39Z</time></trkpt><trkpt lat="45.06878260598684" lon="9.270304862637895"><ele>94.33333333333333</ele><time>2026-03-28T15:04:40Z</time></trkpt><trkpt lat="45.0688507226322" lon="9.270355192882633"><ele>94.0</ele><time>2026-03-28T15:04:41Z</time></trkpt><trkpt lat="45.06891220694014" lon="9.270410558020163"><ele>94.0</ele><time>2026-03-28T15:04:42Z</time></trkpt><trkpt lat="45.068934602959345" lon="9.270505478931915"><ele>94.0</ele><time>2026-03-28T15:04:43Z</time></trkpt><trkpt lat="45.06894407662632" lon="9.27065976814408"><ele>94.0</ele><time>2026-03-28T15:04:44Z</time></trkpt><trkpt lat="45.06894652337377" lon="9.270827531889438"><ele>94.0</ele><time>2026-03-28T15:04:45Z</time></trkpt><trkpt lat="45.0689464851044" lon="9.271003450736078"><ele>94.0</ele><time>2026-03-28T15:04:46Z</time></trkpt><trkpt lat="45.06894798752124" lon="9.27116132403842"><ele>95.0</ele><time>2026-03-28T15:04:47Z</time></trkpt><trkpt lat="45.068986341363534" lon="9.271314032640454"><ele>96.0</ele><time>2026-03-28T15:04:48Z</time></trkpt><trkpt lat="45.0690436173005" lon="9.271466961031551"><ele>97.0</ele><time>2026-03-28T15:04:49Z</time></trkpt><trkpt lat="45.06909759160489" lon="9.271623643427613"><ele>98.0</ele><time>2026-03-28T15:04:50Z</time></trkpt><trkpt lat="45.06912660756306" lon="9.271767119995008"><ele>98.0</ele><time>2026-03-28T15:04:51Z</time></trkpt><trkpt lat="45.06912413503802" lon="9.271922091150534"><ele>98.0</ele><time>2026-03-28T15:04:52Z</time></trkpt><trkpt lat="45.06912330730856" lon="9.272111807113498"><ele>98.0</ele><time>2026-03-28T15:04:53Z</time></trkpt><trkpt lat="45.069126414306844" lon="9.272309084515525"><ele>98.0</ele><time>2026-03-28T15:04:54Z</time></trkpt><trkpt lat="45.06913199823181" lon="9.272474745019743"><ele>98.33333333333333</ele><time>2026-03-28T15:04:55Z</time></trkpt><trkpt lat="45.06913568846087" lon="9.272599770365996"><ele>98.66666666666666</ele><time>2026-03-28T15:04:56Z</time></trkpt><trkpt lat="45.069131137625526" lon="9.27269920993294"><ele>99.0</ele><time>2026-03-28T15:04:57Z</time></trkpt><trkpt lat="45.06911872094193" lon="9.272809870406727"><ele>99.33333333333334</ele><time>2026-03-28T15:04:58Z</time></trkpt><trkpt lat="45.06909023221736" lon="9.272915406451151"><ele>99.66666666666667</ele><time>2026-03-28T15:04:59Z</time></trkpt><trkpt lat="45.069049299321904" lon="9.273012489399147"><ele>100.0</ele><time>2026-03-28T15:05:00Z</time></trkpt><trkpt lat="45.068970476643734" lon="9.273078861330568"><ele>101.75</ele><time>2026-03-28T15:05:01Z</time></trkpt><trkpt lat="45.06888433233875" lon="9.273127264476626"><ele>103.5</ele><time>2026-03-28T15:05:02Z</time></trkpt><trkpt lat="45.068764004206784" lon="9.273118546809524"><ele>105.25</ele><time>2026-03-28T15:05:03Z</time></trkpt><trkpt lat="45.06861043705527" lon="9.273168518485262"><ele>107.0</ele><time>2026-03-28T15:05:04Z</time></trkpt><trkpt lat="45.06844790251224" lon="9.273203870653854"><ele>108.33333333333333</ele><time>2026-03-28T15:05:05Z</time></trkpt><trkpt lat="45.06826719284148" lon="9.273273864938611"><ele>109.66666666666666</ele><time>2026-03-28T15:05:06Z</time></trkpt><trkpt lat="45.068092236339766" lon="9.273336031825712"><ele>111.0</ele><time>2026-03-28T15:05:07Z</time></trkpt><trkpt lat="45.067946637418636" lon="9.273378306618731"><ele>111.0</ele><time>2026-03-28T15:05:08Z</time></trkpt><trkpt lat="45.06782225490383" lon="9.273412842499301"><ele>111.0</ele><time>2026-03-28T15:05:09Z</time></trkpt><trkpt lat="45.06769185535876" lon="9.273438148905232"><ele>111.0</ele><time>2026-03-28T15:05:10Z</time></trkpt><trkpt lat="45.06756640122788" lon="9.273454487515135"><ele>111.0</ele><time>2026-03-28T15:05:11Z</time></trkpt><trkpt lat="45.06745076919398" lon="9.273489515338271"><ele>111.0</ele><time>2026-03-28T15:05:12Z</time></trkpt><trkpt lat="45.067341695115516" lon="9.273540248059888"><ele>111.0</ele><time>2026-03-28T15:05:13Z</time></trkpt><trkpt lat="45.06724093843462" lon="9.273594461742826"><ele>111.0</ele><time>2026-03-28T15:05:14Z</time></trkpt><trkpt lat="45.06713342095374" lon="9.273621865635112"><ele>111.0</ele><time>2026-03-28T15:05:15Z</time></trkpt><trkpt lat="45.06700139476001" lon="9.273582440347802"><ele>111.0</ele><time>2026-03-28T15:05:16Z</time></trkpt><trkpt lat="45.066855217486975" lon="9.273575680122855"><ele>111.0</ele><time>2026-03-28T15:05:17Z</time></trkpt><trkpt lat="45.066710209669715" lon="9.273580642865035"><ele>111.0</ele><time>2026-03-28T15:05:18Z</time></trkpt><trkpt lat="45.06656486858424" lon="9.273624876334768"><ele>111.0</ele><time>2026-03-28T15:05:19Z</time></trkpt><trkpt lat="45.06641563396586" lon="9.273631209014091"><ele>110.33333333333334</ele><time>2026-03-28T15:05:20Z</time></trkpt><trkpt lat="45.06626834265587" lon="9.273611252038618"><ele>109.66666666666667</ele><time>2026-03-28T15:05:21Z</time></trkpt><trkpt lat="45.0661281986249" lon="9.273533051993093"><ele>109.0</ele><time>2026-03-28T15:05:22Z</time></trkpt><trkpt lat="45.06597877189744" lon="9.273475314078325"><ele>109.0</ele><time>2026-03-28T15:05:23Z</time></trkpt><trkpt lat="45.06582757616375" lon="9.273471850253962"><ele>109.0</ele><time>2026-03-28T15:05:24Z</time></trkpt><trkpt lat="45.0656624269042" lon="9.273484297162396"><ele>109.0</ele><time>2026-03-28T15:05:25Z</time></trkpt><trkpt lat="45.065520643262715" lon="9.273431265997306"><ele>112.0</ele><time>2026-03-28T15:05:26Z</time></trkpt><trkpt lat="45.06536728831785" lon="9.27341593734021"><ele>115.0</ele><time>2026-03-28T15:05:27Z</time></trkpt><trkpt lat="45.06521701263037" lon="9.273404905739087"><ele>118.0</ele><time>2026-03-28T15:05:28Z</time></trkpt><trkpt lat="45.06504553848922" lon="9.273449325194603"><ele>121.0</ele><time>2026-03-28T15:05:29Z</time></trkpt><trkpt lat="45.06486075633068" lon="9.273503295258095"><ele>124.0</ele><time>2026-03-28T15:05:30Z</time></trkpt><trkpt lat="45.064692319512716" lon="9.273531925806797"><ele>127.0</ele><time>2026-03-28T15:05:31Z</time></trkpt><trkpt lat="45.06456676135505" lon="9.273595096096859"><ele>127.0</ele><time>2026-03-28T15:05:32Z</time></trkpt><trkpt lat="45.0644292832603" lon="9.273610308628422"><ele>127.0</ele><time>2026-03-28T15:05:33Z</time></trkpt><trkpt lat="45.06429934994452" lon="9.27362954084839"><ele>127.0</ele><time>2026-03-28T15:05:34Z</time></trkpt><trkpt lat="45.06415096826885" lon="9.273659292634374"><ele>127.0</ele><time>2026-03-28T15:05:35Z</time></trkpt><trkpt lat="45.064009503603955" lon="9.27366148529196"><ele>127.5</ele><time>2026-03-28T15:05:36Z</time></trkpt><trkpt lat="45.063882676470264" lon="9.273651798685966"><ele>128.0</ele><time>2026-03-28T15:05:37Z</time></trkpt><trkpt lat="45.063737926845896" lon="9.273661010912795"><ele>128.5</ele><time>2026-03-28T15:05:38Z</time></trkpt><trkpt lat="45.06357865688834" lon="9.273673112913281"><ele>129.0</ele><time>2026-03-28T15:05:39Z</time></trkpt><trkpt lat="45.06342401385455" lon="9.273671006726724"><ele>128.25</ele><time>2026-03-28T15:05:40Z</time></trkpt><trkpt lat="45.06326406979235" lon="9.27367968311508"><ele>127.5</ele><time>2026-03-28T15:05:41Z</time></trkpt><trkpt lat="45.06311331049928" lon="9.273700111004928"><ele>126.75</ele><time>2026-03-28T15:05:42Z</time></trkpt><trkpt lat="45.06299249531936" lon="9.27369656313171"><ele>126.0</ele><time>2026-03-28T15:05:43Z</time></trkpt><trkpt lat="45.062885370411614" lon="9.273724471955628"><ele>126.0</ele><time>2026-03-28T15:05:44Z</time></trkpt><trkpt lat="45.06279348032336" lon="9.273747896865451"><ele>126.0</ele><time>2026-03-28T15:05:45Z</time></trkpt><trkpt lat="45.06271436080338" lon="9.27377337067089"><ele>126.0</ele><time>2026-03-28T15:05:46Z</time></trkpt><trkpt lat="45.06258366425276" lon="9.273791907726121"><ele>126.0</ele><time>2026-03-28T15:05:48Z</time></trkpt><trkpt lat="45.062508213264394" lon="9.273781827180315"><ele>126.0</ele><time>2026-03-28T15:05:49Z</time></trkpt><trkpt lat="45.062432161149566" lon="9.273757834542213"><ele>127.8</ele><time>2026-03-28T15:05:50Z</time></trkpt><trkpt lat="45.06235416340921" lon="9.273720392050388"><ele>129.6</ele><time>2026-03-28T15:05:51Z</time></trkpt><trkpt lat="45.06227332167745" lon="9.273667673898286"><ele>131.4</ele><time>2026-03-28T15:05:52Z</time></trkpt><trkpt lat="45.06218616627959" lon="9.273614914296516"><ele>133.2</ele><time>2026-03-28T15:05:53Z</time></trkpt><trkpt lat="45.062098004725314" lon="9.273549367308778"><ele>135.0</ele><time>2026-03-28T15:05:54Z</time></trkpt><trkpt lat="45.06201158726482" lon="9.273482744422255"><ele>135.0</ele><time>2026-03-28T15:05:55Z</time></trkpt><trkpt lat="45.06192465601105" lon="9.273412993649652"><ele>135.0</ele><time>2026-03-28T15:05:56Z</time></trkpt><trkpt lat="45.06182710174088" lon="9.273343935266759"><ele>135.0</ele><time>2026-03-28T15:05:57Z</time></trkpt><trkpt lat="45.06173523388817" lon="9.273278158554596"><ele>135.0</ele><time>2026-03-28T15:05:58Z</time></trkpt><trkpt lat="45.06165062205212" lon="9.273223867284184"><ele>135.0</ele><time>2026-03-28T15:05:59Z</time></trkpt><trkpt lat="45.061558125362964" lon="9.27316437538361"><ele>136.0</ele><time>2026-03-28T15:06:00Z</time></trkpt><trkpt lat="45.06145628328044" lon="9.273104538984038"><ele>137.0</ele><time>2026-03-28T15:06:01Z</time></trkpt><trkpt lat="45.061335771032454" lon="9.273054010881687"><ele>138.0</ele><time>2026-03-28T15:06:02Z</time></trkpt><trkpt lat="45.061207287889054" lon="9.272982605703648"><ele>139.0</ele><time>2026-03-28T15:06:03Z</time></trkpt><trkpt lat="45.06107844188712" lon="9.272923364224972"><ele>139.0</ele><time>2026-03-28T15:06:04Z</time></trkpt><trkpt lat="45.06098251456626" lon="9.272879890931748"><ele>139.0</ele><time>2026-03-28T15:06:05Z</time></trkpt><trkpt lat="45.060885811450156" lon="9.272807553935726"><ele>139.0</ele><time>2026-03-28T15:06:06Z</time></trkpt><trkpt lat="45.060769218205444" lon="9.272719603634197"><ele>139.0</ele><time>2026-03-28T15:06:07Z</time></trkpt><trkpt lat="45.06062915565396" lon="9.272644789656656"><ele>139.0</ele><time>2026-03-28T15:06:08Z</time></trkpt><trkpt lat="45.06051375274575" lon="9.272578788216526"><ele>139.0</ele><time>2026-03-28T15:06:09Z</time></trkpt><trkpt lat="45.06041663330983" lon="9.272532085106338"><ele>139.0</ele><time>2026-03-28T15:06:10Z</time></trkpt><trkpt lat="45.060314042869315" lon="9.272510089880026"><ele>139.0</ele><time>2026-03-28T15:06:11Z</time></trkpt><trkpt lat="45.06019488552067" lon="9.272456687400153"><ele>139.0</ele><time>2026-03-28T15:06:12Z</time></trkpt><trkpt lat="45.06006026364772" lon="9.272450679079675"><ele>139.0</ele><time>2026-03-28T15:06:13Z</time></trkpt><trkpt lat="45.05993353127827" lon="9.272434335260241"><ele>139.0</ele><time>2026-03-28T15:06:14Z</time></trkpt><trkpt lat="45.05980875315381" lon="9.272427127280741"><ele>139.0</ele><time>2026-03-28T15:06:15Z</time></trkpt><trkpt lat="45.059687939349935" lon="9.272409156557522"><ele>139.25</ele><time>2026-03-28T15:06:16Z</time></trkpt><trkpt lat="45.05955610156865" lon="9.272379223667787"><ele>139.5</ele><time>2026-03-28T15:06:17Z</time></trkpt><trkpt lat="45.059457109603954" lon="9.272345413748424"><ele>139.75</ele><time>2026-03-28T15:06:18Z</time></trkpt><trkpt lat="45.05934429036096" lon="9.27232442103914"><ele>140.0</ele><time>2026-03-28T15:06:19Z</time></trkpt><trkpt lat="45.059210896208725" lon="9.272275812372781"><ele>141.2</ele><time>2026-03-28T15:06:20Z</time></trkpt><trkpt lat="45.059115089587415" lon="9.272243694747281"><ele>142.4</ele><time>2026-03-28T15:06:21Z</time></trkpt><trkpt lat="45.059008415448815" lon="9.272209423949773"><ele>143.6</ele><time>2026-03-28T15:06:22Z</time></trkpt><trkpt lat="45.05891848428996" lon="9.272176127053836"><ele>144.8</ele><time>2026-03-28T15:06:23Z</time></trkpt><trkpt lat="45.058823626661514" lon="9.272146362082685"><ele>146.0</ele><time>2026-03-28T15:06:24Z</time></trkpt><trkpt lat="45.05872982483872" lon="9.27210312261208"><ele>146.0</ele><time>2026-03-28T15:06:25Z</time></trkpt><trkpt lat="45.05863445298355" lon="9.272072374628426"><ele>146.0</ele><time>2026-03-28T15:06:26Z</time></trkpt><trkpt lat="45.05853358795231" lon="9.272022703022833"><ele>146.0</ele><time>2026-03-28T15:06:27Z</time></trkpt><trkpt lat="45.05844302401248" lon="9.271975605220653"><ele>146.0</ele><time>2026-03-28T15:06:28Z</time></trkpt><trkpt lat="45.05832354301504" lon="9.271945513920599"><ele>146.0</ele><time>2026-03-28T15:06:29Z</time></trkpt><trkpt lat="45.05822530736487" lon="9.271893125768933"><ele>146.25</ele><time>2026-03-28T15:06:30Z</time></trkpt><trkpt lat="45.0581200812616" lon="9.271848439222245"><ele>146.5</ele><time>2026-03-28T15:06:31Z</time></trkpt><trkpt lat="45.0580014149142" lon="9.27180090790848"><ele>146.75</ele><time>2026-03-28T15:06:32Z</time></trkpt><trkpt lat="45.05787778772076" lon="9.271751979174917"><ele>147.0</ele><time>2026-03-28T15:06:33Z</time></trkpt><trkpt lat="45.05774715636801" lon="9.27170376173669"><ele>147.0</ele><time>2026-03-28T15:06:34Z</time></trkpt><trkpt lat="45.05764264436731" lon="9.271641720912648"><ele>147.0</ele><time>2026-03-28T15:06:35Z</time></trkpt><trkpt lat="45.0575354501671" lon="9.271611815314632"><ele>147.0</ele><time>2026-03-28T15:06:36Z</time></trkpt><trkpt lat="45.05743831467628" lon="9.271566762106763"><ele>147.0</ele><time>2026-03-28T15:06:37Z</time></trkpt><trkpt lat="45.05736810642277" lon="9.271500049548958"><ele>147.0</ele><time>2026-03-28T15:06:38Z</time></trkpt><trkpt lat="45.0572798071675" lon="9.271463938448521"><ele>149.5</ele><time>2026-03-28T15:06:39Z</time></trkpt><trkpt lat="45.057198055278256" lon="9.271419186899706"><ele>152.0</ele><time>2026-03-28T15:06:40Z</time></trkpt><trkpt lat="45.05713413643726" lon="9.27139962971029"><ele>154.5</ele><time>2026-03-28T15:06:41Z</time></trkpt><trkpt lat="45.05705472190857" lon="9.271400618607057"><ele>157.0</ele><time>2026-03-28T15:06:42Z</time></trkpt><trkpt lat="45.05695843323725" lon="9.271398774112056"><ele>159.5</ele><time>2026-03-28T15:06:43Z</time></trkpt><trkpt lat="45.056857013817115" lon="9.271406710078478"><ele>162.0</ele><time>2026-03-28T15:06:44Z</time></trkpt><trkpt lat="45.05675386467159" lon="9.271413636230989"><ele>162.0</ele><time>2026-03-28T15:06:45Z</time></trkpt><trkpt lat="45.056656440165334" lon="9.271421235909266"><ele>162.0</ele><time>2026-03-28T15:06:46Z</time></trkpt><trkpt lat="45.05656077317819" lon="9.271396142209145"><ele>162.0</ele><time>2026-03-28T15:06:47Z</time></trkpt><trkpt lat="45.05648157653863" lon="9.271397842267655"><ele>162.0</ele><time>2026-03-28T15:06:48Z</time></trkpt><trkpt lat="45.05639963482382" lon="9.271415605496017"><ele>162.0</ele><time>2026-03-28T15:06:49Z</time></trkpt><trkpt lat="45.05632944188233" lon="9.271505778310829"><ele>161.0</ele><time>2026-03-28T15:06:50Z</time></trkpt><trkpt lat="45.05623852744141" lon="9.2715533031996"><ele>160.0</ele><time>2026-03-28T15:06:51Z</time></trkpt><trkpt lat="45.05616321374624" lon="9.27162261721225"><ele>159.0</ele><time>2026-03-28T15:06:52Z</time></trkpt><trkpt lat="45.05607515736687" lon="9.271673080418072"><ele>158.0</ele><time>2026-03-28T15:06:53Z</time></trkpt><trkpt lat="45.05598144947239" lon="9.271739642897732"><ele>157.0</ele><time>2026-03-28T15:06:54Z</time></trkpt><trkpt lat="45.05588269088753" lon="9.271800283700433"><ele>159.0</ele><time>2026-03-28T15:06:55Z</time></trkpt><trkpt lat="45.055786245533305" lon="9.271869550220563"><ele>161.0</ele><time>2026-03-28T15:06:56Z</time></trkpt><trkpt lat="45.05569746008397" lon="9.271950188880565"><ele>163.0</ele><time>2026-03-28T15:06:57Z</time></trkpt><trkpt lat="45.05561816675822" lon="9.272013078976572"><ele>165.0</ele><time>2026-03-28T15:06:58Z</time></trkpt><trkpt lat="45.055535541424334" lon="9.272066386706921"><ele>167.0</ele><time>2026-03-28T15:06:59Z</time></trkpt><trkpt lat="45.05545144264773" lon="9.27211967608091"><ele>167.0</ele><time>2026-03-28T15:07:00Z</time></trkpt><trkpt lat="45.05537761825146" lon="9.272161947214512"><ele>167.0</ele><time>2026-03-28T15:07:01Z</time></trkpt><trkpt lat="45.05525771622784" lon="9.272209063903547"><ele>167.0</ele><time>2026-03-28T15:07:03Z</time></trkpt><trkpt lat="45.05519578368386" lon="9.272237893314443"><ele>167.0</ele><time>2026-03-28T15:07:04Z</time></trkpt><trkpt lat="45.05511922143037" lon="9.272255908676161"><ele>167.0</ele><time>2026-03-28T15:07:05Z</time></trkpt><trkpt lat="45.05504954740326" lon="9.272275743417243"><ele>167.0</ele><time>2026-03-28T15:07:06Z</time></trkpt><trkpt lat="45.05498413367499" lon="9.272297091964736"><ele>165.83333333333331</ele><time>2026-03-28T15:07:07Z</time></trkpt><trkpt lat="45.05491322074812" lon="9.272328372882745"><ele>164.66666666666666</ele><time>2026-03-28T15:07:08Z</time></trkpt><trkpt lat="45.05483612619562" lon="9.272361312451405"><ele>163.5</ele><time>2026-03-28T15:07:09Z</time></trkpt><trkpt lat="45.05475142009434" lon="9.272387344342288"><ele>162.33333333333334</ele><time>2026-03-28T15:07:10Z</time></trkpt><trkpt lat="45.054666230953124" lon="9.272397168135534"><ele>161.16666666666669</ele><time>2026-03-28T15:07:11Z</time></trkpt><trkpt lat="45.05456359476359" lon="9.2724152272155"><ele>160.0</ele><time>2026-03-28T15:07:12Z</time></trkpt><trkpt lat="45.05447380269104" lon="9.272423535125196"><ele>160.0</ele><time>2026-03-28T15:07:13Z</time></trkpt><trkpt lat="45.05436727201612" lon="9.272435775111129"><ele>160.0</ele><time>2026-03-28T15:07:14Z</time></trkpt><trkpt lat="45.05426128533626" lon="9.272447660349556"><ele>160.0</ele><time>2026-03-28T15:07:15Z</time></trkpt><trkpt lat="45.05416076480674" lon="9.272474281436049"><ele>160.0</ele><time>2026-03-28T15:07:16Z</time></trkpt><trkpt lat="45.0540880278559" lon="9.272472012578994"><ele>160.0</ele><time>2026-03-28T15:07:17Z</time></trkpt><trkpt lat="45.053979667737536" lon="9.272483529408671"><ele>160.8</ele><time>2026-03-28T15:07:18Z</time></trkpt><trkpt lat="45.05387689993511" lon="9.27249360530376"><ele>161.6</ele><time>2026-03-28T15:07:19Z</time></trkpt><trkpt lat="45.05377481293715" lon="9.272514612206548"><ele>162.39999999999998</ele><time>2026-03-28T15:07:20Z</time></trkpt><trkpt lat="45.053685875553406" lon="9.272519128302772"><ele>163.2</ele><time>2026-03-28T15:07:21Z</time></trkpt><trkpt lat="45.05359949840172" lon="9.27251241780875"><ele>164.0</ele><time>2026-03-28T15:07:22Z</time></trkpt><trkpt lat="45.05351094971209" lon="9.272528115460728"><ele>164.0</ele><time>2026-03-28T15:07:23Z</time></trkpt><trkpt lat="45.05342548605293" lon="9.272542635854691"><ele>164.0</ele><time>2026-03-28T15:07:24Z</time></trkpt><trkpt lat="45.053328056619" lon="9.272560585909874"><ele>164.0</ele><time>2026-03-28T15:07:25Z</time></trkpt><trkpt lat="45.05322845411677" lon="9.27257519921952"><ele>164.0</ele><time>2026-03-28T15:07:26Z</time></trkpt><trkpt lat="45.05312936632792" lon="9.272585008804247"><ele>164.0</ele><time>2026-03-28T15:07:27Z</time></trkpt><trkpt lat="45.05303397444893" lon="9.272591420388144"><ele>164.6</ele><time>2026-03-28T15:07:28Z</time></trkpt><trkpt lat="45.05293163889571" lon="9.272591372564612"><ele>165.2</ele><time>2026-03-28T15:07:29Z</time></trkpt><trkpt lat="45.05282785811362" lon="9.272612048567888"><ele>165.79999999999998</ele><time>2026-03-28T15:07:30Z</time></trkpt><trkpt lat="45.052741389956395" lon="9.272624790629735"><ele>166.39999999999998</ele><time>2026-03-28T15:07:31Z</time></trkpt><trkpt lat="45.0526631549099" lon="9.272626371224764"><ele>167.0</ele><time>2026-03-28T15:07:32Z</time></trkpt><trkpt lat="45.05257124161749" lon="9.272613772107507"><ele>167.0</ele><time>2026-03-28T15:07:33Z</time></trkpt><trkpt lat="45.05248136038197" lon="9.27259121596403"><ele>167.0</ele><time>2026-03-28T15:07:34Z</time></trkpt><trkpt lat="45.052389685758065" lon="9.272553325888609"><ele>167.0</ele><time>2026-03-28T15:07:35Z</time></trkpt><trkpt lat="45.0523038077191" lon="9.27251054829328"><ele>167.0</ele><time>2026-03-28T15:07:36Z</time></trkpt><trkpt lat="45.05223362935523" lon="9.272469658105015"><ele>167.0</ele><time>2026-03-28T15:07:37Z</time></trkpt><trkpt lat="45.052149734509555" lon="9.272418321212234"><ele>167.0</ele><time>2026-03-28T15:07:38Z</time></trkpt><trkpt lat="45.052069276573675" lon="9.272400286031054"><ele>167.66666666666666</ele><time>2026-03-28T15:07:39Z</time></trkpt><trkpt lat="45.05198581129986" lon="9.272390095863054"><ele>168.33333333333331</ele><time>2026-03-28T15:07:40Z</time></trkpt><trkpt lat="45.051913968379814" lon="9.272399294024865"><ele>169.0</ele><time>2026-03-28T15:07:41Z</time></trkpt><trkpt lat="45.05183562008403" lon="9.272439269535798"><ele>169.66666666666666</ele><time>2026-03-28T15:07:42Z</time></trkpt><trkpt lat="45.051735168787665" lon="9.272481919156085"><ele>170.33333333333334</ele><time>2026-03-28T15:07:43Z</time></trkpt><trkpt lat="45.051647364723486" lon="9.2725212227335"><ele>171.0</ele><time>2026-03-28T15:07:44Z</time></trkpt><trkpt lat="45.051568520869075" lon="9.272546942063641"><ele>172.5</ele><time>2026-03-28T15:07:45Z</time></trkpt><trkpt lat="45.05149531402846" lon="9.272561427004414"><ele>174.0</ele><time>2026-03-28T15:07:46Z</time></trkpt><trkpt lat="45.051418941661645" lon="9.272523727888618"><ele>175.5</ele><time>2026-03-28T15:07:47Z</time></trkpt><trkpt lat="45.05135532186333" lon="9.272469843270839"><ele>177.0</ele><time>2026-03-28T15:07:48Z</time></trkpt><trkpt lat="45.051302468748396" lon="9.272390875472057"><ele>178.5</ele><time>2026-03-28T15:07:49Z</time></trkpt><trkpt lat="45.05123150868877" lon="9.27233714251508"><ele>180.0</ele><time>2026-03-28T15:07:50Z</time></trkpt><trkpt lat="45.05113301990134" lon="9.272297222102138"><ele>180.0</ele><time>2026-03-28T15:07:52Z</time></trkpt><trkpt lat="45.05106236988169" lon="9.272309478428722"><ele>180.0</ele><time>2026-03-28T15:07:53Z</time></trkpt><trkpt lat="45.05098539342655" lon="9.27233799424361"><ele>180.0</ele><time>2026-03-28T15:07:54Z</time></trkpt><trkpt lat="45.05092140180274" lon="9.272394830905517"><ele>180.0</ele><time>2026-03-28T15:07:55Z</time></trkpt><trkpt lat="45.05084223516888" lon="9.272532105744009"><ele>180.0</ele><time>2026-03-28T15:07:57Z</time></trkpt><trkpt lat="45.05083485587097" lon="9.272638436254507"><ele>180.0</ele><time>2026-03-28T15:07:58Z</time></trkpt><trkpt lat="45.05084046047264" lon="9.272727749865803"><ele>180.0</ele><time>2026-03-28T15:07:59Z</time></trkpt><trkpt lat="45.05087591356393" lon="9.27287649778974"><ele>180.0</ele><time>2026-03-28T15:08:01Z</time></trkpt><trkpt lat="45.05091577836624" lon="9.272956810642356"><ele>180.0</ele><time>2026-03-28T15:08:02Z</time></trkpt><trkpt lat="45.05096629061915" lon="9.273034268472719"><ele>180.0</ele><time>2026-03-28T15:08:03Z</time></trkpt><trkpt lat="45.05106390984611" lon="9.273040071401521"><ele>180.0</ele><time>2026-03-28T15:08:04Z</time></trkpt><trkpt lat="45.05117800945145" lon="9.273047209521216"><ele>180.0</ele><time>2026-03-28T15:08:05Z</time></trkpt><trkpt lat="45.05129293885167" lon="9.273066012159948"><ele>180.0</ele><time>2026-03-28T15:08:06Z</time></trkpt><trkpt lat="45.051410321343184" lon="9.273081186434593"><ele>180.0</ele><time>2026-03-28T15:08:07Z</time></trkpt><trkpt lat="45.051505972425076" lon="9.273077638486768"><ele>180.0</ele><time>2026-03-28T15:08:08Z</time></trkpt><trkpt lat="45.05160725855002" lon="9.273110875445358"><ele>180.0</ele><time>2026-03-28T15:08:09Z</time></trkpt><trkpt lat="45.05170928075761" lon="9.273149964329422"><ele>181.83333333333334</ele><time>2026-03-28T15:08:10Z</time></trkpt><trkpt lat="45.05181265370064" lon="9.273204026886706"><ele>183.66666666666666</ele><time>2026-03-28T15:08:11Z</time></trkpt><trkpt lat="45.05188093467401" lon="9.273237370513304"><ele>185.5</ele><time>2026-03-28T15:08:12Z</time></trkpt><trkpt lat="45.05196043915655" lon="9.27325946940002"><ele>187.33333333333331</ele><time>2026-03-28T15:08:13Z</time></trkpt><trkpt lat="45.052030171545745" lon="9.27331149956944"><ele>189.16666666666666</ele><time>2026-03-28T15:08:14Z</time></trkpt><trkpt lat="45.05210898319546" lon="9.273357379087466"><ele>191.0</ele><time>2026-03-28T15:08:15Z</time></trkpt><trkpt lat="45.05218852884014" lon="9.273388206990871"><ele>191.0</ele><time>2026-03-28T15:08:16Z</time></trkpt><trkpt lat="45.05226314833068" lon="9.273457599695726"><ele>191.0</ele><time>2026-03-28T15:08:17Z</time></trkpt><trkpt lat="45.05233880918427" lon="9.273530082081606"><ele>191.0</ele><time>2026-03-28T15:08:18Z</time></trkpt><trkpt lat="45.0523942433308" lon="9.273596497276309"><ele>191.0</ele><time>2026-03-28T15:08:19Z</time></trkpt><trkpt lat="45.05244729261649" lon="9.273675512271451"><ele>191.0</ele><time>2026-03-28T15:08:20Z</time></trkpt><trkpt lat="45.052478196842706" lon="9.273764152735907"><ele>191.0</ele><time>2026-03-28T15:08:21Z</time></trkpt><trkpt lat="45.05252119007227" lon="9.273839484273566"><ele>190.0</ele><time>2026-03-28T15:08:22Z</time></trkpt><trkpt lat="45.05258591502517" lon="9.273917317125537"><ele>189.0</ele><time>2026-03-28T15:08:23Z</time></trkpt><trkpt lat="45.05263174809936" lon="9.273990954109262"><ele>188.0</ele><time>2026-03-28T15:08:24Z</time></trkpt><trkpt lat="45.05268757100696" lon="9.274054233095455"><ele>187.0</ele><time>2026-03-28T15:08:25Z</time></trkpt><trkpt lat="45.05275515587553" lon="9.274085092390948"><ele>186.0</ele><time>2026-03-28T15:08:26Z</time></trkpt><trkpt lat="45.05284579385723" lon="9.274106045613548"><ele>185.0</ele><time>2026-03-28T15:08:27Z</time></trkpt><trkpt lat="45.05294307724363" lon="9.274139953014275"><ele>189.16666666666666</ele><time>2026-03-28T15:08:28Z</time></trkpt><trkpt lat="45.053048280458846" lon="9.274172636096306"><ele>193.33333333333331</ele><time>2026-03-28T15:08:29Z</time></trkpt><trkpt lat="45.053140148030934" lon="9.274208860306809"><ele>197.5</ele><time>2026-03-28T15:08:30Z</time></trkpt><trkpt lat="45.05322516010237" lon="9.274231863250797"><ele>201.66666666666666</ele><time>2026-03-28T15:08:31Z</time></trkpt><trkpt lat="45.053302304619784" lon="9.274264659847608"><ele>205.83333333333334</ele><time>2026-03-28T15:08:32Z</time></trkpt><trkpt lat="45.05337280424138" lon="9.274293917831907"><ele>210.0</ele><time>2026-03-28T15:08:33Z</time></trkpt><trkpt lat="45.05344109818194" lon="9.27431883913903"><ele>210.4</ele><time>2026-03-28T15:08:34Z</time></trkpt><trkpt lat="45.05350141838252" lon="9.274352931532526"><ele>210.8</ele><time>2026-03-28T15:08:35Z</time></trkpt><trkpt lat="45.05358286383876" lon="9.274439059877238"><ele>211.2</ele><time>2026-03-28T15:08:37Z</time></trkpt><trkpt lat="45.053616557005405" lon="9.274559156869772"><ele>211.6</ele><time>2026-03-28T15:08:39Z</time></trkpt><trkpt lat="45.05360490660697" lon="9.274659516121657"><ele>212.0</ele><time>2026-03-28T15:08:41Z</time></trkpt><trkpt lat="45.05377049164653" lon="9.274659546467683"><ele>212.00000000000003</ele><time>2026-03-28T15:08:52Z</time></trkpt><trkpt lat="45.053852621717084" lon="9.274667272701453"><ele>212.0</ele><time>2026-03-28T15:08:53Z</time></trkpt><trkpt lat="45.053939043667846" lon="9.274680738745545"><ele>212.0</ele><time>2026-03-28T15:08:54.001Z</time></trkpt><trkpt lat="45.054016062229806" lon="9.274688123893315"><ele>212.0</ele><time>2026-03-28T15:08:55.001Z</time></trkpt><trkpt lat="45.054085637429644" lon="9.274676335072142"><ele>212.00000000000003</ele><time>2026-03-28T15:08:56Z</time></trkpt><trkpt lat="45.05418330232649" lon="9.274667818800873"><ele>212.0</ele><time>2026-03-28T15:08:57Z</time></trkpt><trkpt lat="45.05427795098971" lon="9.27466499657725"><ele>211.33333333333334</ele><time>2026-03-28T15:08:58Z</time></trkpt><trkpt lat="45.054350169520596" lon="9.274664840940337"><ele>210.66666666666669</ele><time>2026-03-28T15:08:59Z</time></trkpt><trkpt lat="45.05442964680787" lon="9.274686927057207"><ele>210.0</ele><time>2026-03-28T15:09:00Z</time></trkpt><trkpt lat="45.05451374501989" lon="9.274703885463824"><ele>209.33333333333331</ele><time>2026-03-28T15:09:01Z</time></trkpt><trkpt lat="45.05458467280262" lon="9.274711767129538"><ele>208.66666666666666</ele><time>2026-03-28T15:09:02Z</time></trkpt><trkpt lat="45.05464981652903" lon="9.27472202226188"><ele>208.0</ele><time>2026-03-28T15:09:03Z</time></trkpt><trkpt lat="45.05475929674568" lon="9.274763284699812"><ele>208.0</ele><time>2026-03-28T15:09:05Z</time></trkpt><trkpt lat="45.054840783553885" lon="9.27475777397856"><ele>208.0</ele><time>2026-03-28T15:09:07Z</time></trkpt><trkpt lat="45.05499282539466" lon="9.2747201992888"><ele>208.0</ele><time>2026-03-28T15:09:10Z</time></trkpt><trkpt lat="45.05511036431586" lon="9.27468059069215"><ele>208.0</ele><time>2026-03-28T15:09:12Z</time></trkpt><trkpt lat="45.05524030941459" lon="9.27465769891466"><ele>208.33333333333331</ele><time>2026-03-28T15:09:14Z</time></trkpt><trkpt lat="45.05530726707403" lon="9.274646072607782"><ele>208.66666666666666</ele><time>2026-03-28T15:09:15Z</time></trkpt><trkpt lat="45.055418948567144" lon="9.274600721819127"><ele>209.0</ele><time>2026-03-28T15:09:17Z</time></trkpt><trkpt lat="45.055517710261576" lon="9.27457014693085"><ele>209.33333333333331</ele><time>2026-03-28T15:09:19Z</time></trkpt><trkpt lat="45.055429643054275" lon="9.27458809806396"><ele>209.66666666666666</ele><time>2026-03-28T15:10:32Z</time></trkpt><trkpt lat="45.0553580073111" lon="9.27461126661196"><ele>210.0</ele><time>2026-03-28T15:10:33Z</time></trkpt><trkpt lat="45.0552624384927" lon="9.27463347024766"><ele>210.0</ele><time>2026-03-28T15:10:35Z</time></trkpt><trkpt lat="45.055156212786194" lon="9.2746559888903"><ele>210.0</ele><time>2026-03-28T15:10:37Z</time></trkpt><trkpt lat="45.05503911780128" lon="9.274672195499903"><ele>210.0</ele><time>2026-03-28T15:10:39Z</time></trkpt><trkpt lat="45.0549751649713" lon="9.274655226802203"><ele>210.0</ele><time>2026-03-28T15:10:40Z</time></trkpt><trkpt lat="45.05487633950652" lon="9.27471111677779"><ele>210.0</ele><time>2026-03-28T15:10:42Z</time></trkpt><trkpt lat="45.054759619456355" lon="9.274723148151157"><ele>209.6</ele><time>2026-03-28T15:10:44Z</time></trkpt><trkpt lat="45.05464879331261" lon="9.27469195483785"><ele>209.2</ele><time>2026-03-28T15:10:46Z</time></trkpt><trkpt lat="45.05456525102101" lon="9.27466375809689"><ele>208.8</ele><time>2026-03-28T15:10:47Z</time></trkpt><trkpt lat="45.05447449057635" lon="9.274649474787477"><ele>208.4</ele><time>2026-03-28T15:10:49Z</time></trkpt><trkpt lat="45.05436048267122" lon="9.274619083857603"><ele>208.0</ele><time>2026-03-28T15:10:51Z</time></trkpt><trkpt lat="45.05426835819339" lon="9.274622443715122"><ele>208.0</ele><time>2026-03-28T15:10:52Z</time></trkpt><trkpt lat="45.054193534397854" lon="9.274631516863725"><ele>208.0</ele><time>2026-03-28T15:10:53Z</time></trkpt><trkpt lat="45.054127637058905" lon="9.27464110827298"><ele>208.0</ele><time>2026-03-28T15:10:54Z</time></trkpt><trkpt lat="45.05405778849665" lon="9.27464321934025"><ele>208.0</ele><time>2026-03-28T15:10:55Z</time></trkpt><trkpt lat="45.053988447688496" lon="9.274640027575813"><ele>208.0</ele><time>2026-03-28T15:10:56Z</time></trkpt><trkpt lat="45.05392116028933" lon="9.27464606992101"><ele>208.0</ele><time>2026-03-28T15:10:57Z</time></trkpt><trkpt lat="45.05385161026796" lon="9.274620599612415"><ele>208.0</ele><time>2026-03-28T15:10:58Z</time></trkpt><trkpt lat="45.05377346878748" lon="9.274605312385319"><ele>208.66666666666666</ele><time>2026-03-28T15:10:59Z</time></trkpt><trkpt lat="45.05369445699836" lon="9.274608632432273"><ele>209.33333333333331</ele><time>2026-03-28T15:11:00Z</time></trkpt><trkpt lat="45.05361853167433" lon="9.274609584855648"><ele>210.0</ele><time>2026-03-28T15:11:01Z</time></trkpt><trkpt lat="45.05354425413522" lon="9.27461680923499"><ele>210.66666666666669</ele><time>2026-03-28T15:11:02Z</time></trkpt><trkpt lat="45.053466539785326" lon="9.2746348299249"><ele>211.33333333333334</ele><time>2026-03-28T15:11:03Z</time></trkpt><trkpt lat="45.05338613963548" lon="9.274651676573692"><ele>212.0</ele><time>2026-03-28T15:11:04Z</time></trkpt><trkpt lat="45.053298672968644" lon="9.274668461702339"><ele>211.66666666666669</ele><time>2026-03-28T15:11:05Z</time></trkpt><trkpt lat="45.05321073827103" lon="9.274699513297952"><ele>211.33333333333334</ele><time>2026-03-28T15:11:06Z</time></trkpt><trkpt lat="45.0531159722469" lon="9.274714932080093"><ele>211.0</ele><time>2026-03-28T15:11:07Z</time></trkpt><trkpt lat="45.05302654463291" lon="9.27475437909733"><ele>210.66666666666669</ele><time>2026-03-28T15:11:08Z</time></trkpt><trkpt lat="45.052941501165904" lon="9.27479139340579"><ele>210.33333333333334</ele><time>2026-03-28T15:11:09Z</time></trkpt><trkpt lat="45.052870470164045" lon="9.274809680137023"><ele>210.0</ele><time>2026-03-28T15:11:10Z</time></trkpt><trkpt lat="45.05280600369472" lon="9.274825872638353"><ele>213.0</ele><time>2026-03-28T15:11:11Z</time></trkpt><trkpt lat="45.05270202699233" lon="9.274873457665032"><ele>216.0</ele><time>2026-03-28T15:11:13Z</time></trkpt><trkpt lat="45.05262378754076" lon="9.274896364407233"><ele>219.0</ele><time>2026-03-28T15:11:15Z</time></trkpt><trkpt lat="45.05255328639001" lon="9.274880099417226"><ele>222.0</ele><time>2026-03-28T15:11:17Z</time></trkpt><trkpt lat="45.052425323158715" lon="9.27483662381126"><ele>225.0</ele><time>2026-03-28T15:11:19Z</time></trkpt><trkpt lat="45.05233543940046" lon="9.274788322301234"><ele>225.2</ele><time>2026-03-28T15:11:20Z</time></trkpt><trkpt lat="45.052239106201554" lon="9.274724981124205"><ele>225.4</ele><time>2026-03-28T15:11:21Z</time></trkpt><trkpt lat="45.052150513536475" lon="9.274660297230072"><ele>225.60000000000002</ele><time>2026-03-28T15:11:22Z</time></trkpt><trkpt lat="45.05205884391873" lon="9.274582637847887"><ele>225.8</ele><time>2026-03-28T15:11:23Z</time></trkpt><trkpt lat="45.05197555483306" lon="9.274512402457216"><ele>226.0</ele><time>2026-03-28T15:11:24Z</time></trkpt><trkpt lat="45.05189725336454" lon="9.274429951286638"><ele>226.0</ele><time>2026-03-28T15:11:25Z</time></trkpt><trkpt lat="45.05179828910665" lon="9.274383208740979"><ele>226.00000000000003</ele><time>2026-03-28T15:11:26Z</time></trkpt><trkpt lat="45.051689556877484" lon="9.27435027860592"><ele>226.00000000000003</ele><time>2026-03-28T15:11:27Z</time></trkpt><trkpt lat="45.05158453523537" lon="9.274328791454835"><ele>226.0</ele><time>2026-03-28T15:11:28Z</time></trkpt><trkpt lat="45.0514714846314" lon="9.274331026130042"><ele>226.0</ele><time>2026-03-28T15:11:29Z</time></trkpt><trkpt lat="45.05136142232883" lon="9.274289124313901"><ele>226.75</ele><time>2026-03-28T15:11:30Z</time></trkpt><trkpt lat="45.05124601664008" lon="9.274287851552598"><ele>227.5</ele><time>2026-03-28T15:11:31Z</time></trkpt><trkpt lat="45.05113127893163" lon="9.274343197852664"><ele>228.25</ele><time>2026-03-28T15:11:32Z</time></trkpt><trkpt lat="45.0510119381679" lon="9.274363941596743"><ele>229.0</ele><time>2026-03-28T15:11:33Z</time></trkpt><trkpt lat="45.05090529636984" lon="9.274399574881272"><ele>229.0</ele><time>2026-03-28T15:11:34Z</time></trkpt><trkpt lat="45.05082032009074" lon="9.27441113347502"><ele>228.99999999999997</ele><time>2026-03-28T15:11:35Z</time></trkpt><trkpt lat="45.05072900711541" lon="9.274393584073094"><ele>228.99999999999997</ele><time>2026-03-28T15:11:36Z</time></trkpt><trkpt lat="45.05061764395589" lon="9.274358244929427"><ele>229.0</ele><time>2026-03-28T15:11:37Z</time></trkpt><trkpt lat="45.050507398141605" lon="9.274317455956588"><ele>229.0</ele><time>2026-03-28T15:11:38Z</time></trkpt><trkpt lat="45.05039904013251" lon="9.274289158989387"><ele>229.2</ele><time>2026-03-28T15:11:39Z</time></trkpt><trkpt lat="45.05029113257832" lon="9.274246392021876"><ele>229.39999999999998</ele><time>2026-03-28T15:11:40Z</time></trkpt><trkpt lat="45.050176717098644" lon="9.274240720972461"><ele>229.6</ele><time>2026-03-28T15:11:41Z</time></trkpt><trkpt lat="45.0500665090635" lon="9.27423429261313"><ele>229.8</ele><time>2026-03-28T15:11:42Z</time></trkpt><trkpt lat="45.04996209940387" lon="9.27423373554748"><ele>230.0</ele><time>2026-03-28T15:11:43Z</time></trkpt><trkpt lat="45.049862744686294" lon="9.274235019027952"><ele>230.0</ele><time>2026-03-28T15:11:44Z</time></trkpt><trkpt lat="45.049767725387106" lon="9.274227664802572"><ele>230.0</ele><time>2026-03-28T15:11:45Z</time></trkpt><trkpt lat="45.04967898988987" lon="9.274222988253095"><ele>230.0</ele><time>2026-03-28T15:11:46Z</time></trkpt><trkpt lat="45.04960282162503" lon="9.274205235002905"><ele>230.0</ele><time>2026-03-28T15:11:47Z</time></trkpt><trkpt lat="45.04950312980252" lon="9.274162015547025"><ele>230.0</ele><time>2026-03-28T15:11:49Z</time></trkpt><trkpt lat="45.049416249387455" lon="9.274127119291405"><ele>230.0</ele><time>2026-03-28T15:11:52Z</time></trkpt><trkpt lat="45.04933735850518" lon="9.274164799196432"><ele>230.0</ele><time>2026-03-28T15:12:04Z</time></trkpt><trkpt lat="45.04936552615125" lon="9.274339030028909"><ele>230.0</ele><time>2026-03-28T15:12:06Z</time></trkpt><trkpt lat="45.04941563383929" lon="9.274420310272042"><ele>230.0</ele><time>2026-03-28T15:12:07Z</time></trkpt><trkpt lat="45.049457740300916" lon="9.274551341866664"><ele>230.0</ele><time>2026-03-28T15:12:08Z</time></trkpt><trkpt lat="45.0495091644842" lon="9.27471679169943"><ele>228.0</ele><time>2026-03-28T15:12:09Z</time></trkpt><trkpt lat="45.04956742933285" lon="9.274910043618362"><ele>226.0</ele><time>2026-03-28T15:12:10Z</time></trkpt><trkpt lat="45.04963293985297" lon="9.275127960051485"><ele>224.0</ele><time>2026-03-28T15:12:11Z</time></trkpt><trkpt lat="45.0497025444987" lon="9.275364856812276"><ele>224.0</ele><time>2026-03-28T15:12:12Z</time></trkpt><trkpt lat="45.04976090330559" lon="9.275572266219015"><ele>224.0</ele><time>2026-03-28T15:12:13Z</time></trkpt><trkpt lat="45.049816110037185" lon="9.275761839932079"><ele>224.0</ele><time>2026-03-28T15:12:14Z</time></trkpt><trkpt lat="45.04987787633799" lon="9.275941565145333"><ele>224.0</ele><time>2026-03-28T15:12:15Z</time></trkpt><trkpt lat="45.04994234894552" lon="9.276092342749855"><ele>225.6</ele><time>2026-03-28T15:12:16Z</time></trkpt><trkpt lat="45.05000285820681" lon="9.276211663683705"><ele>227.2</ele><time>2026-03-28T15:12:17Z</time></trkpt><trkpt lat="45.05006714139129" lon="9.27632080231258"><ele>228.79999999999998</ele><time>2026-03-28T15:12:18Z</time></trkpt><trkpt lat="45.050136051902044" lon="9.276436530673214"><ele>230.39999999999998</ele><time>2026-03-28T15:12:19Z</time></trkpt><trkpt lat="45.05019408802676" lon="9.276572981403769"><ele>232.0</ele><time>2026-03-28T15:12:20Z</time></trkpt><trkpt lat="45.05022786162004" lon="9.276731778526825"><ele>232.0</ele><time>2026-03-28T15:12:21Z</time></trkpt><trkpt lat="45.05023402539059" lon="9.276905154740907"><ele>232.0</ele><time>2026-03-28T15:12:22Z</time></trkpt><trkpt lat="45.05022488124436" lon="9.277089511004435"><ele>232.0</ele><time>2026-03-28T15:12:23Z</time></trkpt><trkpt lat="45.050217980395566" lon="9.2772746221244"><ele>232.0</ele><time>2026-03-28T15:12:24Z</time></trkpt><trkpt lat="45.050226558183375" lon="9.277467131354323"><ele>231.5</ele><time>2026-03-28T15:12:25Z</time></trkpt><trkpt lat="45.05023944619115" lon="9.277651806519582"><ele>231.0</ele><time>2026-03-28T15:12:26Z</time></trkpt><trkpt lat="45.05025130518133" lon="9.277816759867813"><ele>230.5</ele><time>2026-03-28T15:12:27Z</time></trkpt><trkpt lat="45.050267821364194" lon="9.277966197075099"><ele>230.0</ele><time>2026-03-28T15:12:28Z</time></trkpt><trkpt lat="45.050319119191876" lon="9.278107322196867"><ele>231.4</ele><time>2026-03-28T15:12:29Z</time></trkpt><trkpt lat="45.05040773326258" lon="9.278216151570224"><ele>232.8</ele><time>2026-03-28T15:12:30Z</time></trkpt><trkpt lat="45.05051196921655" lon="9.278283336124428"><ele>234.2</ele><time>2026-03-28T15:12:31Z</time></trkpt><trkpt lat="45.05062314159286" lon="9.278328606457563"><ele>235.6</ele><time>2026-03-28T15:12:32Z</time></trkpt><trkpt lat="45.050711663345986" lon="9.278360919518988"><ele>237.0</ele><time>2026-03-28T15:12:33Z</time></trkpt><trkpt lat="45.05079436914165" lon="9.278394473541873"><ele>238.2</ele><time>2026-03-28T15:12:34Z</time></trkpt><trkpt lat="45.050878473602005" lon="9.27843810230173"><ele>239.39999999999998</ele><time>2026-03-28T15:12:35Z</time></trkpt><trkpt lat="45.050955869060736" lon="9.27848945539829"><ele>240.60000000000002</ele><time>2026-03-28T15:12:36Z</time></trkpt><trkpt lat="45.05101969052062" lon="9.278563708327079"><ele>241.8</ele><time>2026-03-28T15:12:37Z</time></trkpt><trkpt lat="45.05108271431075" lon="9.278668710396547"><ele>243.0</ele><time>2026-03-28T15:12:38Z</time></trkpt><trkpt lat="45.05114004920017" lon="9.278785511446916"><ele>243.0</ele><time>2026-03-28T15:12:39Z</time></trkpt><trkpt lat="45.05119553005113" lon="9.278909392090155"><ele>243.0</ele><time>2026-03-28T15:12:40Z</time></trkpt><trkpt lat="45.051252337502525" lon="9.279034098934657"><ele>243.0</ele><time>2026-03-28T15:12:41Z</time></trkpt><trkpt lat="45.05130823140709" lon="9.27915988654584"><ele>243.0</ele><time>2026-03-28T15:12:42Z</time></trkpt><trkpt lat="45.051354766970086" lon="9.279270116685693"><ele>243.0</ele><time>2026-03-28T15:12:43Z</time></trkpt><trkpt lat="45.05139084542713" lon="9.279365545547815"><ele>243.5</ele><time>2026-03-28T15:12:44Z</time></trkpt><trkpt lat="45.05141643953973" lon="9.279449309279508"><ele>244.0</ele><time>2026-03-28T15:12:45Z</time></trkpt><trkpt lat="45.051433439665686" lon="9.279548567810151"><ele>244.5</ele><time>2026-03-28T15:12:46Z</time></trkpt><trkpt lat="45.05142728487125" lon="9.279665600048242"><ele>245.0</ele><time>2026-03-28T15:12:47Z</time></trkpt><trkpt lat="45.05141653581508" lon="9.279796727049176"><ele>245.5</ele><time>2026-03-28T15:12:48Z</time></trkpt><trkpt lat="45.05141344215089" lon="9.279942287822816"><ele>246.0</ele><time>2026-03-28T15:12:49Z</time></trkpt><trkpt lat="45.05141997168772" lon="9.280106683780003"><ele>243.75</ele><time>2026-03-28T15:12:50Z</time></trkpt><trkpt lat="45.05145106785463" lon="9.280279720487535"><ele>241.5</ele><time>2026-03-28T15:12:51Z</time></trkpt><trkpt lat="45.05150437905718" lon="9.280453838192178"><ele>239.25</ele><time>2026-03-28T15:12:52Z</time></trkpt><trkpt lat="45.05155999302111" lon="9.280609971281807"><ele>237.0</ele><time>2026-03-28T15:12:53Z</time></trkpt><trkpt lat="45.05160613150953" lon="9.280753302831059"><ele>237.0</ele><time>2026-03-28T15:12:54Z</time></trkpt><trkpt lat="45.05164071422059" lon="9.28089853302986"><ele>237.0</ele><time>2026-03-28T15:12:55Z</time></trkpt><trkpt lat="45.05167907473376" lon="9.28103801003454"><ele>237.0</ele><time>2026-03-28T15:12:56Z</time></trkpt><trkpt lat="45.051705048149074" lon="9.281186590025703"><ele>237.0</ele><time>2026-03-28T15:12:57Z</time></trkpt><trkpt lat="45.05172789032979" lon="9.28134138242118"><ele>237.0</ele><time>2026-03-28T15:12:58Z</time></trkpt><trkpt lat="45.05175496852662" lon="9.281508168925987"><ele>236.25</ele><time>2026-03-28T15:12:59Z</time></trkpt><trkpt lat="45.05178519815737" lon="9.281681192193401"><ele>235.5</ele><time>2026-03-28T15:13:00Z</time></trkpt><trkpt lat="45.05181716581309" lon="9.28185706489363"><ele>234.75</ele><time>2026-03-28T15:13:01Z</time></trkpt><trkpt lat="45.05184902119329" lon="9.282035366688293"><ele>234.0</ele><time>2026-03-28T15:13:02Z</time></trkpt><trkpt lat="45.05188238018561" lon="9.282215638833904"><ele>233.2</ele><time>2026-03-28T15:13:03Z</time></trkpt><trkpt lat="45.051911318196055" lon="9.282389199022354"><ele>232.39999999999998</ele><time>2026-03-28T15:13:04Z</time></trkpt><trkpt lat="45.05193347065378" lon="9.282545545325243"><ele>231.6</ele><time>2026-03-28T15:13:05Z</time></trkpt><trkpt lat="45.05194706678103" lon="9.282689928342403"><ele>230.8</ele><time>2026-03-28T15:13:06Z</time></trkpt><trkpt lat="45.05195188475435" lon="9.282821780066522"><ele>230.0</ele><time>2026-03-28T15:13:07Z</time></trkpt><trkpt lat="45.05194675300213" lon="9.282945878310983"><ele>230.00000000000003</ele><time>2026-03-28T15:13:08Z</time></trkpt><trkpt lat="45.051926802870156" lon="9.28306892593457"><ele>230.0</ele><time>2026-03-28T15:13:09Z</time></trkpt><trkpt lat="45.05189217999462" lon="9.283186072671825"><ele>230.0</ele><time>2026-03-28T15:13:10Z</time></trkpt><trkpt lat="45.05184103264841" lon="9.283291672188367"><ele>230.0</ele><time>2026-03-28T15:13:11Z</time></trkpt><trkpt lat="45.05178470832595" lon="9.283391528927117"><ele>230.00000000000003</ele><time>2026-03-28T15:13:12Z</time></trkpt><trkpt lat="45.05172224226503" lon="9.283482633102269"><ele>230.0</ele><time>2026-03-28T15:13:13Z</time></trkpt><trkpt lat="45.05163985864904" lon="9.283561061171197"><ele>227.0</ele><time>2026-03-28T15:13:14Z</time></trkpt><trkpt lat="45.05152954301216" lon="9.283623226066387"><ele>224.0</ele><time>2026-03-28T15:13:15Z</time></trkpt><trkpt lat="45.0513948106576" lon="9.283712716649148"><ele>221.0</ele><time>2026-03-28T15:13:16Z</time></trkpt><trkpt lat="45.051281810442376" lon="9.283802847840297"><ele>218.0</ele><time>2026-03-28T15:13:17Z</time></trkpt><trkpt lat="45.05117622921073" lon="9.283896534498535"><ele>219.0</ele><time>2026-03-28T15:13:18Z</time></trkpt><trkpt lat="45.051078312790985" lon="9.284030486451583"><ele>220.0</ele><time>2026-03-28T15:13:19Z</time></trkpt><trkpt lat="45.05098567284118" lon="9.284192447677036"><ele>221.0</ele><time>2026-03-28T15:13:20Z</time></trkpt><trkpt lat="45.050893045507316" lon="9.284354205925204"><ele>222.0</ele><time>2026-03-28T15:13:21Z</time></trkpt><trkpt lat="45.05081449140427" lon="9.284500241575431"><ele>217.25</ele><time>2026-03-28T15:13:22Z</time></trkpt><trkpt lat="45.050758425333626" lon="9.284671609751062"><ele>212.5</ele><time>2026-03-28T15:13:23Z</time></trkpt><trkpt lat="45.05071049354402" lon="9.284875144876631"><ele>207.75</ele><time>2026-03-28T15:13:24Z</time></trkpt><trkpt lat="45.050667496115246" lon="9.285082498357276"><ele>203.0</ele><time>2026-03-28T15:13:25Z</time></trkpt><trkpt lat="45.050605782663766" lon="9.285278475588338"><ele>203.0</ele><time>2026-03-28T15:13:26Z</time></trkpt><trkpt lat="45.050536655705656" lon="9.285491002434085"><ele>203.0</ele><time>2026-03-28T15:13:27Z</time></trkpt><trkpt lat="45.05044448518597" lon="9.28569107757679"><ele>203.0</ele><time>2026-03-28T15:13:28Z</time></trkpt><trkpt lat="45.050356611849686" lon="9.285914858132788"><ele>204.75</ele><time>2026-03-28T15:13:29Z</time></trkpt><trkpt lat="45.05027663522091" lon="9.286097245957546"><ele>206.5</ele><time>2026-03-28T15:13:30Z</time></trkpt><trkpt lat="45.050199295037665" lon="9.286263812745464"><ele>208.25</ele><time>2026-03-28T15:13:31Z</time></trkpt><trkpt lat="45.05012698051008" lon="9.2863866896758"><ele>210.0</ele><time>2026-03-28T15:13:32Z</time></trkpt><trkpt lat="45.05005424214425" lon="9.286546995427042"><ele>211.25</ele><time>2026-03-28T15:13:33Z</time></trkpt><trkpt lat="45.049980339137385" lon="9.286705138778018"><ele>212.5</ele><time>2026-03-28T15:13:34Z</time></trkpt><trkpt lat="45.049898172178565" lon="9.286858011171336"><ele>213.75</ele><time>2026-03-28T15:13:35Z</time></trkpt><trkpt lat="45.04982893613104" lon="9.287014096915993"><ele>215.0</ele><time>2026-03-28T15:13:36Z</time></trkpt><trkpt lat="45.049753623469094" lon="9.287186868569009"><ele>211.0</ele><time>2026-03-28T15:13:37Z</time></trkpt><trkpt lat="45.04969501531282" lon="9.287348128744243"><ele>207.0</ele><time>2026-03-28T15:13:38Z</time></trkpt><trkpt lat="45.04965644306782" lon="9.287498929721792"><ele>203.0</ele><time>2026-03-28T15:13:39Z</time></trkpt><trkpt lat="45.04963872889829" lon="9.28765462077213"><ele>199.0</ele><time>2026-03-28T15:13:40Z</time></trkpt><trkpt lat="45.049638498779835" lon="9.287793406853496"><ele>199.0</ele><time>2026-03-28T15:13:41Z</time></trkpt><trkpt lat="45.04964356762713" lon="9.287897183347766"><ele>199.0</ele><time>2026-03-28T15:13:42Z</time></trkpt><trkpt lat="45.049510698788836" lon="9.287984208255807"><ele>199.0</ele><time>2026-03-28T15:13:43Z</time></trkpt><trkpt lat="45.04944505648" lon="9.28809462588444"><ele>199.0</ele><time>2026-03-28T15:13:44Z</time></trkpt><trkpt lat="45.04938017184175" lon="9.288228479470252"><ele>199.0</ele><time>2026-03-28T15:13:45Z</time></trkpt><trkpt lat="45.049290869395534" lon="9.28834436847379"><ele>200.0</ele><time>2026-03-28T15:13:46Z</time></trkpt><trkpt lat="45.049182679609636" lon="9.288442934596267"><ele>201.0</ele><time>2026-03-28T15:13:47Z</time></trkpt><trkpt lat="45.04906607533471" lon="9.28855076289365"><ele>202.0</ele><time>2026-03-28T15:13:48Z</time></trkpt><trkpt lat="45.048936220824025" lon="9.288668962602934"><ele>203.0</ele><time>2026-03-28T15:13:49Z</time></trkpt><trkpt lat="45.04882385604626" lon="9.28881636865418"><ele>203.75</ele><time>2026-03-28T15:13:50Z</time></trkpt><trkpt lat="45.04872421460637" lon="9.288953294091273"><ele>204.5</ele><time>2026-03-28T15:13:51Z</time></trkpt><trkpt lat="45.04863766944419" lon="9.289049569803492"><ele>205.25</ele><time>2026-03-28T15:13:52Z</time></trkpt><trkpt lat="45.04857607047992" lon="9.289156484067545"><ele>206.0</ele><time>2026-03-28T15:13:53Z</time></trkpt><trkpt lat="45.048488148345456" lon="9.289247560251116"><ele>206.0</ele><time>2026-03-28T15:13:54Z</time></trkpt><trkpt lat="45.04840824828031" lon="9.289343949838536"><ele>206.0</ele><time>2026-03-28T15:13:55Z</time></trkpt><trkpt lat="45.04832587962476" lon="9.2894451818031"><ele>206.0</ele><time>2026-03-28T15:13:56Z</time></trkpt><trkpt lat="45.048237750278226" lon="9.289545733272739"><ele>206.0</ele><time>2026-03-28T15:13:57Z</time></trkpt><trkpt lat="45.0481435484647" lon="9.289649128700436"><ele>206.0</ele><time>2026-03-28T15:13:58Z</time></trkpt><trkpt lat="45.04804831923302" lon="9.28976003460859"><ele>205.0</ele><time>2026-03-28T15:13:59Z</time></trkpt><trkpt lat="45.04795947002425" lon="9.28985967308378"><ele>204.0</ele><time>2026-03-28T15:14:00Z</time></trkpt><trkpt lat="45.047881275318716" lon="9.289954323632749"><ele>203.0</ele><time>2026-03-28T15:14:01Z</time></trkpt><trkpt lat="45.04780703605343" lon="9.290054782166482"><ele>202.0</ele><time>2026-03-28T15:14:02Z</time></trkpt><trkpt lat="45.04774603079496" lon="9.290172871708153"><ele>201.0</ele><time>2026-03-28T15:14:03Z</time></trkpt><trkpt lat="45.04769219912533" lon="9.290304446003708"><ele>201.0</ele><time>2026-03-28T15:14:04Z</time></trkpt><trkpt lat="45.04765487963768" lon="9.29044341034587"><ele>201.0</ele><time>2026-03-28T15:14:05Z</time></trkpt><trkpt lat="45.047622062284454" lon="9.290567157757812"><ele>201.0</ele><time>2026-03-28T15:14:06Z</time></trkpt><trkpt lat="45.04759221011325" lon="9.29067383623585"><ele>201.0</ele><time>2026-03-28T15:14:07Z</time></trkpt><trkpt lat="45.04757525715591" lon="9.290762068015562"><ele>201.0</ele><time>2026-03-28T15:14:08Z</time></trkpt><trkpt lat="45.047584722535355" lon="9.290877077639312"><ele>201.0</ele><time>2026-03-28T15:14:11Z</time></trkpt><trkpt lat="45.04762857347777" lon="9.291029222623662"><ele>200.4</ele><time>2026-03-28T15:14:13Z</time></trkpt><trkpt lat="45.04764089420733" lon="9.291125891143261"><ele>199.8</ele><time>2026-03-28T15:14:14Z</time></trkpt><trkpt lat="45.04771908364214" lon="9.291343560062177"><ele>199.20000000000002</ele><time>2026-03-28T15:14:16Z</time></trkpt><trkpt lat="45.047766603898566" lon="9.291458917208482"><ele>198.60000000000002</ele><time>2026-03-28T15:14:17Z</time></trkpt><trkpt lat="45.047822026282546" lon="9.291563979030512"><ele>198.0</ele><time>2026-03-28T15:14:18Z</time></trkpt><trkpt lat="45.047870686426506" lon="9.291666682712224"><ele>198.0</ele><time>2026-03-28T15:14:19Z</time></trkpt><trkpt lat="45.047914444579206" lon="9.291767845959118"><ele>198.0</ele><time>2026-03-28T15:14:20Z</time></trkpt><trkpt lat="45.04795619005742" lon="9.291869201277692"><ele>198.0</ele><time>2026-03-28T15:14:21Z</time></trkpt><trkpt lat="45.04801344573988" lon="9.291975679630731"><ele>198.0</ele><time>2026-03-28T15:14:22Z</time></trkpt><trkpt lat="45.04805749634488" lon="9.292084031012093"><ele>198.0</ele><time>2026-03-28T15:14:23Z</time></trkpt><trkpt lat="45.04809063072831" lon="9.292198971351795"><ele>198.0</ele><time>2026-03-28T15:14:24Z</time></trkpt><trkpt lat="45.048121831501994" lon="9.292298830580457"><ele>196.33333333333334</ele><time>2026-03-28T15:14:25Z</time></trkpt><trkpt lat="45.048162947513056" lon="9.292387529624543"><ele>194.66666666666666</ele><time>2026-03-28T15:14:26Z</time></trkpt><trkpt lat="45.04820822721033" lon="9.292467654613064"><ele>193.0</ele><time>2026-03-28T15:14:27Z</time></trkpt><trkpt lat="45.04824252007007" lon="9.292546431413264"><ele>191.33333333333331</ele><time>2026-03-28T15:14:28Z</time></trkpt><trkpt lat="45.048308356372495" lon="9.29268446350934"><ele>189.66666666666666</ele><time>2026-03-28T15:14:30Z</time></trkpt><trkpt lat="45.04836899420943" lon="9.292805576398996"><ele>188.0</ele><time>2026-03-28T15:14:32Z</time></trkpt><trkpt lat="45.04842885073176" lon="9.292966134611238"><ele>187.5</ele><time>2026-03-28T15:14:34Z</time></trkpt><trkpt lat="45.04845474655812" lon="9.293082116962893"><ele>187.0</ele><time>2026-03-28T15:14:35Z</time></trkpt><trkpt lat="45.048460229579156" lon="9.293195126582825"><ele>186.5</ele><time>2026-03-28T15:14:36Z</time></trkpt><trkpt lat="45.04846649973137" lon="9.2932892013739"><ele>186.0</ele><time>2026-03-28T15:14:37Z</time></trkpt><trkpt lat="45.04846394316796" lon="9.293467110450875"><ele>185.5</ele><time>2026-03-28T15:14:39Z</time></trkpt><trkpt lat="45.04844506586236" lon="9.293556016518828"><ele>185.0</ele><time>2026-03-28T15:14:40Z</time></trkpt><trkpt lat="45.04841596283781" lon="9.293643293473572"><ele>183.66666666666666</ele><time>2026-03-28T15:14:41Z</time></trkpt><trkpt lat="45.048381245999686" lon="9.293729866108547"><ele>182.33333333333331</ele><time>2026-03-28T15:14:42Z</time></trkpt><trkpt lat="45.04834267211876" lon="9.293820484181357"><ele>181.0</ele><time>2026-03-28T15:14:43Z</time></trkpt><trkpt lat="45.04829795686759" lon="9.29391011627357"><ele>179.66666666666666</ele><time>2026-03-28T15:14:44Z</time></trkpt><trkpt lat="45.04824797178516" lon="9.29398708768468"><ele>178.33333333333334</ele><time>2026-03-28T15:14:45Z</time></trkpt><trkpt lat="45.04820407178707" lon="9.294051743343262"><ele>177.0</ele><time>2026-03-28T15:14:46Z</time></trkpt><trkpt lat="45.0480940542621" lon="9.294106828596249"><ele>174.0</ele><time>2026-03-28T15:14:48Z</time></trkpt><trkpt lat="45.048024596785446" lon="9.294095337493157"><ele>171.0</ele><time>2026-03-28T15:14:49Z</time></trkpt><trkpt lat="45.04793813728284" lon="9.294113123285769"><ele>168.0</ele><time>2026-03-28T15:14:50Z</time></trkpt><trkpt lat="45.0478523995326" lon="9.29410704721276"><ele>165.0</ele><time>2026-03-28T15:14:51Z</time></trkpt><trkpt lat="45.04776479818245" lon="9.294123863455336"><ele>162.0</ele><time>2026-03-28T15:14:52Z</time></trkpt><trkpt lat="45.0476691920484" lon="9.294147174936144"><ele>159.0</ele><time>2026-03-28T15:14:53Z</time></trkpt><trkpt lat="45.04757893479295" lon="9.294170818795541"><ele>159.0</ele><time>2026-03-28T15:14:54Z</time></trkpt><trkpt lat="45.047499262391" lon="9.294180489215593"><ele>159.0</ele><time>2026-03-28T15:14:55Z</time></trkpt><trkpt lat="45.047422280717235" lon="9.29418773752994"><ele>159.0</ele><time>2026-03-28T15:14:56Z</time></trkpt><trkpt lat="45.04735547362939" lon="9.29422054748117"><ele>159.0</ele><time>2026-03-28T15:14:57Z</time></trkpt><trkpt lat="45.047295213297225" lon="9.294281454646292"><ele>159.0</ele><time>2026-03-28T15:14:58Z</time></trkpt><trkpt lat="45.047242887807634" lon="9.294358503987425"><ele>159.0</ele><time>2026-03-28T15:14:59Z</time></trkpt><trkpt lat="45.04719211286314" lon="9.294455013725745"><ele>158.2</ele><time>2026-03-28T15:15:00Z</time></trkpt><trkpt lat="45.04714114411285" lon="9.29457151822186"><ele>157.4</ele><time>2026-03-28T15:15:01Z</time></trkpt><trkpt lat="45.04709741063618" lon="9.294706013794443"><ele>156.6</ele><time>2026-03-28T15:15:02Z</time></trkpt><trkpt lat="45.04706154143194" lon="9.294837690354942"><ele>155.8</ele><time>2026-03-28T15:15:03Z</time></trkpt><trkpt lat="45.047025960619884" lon="9.294972983660752"><ele>155.0</ele><time>2026-03-28T15:15:04Z</time></trkpt><trkpt lat="45.046980198908415" lon="9.295101397378945"><ele>152.4</ele><time>2026-03-28T15:15:05Z</time></trkpt><trkpt lat="45.046927691576165" lon="9.295233095248896"><ele>149.8</ele><time>2026-03-28T15:15:06Z</time></trkpt><trkpt lat="45.04687264330053" lon="9.295367919742466"><ele>147.2</ele><time>2026-03-28T15:15:07Z</time></trkpt><trkpt lat="45.0468214280552" lon="9.295503587157288"><ele>144.6</ele><time>2026-03-28T15:15:08Z</time></trkpt><trkpt lat="45.04676875691554" lon="9.295635837696913"><ele>142.0</ele><time>2026-03-28T15:15:09Z</time></trkpt><trkpt lat="45.046710741834396" lon="9.295768490938576"><ele>139.79999999999998</ele><time>2026-03-28T15:15:10Z</time></trkpt><trkpt lat="45.04665784231008" lon="9.295892707872259"><ele>137.6</ele><time>2026-03-28T15:15:11Z</time></trkpt><trkpt lat="45.04660826744299" lon="9.296013090078814"><ele>135.39999999999998</ele><time>2026-03-28T15:15:12Z</time></trkpt><trkpt lat="45.04657014161146" lon="9.296129238532401"><ele>133.2</ele><time>2026-03-28T15:15:13Z</time></trkpt><trkpt lat="45.04654370797459" lon="9.29624617993485"><ele>131.0</ele><time>2026-03-28T15:15:14Z</time></trkpt><trkpt lat="45.046527717307136" lon="9.29635929985204"><ele>129.57142857142858</ele><time>2026-03-28T15:15:15Z</time></trkpt><trkpt lat="45.04651534886011" lon="9.296468168811097"><ele>128.14285714285717</ele><time>2026-03-28T15:15:16Z</time></trkpt><trkpt lat="45.04649748605946" lon="9.296576268597075"><ele>126.71428571428572</ele><time>2026-03-28T15:15:17Z</time></trkpt><trkpt lat="45.04647166021913" lon="9.296679300287016"><ele>125.28571428571428</ele><time>2026-03-28T15:15:18Z</time></trkpt><trkpt lat="45.0464389092393" lon="9.296771947431271"><ele>123.85714285714285</ele><time>2026-03-28T15:15:19Z</time></trkpt><trkpt lat="45.046405267345236" lon="9.296860576759054"><ele>122.42857142857142</ele><time>2026-03-28T15:15:20Z</time></trkpt><trkpt lat="45.04637021388042" lon="9.296943780260179"><ele>121.0</ele><time>2026-03-28T15:15:21Z</time></trkpt><trkpt lat="45.04633131190425" lon="9.297020323980409"><ele>121.0</ele><time>2026-03-28T15:15:22Z</time></trkpt><trkpt lat="45.04625457151526" lon="9.297108546193575"><ele>121.0</ele><time>2026-03-28T15:15:24Z</time></trkpt><trkpt lat="45.04615839003456" lon="9.297073679279304"><ele>121.0</ele><time>2026-03-28T15:15:26Z</time></trkpt><trkpt lat="45.046090788434206" lon="9.2970280427149"><ele>121.0</ele><time>2026-03-28T15:15:27Z</time></trkpt><trkpt lat="45.0459995044386" lon="9.297055616274298"><ele>121.0</ele><time>2026-03-28T15:15:28Z</time></trkpt><trkpt lat="45.04590658235523" lon="9.297063547071382"><ele>121.00000000000001</ele><time>2026-03-28T15:15:29Z</time></trkpt><trkpt lat="45.04581497719924" lon="9.297089426099033"><ele>121.0</ele><time>2026-03-28T15:15:30Z</time></trkpt><trkpt lat="45.04573980022102" lon="9.297119065460363"><ele>121.0</ele><time>2026-03-28T15:15:31Z</time></trkpt><trkpt lat="45.04567948728899" lon="9.29717583213125"><ele>121.0</ele><time>2026-03-28T15:15:32Z</time></trkpt><trkpt lat="45.045631962549216" lon="9.297255202236558"><ele>121.00000000000001</ele><time>2026-03-28T15:15:33Z</time></trkpt><trkpt lat="45.04560492608724" lon="9.297366612957045"><ele>121.0</ele><time>2026-03-28T15:15:34Z</time></trkpt><trkpt lat="45.04558500406391" lon="9.297495115987338"><ele>119.16666666666667</ele><time>2026-03-28T15:15:35Z</time></trkpt><trkpt lat="45.04558306834217" lon="9.29762725508674"><ele>117.33333333333334</ele><time>2026-03-28T15:15:36Z</time></trkpt><trkpt lat="45.045569355900874" lon="9.29773572239871"><ele>115.5</ele><time>2026-03-28T15:15:37Z</time></trkpt><trkpt lat="45.045545667377766" lon="9.297835235482943"><ele>113.66666666666666</ele><time>2026-03-28T15:15:38Z</time></trkpt><trkpt lat="45.04552543215466" lon="9.297943054854922"><ele>111.83333333333333</ele><time>2026-03-28T15:15:40Z</time></trkpt><trkpt lat="45.04550286463437" lon="9.29808789714651"><ele>110.0</ele><time>2026-03-28T15:15:55Z</time></trkpt><trkpt lat="45.045434669569865" lon="9.298221966558998"><ele>109.99999999999999</ele><time>2026-03-28T15:15:57Z</time></trkpt><trkpt lat="45.045387366672514" lon="9.29828364187064"><ele>110.0</ele><time>2026-03-28T15:15:58Z</time></trkpt><trkpt lat="45.045317917176185" lon="9.298339237259894"><ele>110.0</ele><time>2026-03-28T15:15:59Z</time></trkpt><trkpt lat="45.045255491077626" lon="9.298414315816181"><ele>110.0</ele><time>2026-03-28T15:16:00Z</time></trkpt><trkpt lat="45.04515592222384" lon="9.298426473479921"><ele>109.99999999999999</ele><time>2026-03-28T15:16:01Z</time></trkpt><trkpt lat="45.04506546274032" lon="9.298447709461032"><ele>110.0</ele><time>2026-03-28T15:16:02Z</time></trkpt><trkpt lat="45.044957811570626" lon="9.298460951319592"><ele>110.0</ele><time>2026-03-28T15:16:03Z</time></trkpt><trkpt lat="45.04482807601184" lon="9.298482489677728"><ele>110.0</ele><time>2026-03-28T15:16:04Z</time></trkpt><trkpt lat="45.044692021719406" lon="9.298503649011048"><ele>110.0</ele><time>2026-03-28T15:16:05Z</time></trkpt><trkpt lat="45.0445503717798" lon="9.298521186730994"><ele>110.0</ele><time>2026-03-28T15:16:06Z</time></trkpt><trkpt lat="45.044429734988185" lon="9.298531689464026"><ele>110.0</ele><time>2026-03-28T15:16:07Z</time></trkpt><trkpt lat="45.04431810904457" lon="9.29854945822403"><ele>110.0</ele><time>2026-03-28T15:16:08Z</time></trkpt><trkpt lat="45.04419772843644" lon="9.298569920185841"><ele>110.0</ele><time>2026-03-28T15:16:09Z</time></trkpt><trkpt lat="45.04408353239034" lon="9.298585100857055"><ele>110.0</ele><time>2026-03-28T15:16:10Z</time></trkpt><trkpt lat="45.04395561590625" lon="9.29860601825625"><ele>109.25</ele><time>2026-03-28T15:16:11Z</time></trkpt><trkpt lat="45.043822583335285" lon="9.298624528329453"><ele>108.5</ele><time>2026-03-28T15:16:12Z</time></trkpt><trkpt lat="45.04367859674919" lon="9.298641475475721"><ele>107.75</ele><time>2026-03-28T15:16:13Z</time></trkpt><trkpt lat="45.04352937052434" lon="9.29865977647982"><ele>107.0</ele><time>2026-03-28T15:16:14Z</time></trkpt><trkpt lat="45.043372277072216" lon="9.298679718660912"><ele>107.0</ele><time>2026-03-28T15:16:15Z</time></trkpt><trkpt lat="45.043207449851565" lon="9.29870298725376"><ele>107.0</ele><time>2026-03-28T15:16:16Z</time></trkpt><trkpt lat="45.04303809654243" lon="9.298728776631158"><ele>107.0</ele><time>2026-03-28T15:16:17Z</time></trkpt><trkpt lat="45.04285891605048" lon="9.29875692902161"><ele>107.0</ele><time>2026-03-28T15:16:18Z</time></trkpt><trkpt lat="45.04267338103391" lon="9.298783648604028"><ele>107.0</ele><time>2026-03-28T15:16:19Z</time></trkpt><trkpt lat="45.04248972892083" lon="9.298809347993545"><ele>107.0</ele><time>2026-03-28T15:16:20Z</time></trkpt><trkpt lat="45.04232089126712" lon="9.29883654023352"><ele>107.33333333333333</ele><time>2026-03-28T15:16:21Z</time></trkpt><trkpt lat="45.0421547613182" lon="9.298867317496388"><ele>107.66666666666666</ele><time>2026-03-28T15:16:22Z</time></trkpt><trkpt lat="45.04197900415526" lon="9.298896081848634"><ele>108.0</ele><time>2026-03-28T15:16:23Z</time></trkpt><trkpt lat="45.04180048720261" lon="9.298925352006508"><ele>108.66666666666666</ele><time>2026-03-28T15:16:24Z</time></trkpt><trkpt lat="45.04162171699536" lon="9.298954438180202"><ele>109.33333333333333</ele><time>2026-03-28T15:16:25Z</time></trkpt><trkpt lat="45.04143869415934" lon="9.298986794712318"><ele>110.0</ele><time>2026-03-28T15:16:26Z</time></trkpt><trkpt lat="45.04124922359127" lon="9.299016531296186"><ele>110.0</ele><time>2026-03-28T15:16:27Z</time></trkpt><trkpt lat="45.04105718090132" lon="9.299047942823455"><ele>110.0</ele><time>2026-03-28T15:16:28Z</time></trkpt><trkpt lat="45.04086409733335" lon="9.299076795580188"><ele>110.0</ele><time>2026-03-28T15:16:29Z</time></trkpt><trkpt lat="45.04066666310467" lon="9.299104289773757"><ele>110.33333333333333</ele><time>2026-03-28T15:16:30Z</time></trkpt><trkpt lat="45.0404651555362" lon="9.299133822321966"><ele>110.66666666666666</ele><time>2026-03-28T15:16:31Z</time></trkpt><trkpt lat="45.040264002773725" lon="9.299163033693821"><ele>111.0</ele><time>2026-03-28T15:16:32Z</time></trkpt><trkpt lat="45.040066076219325" lon="9.299193550320277"><ele>111.0</ele><time>2026-03-28T15:16:33Z</time></trkpt><trkpt lat="45.03986916314832" lon="9.299221254630234"><ele>111.0</ele><time>2026-03-28T15:16:34Z</time></trkpt><trkpt lat="45.03967486215979" lon="9.299246098670762"><ele>111.0</ele><time>2026-03-28T15:16:35Z</time></trkpt><trkpt lat="45.0394789769608" lon="9.29927505917986"><ele>111.0</ele><time>2026-03-28T15:16:36Z</time></trkpt><trkpt lat="45.03928376290895" lon="9.299301161779317"><ele>111.0</ele><time>2026-03-28T15:16:37Z</time></trkpt><trkpt lat="45.03908309861095" lon="9.299323800883116"><ele>111.0</ele><time>2026-03-28T15:16:38Z</time></trkpt><trkpt lat="45.03888839294023" lon="9.2993388472938"><ele>111.0</ele><time>2026-03-28T15:16:39Z</time></trkpt><trkpt lat="45.03869173126083" lon="9.299352598098897"><ele>111.0</ele><time>2026-03-28T15:16:40Z</time></trkpt><trkpt lat="45.038492397409094" lon="9.299368991947398"><ele>111.0</ele><time>2026-03-28T15:16:41Z</time></trkpt><trkpt lat="45.03829283742039" lon="9.299380180458947"><ele>111.66666666666666</ele><time>2026-03-28T15:16:42Z</time></trkpt><trkpt lat="45.03809812368712" lon="9.299388797057762"><ele>112.33333333333333</ele><time>2026-03-28T15:16:43Z</time></trkpt><trkpt lat="45.03790215966804" lon="9.299393965054117"><ele>113.0</ele><time>2026-03-28T15:16:44Z</time></trkpt><trkpt lat="45.037702168512624" lon="9.299404526135483"><ele>113.0</ele><time>2026-03-28T15:16:45Z</time></trkpt><trkpt lat="45.03750405373104" lon="9.299418320769652"><ele>113.0</ele><time>2026-03-28T15:16:46Z</time></trkpt><trkpt lat="45.03730288025966" lon="9.29943268871115"><ele>113.0</ele><time>2026-03-28T15:16:47Z</time></trkpt><trkpt lat="45.037103030370446" lon="9.299441703313734"><ele>113.66666666666666</ele><time>2026-03-28T15:16:48Z</time></trkpt><trkpt lat="45.03690212614429" lon="9.29945156185441"><ele>114.33333333333334</ele><time>2026-03-28T15:16:49Z</time></trkpt><trkpt lat="45.03670137302889" lon="9.299461793920148"><ele>115.0</ele><time>2026-03-28T15:16:50Z</time></trkpt><trkpt lat="45.0364993948882" lon="9.299472409510305"><ele>116.66666666666667</ele><time>2026-03-28T15:16:51Z</time></trkpt><trkpt lat="45.03629809310761" lon="9.299486206656493"><ele>118.33333333333334</ele><time>2026-03-28T15:16:52Z</time></trkpt><trkpt lat="45.036098531645706" lon="9.299509226626784"><ele>120.0</ele><time>2026-03-28T15:16:53Z</time></trkpt><trkpt lat="45.03591015257659" lon="9.299516788581641"><ele>120.33333333333334</ele><time>2026-03-28T15:16:54Z</time></trkpt><trkpt lat="45.03574010999788" lon="9.299505762119956"><ele>120.66666666666667</ele><time>2026-03-28T15:16:55Z</time></trkpt><trkpt lat="45.03558511539042" lon="9.299514189425041"><ele>121.0</ele><time>2026-03-28T15:16:56Z</time></trkpt><trkpt lat="45.03543854297161" lon="9.29952215880362"><ele>121.0</ele><time>2026-03-28T15:16:57Z</time></trkpt><trkpt lat="45.03529980938351" lon="9.299548574236404"><ele>121.0</ele><time>2026-03-28T15:16:58Z</time></trkpt><trkpt lat="45.03516561921203" lon="9.299554759060452"><ele>121.0</ele><time>2026-03-28T15:16:59Z</time></trkpt><trkpt lat="45.03504309929362" lon="9.299542610241941"><ele>121.0</ele><time>2026-03-28T15:17:00Z</time></trkpt><trkpt lat="45.0349332515555" lon="9.29954808223102"><ele>120.6</ele><time>2026-03-28T15:17:01Z</time></trkpt><trkpt lat="45.03483271080794" lon="9.299566045919795"><ele>120.19999999999999</ele><time>2026-03-28T15:17:02Z</time></trkpt><trkpt lat="45.034733544696024" lon="9.299558662860706"><ele>119.80000000000001</ele><time>2026-03-28T15:17:03Z</time></trkpt><trkpt lat="45.034632005331" lon="9.299536419394164"><ele>119.4</ele><time>2026-03-28T15:17:04Z</time></trkpt><trkpt lat="45.034540990703334" lon="9.299459618542818"><ele>119.0</ele><time>2026-03-28T15:17:05Z</time></trkpt><trkpt lat="45.03444141755048" lon="9.299450938642806"><ele>119.0</ele><time>2026-03-28T15:17:06Z</time></trkpt><trkpt lat="45.03433074123818" lon="9.29954012866514"><ele>119.0</ele><time>2026-03-28T15:17:07Z</time></trkpt><trkpt lat="45.034191617610055" lon="9.29958736632722"><ele>119.0</ele><time>2026-03-28T15:17:08Z</time></trkpt><trkpt lat="45.03401628497837" lon="9.29960466992744"><ele>119.0</ele><time>2026-03-28T15:17:09Z</time></trkpt><trkpt lat="45.033807047437904" lon="9.299614875191804"><ele>119.66666666666666</ele><time>2026-03-28T15:17:10Z</time></trkpt><trkpt lat="45.03358557872115" lon="9.299608259899303"><ele>120.33333333333334</ele><time>2026-03-28T15:17:11Z</time></trkpt><trkpt lat="45.03340073113163" lon="9.299617723502394"><ele>121.0</ele><time>2026-03-28T15:17:12Z</time></trkpt><trkpt lat="45.03324072272103" lon="9.299626748525808"><ele>121.33333333333334</ele><time>2026-03-28T15:17:12.999Z</time></trkpt><trkpt lat="45.03308056550005" lon="9.299635781951345"><ele>121.66666666666666</ele><time>2026-03-28T15:17:13.999Z</time></trkpt><trkpt lat="45.03292684661091" lon="9.299667306218328"><ele>122.0</ele><time>2026-03-28T15:17:14.999Z</time></trkpt><trkpt lat="45.03276263383193" lon="9.299652789775068"><ele>122.0</ele><time>2026-03-28T15:17:15.999Z</time></trkpt><trkpt lat="45.032604315312874" lon="9.299659998638713"><ele>122.0</ele><time>2026-03-28T15:17:16.999Z</time></trkpt><trkpt lat="45.032439600642604" lon="9.299685495042947"><ele>122.0</ele><time>2026-03-28T15:17:18Z</time></trkpt><trkpt lat="45.032268409952664" lon="9.299691081902246"><ele>123.0</ele><time>2026-03-28T15:17:19Z</time></trkpt><trkpt lat="45.032083493592914" lon="9.299695360191087"><ele>124.0</ele><time>2026-03-28T15:17:20Z</time></trkpt><trkpt lat="45.03189195212584" lon="9.29969363626066"><ele>125.0</ele><time>2026-03-28T15:17:21Z</time></trkpt><trkpt lat="45.03173241743644" lon="9.299650093744694"><ele>125.33333333333333</ele><time>2026-03-28T15:17:22Z</time></trkpt><trkpt lat="45.03158532775891" lon="9.299615579663067"><ele>125.66666666666666</ele><time>2026-03-28T15:17:23Z</time></trkpt><trkpt lat="45.03143146913171" lon="9.299577656412152"><ele>126.0</ele><time>2026-03-28T15:17:24Z</time></trkpt><trkpt lat="45.03127329612102" lon="9.299551476205918"><ele>126.0</ele><time>2026-03-28T15:17:25Z</time></trkpt><trkpt lat="45.031117575535404" lon="9.299505744233304"><ele>126.0</ele><time>2026-03-28T15:17:26Z</time></trkpt><trkpt lat="45.03095956538716" lon="9.299447531854412"><ele>126.0</ele><time>2026-03-28T15:17:27Z</time></trkpt><trkpt lat="45.03079102814496" lon="9.299402417578019"><ele>125.66666666666666</ele><time>2026-03-28T15:17:28Z</time></trkpt><trkpt lat="45.0306152285889" lon="9.299379891430165"><ele>125.33333333333333</ele><time>2026-03-28T15:17:29Z</time></trkpt><trkpt lat="45.03044192182066" lon="9.29933187686558"><ele>125.0</ele><time>2026-03-28T15:17:30Z</time></trkpt><trkpt lat="45.03026815615012" lon="9.299286596775655"><ele>125.0</ele><time>2026-03-28T15:17:31Z</time></trkpt><trkpt lat="45.03010460909494" lon="9.299245430868115"><ele>125.0</ele><time>2026-03-28T15:17:32Z</time></trkpt><trkpt lat="45.029960278603355" lon="9.299207396257309"><ele>125.0</ele><time>2026-03-28T15:17:33Z</time></trkpt><trkpt lat="45.02983005147847" lon="9.299175924501226"><ele>125.0</ele><time>2026-03-28T15:17:34Z</time></trkpt><trkpt lat="45.029714070017675" lon="9.299145795113116"><ele>125.2</ele><time>2026-03-28T15:17:35Z</time></trkpt><trkpt lat="45.02960900473795" lon="9.29912034880156"><ele>125.4</ele><time>2026-03-28T15:17:36Z</time></trkpt><trkpt lat="45.02951656003826" lon="9.299068125864933"><ele>125.6</ele><time>2026-03-28T15:17:37Z</time></trkpt><trkpt lat="45.02942067648604" lon="9.299043280243348"><ele>125.8</ele><time>2026-03-28T15:17:38Z</time></trkpt><trkpt lat="45.029324582659726" lon="9.29901838011937"><ele>126.0</ele><time>2026-03-28T15:17:39Z</time></trkpt><trkpt lat="45.02922749833618" lon="9.29899322347798"><ele>125.8</ele><time>2026-03-28T15:17:40Z</time></trkpt><trkpt lat="45.02912766099873" lon="9.298967074712076"><ele>125.6</ele><time>2026-03-28T15:17:41Z</time></trkpt><trkpt lat="45.029025534733094" lon="9.29894042563143"><ele>125.4</ele><time>2026-03-28T15:17:42Z</time></trkpt><trkpt lat="45.02891885975792" lon="9.298912589599572"><ele>125.2</ele><time>2026-03-28T15:17:43Z</time></trkpt><trkpt lat="45.02880665417494" lon="9.298883310402038"><ele>125.0</ele><time>2026-03-28T15:17:44Z</time></trkpt><trkpt lat="45.02869267368184" lon="9.29885356804673"><ele>126.5</ele><time>2026-03-28T15:17:45Z</time></trkpt><trkpt lat="45.028574205451015" lon="9.298821219148536"><ele>128.0</ele><time>2026-03-28T15:17:46Z</time></trkpt><trkpt lat="45.0284508082984" lon="9.298787413586174"><ele>129.5</ele><time>2026-03-28T15:17:47Z</time></trkpt><trkpt lat="45.02832055132611" lon="9.298774270680125"><ele>131.0</ele><time>2026-03-28T15:17:48Z</time></trkpt><trkpt lat="45.02819139963005" lon="9.298736665468162"><ele>131.0</ele><time>2026-03-28T15:17:49Z</time></trkpt><trkpt lat="45.02805626179682" lon="9.298698840489212"><ele>131.0</ele><time>2026-03-28T15:17:50Z</time></trkpt><trkpt lat="45.027912618720656" lon="9.29866394089392"><ele>131.0</ele><time>2026-03-28T15:17:51Z</time></trkpt><trkpt lat="45.02776319354307" lon="9.298629576147897"><ele>131.0</ele><time>2026-03-28T15:17:52Z</time></trkpt><trkpt lat="45.02760879781526" lon="9.298620157414515"><ele>131.66666666666666</ele><time>2026-03-28T15:17:53Z</time></trkpt><trkpt lat="45.02745304828244" lon="9.298625936924923"><ele>132.33333333333334</ele><time>2026-03-28T15:17:54Z</time></trkpt><trkpt lat="45.027290622399576" lon="9.298645514201889"><ele>133.0</ele><time>2026-03-28T15:17:55Z</time></trkpt><trkpt lat="45.02710433771614" lon="9.298639744295915"><ele>133.0</ele><time>2026-03-28T15:17:56Z</time></trkpt><trkpt lat="45.02689804656597" lon="9.298653972959844"><ele>133.0</ele><time>2026-03-28T15:17:57Z</time></trkpt><trkpt lat="45.02669297449242" lon="9.298666387565776"><ele>133.0</ele><time>2026-03-28T15:17:58Z</time></trkpt><trkpt lat="45.02648628129456" lon="9.298678900314606"><ele>132.66666666666669</ele><time>2026-03-28T15:17:59Z</time></trkpt><trkpt lat="45.02628300667054" lon="9.29870973836687"><ele>132.33333333333334</ele><time>2026-03-28T15:18:00Z</time></trkpt><trkpt lat="45.02607905394163" lon="9.298719452802702"><ele>132.0</ele><time>2026-03-28T15:18:01Z</time></trkpt><trkpt lat="45.02589106532909" lon="9.298730271054982"><ele>132.66666666666666</ele><time>2026-03-28T15:18:02Z</time></trkpt><trkpt lat="45.02571212626437" lon="9.298738454061494"><ele>133.33333333333331</ele><time>2026-03-28T15:18:03Z</time></trkpt><trkpt lat="45.025537232822934" lon="9.298750744447204"><ele>134.0</ele><time>2026-03-28T15:18:04Z</time></trkpt><trkpt lat="45.025367689021955" lon="9.298764358618971"><ele>134.0</ele><time>2026-03-28T15:18:05Z</time></trkpt><trkpt lat="45.02520739567706" lon="9.298749276125438"><ele>134.0</ele><time>2026-03-28T15:18:06Z</time></trkpt><trkpt lat="45.02506219150594" lon="9.298756377636456"><ele>134.0</ele><time>2026-03-28T15:18:07Z</time></trkpt><trkpt lat="45.024915630520056" lon="9.298763948239156"><ele>134.25</ele><time>2026-03-28T15:18:08Z</time></trkpt><trkpt lat="45.024771448281335" lon="9.298771395972222"><ele>134.5</ele><time>2026-03-28T15:18:09Z</time></trkpt><trkpt lat="45.0246261140978" lon="9.298801857527542"><ele>134.75</ele><time>2026-03-28T15:18:10Z</time></trkpt><trkpt lat="45.02448097149566" lon="9.298799953613285"><ele>135.0</ele><time>2026-03-28T15:18:11Z</time></trkpt><trkpt lat="45.02433232258868" lon="9.29880880258882"><ele>135.0</ele><time>2026-03-28T15:18:12Z</time></trkpt><trkpt lat="45.024183783135584" lon="9.29881758481722"><ele>135.0</ele><time>2026-03-28T15:18:13Z</time></trkpt><trkpt lat="45.02403088098623" lon="9.29882894112429"><ele>135.0</ele><time>2026-03-28T15:18:14Z</time></trkpt><trkpt lat="45.02387344118238" lon="9.298838684656369"><ele>135.33333333333334</ele><time>2026-03-28T15:18:15Z</time></trkpt><trkpt lat="45.02371080611974" lon="9.298848909003961"><ele>135.66666666666669</ele><time>2026-03-28T15:18:16Z</time></trkpt><trkpt lat="45.02355230379571" lon="9.298872138048715"><ele>136.0</ele><time>2026-03-28T15:18:17Z</time></trkpt><trkpt lat="45.0233952576312" lon="9.298922506949959"><ele>135.0</ele><time>2026-03-28T15:18:18Z</time></trkpt><trkpt lat="45.02324029793527" lon="9.299007372184304"><ele>134.0</ele><time>2026-03-28T15:18:19Z</time></trkpt><trkpt lat="45.02308570991081" lon="9.299110340365715"><ele>133.0</ele><time>2026-03-28T15:18:20Z</time></trkpt><trkpt lat="45.02294941857785" lon="9.299216690756216"><ele>133.0</ele><time>2026-03-28T15:18:21Z</time></trkpt><trkpt lat="45.022825831505514" lon="9.299313723299147"><ele>133.0</ele><time>2026-03-28T15:18:22Z</time></trkpt><trkpt lat="45.02271187138057" lon="9.299398918990937"><ele>133.0</ele><time>2026-03-28T15:18:23Z</time></trkpt><trkpt lat="45.02260000418535" lon="9.29947965713193"><ele>133.0</ele><time>2026-03-28T15:18:24Z</time></trkpt><trkpt lat="45.02249026378013" lon="9.299552180104708"><ele>132.5</ele><time>2026-03-28T15:18:25Z</time></trkpt><trkpt lat="45.02237753082537" lon="9.299629626609482"><ele>132.0</ele><time>2026-03-28T15:18:26Z</time></trkpt><trkpt lat="45.022263386438695" lon="9.299719112171713"><ele>131.5</ele><time>2026-03-28T15:18:27Z</time></trkpt><trkpt lat="45.022140990481134" lon="9.299808729031964"><ele>131.0</ele><time>2026-03-28T15:18:28Z</time></trkpt><trkpt lat="45.022016442805175" lon="9.29989417987981"><ele>131.0</ele><time>2026-03-28T15:18:29Z</time></trkpt><trkpt lat="45.02188432607885" lon="9.299976431761596"><ele>131.0</ele><time>2026-03-28T15:18:30Z</time></trkpt><trkpt lat="45.02174233398237" lon="9.300041994810057"><ele>131.0</ele><time>2026-03-28T15:18:31Z</time></trkpt><trkpt lat="45.02160213533986" lon="9.300091132935595"><ele>131.0</ele><time>2026-03-28T15:18:32Z</time></trkpt><trkpt lat="45.02147471267041" lon="9.300112374309121"><ele>131.5</ele><time>2026-03-28T15:18:33Z</time></trkpt><trkpt lat="45.021343392210674" lon="9.300117512476833"><ele>132.0</ele><time>2026-03-28T15:18:34Z</time></trkpt><trkpt lat="45.02120484786405" lon="9.300109040735345"><ele>132.5</ele><time>2026-03-28T15:18:35Z</time></trkpt><trkpt lat="45.021060139293574" lon="9.300073525878613"><ele>133.0</ele><time>2026-03-28T15:18:36Z</time></trkpt><trkpt lat="45.0209167311025" lon="9.300011412340321"><ele>133.0</ele><time>2026-03-28T15:18:37Z</time></trkpt><trkpt lat="45.02078216646361" lon="9.29992387315933"><ele>133.0</ele><time>2026-03-28T15:18:38Z</time></trkpt><trkpt lat="45.02065215900235" lon="9.299819251687406"><ele>133.0</ele><time>2026-03-28T15:18:39Z</time></trkpt><trkpt lat="45.02052395401794" lon="9.29970873891868"><ele>133.0</ele><time>2026-03-28T15:18:40Z</time></trkpt><trkpt lat="45.02039323780125" lon="9.2995985373688"><ele>133.0</ele><time>2026-03-28T15:18:41Z</time></trkpt><trkpt lat="45.020261838452434" lon="9.299493404503979"><ele>133.0</ele><time>2026-03-28T15:18:42Z</time></trkpt><trkpt lat="45.02014203874599" lon="9.29940670001753"><ele>133.0</ele><time>2026-03-28T15:18:43Z</time></trkpt><trkpt lat="45.02002451106789" lon="9.299333775730062"><ele>133.0</ele><time>2026-03-28T15:18:44Z</time></trkpt><trkpt lat="45.01989893990874" lon="9.299279513475817"><ele>133.25</ele><time>2026-03-28T15:18:45Z</time></trkpt><trkpt lat="45.01975785556363" lon="9.29924398280052"><ele>133.5</ele><time>2026-03-28T15:18:46Z</time></trkpt><trkpt lat="45.01961423798172" lon="9.299231160351686"><ele>133.75</ele><time>2026-03-28T15:18:47Z</time></trkpt><trkpt lat="45.019462926972054" lon="9.299230158590953"><ele>134.0</ele><time>2026-03-28T15:18:48Z</time></trkpt><trkpt lat="45.019308530257256" lon="9.29922913950924"><ele>134.0</ele><time>2026-03-28T15:18:49Z</time></trkpt><trkpt lat="45.01915813353419" lon="9.299227718735994"><ele>134.0</ele><time>2026-03-28T15:18:50Z</time></trkpt><trkpt lat="45.01902534526137" lon="9.299227731647177"><ele>134.0</ele><time>2026-03-28T15:18:51Z</time></trkpt><trkpt lat="45.01889407702851" lon="9.29922661310362"><ele>134.0</ele><time>2026-03-28T15:18:52Z</time></trkpt><trkpt lat="45.01875741875355" lon="9.299224388601342"><ele>134.5</ele><time>2026-03-28T15:18:53Z</time></trkpt><trkpt lat="45.018621115202855" lon="9.2992268057391"><ele>135.0</ele><time>2026-03-28T15:18:54Z</time></trkpt><trkpt lat="45.01849878531369" lon="9.29922914455025"><ele>135.5</ele><time>2026-03-28T15:18:55Z</time></trkpt><trkpt lat="45.01837641052902" lon="9.299229979873438"><ele>136.0</ele><time>2026-03-28T15:18:56Z</time></trkpt><trkpt lat="45.01824521432055" lon="9.299232784891942"><ele>136.0</ele><time>2026-03-28T15:18:57Z</time></trkpt><trkpt lat="45.018110965890905" lon="9.299231199572294"><ele>136.0</ele><time>2026-03-28T15:18:58Z</time></trkpt><trkpt lat="45.01797590111709" lon="9.299228621845415"><ele>136.0</ele><time>2026-03-28T15:18:59Z</time></trkpt><trkpt lat="45.017837906717816" lon="9.299227330096139"><ele>136.0</ele><time>2026-03-28T15:19:00Z</time></trkpt><trkpt lat="45.01770403172104" lon="9.299222776966223"><ele>136.0</ele><time>2026-03-28T15:19:01Z</time></trkpt><trkpt lat="45.01756835244271" lon="9.299222908966062"><ele>136.0</ele><time>2026-03-28T15:19:02Z</time></trkpt><trkpt lat="45.01743384730702" lon="9.299223407902696"><ele>136.0</ele><time>2026-03-28T15:19:03Z</time></trkpt><trkpt lat="45.01729801759183" lon="9.299225907656066"><ele>136.0</ele><time>2026-03-28T15:19:04Z</time></trkpt><trkpt lat="45.01716045745735" lon="9.299224419943389"><ele>136.5</ele><time>2026-03-28T15:19:05Z</time></trkpt><trkpt lat="45.01702064443148" lon="9.299224737736107"><ele>137.0</ele><time>2026-03-28T15:19:06Z</time></trkpt><trkpt lat="45.0168801000313" lon="9.299225748653475"><ele>137.5</ele><time>2026-03-28T15:19:07Z</time></trkpt><trkpt lat="45.01673451887779" lon="9.299227661800927"><ele>138.0</ele><time>2026-03-28T15:19:08Z</time></trkpt><trkpt lat="45.01659037353501" lon="9.299227738658859"><ele>138.0</ele><time>2026-03-28T15:19:09Z</time></trkpt><trkpt lat="45.016446759594736" lon="9.299228934275593"><ele>138.0</ele><time>2026-03-28T15:19:10Z</time></trkpt><trkpt lat="45.0163169796753" lon="9.299229342983496"><ele>138.0</ele><time>2026-03-28T15:19:11Z</time></trkpt><trkpt lat="45.01620165829885" lon="9.29922952097568"><ele>138.0</ele><time>2026-03-28T15:19:12Z</time></trkpt><trkpt lat="45.01608941262623" lon="9.29922012033679"><ele>138.0</ele><time>2026-03-28T15:19:13Z</time></trkpt><trkpt lat="45.01596940052664" lon="9.299229465448365"><ele>138.0</ele><time>2026-03-28T15:19:14Z</time></trkpt><trkpt lat="45.01583561872461" lon="9.299225671163237"><ele>138.0</ele><time>2026-03-28T15:19:15Z</time></trkpt><trkpt lat="45.015664514783175" lon="9.299204257911613"><ele>138.0</ele><time>2026-03-28T15:19:15.999Z</time></trkpt><trkpt lat="45.01545983648886" lon="9.299204629110143"><ele>138.0</ele><time>2026-03-28T15:19:16.999Z</time></trkpt><trkpt lat="45.01524037342362" lon="9.299206294229066"><ele>138.0</ele><time>2026-03-28T15:19:17.999Z</time></trkpt><trkpt lat="45.01503216798229" lon="9.299217727999782"><ele>138.0</ele><time>2026-03-28T15:19:18.999Z</time></trkpt><trkpt lat="45.014852767146415" lon="9.299212703435376"><ele>139.0</ele><time>2026-03-28T15:19:19.999Z</time></trkpt><trkpt lat="45.01468643440894" lon="9.299214938354885"><ele>140.0</ele><time>2026-03-28T15:19:20.999Z</time></trkpt><trkpt lat="45.01452930090447" lon="9.29921197434622"><ele>141.0</ele><time>2026-03-28T15:19:21.999Z</time></trkpt><trkpt lat="45.01438138050427" lon="9.299212064182974"><ele>141.0</ele><time>2026-03-28T15:19:22.999Z</time></trkpt><trkpt lat="45.01423889446388" lon="9.29921064140308"><ele>141.0</ele><time>2026-03-28T15:19:24Z</time></trkpt><trkpt lat="45.0140910256357" lon="9.299203735362457"><ele>141.0</ele><time>2026-03-28T15:19:25Z</time></trkpt><trkpt lat="45.01394333234656" lon="9.299205830707905"><ele>141.0</ele><time>2026-03-28T15:19:26Z</time></trkpt><trkpt lat="45.01379670203224" lon="9.299209966998792"><ele>141.0</ele><time>2026-03-28T15:19:27Z</time></trkpt><trkpt lat="45.01364551715205" lon="9.299214091959886"><ele>141.0</ele><time>2026-03-28T15:19:28Z</time></trkpt><trkpt lat="45.01349714847851" lon="9.299216578604069"><ele>141.0</ele><time>2026-03-28T15:19:29Z</time></trkpt><trkpt lat="45.01335139769661" lon="9.299216214028629"><ele>141.0</ele><time>2026-03-28T15:19:30Z</time></trkpt><trkpt lat="45.01320392780477" lon="9.299210438825959"><ele>141.5</ele><time>2026-03-28T15:19:31Z</time></trkpt><trkpt lat="45.013057823560814" lon="9.299205915357353"><ele>142.0</ele><time>2026-03-28T15:19:32Z</time></trkpt><trkpt lat="45.012907754842196" lon="9.299204862298982"><ele>142.5</ele><time>2026-03-28T15:19:33Z</time></trkpt><trkpt lat="45.01276382367001" lon="9.299203435913661"><ele>143.0</ele><time>2026-03-28T15:19:34Z</time></trkpt><trkpt lat="45.01263223233711" lon="9.29920494247537"><ele>143.0</ele><time>2026-03-28T15:19:35Z</time></trkpt><trkpt lat="45.0125052246857" lon="9.299197479933694"><ele>143.0</ele><time>2026-03-28T15:19:36Z</time></trkpt><trkpt lat="45.012369567371636" lon="9.299185206390002"><ele>143.0</ele><time>2026-03-28T15:19:37Z</time></trkpt><trkpt lat="45.01222912992333" lon="9.299169544554573"><ele>143.0</ele><time>2026-03-28T15:19:38Z</time></trkpt><trkpt lat="45.012101092589454" lon="9.299151716303314"><ele>143.20000000000002</ele><time>2026-03-28T15:19:39Z</time></trkpt><trkpt lat="45.011992647263625" lon="9.299132412000036"><ele>143.4</ele><time>2026-03-28T15:19:40Z</time></trkpt><trkpt lat="45.01189801330418" lon="9.299114070842228"><ele>143.60000000000002</ele><time>2026-03-28T15:19:41Z</time></trkpt><trkpt lat="45.0118065934194" lon="9.299100037191986"><ele>143.8</ele><time>2026-03-28T15:19:42Z</time></trkpt><trkpt lat="45.01171085715084" lon="9.299084478676994"><ele>144.0</ele><time>2026-03-28T15:19:43Z</time></trkpt><trkpt lat="45.011613583778775" lon="9.299069526667255"><ele>144.5</ele><time>2026-03-28T15:19:44Z</time></trkpt><trkpt lat="45.011514682327885" lon="9.299054726005314"><ele>145.0</ele><time>2026-03-28T15:19:45Z</time></trkpt><trkpt lat="45.01140797919841" lon="9.299036135404242"><ele>145.5</ele><time>2026-03-28T15:19:46Z</time></trkpt><trkpt lat="45.01129647192728" lon="9.299020484576646"><ele>146.0</ele><time>2026-03-28T15:19:47Z</time></trkpt><trkpt lat="45.01116276802249" lon="9.298999352312004"><ele>146.0</ele><time>2026-03-28T15:19:48Z</time></trkpt><trkpt lat="45.010990089354856" lon="9.29897603323522"><ele>146.0</ele><time>2026-03-28T15:19:49Z</time></trkpt><trkpt lat="45.010787726558085" lon="9.298940541509426"><ele>146.0</ele><time>2026-03-28T15:19:50Z</time></trkpt><trkpt lat="45.0105687218469" lon="9.298902548042781"><ele>146.0</ele><time>2026-03-28T15:19:51Z</time></trkpt><trkpt lat="45.01033039708519" lon="9.298863467611367"><ele>146.0</ele><time>2026-03-28T15:19:52Z</time></trkpt><trkpt lat="45.01009394803135" lon="9.298805044104443"><ele>147.33333333333331</ele><time>2026-03-28T15:19:53Z</time></trkpt><trkpt lat="45.009865106617" lon="9.298774100342998"><ele>148.66666666666666</ele><time>2026-03-28T15:19:54Z</time></trkpt><trkpt lat="45.00965600224908" lon="9.298753037396528"><ele>150.0</ele><time>2026-03-28T15:19:55Z</time></trkpt><trkpt lat="45.009463118687655" lon="9.298732542144784"><ele>150.0</ele><time>2026-03-28T15:19:56Z</time></trkpt><trkpt lat="45.009296259708016" lon="9.298734341183646"><ele>150.0</ele><time>2026-03-28T15:19:57Z</time></trkpt><trkpt lat="45.00915743219533" lon="9.298719194417801"><ele>150.0</ele><time>2026-03-28T15:19:58Z</time></trkpt><trkpt lat="45.00902521059065" lon="9.298685859406445"><ele>150.0</ele><time>2026-03-28T15:19:59Z</time></trkpt><trkpt lat="45.00891255515599" lon="9.298699750950622"><ele>151.0</ele><time>2026-03-28T15:20:00Z</time></trkpt><trkpt lat="45.00880645926725" lon="9.2986842588057"><ele>152.0</ele><time>2026-03-28T15:20:01Z</time></trkpt><trkpt lat="45.008699839101" lon="9.298675673971456"><ele>153.0</ele><time>2026-03-28T15:20:02Z</time></trkpt><trkpt lat="45.008589355092376" lon="9.298666602508577"><ele>154.0</ele><time>2026-03-28T15:20:03Z</time></trkpt><trkpt lat="45.008472080693885" lon="9.298660163574404"><ele>155.0</ele><time>2026-03-28T15:20:04Z</time></trkpt><trkpt lat="45.00835224357299" lon="9.298653040490683"><ele>155.4</ele><time>2026-03-28T15:20:05Z</time></trkpt><trkpt lat="45.008237244951076" lon="9.298648974007117"><ele>155.8</ele><time>2026-03-28T15:20:06Z</time></trkpt><trkpt lat="45.008136398492375" lon="9.298640067230869"><ele>156.2</ele><time>2026-03-28T15:20:07Z</time></trkpt><trkpt lat="45.00804102790786" lon="9.29862303734857"><ele>156.6</ele><time>2026-03-28T15:20:08Z</time></trkpt><trkpt lat="45.007938480039755" lon="9.298600627947181"><ele>157.0</ele><time>2026-03-28T15:20:09Z</time></trkpt><trkpt lat="45.0078369215825" lon="9.298578095257186"><ele>157.0</ele><time>2026-03-28T15:20:10Z</time></trkpt><trkpt lat="45.00773581088625" lon="9.298556556198463"><ele>157.0</ele><time>2026-03-28T15:20:11Z</time></trkpt><trkpt lat="45.00762362713522" lon="9.298519041190811"><ele>157.0</ele><time>2026-03-28T15:20:12Z</time></trkpt><trkpt lat="45.00747868649659" lon="9.298505462204098"><ele>157.0</ele><time>2026-03-28T15:20:13Z</time></trkpt><trkpt lat="45.007320645154" lon="9.298456489659909"><ele>156.0</ele><time>2026-03-28T15:20:14Z</time></trkpt><trkpt lat="45.007171559653194" lon="9.298387581994925"><ele>155.0</ele><time>2026-03-28T15:20:15Z</time></trkpt><trkpt lat="45.00704292837734" lon="9.298314106758859"><ele>154.0</ele><time>2026-03-28T15:20:16Z</time></trkpt><trkpt lat="45.00693917597621" lon="9.298236935411166"><ele>153.0</ele><time>2026-03-28T15:20:17Z</time></trkpt><trkpt lat="45.00684527634572" lon="9.29815220132318"><ele>153.5</ele><time>2026-03-28T15:20:18Z</time></trkpt><trkpt lat="45.006747611736884" lon="9.298058859850174"><ele>154.0</ele><time>2026-03-28T15:20:19Z</time></trkpt><trkpt lat="45.00664528766827" lon="9.297967358698143"><ele>154.5</ele><time>2026-03-28T15:20:20Z</time></trkpt><trkpt lat="45.006531607107306" lon="9.297867500642871"><ele>155.0</ele><time>2026-03-28T15:20:21Z</time></trkpt><trkpt lat="45.00639664529397" lon="9.297736761770565"><ele>155.0</ele><time>2026-03-28T15:20:22Z</time></trkpt><trkpt lat="45.00624326434877" lon="9.297579394873907"><ele>155.0</ele><time>2026-03-28T15:20:23Z</time></trkpt><trkpt lat="45.006095577610274" lon="9.29742272333112"><ele>155.0</ele><time>2026-03-28T15:20:24Z</time></trkpt><trkpt lat="45.00596098551333" lon="9.297290528711114"><ele>155.25</ele><time>2026-03-28T15:20:25Z</time></trkpt><trkpt lat="45.00584361464075" lon="9.297177416255185"><ele>155.5</ele><time>2026-03-28T15:20:26Z</time></trkpt><trkpt lat="45.005739487618285" lon="9.29707413834377"><ele>155.75</ele><time>2026-03-28T15:20:27Z</time></trkpt><trkpt lat="45.00565844322601" lon="9.296993774080608"><ele>156.0</ele><time>2026-03-28T15:20:28Z</time></trkpt><trkpt lat="45.00557545255197" lon="9.296906747290045"><ele>156.0</ele><time>2026-03-28T15:20:29Z</time></trkpt><trkpt lat="45.005503597919315" lon="9.296785743723456"><ele>156.0</ele><time>2026-03-28T15:20:30Z</time></trkpt><trkpt lat="45.00543100007056" lon="9.296670957796623"><ele>156.0</ele><time>2026-03-28T15:20:31Z</time></trkpt><trkpt lat="45.00535909636375" lon="9.296539140234183"><ele>156.0</ele><time>2026-03-28T15:20:32Z</time></trkpt><trkpt lat="45.00528512920461" lon="9.296398932200193"><ele>156.66666666666666</ele><time>2026-03-28T15:20:33Z</time></trkpt><trkpt lat="45.00520667660503" lon="9.296219140582746"><ele>157.33333333333331</ele><time>2026-03-28T15:20:34Z</time></trkpt><trkpt lat="45.005126781000776" lon="9.296005811304257"><ele>158.0</ele><time>2026-03-28T15:20:35Z</time></trkpt><trkpt lat="45.00505003042806" lon="9.295799803548418"><ele>157.75</ele><time>2026-03-28T15:20:36Z</time></trkpt><trkpt lat="45.004982856360215" lon="9.295620464736512"><ele>157.5</ele><time>2026-03-28T15:20:37Z</time></trkpt><trkpt lat="45.0049164467598" lon="9.295456391473323"><ele>157.25</ele><time>2026-03-28T15:20:38Z</time></trkpt><trkpt lat="45.004846944343946" lon="9.295305747271321"><ele>157.0</ele><time>2026-03-28T15:20:39Z</time></trkpt><trkpt lat="45.00477333149882" lon="9.29516047611209"><ele>157.0</ele><time>2026-03-28T15:20:40Z</time></trkpt><trkpt lat="45.0046918246701" lon="9.295021957695477"><ele>157.0</ele><time>2026-03-28T15:20:41Z</time></trkpt><trkpt lat="45.004599689978015" lon="9.294897526021462"><ele>157.0</ele><time>2026-03-28T15:20:42Z</time></trkpt><trkpt lat="45.004497713815766" lon="9.294783656870434"><ele>157.0</ele><time>2026-03-28T15:20:43Z</time></trkpt><trkpt lat="45.004403473677506" lon="9.294674173637366"><ele>157.0</ele><time>2026-03-28T15:20:44Z</time></trkpt><trkpt lat="45.00431484473997" lon="9.294573058803111"><ele>157.0</ele><time>2026-03-28T15:20:45Z</time></trkpt><trkpt lat="45.00423015936504" lon="9.29447892272648"><ele>157.0</ele><time>2026-03-28T15:20:46Z</time></trkpt><trkpt lat="45.004149079446016" lon="9.29438542839381"><ele>157.0</ele><time>2026-03-28T15:20:47Z</time></trkpt><trkpt lat="45.004064991287" lon="9.294290567794285"><ele>157.0</ele><time>2026-03-28T15:20:48Z</time></trkpt><trkpt lat="45.003977645085726" lon="9.294206538793311"><ele>157.0</ele><time>2026-03-28T15:20:49Z</time></trkpt><trkpt lat="45.00388526405874" lon="9.294129453349756"><ele>157.0</ele><time>2026-03-28T15:20:50Z</time></trkpt><trkpt lat="45.00379940036225" lon="9.294070519634545"><ele>157.0</ele><time>2026-03-28T15:20:51Z</time></trkpt><trkpt lat="45.003706199152795" lon="9.294024404013266"><ele>157.0</ele><time>2026-03-28T15:20:52Z</time></trkpt><trkpt lat="45.003622998124136" lon="9.294000874533106"><ele>157.0</ele><time>2026-03-28T15:20:53Z</time></trkpt><trkpt lat="45.00353956842837" lon="9.293998947108257"><ele>157.0</ele><time>2026-03-28T15:20:54Z</time></trkpt><trkpt lat="45.00346441791087" lon="9.293995162314536"><ele>157.0</ele><time>2026-03-28T15:20:55Z</time></trkpt><trkpt lat="45.00338530991336" lon="9.294011012324827"><ele>157.0</ele><time>2026-03-28T15:20:56Z</time></trkpt><trkpt lat="45.003298664860786" lon="9.294003931965442"><ele>157.0</ele><time>2026-03-28T15:20:57Z</time></trkpt><trkpt lat="45.00321207658573" lon="9.293957810821292"><ele>157.0</ele><time>2026-03-28T15:20:58Z</time></trkpt><trkpt lat="45.00310850357032" lon="9.293966393102757"><ele>157.0</ele><time>2026-03-28T15:20:59Z</time></trkpt><trkpt lat="45.00301097048742" lon="9.29393226171558"><ele>157.75</ele><time>2026-03-28T15:21:00Z</time></trkpt><trkpt lat="45.00290758270816" lon="9.293895975683839"><ele>158.5</ele><time>2026-03-28T15:21:01Z</time></trkpt><trkpt lat="45.00279298919571" lon="9.29387719992817"><ele>159.25</ele><time>2026-03-28T15:21:02Z</time></trkpt><trkpt lat="45.00267609850777" lon="9.293879551886851"><ele>160.0</ele><time>2026-03-28T15:21:03Z</time></trkpt><trkpt lat="45.00254519443994" lon="9.293855953759094"><ele>160.33333333333334</ele><time>2026-03-28T15:21:04Z</time></trkpt><trkpt lat="45.00239955363319" lon="9.293852557335896"><ele>160.66666666666666</ele><time>2026-03-28T15:21:05Z</time></trkpt><trkpt lat="45.00224155313608" lon="9.293842363162126"><ele>161.0</ele><time>2026-03-28T15:21:05.999Z</time></trkpt><trkpt lat="45.0020728257724" lon="9.293830599637904"><ele>161.0</ele><time>2026-03-28T15:21:06.999Z</time></trkpt><trkpt lat="45.001901852692264" lon="9.293841026323342"><ele>161.0</ele><time>2026-03-28T15:21:07.999Z</time></trkpt><trkpt lat="45.00172467838865" lon="9.293817104933847"><ele>161.0</ele><time>2026-03-28T15:21:08.999Z</time></trkpt><trkpt lat="45.0015460480985" lon="9.29380059641131"><ele>162.0</ele><time>2026-03-28T15:21:09.999Z</time></trkpt><trkpt lat="45.001362417643826" lon="9.29379810099096"><ele>163.0</ele><time>2026-03-28T15:21:10.999Z</time></trkpt><trkpt lat="45.00119239151136" lon="9.293789247616852"><ele>164.0</ele><time>2026-03-28T15:21:11.999Z</time></trkpt><trkpt lat="45.00102108667789" lon="9.293774945575102"><ele>164.0</ele><time>2026-03-28T15:21:12.999Z</time></trkpt><trkpt lat="45.00085865134071" lon="9.29375631450587"><ele>164.0</ele><time>2026-03-28T15:21:13.999Z</time></trkpt><trkpt lat="45.00068875157916" lon="9.293746617183848"><ele>164.0</ele><time>2026-03-28T15:21:14.999Z</time></trkpt><trkpt lat="45.00052002148146" lon="9.293736689922723"><ele>164.0</ele><time>2026-03-28T15:21:15.999Z</time></trkpt><trkpt lat="45.00034879370403" lon="9.293726334666015"><ele>164.0</ele><time>2026-03-28T15:21:16.999Z</time></trkpt><trkpt lat="45.00017910914455" lon="9.293715572659877"><ele>164.0</ele><time>2026-03-28T15:21:17.999Z</time></trkpt><trkpt lat="45.000017687362" lon="9.293702387165855"><ele>164.0</ele><time>2026-03-28T15:21:18.999Z</time></trkpt><trkpt lat="44.99984404866769" lon="9.293688421410335"><ele>164.0</ele><time>2026-03-28T15:21:19.999Z</time></trkpt><trkpt lat="44.99967125327949" lon="9.293678213980815"><ele>164.0</ele><time>2026-03-28T15:21:20.999Z</time></trkpt><trkpt lat="44.999498114044854" lon="9.29366561915988"><ele>164.0</ele><time>2026-03-28T15:21:21.999Z</time></trkpt><trkpt lat="44.99932502152196" lon="9.29365511434778"><ele>164.0</ele><time>2026-03-28T15:21:22.999Z</time></trkpt><trkpt lat="44.999165710442384" lon="9.293649629211926"><ele>164.0</ele><time>2026-03-28T15:21:23.999Z</time></trkpt><trkpt lat="44.99902420942134" lon="9.293637776522658"><ele>164.5</ele><time>2026-03-28T15:21:24.999Z</time></trkpt><trkpt lat="44.99888760517093" lon="9.293629065547991"><ele>165.0</ele><time>2026-03-28T15:21:25.999Z</time></trkpt><trkpt lat="44.998751036383" lon="9.293620682029598"><ele>165.5</ele><time>2026-03-28T15:21:26.999Z</time></trkpt><trkpt lat="44.99861305723817" lon="9.293623664504176"><ele>166.0</ele><time>2026-03-28T15:21:27.999Z</time></trkpt><trkpt lat="44.99847629280609" lon="9.293647524756812"><ele>166.25</ele><time>2026-03-28T15:21:29Z</time></trkpt><trkpt lat="44.99833322968137" lon="9.293689933503591"><ele>166.5</ele><time>2026-03-28T15:21:30Z</time></trkpt><trkpt lat="44.99818298460469" lon="9.293736287102389"><ele>166.75</ele><time>2026-03-28T15:21:31Z</time></trkpt><trkpt lat="44.99805197824257" lon="9.293835582382576"><ele>167.0</ele><time>2026-03-28T15:21:32Z</time></trkpt><trkpt lat="44.99791642423762" lon="9.293961418898743"><ele>167.0</ele><time>2026-03-28T15:21:33Z</time></trkpt><trkpt lat="44.997783019909285" lon="9.294117387323055"><ele>167.0</ele><time>2026-03-28T15:21:34Z</time></trkpt><trkpt lat="44.99764878838094" lon="9.294296250777013"><ele>167.0</ele><time>2026-03-28T15:21:35Z</time></trkpt><trkpt lat="44.99750853027588" lon="9.29447524339978"><ele>167.33333333333331</ele><time>2026-03-28T15:21:36Z</time></trkpt><trkpt lat="44.99736324621948" lon="9.294649345004887"><ele>167.66666666666666</ele><time>2026-03-28T15:21:37Z</time></trkpt><trkpt lat="44.997215647281436" lon="9.294828116666684"><ele>168.0</ele><time>2026-03-28T15:21:38Z</time></trkpt><trkpt lat="44.99706823956201" lon="9.295000503730854"><ele>168.0</ele><time>2026-03-28T15:21:39Z</time></trkpt><trkpt lat="44.996924894809275" lon="9.295175607339319"><ele>168.0</ele><time>2026-03-28T15:21:40Z</time></trkpt><trkpt lat="44.99678371711141" lon="9.295353537440034"><ele>168.0</ele><time>2026-03-28T15:21:41Z</time></trkpt><trkpt lat="44.99665351848312" lon="9.295529351514888"><ele>168.33333333333334</ele><time>2026-03-28T15:21:42Z</time></trkpt><trkpt lat="44.996516839999074" lon="9.295696311881636"><ele>168.66666666666669</ele><time>2026-03-28T15:21:43Z</time></trkpt><trkpt lat="44.99637497704646" lon="9.295860364341266"><ele>169.0</ele><time>2026-03-28T15:21:44Z</time></trkpt><trkpt lat="44.99623490388418" lon="9.29603591901268"><ele>169.0</ele><time>2026-03-28T15:21:45Z</time></trkpt><trkpt lat="44.996093155868756" lon="9.296210386259693"><ele>169.0</ele><time>2026-03-28T15:21:46Z</time></trkpt><trkpt lat="44.99594421850643" lon="9.296387180610266"><ele>169.0</ele><time>2026-03-28T15:21:47Z</time></trkpt><trkpt lat="44.99579203113123" lon="9.29657048625928"><ele>170.0</ele><time>2026-03-28T15:21:48Z</time></trkpt><trkpt lat="44.995636276598866" lon="9.29675112381176"><ele>171.0</ele><time>2026-03-28T15:21:49Z</time></trkpt><trkpt lat="44.99548229192018" lon="9.296936038732829"><ele>172.0</ele><time>2026-03-28T15:21:50Z</time></trkpt><trkpt lat="44.99532812218948" lon="9.29712401812557"><ele>171.66666666666669</ele><time>2026-03-28T15:21:51Z</time></trkpt><trkpt lat="44.99517382112999" lon="9.297310444788886"><ele>171.33333333333334</ele><time>2026-03-28T15:21:52Z</time></trkpt><trkpt lat="44.995018756060475" lon="9.297498227473023"><ele>171.0</ele><time>2026-03-28T15:21:53Z</time></trkpt><trkpt lat="44.99486835694277" lon="9.297678773931171"><ele>171.66666666666666</ele><time>2026-03-28T15:21:54Z</time></trkpt><trkpt lat="44.99471504642613" lon="9.297861552871035"><ele>172.33333333333331</ele><time>2026-03-28T15:21:55Z</time></trkpt><trkpt lat="44.99455783229665" lon="9.298046354073257"><ele>173.0</ele><time>2026-03-28T15:21:56Z</time></trkpt><trkpt lat="44.99440420833279" lon="9.298230233972511"><ele>173.0</ele><time>2026-03-28T15:21:57Z</time></trkpt><trkpt lat="44.99424950417306" lon="9.298419584968773"><ele>173.0</ele><time>2026-03-28T15:21:58Z</time></trkpt><trkpt lat="44.99410023642591" lon="9.298606265944963"><ele>173.0</ele><time>2026-03-28T15:21:59Z</time></trkpt><trkpt lat="44.993948239134696" lon="9.298791869418004"><ele>174.33333333333331</ele><time>2026-03-28T15:22:00Z</time></trkpt><trkpt lat="44.993794841065835" lon="9.29897254697493"><ele>175.66666666666666</ele><time>2026-03-28T15:22:01Z</time></trkpt><trkpt lat="44.99363938853224" lon="9.299160388194077"><ele>177.0</ele><time>2026-03-28T15:22:02Z</time></trkpt><trkpt lat="44.99348748234385" lon="9.299349974162206"><ele>177.0</ele><time>2026-03-28T15:22:03Z</time></trkpt><trkpt lat="44.993340777120125" lon="9.299530406223568"><ele>177.0</ele><time>2026-03-28T15:22:04Z</time></trkpt><trkpt lat="44.993203418321954" lon="9.299690839470294"><ele>177.0</ele><time>2026-03-28T15:22:05Z</time></trkpt><trkpt lat="44.99306853530473" lon="9.299834159685203"><ele>177.33333333333334</ele><time>2026-03-28T15:22:06Z</time></trkpt><trkpt lat="44.99292760283078" lon="9.299967357642581"><ele>177.66666666666669</ele><time>2026-03-28T15:22:07Z</time></trkpt><trkpt lat="44.99276064090404" lon="9.30006457020342"><ele>178.0</ele><time>2026-03-28T15:22:08Z</time></trkpt><trkpt lat="44.992587926422004" lon="9.300156767627131"><ele>179.33333333333334</ele><time>2026-03-28T15:22:09Z</time></trkpt><trkpt lat="44.99240199283518" lon="9.300271860791849"><ele>180.66666666666666</ele><time>2026-03-28T15:22:10Z</time></trkpt><trkpt lat="44.992187545254986" lon="9.300360382343827"><ele>182.0</ele><time>2026-03-28T15:22:11Z</time></trkpt><trkpt lat="44.99196096036601" lon="9.300476601462583"><ele>182.0</ele><time>2026-03-28T15:22:12Z</time></trkpt><trkpt lat="44.99175343130888" lon="9.300575945913046"><ele>182.0</ele><time>2026-03-28T15:22:13Z</time></trkpt><trkpt lat="44.99157128861904" lon="9.300668999418612"><ele>182.0</ele><time>2026-03-28T15:22:14Z</time></trkpt><trkpt lat="44.99140572066438" lon="9.300744354648888"><ele>182.0</ele><time>2026-03-28T15:22:15Z</time></trkpt><trkpt lat="44.99124529824028" lon="9.300827920194449"><ele>182.0</ele><time>2026-03-28T15:22:16Z</time></trkpt><trkpt lat="44.99108242986359" lon="9.300907133556318"><ele>182.0</ele><time>2026-03-28T15:22:17Z</time></trkpt><trkpt lat="44.99091892089352" lon="9.300983238002534"><ele>183.0</ele><time>2026-03-28T15:22:18Z</time></trkpt><trkpt lat="44.99075641599807" lon="9.301062667722583"><ele>184.0</ele><time>2026-03-28T15:22:19Z</time></trkpt><trkpt lat="44.990596239184576" lon="9.301145687558755"><ele>185.0</ele><time>2026-03-28T15:22:20Z</time></trkpt><trkpt lat="44.99043110466963" lon="9.301237751243942"><ele>185.0</ele><time>2026-03-28T15:22:21Z</time></trkpt><trkpt lat="44.99026785910674" lon="9.30131958236505"><ele>185.0</ele><time>2026-03-28T15:22:22Z</time></trkpt><trkpt lat="44.99009685807268" lon="9.301407505756606"><ele>185.0</ele><time>2026-03-28T15:22:23Z</time></trkpt><trkpt lat="44.98992227741418" lon="9.301496045463562"><ele>184.66666666666666</ele><time>2026-03-28T15:22:24Z</time></trkpt><trkpt lat="44.98975035108425" lon="9.301577571506778"><ele>184.33333333333334</ele><time>2026-03-28T15:22:25Z</time></trkpt><trkpt lat="44.9895863934584" lon="9.301660509634361"><ele>184.0</ele><time>2026-03-28T15:22:26Z</time></trkpt><trkpt lat="44.98943328437361" lon="9.301729777666829"><ele>184.0</ele><time>2026-03-28T15:22:27Z</time></trkpt><trkpt lat="44.98929772466984" lon="9.301791977743628"><ele>184.0</ele><time>2026-03-28T15:22:28Z</time></trkpt><trkpt lat="44.989176919875625" lon="9.30184101188171"><ele>184.0</ele><time>2026-03-28T15:22:29Z</time></trkpt><trkpt lat="44.98904632058376" lon="9.301853084842044"><ele>184.0</ele><time>2026-03-28T15:22:30Z</time></trkpt><trkpt lat="44.98890930196113" lon="9.301858158976746"><ele>185.0</ele><time>2026-03-28T15:22:31Z</time></trkpt><trkpt lat="44.988756846811114" lon="9.301796672293413"><ele>186.0</ele><time>2026-03-28T15:22:32Z</time></trkpt><trkpt lat="44.98860959276578" lon="9.301705536609175"><ele>187.0</ele><time>2026-03-28T15:22:33Z</time></trkpt><trkpt lat="44.98846883306658" lon="9.301584276278591"><ele>188.66666666666669</ele><time>2026-03-28T15:22:34Z</time></trkpt><trkpt lat="44.98829452601822" lon="9.301460444901313"><ele>190.33333333333334</ele><time>2026-03-28T15:22:35Z</time></trkpt><trkpt lat="44.98811456880431" lon="9.301325634151187"><ele>192.0</ele><time>2026-03-28T15:22:36Z</time></trkpt><trkpt lat="44.987946863466284" lon="9.301207447951393"><ele>192.0</ele><time>2026-03-28T15:22:37Z</time></trkpt><trkpt lat="44.987801626481264" lon="9.301095906192513"><ele>192.0</ele><time>2026-03-28T15:22:38Z</time></trkpt><trkpt lat="44.98766702709946" lon="9.301001201446697"><ele>192.0</ele><time>2026-03-28T15:22:39Z</time></trkpt><trkpt lat="44.987543268714965" lon="9.30091293978878"><ele>192.75</ele><time>2026-03-28T15:22:40Z</time></trkpt><trkpt lat="44.987426377882834" lon="9.30080282135748"><ele>193.5</ele><time>2026-03-28T15:22:41Z</time></trkpt><trkpt lat="44.98731348940858" lon="9.300722469685626"><ele>194.25</ele><time>2026-03-28T15:22:42Z</time></trkpt><trkpt lat="44.987191920628604" lon="9.300641676418964"><ele>195.0</ele><time>2026-03-28T15:22:43Z</time></trkpt><trkpt lat="44.9870727390649" lon="9.300546030906672"><ele>195.5</ele><time>2026-03-28T15:22:44Z</time></trkpt><trkpt lat="44.98695030661883" lon="9.300477947963195"><ele>196.0</ele><time>2026-03-28T15:22:45Z</time></trkpt><trkpt lat="44.98682134251696" lon="9.300446255808748"><ele>196.5</ele><time>2026-03-28T15:22:46Z</time></trkpt><trkpt lat="44.98667813989892" lon="9.300455696124533"><ele>197.0</ele><time>2026-03-28T15:22:47Z</time></trkpt><trkpt lat="44.9865332706528" lon="9.300492442659113"><ele>197.0</ele><time>2026-03-28T15:22:48Z</time></trkpt><trkpt lat="44.9863811626071" lon="9.30052453821094"><ele>197.0</ele><time>2026-03-28T15:22:49Z</time></trkpt><trkpt lat="44.986239439872335" lon="9.300551895865636"><ele>197.0</ele><time>2026-03-28T15:22:50Z</time></trkpt><trkpt lat="44.98610201299872" lon="9.300590842483127"><ele>197.0</ele><time>2026-03-28T15:22:51Z</time></trkpt><trkpt lat="44.98597195796072" lon="9.300633088639962"><ele>196.5</ele><time>2026-03-28T15:22:52Z</time></trkpt><trkpt lat="44.98583802314785" lon="9.300675207136718"><ele>196.0</ele><time>2026-03-28T15:22:53Z</time></trkpt><trkpt lat="44.98569759931732" lon="9.30070864451242"><ele>195.5</ele><time>2026-03-28T15:22:54Z</time></trkpt><trkpt lat="44.985562888996235" lon="9.300741383704219"><ele>195.0</ele><time>2026-03-28T15:22:55Z</time></trkpt><trkpt lat="44.98544444408756" lon="9.300747157067224"><ele>195.0</ele><time>2026-03-28T15:22:56Z</time></trkpt><trkpt lat="44.98533952216053" lon="9.300760066328463"><ele>195.0</ele><time>2026-03-28T15:22:57Z</time></trkpt><trkpt lat="44.98523813627282" lon="9.300760738386836"><ele>195.0</ele><time>2026-03-28T15:22:58Z</time></trkpt><trkpt lat="44.98512731568436" lon="9.30073697546559"><ele>195.0</ele><time>2026-03-28T15:22:59Z</time></trkpt><trkpt lat="44.98501710872077" lon="9.300699051934282"><ele>195.0</ele><time>2026-03-28T15:23:00Z</time></trkpt><trkpt lat="44.98489021523421" lon="9.300643009264187"><ele>195.5</ele><time>2026-03-28T15:23:01Z</time></trkpt><trkpt lat="44.98477313356381" lon="9.30060485644139"><ele>196.0</ele><time>2026-03-28T15:23:02Z</time></trkpt><trkpt lat="44.98465355912188" lon="9.300542880098487"><ele>196.5</ele><time>2026-03-28T15:23:03Z</time></trkpt><trkpt lat="44.9845287064076" lon="9.300498209756274"><ele>197.0</ele><time>2026-03-28T15:23:04Z</time></trkpt><trkpt lat="44.98438773570187" lon="9.300491688095525"><ele>198.33333333333334</ele><time>2026-03-28T15:23:05Z</time></trkpt><trkpt lat="44.984232183245105" lon="9.300517131755107"><ele>199.66666666666669</ele><time>2026-03-28T15:23:06Z</time></trkpt><trkpt lat="44.98406390610993" lon="9.300540535771066"><ele>201.0</ele><time>2026-03-28T15:23:07Z</time></trkpt><trkpt lat="44.98389519702729" lon="9.300582559421027"><ele>200.66666666666669</ele><time>2026-03-28T15:23:08Z</time></trkpt><trkpt lat="44.98371938226699" lon="9.300655288616621"><ele>200.33333333333334</ele><time>2026-03-28T15:23:09Z</time></trkpt><trkpt lat="44.98355880734268" lon="9.300744575790645"><ele>200.0</ele><time>2026-03-28T15:23:10Z</time></trkpt><trkpt lat="44.983426682406815" lon="9.300816115215817"><ele>200.8</ele><time>2026-03-28T15:23:11Z</time></trkpt><trkpt lat="44.98331398823542" lon="9.300843748950376"><ele>201.6</ele><time>2026-03-28T15:23:12Z</time></trkpt><trkpt lat="44.98322227855091" lon="9.30080375001901"><ele>202.39999999999998</ele><time>2026-03-28T15:23:13Z</time></trkpt><trkpt lat="44.98313123953996" lon="9.30072912636594"><ele>203.2</ele><time>2026-03-28T15:23:14Z</time></trkpt><trkpt lat="44.98303628214038" lon="9.300595840900383"><ele>204.0</ele><time>2026-03-28T15:23:15Z</time></trkpt><trkpt lat="44.9829179012592" lon="9.300441905522423"><ele>204.0</ele><time>2026-03-28T15:23:16Z</time></trkpt><trkpt lat="44.98277685425196" lon="9.300278908416262"><ele>204.0</ele><time>2026-03-28T15:23:17Z</time></trkpt><trkpt lat="44.98262971572366" lon="9.300107641953968"><ele>204.0</ele><time>2026-03-28T15:23:18Z</time></trkpt><trkpt lat="44.982468742987045" lon="9.299923761611044"><ele>206.33333333333331</ele><time>2026-03-28T15:23:19Z</time></trkpt><trkpt lat="44.982296945842684" lon="9.29974729446688"><ele>208.66666666666666</ele><time>2026-03-28T15:23:20Z</time></trkpt><trkpt lat="44.982112740932564" lon="9.299565603088839"><ele>211.0</ele><time>2026-03-28T15:23:21Z</time></trkpt><trkpt lat="44.98190211789278" lon="9.299375651828553"><ele>211.0</ele><time>2026-03-28T15:23:22Z</time></trkpt><trkpt lat="44.98169604997996" lon="9.299185223923383"><ele>211.0</ele><time>2026-03-28T15:23:22.999Z</time></trkpt><trkpt lat="44.98151876419296" lon="9.29901639795155"><ele>212.0</ele><time>2026-03-28T15:23:23.999Z</time></trkpt><trkpt lat="44.98135702989606" lon="9.298866085592898"><ele>213.0</ele><time>2026-03-28T15:23:24.999Z</time></trkpt><trkpt lat="44.98121155127964" lon="9.298726768656763"><ele>214.0</ele><time>2026-03-28T15:23:25.999Z</time></trkpt><trkpt lat="44.98106551056346" lon="9.298599161114034"><ele>214.0</ele><time>2026-03-28T15:23:26.999Z</time></trkpt><trkpt lat="44.980913519045934" lon="9.298478455324172"><ele>214.0</ele><time>2026-03-28T15:23:27.999Z</time></trkpt><trkpt lat="44.98074206264888" lon="9.298375923261935"><ele>214.0</ele><time>2026-03-28T15:23:28.999Z</time></trkpt><trkpt lat="44.980551629793055" lon="9.298320485159623"><ele>213.66666666666666</ele><time>2026-03-28T15:23:29.999Z</time></trkpt><trkpt lat="44.98034094353001" lon="9.29832018007736"><ele>213.33333333333331</ele><time>2026-03-28T15:23:30.999Z</time></trkpt><trkpt lat="44.98012116519094" lon="9.298351497684562"><ele>213.0</ele><time>2026-03-28T15:23:31.999Z</time></trkpt><trkpt lat="44.97989570430881" lon="9.298389245517846"><ele>212.5</ele><time>2026-03-28T15:23:32.999Z</time></trkpt><trkpt lat="44.97966753981761" lon="9.29842449186907"><ele>212.0</ele><time>2026-03-28T15:23:33.999Z</time></trkpt><trkpt lat="44.97943533593732" lon="9.298445982829989"><ele>212.0</ele><time>2026-03-28T15:23:35Z</time></trkpt><trkpt lat="44.97920278210194" lon="9.298472959300982"><ele>212.0</ele><time>2026-03-28T15:23:36Z</time></trkpt><trkpt lat="44.9789639645853" lon="9.29850564795648"><ele>212.5</ele><time>2026-03-28T15:23:37Z</time></trkpt><trkpt lat="44.978715275328284" lon="9.298548685854868"><ele>213.0</ele><time>2026-03-28T15:23:38Z</time></trkpt><trkpt lat="44.97846549256775" lon="9.298602269511003"><ele>214.66666666666669</ele><time>2026-03-28T15:23:39Z</time></trkpt><trkpt lat="44.97823684239852" lon="9.298672526771417"><ele>216.33333333333334</ele><time>2026-03-28T15:23:40Z</time></trkpt><trkpt lat="44.9780362134159" lon="9.298742817810401"><ele>218.0</ele><time>2026-03-28T15:23:41Z</time></trkpt><trkpt lat="44.97784703508127" lon="9.29880435721487"><ele>218.0</ele><time>2026-03-28T15:23:42Z</time></trkpt><trkpt lat="44.977652927963085" lon="9.298849464613525"><ele>218.0</ele><time>2026-03-28T15:23:43Z</time></trkpt><trkpt lat="44.97744336968309" lon="9.298852273634152"><ele>218.0</ele><time>2026-03-28T15:23:44Z</time></trkpt><trkpt lat="44.97722652077394" lon="9.298880016270816"><ele>221.5</ele><time>2026-03-28T15:23:45Z</time></trkpt><trkpt lat="44.97699685974619" lon="9.298887290275156"><ele>225.0</ele><time>2026-03-28T15:23:46Z</time></trkpt><trkpt lat="44.976762111416484" lon="9.298901039848987"><ele>221.66666666666669</ele><time>2026-03-28T15:23:47Z</time></trkpt><trkpt lat="44.976541252841955" lon="9.298922189492972"><ele>218.33333333333334</ele><time>2026-03-28T15:23:48Z</time></trkpt><trkpt lat="44.97634310933695" lon="9.298931244877132"><ele>215.0</ele><time>2026-03-28T15:23:49Z</time></trkpt><trkpt lat="44.97616420604482" lon="9.298936781506532"><ele>215.0</ele><time>2026-03-28T15:23:50Z</time></trkpt><trkpt lat="44.97599713404227" lon="9.298935292810816"><ele>215.0</ele><time>2026-03-28T15:23:51Z</time></trkpt><trkpt lat="44.9758224597536" lon="9.298904806159248"><ele>215.0</ele><time>2026-03-28T15:23:52Z</time></trkpt><trkpt lat="44.97564597623189" lon="9.298820803299396"><ele>219.0</ele><time>2026-03-28T15:23:53Z</time></trkpt><trkpt lat="44.975459524382984" lon="9.298736181833558"><ele>223.0</ele><time>2026-03-28T15:23:54Z</time></trkpt><trkpt lat="44.97527539621525" lon="9.298658365865355"><ele>227.0</ele><time>2026-03-28T15:23:55Z</time></trkpt><trkpt lat="44.97507525476028" lon="9.298574283826472"><ele>227.5</ele><time>2026-03-28T15:23:56Z</time></trkpt><trkpt lat="44.97482891360799" lon="9.298507255321965"><ele>228.0</ele><time>2026-03-28T15:23:57Z</time></trkpt><trkpt lat="44.97459818014903" lon="9.298460497206015"><ele>228.0</ele><time>2026-03-28T15:23:58Z</time></trkpt><trkpt lat="44.97435330529417" lon="9.298438866665808"><ele>228.0</ele><time>2026-03-28T15:23:59Z</time></trkpt><trkpt lat="44.97409748370771" lon="9.298423288366125"><ele>226.66666666666669</ele><time>2026-03-28T15:24:00Z</time></trkpt><trkpt lat="44.97385916888164" lon="9.298397850899498"><ele>225.33333333333334</ele><time>2026-03-28T15:24:01Z</time></trkpt><trkpt lat="44.973649927256766" lon="9.298371620720099"><ele>224.0</ele><time>2026-03-28T15:24:02Z</time></trkpt><trkpt lat="44.973460512309515" lon="9.298343827943853"><ele>224.0</ele><time>2026-03-28T15:24:03Z</time></trkpt><trkpt lat="44.97328691949943" lon="9.298293160974454"><ele>224.0</ele><time>2026-03-28T15:24:04Z</time></trkpt><trkpt lat="44.973126801821536" lon="9.298207971982357"><ele>224.0</ele><time>2026-03-28T15:24:05Z</time></trkpt><trkpt lat="44.97295906688207" lon="9.298100508828641"><ele>225.66666666666669</ele><time>2026-03-28T15:24:06Z</time></trkpt><trkpt lat="44.972798811468756" lon="9.297952868501756"><ele>227.33333333333331</ele><time>2026-03-28T15:24:07Z</time></trkpt><trkpt lat="44.97263788218538" lon="9.297780492097107"><ele>229.0</ele><time>2026-03-28T15:24:08Z</time></trkpt><trkpt lat="44.97247994249948" lon="9.297601113951751"><ele>229.0</ele><time>2026-03-28T15:24:09Z</time></trkpt><trkpt lat="44.97234037219797" lon="9.297443952679934"><ele>229.0</ele><time>2026-03-28T15:24:10Z</time></trkpt><trkpt lat="44.972202862210665" lon="9.29729149542118"><ele>229.0</ele><time>2026-03-28T15:24:11Z</time></trkpt><trkpt lat="44.97205673848029" lon="9.297124132557363"><ele>230.33333333333331</ele><time>2026-03-28T15:24:12Z</time></trkpt><trkpt lat="44.971907756811504" lon="9.296952075461745"><ele>231.66666666666669</ele><time>2026-03-28T15:24:13Z</time></trkpt><trkpt lat="44.971748542327504" lon="9.296758178383861"><ele>233.0</ele><time>2026-03-28T15:24:14Z</time></trkpt><trkpt lat="44.97159207754228" lon="9.29655319909057"><ele>237.5</ele><time>2026-03-28T15:24:15Z</time></trkpt><trkpt lat="44.97143151402462" lon="9.296329215393149"><ele>242.0</ele><time>2026-03-28T15:24:16Z</time></trkpt><trkpt lat="44.97125975328157" lon="9.29610317575266"><ele>242.0</ele><time>2026-03-28T15:24:17Z</time></trkpt><trkpt lat="44.97107921123975" lon="9.295879040358841"><ele>242.0</ele><time>2026-03-28T15:24:18Z</time></trkpt><trkpt lat="44.970913998787424" lon="9.2956340096471"><ele>242.33333333333334</ele><time>2026-03-28T15:24:19Z</time></trkpt><trkpt lat="44.97076224942392" lon="9.295424514102749"><ele>242.66666666666669</ele><time>2026-03-28T15:24:20Z</time></trkpt><trkpt lat="44.97064169176444" lon="9.295258376687713"><ele>243.0</ele><time>2026-03-28T15:24:21Z</time></trkpt><trkpt lat="44.970517755378985" lon="9.29509107991445"><ele>243.0</ele><time>2026-03-28T15:24:22Z</time></trkpt><trkpt lat="44.97038559970014" lon="9.294908517970557"><ele>243.0</ele><time>2026-03-28T15:24:23Z</time></trkpt><trkpt lat="44.970243749673315" lon="9.294721323620145"><ele>243.0</ele><time>2026-03-28T15:24:24Z</time></trkpt><trkpt lat="44.97009509108029" lon="9.294527047262907"><ele>244.0</ele><time>2026-03-28T15:24:25Z</time></trkpt><trkpt lat="44.96993728642187" lon="9.29432762373911"><ele>245.0</ele><time>2026-03-28T15:24:26Z</time></trkpt><trkpt lat="44.9697807945891" lon="9.294130670131691"><ele>246.0</ele><time>2026-03-28T15:24:27Z</time></trkpt><trkpt lat="44.96963659789294" lon="9.293945574139224"><ele>249.0</ele><time>2026-03-28T15:24:28Z</time></trkpt><trkpt lat="44.96951397503483" lon="9.29378506645344"><ele>252.0</ele><time>2026-03-28T15:24:29Z</time></trkpt><trkpt lat="44.96940710536078" lon="9.293646226718497"><ele>255.0</ele><time>2026-03-28T15:24:30Z</time></trkpt><trkpt lat="44.96931903441446" lon="9.29353130050387"><ele>258.0</ele><time>2026-03-28T15:24:31Z</time></trkpt><trkpt lat="44.969252140924524" lon="9.293426890531144"><ele>258.0</ele><time>2026-03-28T15:24:32Z</time></trkpt><trkpt lat="44.96921877952835" lon="9.29331283121286"><ele>258.0</ele><time>2026-03-28T15:24:33Z</time></trkpt><trkpt lat="44.96924142138086" lon="9.293189471704533"><ele>258.0</ele><time>2026-03-28T15:24:34Z</time></trkpt><trkpt lat="44.96930441022028" lon="9.293074420307915"><ele>258.0</ele><time>2026-03-28T15:24:35Z</time></trkpt><trkpt lat="44.96939660967085" lon="9.293003071945881"><ele>258.0</ele><time>2026-03-28T15:24:36Z</time></trkpt><trkpt lat="44.96950379089833" lon="9.293009283457694"><ele>258.0</ele><time>2026-03-28T15:24:37Z</time></trkpt><trkpt lat="44.96959743312348" lon="9.293093935822032"><ele>258.0</ele><time>2026-03-28T15:24:38Z</time></trkpt><trkpt lat="44.96967087794048" lon="9.29324995579295"><ele>258.0</ele><time>2026-03-28T15:24:39Z</time></trkpt><trkpt lat="44.96972927979578" lon="9.29346350596873"><ele>258.0</ele><time>2026-03-28T15:24:40Z</time></trkpt><trkpt lat="44.96979289163082" lon="9.293666596450274"><ele>258.0</ele><time>2026-03-28T15:24:41Z</time></trkpt><trkpt lat="44.969893333105524" lon="9.293784793478146"><ele>258.0</ele><time>2026-03-28T15:24:42Z</time></trkpt><trkpt lat="44.96999966985" lon="9.293854717983317"><ele>258.0</ele><time>2026-03-28T15:24:43Z</time></trkpt><trkpt lat="44.970132050959315" lon="9.293880599570286"><ele>258.0</ele><time>2026-03-28T15:24:44Z</time></trkpt><trkpt lat="44.97029787332338" lon="9.293864433162746"><ele>256.6666666666667</ele><time>2026-03-28T15:24:45Z</time></trkpt><trkpt lat="44.97047961627754" lon="9.293850783216792"><ele>255.33333333333334</ele><time>2026-03-28T15:24:46Z</time></trkpt><trkpt lat="44.97068005321955" lon="9.293875659925341"><ele>254.0</ele><time>2026-03-28T15:24:47Z</time></trkpt><trkpt lat="44.97084234495069" lon="9.293933250818029"><ele>255.75</ele><time>2026-03-28T15:24:48Z</time></trkpt><trkpt lat="44.97098387549511" lon="9.293987075154705"><ele>257.5</ele><time>2026-03-28T15:24:49Z</time></trkpt><trkpt lat="44.971109419366606" lon="9.294032316912437"><ele>259.25</ele><time>2026-03-28T15:24:50Z</time></trkpt><trkpt lat="44.97122852481115" lon="9.294068438634909"><ele>261.0</ele><time>2026-03-28T15:24:51Z</time></trkpt><trkpt lat="44.97135456100465" lon="9.294099402614318"><ele>261.0</ele><time>2026-03-28T15:24:52Z</time></trkpt><trkpt lat="44.97149377897014" lon="9.294113985599362"><ele>261.0</ele><time>2026-03-28T15:24:53Z</time></trkpt><trkpt lat="44.97166381096743" lon="9.294111371217655"><ele>261.0</ele><time>2026-03-28T15:24:54Z</time></trkpt><trkpt lat="44.97184555148654" lon="9.294099998181727"><ele>262.6666666666667</ele><time>2026-03-28T15:24:55Z</time></trkpt><trkpt lat="44.97202162742472" lon="9.294090230767722"><ele>264.33333333333337</ele><time>2026-03-28T15:24:56Z</time></trkpt><trkpt lat="44.97218282021368" lon="9.294099501282258"><ele>266.0</ele><time>2026-03-28T15:24:57Z</time></trkpt><trkpt lat="44.9723546689043" lon="9.294169141929395"><ele>269.6666666666667</ele><time>2026-03-28T15:24:58Z</time></trkpt><trkpt lat="44.97252837305951" lon="9.294300280098566"><ele>273.3333333333333</ele><time>2026-03-28T15:24:59Z</time></trkpt><trkpt lat="44.972697018378035" lon="9.294458119722645"><ele>277.0</ele><time>2026-03-28T15:25:00Z</time></trkpt><trkpt lat="44.97283204601656" lon="9.294609719676588"><ele>277.0</ele><time>2026-03-28T15:25:01Z</time></trkpt><trkpt lat="44.97294882280274" lon="9.294733656002375"><ele>277.0</ele><time>2026-03-28T15:25:02Z</time></trkpt><trkpt lat="44.973061377335206" lon="9.294807133078656"><ele>277.0</ele><time>2026-03-28T15:25:03Z</time></trkpt><trkpt lat="44.97318481722837" lon="9.29482193392732"><ele>277.0</ele><time>2026-03-28T15:25:04Z</time></trkpt><trkpt lat="44.973319531667656" lon="9.294795814003072"><ele>278.0</ele><time>2026-03-28T15:25:05Z</time></trkpt><trkpt lat="44.97345441310462" lon="9.29472130240733"><ele>279.0</ele><time>2026-03-28T15:25:06Z</time></trkpt><trkpt lat="44.97359562171224" lon="9.294627765567226"><ele>280.0</ele><time>2026-03-28T15:25:07Z</time></trkpt><trkpt lat="44.9737393344479" lon="9.294549432230308"><ele>280.0</ele><time>2026-03-28T15:25:08Z</time></trkpt><trkpt lat="44.97391531487061" lon="9.29452116216179"><ele>280.0</ele><time>2026-03-28T15:25:09Z</time></trkpt><trkpt lat="44.97409603382249" lon="9.294556932972801"><ele>280.0</ele><time>2026-03-28T15:25:10Z</time></trkpt><trkpt lat="44.97432130282927" lon="9.294626430327261"><ele>279.0</ele><time>2026-03-28T15:25:11Z</time></trkpt><trkpt lat="44.97456381167609" lon="9.294699304946567"><ele>278.0</ele><time>2026-03-28T15:25:12Z</time></trkpt><trkpt lat="44.97477537363638" lon="9.294773726914316"><ele>278.0</ele><time>2026-03-28T15:25:13Z</time></trkpt><trkpt lat="44.97494866538048" lon="9.294834598695626"><ele>278.0</ele><time>2026-03-28T15:25:14Z</time></trkpt><trkpt lat="44.9750881620513" lon="9.29488696138845"><ele>278.0</ele><time>2026-03-28T15:25:15Z</time></trkpt><trkpt lat="44.97520819243052" lon="9.29492600123703"><ele>278.0</ele><time>2026-03-28T15:25:16Z</time></trkpt><trkpt lat="44.975304487510165" lon="9.294952028829083"><ele>278.8</ele><time>2026-03-28T15:25:17Z</time></trkpt><trkpt lat="44.97538507587239" lon="9.294953042778642"><ele>279.6</ele><time>2026-03-28T15:25:18Z</time></trkpt><trkpt lat="44.97545969790782" lon="9.294914505248853"><ele>280.4</ele><time>2026-03-28T15:25:19Z</time></trkpt><trkpt lat="44.97551018810404" lon="9.294825511063973"><ele>281.2</ele><time>2026-03-28T15:25:20Z</time></trkpt><trkpt lat="44.975507961004226" lon="9.294724135946892"><ele>282.0</ele><time>2026-03-28T15:25:21Z</time></trkpt><trkpt lat="44.97539214621089" lon="9.294555304490268"><ele>282.0</ele><time>2026-03-28T15:25:23Z</time></trkpt><trkpt lat="44.97528450883064" lon="9.294459384311715"><ele>282.0</ele><time>2026-03-28T15:25:24Z</time></trkpt><trkpt lat="44.97517654223967" lon="9.294368746966706"><ele>282.0</ele><time>2026-03-28T15:25:25Z</time></trkpt><trkpt lat="44.9750504892206" lon="9.294257251886105"><ele>282.0</ele><time>2026-03-28T15:25:26Z</time></trkpt><trkpt lat="44.97494266330967" lon="9.294098044775922"><ele>283.5</ele><time>2026-03-28T15:25:27Z</time></trkpt><trkpt lat="44.974851750216786" lon="9.29393558887902"><ele>285.0</ele><time>2026-03-28T15:25:28Z</time></trkpt><trkpt lat="44.97479721505432" lon="9.293787656563946"><ele>286.5</ele><time>2026-03-28T15:25:29Z</time></trkpt><trkpt lat="44.974779577176605" lon="9.29361299629617"><ele>288.0</ele><time>2026-03-28T15:25:30Z</time></trkpt><trkpt lat="44.97476650363986" lon="9.293431319514356"><ele>289.5</ele><time>2026-03-28T15:25:31Z</time></trkpt><trkpt lat="44.974735038408205" lon="9.293236850257816"><ele>291.0</ele><time>2026-03-28T15:25:32Z</time></trkpt><trkpt lat="44.97474015093185" lon="9.2930596747642"><ele>292.5</ele><time>2026-03-28T15:25:33Z</time></trkpt><trkpt lat="44.97472747355119" lon="9.29290941458367"><ele>294.0</ele><time>2026-03-28T15:25:34Z</time></trkpt><trkpt lat="44.9747633309231" lon="9.292755344483671"><ele>294.0</ele><time>2026-03-28T15:25:35Z</time></trkpt><trkpt lat="44.974826422713214" lon="9.292623994542744"><ele>294.0</ele><time>2026-03-28T15:25:36Z</time></trkpt><trkpt lat="44.97492746173256" lon="9.292505725685123"><ele>294.0</ele><time>2026-03-28T15:25:37Z</time></trkpt><trkpt lat="44.975063435028034" lon="9.292433274025166"><ele>294.0</ele><time>2026-03-28T15:25:38Z</time></trkpt><trkpt lat="44.97521185262179" lon="9.292372003496208"><ele>294.0</ele><time>2026-03-28T15:25:39Z</time></trkpt><trkpt lat="44.97532942933991" lon="9.292264107857159"><ele>294.0</ele><time>2026-03-28T15:25:40Z</time></trkpt><trkpt lat="44.975491870398386" lon="9.292152271877152"><ele>294.0</ele><time>2026-03-28T15:25:41Z</time></trkpt><trkpt lat="44.97563450954267" lon="9.292019409505768"><ele>295.4</ele><time>2026-03-28T15:25:42Z</time></trkpt><trkpt lat="44.97574509011809" lon="9.291915700966893"><ele>296.79999999999995</ele><time>2026-03-28T15:25:43Z</time></trkpt><trkpt lat="44.97583453518295" lon="9.291828224319344"><ele>298.20000000000005</ele><time>2026-03-28T15:25:44Z</time></trkpt><trkpt lat="44.97589234355211" lon="9.291739922191184"><ele>299.6</ele><time>2026-03-28T15:25:45Z</time></trkpt><trkpt lat="44.97591275159586" lon="9.29164454726017"><ele>301.0</ele><time>2026-03-28T15:25:46Z</time></trkpt><trkpt lat="44.97587909070269" lon="9.291554956911714"><ele>301.6</ele><time>2026-03-28T15:25:47Z</time></trkpt><trkpt lat="44.97581714975332" lon="9.291482221502115"><ele>302.20000000000005</ele><time>2026-03-28T15:25:48Z</time></trkpt><trkpt lat="44.97572939974442" lon="9.291466670117854"><ele>302.79999999999995</ele><time>2026-03-28T15:25:49Z</time></trkpt><trkpt lat="44.975639864656564" lon="9.291502575223548"><ele>303.4</ele><time>2026-03-28T15:25:50Z</time></trkpt><trkpt lat="44.9755733984241" lon="9.29160560076942"><ele>304.0</ele><time>2026-03-28T15:25:51Z</time></trkpt><trkpt lat="44.97552043326005" lon="9.291728968037907"><ele>304.0</ele><time>2026-03-28T15:25:52Z</time></trkpt><trkpt lat="44.97543586331578" lon="9.291816280790583"><ele>304.0</ele><time>2026-03-28T15:25:53Z</time></trkpt><trkpt lat="44.97531819591068" lon="9.291842565778625"><ele>304.0</ele><time>2026-03-28T15:25:54Z</time></trkpt><trkpt lat="44.97519080904936" lon="9.291832995915176"><ele>304.0</ele><time>2026-03-28T15:25:55Z</time></trkpt><trkpt lat="44.97506249747798" lon="9.291793010857205"><ele>306.3333333333333</ele><time>2026-03-28T15:25:56Z</time></trkpt><trkpt lat="44.974947659753134" lon="9.29168570605834"><ele>308.6666666666667</ele><time>2026-03-28T15:25:57Z</time></trkpt><trkpt lat="44.9748275067189" lon="9.291527929417793"><ele>311.0</ele><time>2026-03-28T15:25:58Z</time></trkpt><trkpt lat="44.97468632198608" lon="9.291341470522058"><ele>312.33333333333337</ele><time>2026-03-28T15:25:59Z</time></trkpt><trkpt lat="44.9745323293084" lon="9.291132100001944"><ele>313.6666666666667</ele><time>2026-03-28T15:26:00Z</time></trkpt><trkpt lat="44.97437047368944" lon="9.290909808484102"><ele>315.0</ele><time>2026-03-28T15:26:01Z</time></trkpt><trkpt lat="44.97416992458559" lon="9.2906621063201"><ele>319.5</ele><time>2026-03-28T15:26:02Z</time></trkpt><trkpt lat="44.974005394834336" lon="9.290436363045547"><ele>324.0</ele><time>2026-03-28T15:26:03Z</time></trkpt><trkpt lat="44.97381830679859" lon="9.290223770948089"><ele>324.0</ele><time>2026-03-28T15:26:04Z</time></trkpt><trkpt lat="44.97360029728854" lon="9.290028214379555"><ele>324.0</ele><time>2026-03-28T15:26:05Z</time></trkpt><trkpt lat="44.97334901255243" lon="9.289828874584375"><ele>330.0</ele><time>2026-03-28T15:26:06Z</time></trkpt><trkpt lat="44.97310260828914" lon="9.289669439394848"><ele>336.0</ele><time>2026-03-28T15:26:07Z</time></trkpt><trkpt lat="44.97288911286849" lon="9.289550225895571"><ele>336.0</ele><time>2026-03-28T15:26:08Z</time></trkpt><trkpt lat="44.97271599417842" lon="9.28944476583215"><ele>336.0</ele><time>2026-03-28T15:26:09Z</time></trkpt><trkpt lat="44.97257730545011" lon="9.289315098880882"><ele>336.0</ele><time>2026-03-28T15:26:10Z</time></trkpt><trkpt lat="44.97245740532671" lon="9.289194792610953"><ele>335.75</ele><time>2026-03-28T15:26:11Z</time></trkpt><trkpt lat="44.972359690874555" lon="9.289062022649219"><ele>335.5</ele><time>2026-03-28T15:26:12Z</time></trkpt><trkpt lat="44.97229936231273" lon="9.288895188600968"><ele>335.25</ele><time>2026-03-28T15:26:13Z</time></trkpt><trkpt lat="44.97225054325106" lon="9.288674932183202"><ele>335.0</ele><time>2026-03-28T15:26:14Z</time></trkpt><trkpt lat="44.972181684205836" lon="9.28843492234807"><ele>338.6666666666667</ele><time>2026-03-28T15:26:15Z</time></trkpt><trkpt lat="44.972096023353096" lon="9.288190168779835"><ele>342.3333333333333</ele><time>2026-03-28T15:26:16Z</time></trkpt><trkpt lat="44.97200332362204" lon="9.287986196036428"><ele>346.0</ele><time>2026-03-28T15:26:17Z</time></trkpt><trkpt lat="44.97193145947993" lon="9.287822360182206"><ele>347.75</ele><time>2026-03-28T15:26:18Z</time></trkpt><trkpt lat="44.97189386433427" lon="9.287666358462172"><ele>349.5</ele><time>2026-03-28T15:26:19Z</time></trkpt><trkpt lat="44.97189655932672" lon="9.287494295411468"><ele>351.25</ele><time>2026-03-28T15:26:20Z</time></trkpt><trkpt lat="44.97196146022238" lon="9.287307915409198"><ele>353.0</ele><time>2026-03-28T15:26:21Z</time></trkpt><trkpt lat="44.97197802212557" lon="9.287097983660022"><ele>355.33333333333337</ele><time>2026-03-28T15:26:22Z</time></trkpt><trkpt lat="44.97195957867408" lon="9.286880775141396"><ele>357.6666666666667</ele><time>2026-03-28T15:26:23Z</time></trkpt><trkpt lat="44.97187920137205" lon="9.286663640445829"><ele>360.0</ele><time>2026-03-28T15:26:24Z</time></trkpt><trkpt lat="44.971754045186444" lon="9.286430004778973"><ele>358.3333333333333</ele><time>2026-03-28T15:26:25Z</time></trkpt><trkpt lat="44.97164717953831" lon="9.286174744152614"><ele>356.66666666666663</ele><time>2026-03-28T15:26:26Z</time></trkpt><trkpt lat="44.97156874042394" lon="9.28596261985338"><ele>355.0</ele><time>2026-03-28T15:26:27Z</time></trkpt><trkpt lat="44.97150570364192" lon="9.285774554933461"><ele>355.5</ele><time>2026-03-28T15:26:28Z</time></trkpt><trkpt lat="44.97144954413477" lon="9.285590554244646"><ele>356.0</ele><time>2026-03-28T15:26:29Z</time></trkpt><trkpt lat="44.97138459364474" lon="9.285400330457396"><ele>356.5</ele><time>2026-03-28T15:26:30Z</time></trkpt><trkpt lat="44.97134395158285" lon="9.285203492951267"><ele>357.0</ele><time>2026-03-28T15:26:31Z</time></trkpt><trkpt lat="44.97131035784175" lon="9.285032029169603"><ele>357.0</ele><time>2026-03-28T15:26:32Z</time></trkpt><trkpt lat="44.97127218431651" lon="9.284903168218657"><ele>357.0</ele><time>2026-03-28T15:26:33Z</time></trkpt><trkpt lat="44.97125448095554" lon="9.28479088493527"><ele>357.0</ele><time>2026-03-28T15:26:34Z</time></trkpt><trkpt lat="44.97121441555181" lon="9.284703062970076"><ele>357.0</ele><time>2026-03-28T15:26:35Z</time></trkpt><trkpt lat="44.97114540526481" lon="9.284626914848186"><ele>357.0</ele><time>2026-03-28T15:26:36Z</time></trkpt><trkpt lat="44.971047204863844" lon="9.28456291553443"><ele>356.75</ele><time>2026-03-28T15:26:37Z</time></trkpt><trkpt lat="44.97093177543463" lon="9.284503566500799"><ele>356.5</ele><time>2026-03-28T15:26:38Z</time></trkpt><trkpt lat="44.9708294804254" lon="9.284417062928856"><ele>356.25</ele><time>2026-03-28T15:26:39Z</time></trkpt><trkpt lat="44.97076901181962" lon="9.284252678990756"><ele>356.0</ele><time>2026-03-28T15:26:40Z</time></trkpt><trkpt lat="44.97068446764279" lon="9.284081259153265"><ele>355.0</ele><time>2026-03-28T15:26:41Z</time></trkpt><trkpt lat="44.97061608195655" lon="9.283870941840553"><ele>354.0</ele><time>2026-03-28T15:26:42Z</time></trkpt><trkpt lat="44.97053001861165" lon="9.283645484131869"><ele>353.0</ele><time>2026-03-28T15:26:43Z</time></trkpt><trkpt lat="44.97043556217351" lon="9.2834150181488"><ele>353.0</ele><time>2026-03-28T15:26:44Z</time></trkpt><trkpt lat="44.97034573031472" lon="9.283170579763219"><ele>353.0</ele><time>2026-03-28T15:26:45Z</time></trkpt><trkpt lat="44.970257065684315" lon="9.282930949445127"><ele>353.0</ele><time>2026-03-28T15:26:46Z</time></trkpt><trkpt lat="44.97019420320303" lon="9.28271477250611"><ele>351.6666666666667</ele><time>2026-03-28T15:26:47Z</time></trkpt><trkpt lat="44.97013006830164" lon="9.282507352815918"><ele>350.3333333333333</ele><time>2026-03-28T15:26:48Z</time></trkpt><trkpt lat="44.97007975985445" lon="9.282290686545542"><ele>349.0</ele><time>2026-03-28T15:26:49Z</time></trkpt><trkpt lat="44.97002488665841" lon="9.282075272799606"><ele>352.0</ele><time>2026-03-28T15:26:50Z</time></trkpt><trkpt lat="44.97000128325368" lon="9.281872562866758"><ele>355.0</ele><time>2026-03-28T15:26:51Z</time></trkpt><trkpt lat="44.969950200397015" lon="9.281723960367426"><ele>358.0</ele><time>2026-03-28T15:26:52Z</time></trkpt><trkpt lat="44.969908693881294" lon="9.281594574076712"><ele>361.0</ele><time>2026-03-28T15:26:53Z</time></trkpt><trkpt lat="44.96986123727371" lon="9.281501266404454"><ele>364.0</ele><time>2026-03-28T15:26:54Z</time></trkpt><trkpt lat="44.9697442213457" lon="9.281410843217259"><ele>364.0</ele><time>2026-03-28T15:26:56Z</time></trkpt><trkpt lat="44.96966418758139" lon="9.281400611449444"><ele>364.0</ele><time>2026-03-28T15:26:57Z</time></trkpt><trkpt lat="44.96957481869927" lon="9.281417982129067"><ele>364.0</ele><time>2026-03-28T15:26:58Z</time></trkpt><trkpt lat="44.969464933066604" lon="9.281469831436725"><ele>364.0</ele><time>2026-03-28T15:26:59Z</time></trkpt><trkpt lat="44.96932561621977" lon="9.281536242924263"><ele>364.0</ele><time>2026-03-28T15:27:00Z</time></trkpt><trkpt lat="44.96918090720452" lon="9.28159590827407"><ele>364.75</ele><time>2026-03-28T15:27:01Z</time></trkpt><trkpt lat="44.96905324636163" lon="9.281575018736016"><ele>365.5</ele><time>2026-03-28T15:27:02Z</time></trkpt><trkpt lat="44.96893301524473" lon="9.281502915031933"><ele>366.25</ele><time>2026-03-28T15:27:03Z</time></trkpt><trkpt lat="44.96881015173874" lon="9.281393875095947"><ele>367.0</ele><time>2026-03-28T15:27:04Z</time></trkpt><trkpt lat="44.96870518055049" lon="9.281245842986596"><ele>367.0</ele><time>2026-03-28T15:27:05Z</time></trkpt><trkpt lat="44.968626768445986" lon="9.281057698917838"><ele>367.0</ele><time>2026-03-28T15:27:06Z</time></trkpt><trkpt lat="44.96855760492436" lon="9.280867643649383"><ele>367.0</ele><time>2026-03-28T15:27:07Z</time></trkpt><trkpt lat="44.96847353970328" lon="9.280710464628458"><ele>367.0</ele><time>2026-03-28T15:27:08Z</time></trkpt><trkpt lat="44.96839712550397" lon="9.280567511864312"><ele>366.6</ele><time>2026-03-28T15:27:09Z</time></trkpt><trkpt lat="44.968321532690844" lon="9.280457172956213"><ele>366.20000000000005</ele><time>2026-03-28T15:27:10Z</time></trkpt><trkpt lat="44.968232171503274" lon="9.280388788508766"><ele>365.8</ele><time>2026-03-28T15:27:11Z</time></trkpt><trkpt lat="44.968148885401746" lon="9.280383106396513"><ele>365.4</ele><time>2026-03-28T15:27:12Z</time></trkpt><trkpt lat="44.96804142811583" lon="9.280432488678596"><ele>365.0</ele><time>2026-03-28T15:27:13Z</time></trkpt><trkpt lat="44.9679042166241" lon="9.28054201136098"><ele>369.25</ele><time>2026-03-28T15:27:14Z</time></trkpt><trkpt lat="44.9677811322647" lon="9.280654817376167"><ele>373.5</ele><time>2026-03-28T15:27:15Z</time></trkpt><trkpt lat="44.96766750581275" lon="9.280728940041064"><ele>377.75</ele><time>2026-03-28T15:27:16Z</time></trkpt><trkpt lat="44.96757208892809" lon="9.280762433371272"><ele>382.0</ele><time>2026-03-28T15:27:17Z</time></trkpt><trkpt lat="44.96746930064167" lon="9.280758857531687"><ele>382.20000000000005</ele><time>2026-03-28T15:27:18Z</time></trkpt><trkpt lat="44.96735172548822" lon="9.280739931433608"><ele>382.4</ele><time>2026-03-28T15:27:19Z</time></trkpt><trkpt lat="44.96724165341446" lon="9.280750941035372"><ele>382.6</ele><time>2026-03-28T15:27:20Z</time></trkpt><trkpt lat="44.96715590707687" lon="9.280749753885111"><ele>382.79999999999995</ele><time>2026-03-28T15:27:21Z</time></trkpt><trkpt lat="44.96708165995961" lon="9.280778447374617"><ele>383.0</ele><time>2026-03-28T15:27:22Z</time></trkpt><trkpt lat="44.966998520481525" lon="9.28084932943782"><ele>383.0</ele><time>2026-03-28T15:27:23Z</time></trkpt><trkpt lat="44.966907247879725" lon="9.280958786705805"><ele>383.0</ele><time>2026-03-28T15:27:24Z</time></trkpt><trkpt lat="44.96681471587262" lon="9.281090980807658"><ele>383.0</ele><time>2026-03-28T15:27:25Z</time></trkpt><trkpt lat="44.96674218070461" lon="9.281215037078356"><ele>383.0</ele><time>2026-03-28T15:27:26Z</time></trkpt><trkpt lat="44.96664798308915" lon="9.281254880876055"><ele>380.5</ele><time>2026-03-28T15:27:27Z</time></trkpt><trkpt lat="44.96653095195347" lon="9.28128894196964"><ele>378.0</ele><time>2026-03-28T15:27:28Z</time></trkpt><trkpt lat="44.96640806138106" lon="9.281305613589412"><ele>375.5</ele><time>2026-03-28T15:27:29Z</time></trkpt><trkpt lat="44.966283274780224" lon="9.281317686751187"><ele>373.0</ele><time>2026-03-28T15:27:30Z</time></trkpt><trkpt lat="44.96616878965577" lon="9.281352181778697"><ele>373.0</ele><time>2026-03-28T15:27:31Z</time></trkpt><trkpt lat="44.96605451708491" lon="9.281397273445167"><ele>373.0</ele><time>2026-03-28T15:27:32Z</time></trkpt><trkpt lat="44.965931616422715" lon="9.281470772778711"><ele>373.0</ele><time>2026-03-28T15:27:33Z</time></trkpt><trkpt lat="44.96581211271333" lon="9.281569465265731"><ele>373.0</ele><time>2026-03-28T15:27:34Z</time></trkpt><trkpt lat="44.96568688668237" lon="9.281659247300752"><ele>374.5</ele><time>2026-03-28T15:27:35Z</time></trkpt><trkpt lat="44.96555143781517" lon="9.281684141160849"><ele>376.0</ele><time>2026-03-28T15:27:36Z</time></trkpt><trkpt lat="44.96542844012936" lon="9.281708888726412"><ele>377.5</ele><time>2026-03-28T15:27:37Z</time></trkpt><trkpt lat="44.965299460415245" lon="9.281748701705185"><ele>379.0</ele><time>2026-03-28T15:27:38Z</time></trkpt><trkpt lat="44.965153209967255" lon="9.281742873599002"><ele>376.0</ele><time>2026-03-28T15:27:39Z</time></trkpt><trkpt lat="44.965026274648885" lon="9.28175292177559"><ele>373.0</ele><time>2026-03-28T15:27:40Z</time></trkpt><trkpt lat="44.96491213384891" lon="9.281751583823004"><ele>370.0</ele><time>2026-03-28T15:27:41Z</time></trkpt><trkpt lat="44.964807434358015" lon="9.281757046582815"><ele>367.0</ele><time>2026-03-28T15:27:42Z</time></trkpt><trkpt lat="44.964705861686575" lon="9.281710189351898"><ele>367.0</ele><time>2026-03-28T15:27:43Z</time></trkpt><trkpt lat="44.96459230914278" lon="9.281647023966123"><ele>367.0</ele><time>2026-03-28T15:27:44Z</time></trkpt><trkpt lat="44.964499521742916" lon="9.281545879142026"><ele>367.0</ele><time>2026-03-28T15:27:45Z</time></trkpt><trkpt lat="44.96441089868327" lon="9.281476884849535"><ele>367.0</ele><time>2026-03-28T15:27:46Z</time></trkpt><trkpt lat="44.96435181057592" lon="9.28135729522571"><ele>367.0</ele><time>2026-03-28T15:27:47Z</time></trkpt><trkpt lat="44.96429210451179" lon="9.28120248286546"><ele>367.66666666666663</ele><time>2026-03-28T15:27:48Z</time></trkpt><trkpt lat="44.964238288349954" lon="9.280997909020185"><ele>368.3333333333333</ele><time>2026-03-28T15:27:49Z</time></trkpt><trkpt lat="44.96416869179133" lon="9.28077322743091"><ele>369.0</ele><time>2026-03-28T15:27:50Z</time></trkpt><trkpt lat="44.96410336038157" lon="9.28060135078514"><ele>366.2</ele><time>2026-03-28T15:27:51Z</time></trkpt><trkpt lat="44.96403199182036" lon="9.280517550148616"><ele>363.4</ele><time>2026-03-28T15:27:52Z</time></trkpt><trkpt lat="44.9639454855819" lon="9.280448659601017"><ele>360.6</ele><time>2026-03-28T15:27:53Z</time></trkpt><trkpt lat="44.96383543777898" lon="9.280390272188795"><ele>357.8</ele><time>2026-03-28T15:27:54Z</time></trkpt><trkpt lat="44.963706601022125" lon="9.280356577181076"><ele>355.0</ele><time>2026-03-28T15:27:55Z</time></trkpt><trkpt lat="44.963565934657645" lon="9.280358954464342"><ele>355.0</ele><time>2026-03-28T15:27:56Z</time></trkpt><trkpt lat="44.96341443411408" lon="9.28036504588342"><ele>355.0</ele><time>2026-03-28T15:27:57Z</time></trkpt><trkpt lat="44.96328156881358" lon="9.280341012730858"><ele>355.0</ele><time>2026-03-28T15:27:58Z</time></trkpt><trkpt lat="44.96318088124894" lon="9.280298821799658"><ele>355.0</ele><time>2026-03-28T15:27:59Z</time></trkpt><trkpt lat="44.96306890450203" lon="9.28023358961969"><ele>357.6</ele><time>2026-03-28T15:28:00Z</time></trkpt><trkpt lat="44.96297173298162" lon="9.280156348742244"><ele>360.2</ele><time>2026-03-28T15:28:01Z</time></trkpt><trkpt lat="44.962885459688685" lon="9.280086064369202"><ele>362.79999999999995</ele><time>2026-03-28T15:28:02Z</time></trkpt><trkpt lat="44.96283317356195" lon="9.279989365486133"><ele>365.4</ele><time>2026-03-28T15:28:03Z</time></trkpt><trkpt lat="44.96279083604637" lon="9.27991741259625"><ele>368.0</ele><time>2026-03-28T15:28:04Z</time></trkpt><trkpt lat="44.96273975312656" lon="9.279811791153767"><ele>369.25</ele><time>2026-03-28T15:28:05Z</time></trkpt><trkpt lat="44.962676492243304" lon="9.279691032975933"><ele>370.5</ele><time>2026-03-28T15:28:06Z</time></trkpt><trkpt lat="44.962603131393294" lon="9.279527490561579"><ele>371.75</ele><time>2026-03-28T15:28:07Z</time></trkpt><trkpt lat="44.9625234913819" lon="9.279305555028474"><ele>373.0</ele><time>2026-03-28T15:28:08Z</time></trkpt><trkpt lat="44.9624506346988" lon="9.279092948406884"><ele>373.25</ele><time>2026-03-28T15:28:09Z</time></trkpt><trkpt lat="44.96239760193847" lon="9.278918633734762"><ele>373.5</ele><time>2026-03-28T15:28:10Z</time></trkpt><trkpt lat="44.96237248489411" lon="9.278735701742399"><ele>373.75</ele><time>2026-03-28T15:28:11Z</time></trkpt><trkpt lat="44.96235303985763" lon="9.278548700295882"><ele>374.0</ele><time>2026-03-28T15:28:12Z</time></trkpt><trkpt lat="44.9623745642141" lon="9.278341472161056"><ele>374.0</ele><time>2026-03-28T15:28:13Z</time></trkpt><trkpt lat="44.96236335721326" lon="9.278128983218629"><ele>374.0</ele><time>2026-03-28T15:28:14Z</time></trkpt><trkpt lat="44.96236790677161" lon="9.277939166133994"><ele>374.0</ele><time>2026-03-28T15:28:15Z</time></trkpt><trkpt lat="44.96234848992346" lon="9.277762608126869"><ele>374.0</ele><time>2026-03-28T15:28:16Z</time></trkpt><trkpt lat="44.962315155196144" lon="9.277612820341918"><ele>373.75</ele><time>2026-03-28T15:28:17Z</time></trkpt><trkpt lat="44.96226474763966" lon="9.27748196654249"><ele>373.5</ele><time>2026-03-28T15:28:18Z</time></trkpt><trkpt lat="44.96220413918762" lon="9.277361511718464"><ele>373.25</ele><time>2026-03-28T15:28:19Z</time></trkpt><trkpt lat="44.9620996203289" lon="9.277206406558527"><ele>373.0</ele><time>2026-03-28T15:28:20Z</time></trkpt><trkpt lat="44.96197969740414" lon="9.277009101295585"><ele>373.0</ele><time>2026-03-28T15:28:21Z</time></trkpt><trkpt lat="44.96186777636397" lon="9.27680737745329"><ele>373.0</ele><time>2026-03-28T15:28:22Z</time></trkpt><trkpt lat="44.961773039369334" lon="9.276603767701735"><ele>373.0</ele><time>2026-03-28T15:28:23Z</time></trkpt><trkpt lat="44.961677120064266" lon="9.27643385933259"><ele>374.59999999999997</ele><time>2026-03-28T15:28:24Z</time></trkpt><trkpt lat="44.961608562472215" lon="9.276286144692317"><ele>376.2</ele><time>2026-03-28T15:28:25Z</time></trkpt><trkpt lat="44.961539248084684" lon="9.276181944703941"><ele>377.8</ele><time>2026-03-28T15:28:26Z</time></trkpt><trkpt lat="44.961455620901205" lon="9.27611852173255"><ele>379.4</ele><time>2026-03-28T15:28:27Z</time></trkpt><trkpt lat="44.961351346084626" lon="9.27609030062362"><ele>381.0</ele><time>2026-03-28T15:28:28Z</time></trkpt><trkpt lat="44.96122230209086" lon="9.276103264435028"><ele>381.0</ele><time>2026-03-28T15:28:29Z</time></trkpt><trkpt lat="44.961076152882185" lon="9.276154853272368"><ele>381.0</ele><time>2026-03-28T15:28:30Z</time></trkpt><trkpt lat="44.96090165581949" lon="9.276255027676415"><ele>381.0</ele><time>2026-03-28T15:28:31Z</time></trkpt><trkpt lat="44.96073414510403" lon="9.276306219011518"><ele>383.33333333333337</ele><time>2026-03-28T15:28:32Z</time></trkpt><trkpt lat="44.9605335634342" lon="9.276340870878052"><ele>385.6666666666667</ele><time>2026-03-28T15:28:33Z</time></trkpt><trkpt lat="44.96032609780736" lon="9.276342455523443"><ele>388.0</ele><time>2026-03-28T15:28:34Z</time></trkpt><trkpt lat="44.96009315343124" lon="9.276325678365186"><ele>391.5</ele><time>2026-03-28T15:28:35Z</time></trkpt><trkpt lat="44.95984355014773" lon="9.2763023676363"><ele>395.0</ele><time>2026-03-28T15:28:36Z</time></trkpt><trkpt lat="44.95963700344595" lon="9.276308948813744"><ele>395.0</ele><time>2026-03-28T15:28:37Z</time></trkpt><trkpt lat="44.95946579925636" lon="9.276285872736604"><ele>395.0</ele><time>2026-03-28T15:28:38Z</time></trkpt><trkpt lat="44.95930498375786" lon="9.276266397134831"><ele>395.0</ele><time>2026-03-28T15:28:39Z</time></trkpt><trkpt lat="44.95914381310015" lon="9.276262063998077"><ele>397.0</ele><time>2026-03-28T15:28:40Z</time></trkpt><trkpt lat="44.95899876592818" lon="9.2762624195215"><ele>399.0</ele><time>2026-03-28T15:28:41Z</time></trkpt><trkpt lat="44.958849131121944" lon="9.2762969773089"><ele>401.0</ele><time>2026-03-28T15:28:42Z</time></trkpt><trkpt lat="44.958682631797544" lon="9.276373510792439"><ele>401.0</ele><time>2026-03-28T15:28:43Z</time></trkpt><trkpt lat="44.95851519424797" lon="9.276421241409496"><ele>401.0</ele><time>2026-03-28T15:28:44Z</time></trkpt><trkpt lat="44.95838640207855" lon="9.27646542655627"><ele>401.0</ele><time>2026-03-28T15:28:45Z</time></trkpt><trkpt lat="44.95826760180224" lon="9.276490284934562"><ele>401.0</ele><time>2026-03-28T15:28:46Z</time></trkpt><trkpt lat="44.958144345760154" lon="9.276524110097204"><ele>398.66666666666663</ele><time>2026-03-28T15:28:47Z</time></trkpt><trkpt lat="44.95799207148602" lon="9.276532089208985"><ele>396.33333333333337</ele><time>2026-03-28T15:28:48Z</time></trkpt><trkpt lat="44.95782513244211" lon="9.276564139130567"><ele>394.0</ele><time>2026-03-28T15:28:49Z</time></trkpt><trkpt lat="44.957639272436275" lon="9.276616478091666"><ele>395.33333333333337</ele><time>2026-03-28T15:28:50Z</time></trkpt><trkpt lat="44.95743944750617" lon="9.276704193155625"><ele>396.66666666666663</ele><time>2026-03-28T15:28:51Z</time></trkpt><trkpt lat="44.957221636717954" lon="9.276821837971765"><ele>398.0</ele><time>2026-03-28T15:28:52Z</time></trkpt><trkpt lat="44.957019733407215" lon="9.276931341377312"><ele>398.0</ele><time>2026-03-28T15:28:53Z</time></trkpt><trkpt lat="44.9568407835839" lon="9.277026960866067"><ele>398.0</ele><time>2026-03-28T15:28:54Z</time></trkpt><trkpt lat="44.956673939222185" lon="9.277119188621242"><ele>398.0</ele><time>2026-03-28T15:28:55Z</time></trkpt><trkpt lat="44.95649802335125" lon="9.277215837946587"><ele>393.3333333333333</ele><time>2026-03-28T15:28:56Z</time></trkpt><trkpt lat="44.956322396912945" lon="9.277313273202335"><ele>388.66666666666663</ele><time>2026-03-28T15:28:57Z</time></trkpt><trkpt lat="44.95614799172391" lon="9.277408967895889"><ele>384.0</ele><time>2026-03-28T15:28:58Z</time></trkpt><trkpt lat="44.95598839635997" lon="9.277493790598681"><ele>386.25</ele><time>2026-03-28T15:28:59Z</time></trkpt><trkpt lat="44.95583356375576" lon="9.277574627190134"><ele>388.5</ele><time>2026-03-28T15:29:00Z</time></trkpt><trkpt lat="44.955687709202024" lon="9.277592623261926"><ele>390.75</ele><time>2026-03-28T15:29:01Z</time></trkpt><trkpt lat="44.95555092184413" lon="9.277599150052795"><ele>393.0</ele><time>2026-03-28T15:29:02Z</time></trkpt><trkpt lat="44.955433854978985" lon="9.277609256855321"><ele>393.0</ele><time>2026-03-28T15:29:03Z</time></trkpt><trkpt lat="44.955319721267756" lon="9.277542921083551"><ele>393.0</ele><time>2026-03-28T15:29:04Z</time></trkpt><trkpt lat="44.9552055751127" lon="9.277467610885052"><ele>393.0</ele><time>2026-03-28T15:29:05Z</time></trkpt><trkpt lat="44.955113014344526" lon="9.277348518398613"><ele>393.0</ele><time>2026-03-28T15:29:06Z</time></trkpt><trkpt lat="44.95504188966411" lon="9.27719657882105"><ele>396.33333333333337</ele><time>2026-03-28T15:29:07Z</time></trkpt><trkpt lat="44.954986748417625" lon="9.276998920141518"><ele>399.6666666666667</ele><time>2026-03-28T15:29:08Z</time></trkpt><trkpt lat="44.954901621050226" lon="9.27678329222687"><ele>403.0</ele><time>2026-03-28T15:29:09Z</time></trkpt><trkpt lat="44.954826713425895" lon="9.27660472693205"><ele>403.0</ele><time>2026-03-28T15:29:10Z</time></trkpt><trkpt lat="44.95475589990278" lon="9.276473241943581"><ele>403.0</ele><time>2026-03-28T15:29:11Z</time></trkpt><trkpt lat="44.954685627433996" lon="9.276363152296257"><ele>403.0</ele><time>2026-03-28T15:29:12Z</time></trkpt><trkpt lat="44.9545951227856" lon="9.276265776055828"><ele>403.0</ele><time>2026-03-28T15:29:13Z</time></trkpt><trkpt lat="44.954479635474186" lon="9.276209389973515"><ele>406.6666666666667</ele><time>2026-03-28T15:29:14Z</time></trkpt><trkpt lat="44.95434841880251" lon="9.276213023751884"><ele>410.33333333333337</ele><time>2026-03-28T15:29:15Z</time></trkpt><trkpt lat="44.954184278241186" lon="9.276272904588643"><ele>414.0</ele><time>2026-03-28T15:29:16Z</time></trkpt><trkpt lat="44.953995439714085" lon="9.276384138122065"><ele>406.5</ele><time>2026-03-28T15:29:17Z</time></trkpt><trkpt lat="44.953778921887135" lon="9.276512334724886"><ele>399.0</ele><time>2026-03-28T15:29:18Z</time></trkpt><trkpt lat="44.95353221143744" lon="9.276646093404862"><ele>402.0</ele><time>2026-03-28T15:29:19Z</time></trkpt><trkpt lat="44.95325719590704" lon="9.276792148434533"><ele>405.0</ele><time>2026-03-28T15:29:20Z</time></trkpt><trkpt lat="44.953018327207715" lon="9.276920249043819"><ele>405.0</ele><time>2026-03-28T15:29:21Z</time></trkpt><trkpt lat="44.95281863673098" lon="9.277021905655566"><ele>405.0</ele><time>2026-03-28T15:29:22Z</time></trkpt><trkpt lat="44.952658669783766" lon="9.277110207221579"><ele>405.0</ele><time>2026-03-28T15:29:23Z</time></trkpt><trkpt lat="44.95251947607804" lon="9.277161934596535"><ele>406.4</ele><time>2026-03-28T15:29:24Z</time></trkpt><trkpt lat="44.95240334780332" lon="9.27721086527779"><ele>407.8</ele><time>2026-03-28T15:29:25Z</time></trkpt><trkpt lat="44.952303771631044" lon="9.277222241954606"><ele>409.20000000000005</ele><time>2026-03-28T15:29:26Z</time></trkpt><trkpt lat="44.952217492720266" lon="9.277219029233391"><ele>410.6</ele><time>2026-03-28T15:29:27Z</time></trkpt><trkpt lat="44.95214844096585" lon="9.277091147024606"><ele>412.0</ele><time>2026-03-28T15:29:28Z</time></trkpt><trkpt lat="44.952057404355806" lon="9.276972008980312"><ele>412.0</ele><time>2026-03-28T15:29:29Z</time></trkpt><trkpt lat="44.9519507262396" lon="9.27682716173422"><ele>412.0</ele><time>2026-03-28T15:29:30Z</time></trkpt><trkpt lat="44.95182552684411" lon="9.276679449860579"><ele>412.0</ele><time>2026-03-28T15:29:31Z</time></trkpt><trkpt lat="44.95169953112619" lon="9.276496780396233"><ele>415.0</ele><time>2026-03-28T15:29:32Z</time></trkpt><trkpt lat="44.951558650620974" lon="9.276321601003215"><ele>418.0</ele><time>2026-03-28T15:29:33Z</time></trkpt><trkpt lat="44.95143675413279" lon="9.276169224024507"><ele>421.0</ele><time>2026-03-28T15:29:34Z</time></trkpt><trkpt lat="44.95131699702949" lon="9.276064778330378"><ele>421.0</ele><time>2026-03-28T15:29:35Z</time></trkpt><trkpt lat="44.95119824797052" lon="9.275991946958401"><ele>421.0</ele><time>2026-03-28T15:29:36Z</time></trkpt><trkpt lat="44.95107066604669" lon="9.2759469161405"><ele>421.0</ele><time>2026-03-28T15:29:37Z</time></trkpt><trkpt lat="44.95093184485395" lon="9.275925901290094"><ele>421.0</ele><time>2026-03-28T15:29:38Z</time></trkpt><trkpt lat="44.95078228703139" lon="9.275938973045236"><ele>420.33333333333337</ele><time>2026-03-28T15:29:39Z</time></trkpt><trkpt lat="44.95059176856232" lon="9.27599262664676"><ele>419.66666666666663</ele><time>2026-03-28T15:29:40Z</time></trkpt><trkpt lat="44.950357613402275" lon="9.27606953373826"><ele>419.0</ele><time>2026-03-28T15:29:41Z</time></trkpt><trkpt lat="44.9500837192633" lon="9.276149419065181"><ele>421.5</ele><time>2026-03-28T15:29:42Z</time></trkpt><trkpt lat="44.949826973309754" lon="9.276220637614017"><ele>424.0</ele><time>2026-03-28T15:29:43Z</time></trkpt><trkpt lat="44.949608759574225" lon="9.276291958323284"><ele>424.0</ele><time>2026-03-28T15:29:44Z</time></trkpt><trkpt lat="44.949412994034894" lon="9.276353037905587"><ele>424.0</ele><time>2026-03-28T15:29:45Z</time></trkpt><trkpt lat="44.94923157620965" lon="9.276380022817177"><ele>424.0</ele><time>2026-03-28T15:29:46Z</time></trkpt><trkpt lat="44.94907093231915" lon="9.276421303227309"><ele>421.5</ele><time>2026-03-28T15:29:47Z</time></trkpt><trkpt lat="44.948925778155505" lon="9.276458724521696"><ele>419.0</ele><time>2026-03-28T15:29:48Z</time></trkpt><trkpt lat="44.948797674678865" lon="9.276488838742734"><ele>416.5</ele><time>2026-03-28T15:29:49Z</time></trkpt><trkpt lat="44.94868191930378" lon="9.27649871000627"><ele>414.0</ele><time>2026-03-28T15:29:50Z</time></trkpt><trkpt lat="44.948564372854776" lon="9.276489700704365"><ele>414.0</ele><time>2026-03-28T15:29:51Z</time></trkpt><trkpt lat="44.94843918625674" lon="9.276458934816505"><ele>414.0</ele><time>2026-03-28T15:29:52Z</time></trkpt><trkpt lat="44.94830853238236" lon="9.276385595546625"><ele>414.0</ele><time>2026-03-28T15:29:53Z</time></trkpt><trkpt lat="44.94814583488153" lon="9.276309291840796"><ele>414.0</ele><time>2026-03-28T15:29:54Z</time></trkpt><trkpt lat="44.9479688078953" lon="9.276223956819589"><ele>415.33333333333337</ele><time>2026-03-28T15:29:55Z</time></trkpt><trkpt lat="44.94779084704423" lon="9.276178390529141"><ele>416.6666666666667</ele><time>2026-03-28T15:29:56Z</time></trkpt><trkpt lat="44.947629666605" lon="9.276150795956749"><ele>418.0</ele><time>2026-03-28T15:29:57Z</time></trkpt><trkpt lat="44.947487835378666" lon="9.276112124387073"><ele>418.0</ele><time>2026-03-28T15:29:58Z</time></trkpt><trkpt lat="44.94737958485654" lon="9.276039808406427"><ele>418.0</ele><time>2026-03-28T15:29:59Z</time></trkpt><trkpt lat="44.947282796677364" lon="9.275953965734322"><ele>418.0</ele><time>2026-03-28T15:30:00Z</time></trkpt><trkpt lat="44.947182229947565" lon="9.275824225937816"><ele>418.0</ele><time>2026-03-28T15:30:01Z</time></trkpt><trkpt lat="44.947069541379776" lon="9.27568403586089"><ele>417.0</ele><time>2026-03-28T15:30:02Z</time></trkpt><trkpt lat="44.94695417436637" lon="9.275575492384933"><ele>416.0</ele><time>2026-03-28T15:30:03Z</time></trkpt><trkpt lat="44.94683046566834" lon="9.275506214231951"><ele>415.0</ele><time>2026-03-28T15:30:04Z</time></trkpt><trkpt lat="44.94669287959023" lon="9.275482448158511"><ele>414.0</ele><time>2026-03-28T15:30:05Z</time></trkpt><trkpt lat="44.94659037301976" lon="9.275449436845042"><ele>414.0</ele><time>2026-03-28T15:30:06Z</time></trkpt><trkpt lat="44.946526578656666" lon="9.27539832916245"><ele>414.0</ele><time>2026-03-28T15:30:07Z</time></trkpt><trkpt lat="44.94647441345112" lon="9.275318986111882"><ele>414.0</ele><time>2026-03-28T15:30:08Z</time></trkpt><trkpt lat="44.94643025440992" lon="9.275207994207554"><ele>414.0</ele><time>2026-03-28T15:30:09Z</time></trkpt><trkpt lat="44.94640677852143" lon="9.275048128876897"><ele>414.0</ele><time>2026-03-28T15:30:10Z</time></trkpt><trkpt lat="44.946351168255674" lon="9.27486290746254"><ele>413.75</ele><time>2026-03-28T15:30:11Z</time></trkpt><trkpt lat="44.946310158351174" lon="9.274644475238906"><ele>413.5</ele><time>2026-03-28T15:30:12Z</time></trkpt><trkpt lat="44.94626507454019" lon="9.274435080281311"><ele>413.25</ele><time>2026-03-28T15:30:13Z</time></trkpt><trkpt lat="44.946224575093645" lon="9.274261128287925"><ele>413.0</ele><time>2026-03-28T15:30:14Z</time></trkpt><trkpt lat="44.946184968093036" lon="9.274110968982143"><ele>413.0</ele><time>2026-03-28T15:30:15Z</time></trkpt><trkpt lat="44.94614364916" lon="9.273976291574646"><ele>413.0</ele><time>2026-03-28T15:30:16Z</time></trkpt><trkpt lat="44.94609738895765" lon="9.273854482692407"><ele>413.0</ele><time>2026-03-28T15:30:17Z</time></trkpt><trkpt lat="44.94604100952381" lon="9.273750944374266"><ele>413.0</ele><time>2026-03-28T15:30:18Z</time></trkpt><trkpt lat="44.94596352632527" lon="9.273675062574405"><ele>413.0</ele><time>2026-03-28T15:30:19Z</time></trkpt><trkpt lat="44.94586910467539" lon="9.273622095289662"><ele>410.0</ele><time>2026-03-28T15:30:20Z</time></trkpt><trkpt lat="44.94576561424827" lon="9.27361934948521"><ele>407.0</ele><time>2026-03-28T15:30:21Z</time></trkpt><trkpt lat="44.94564596106409" lon="9.273637391093486"><ele>404.0</ele><time>2026-03-28T15:30:22Z</time></trkpt><trkpt lat="44.94551450834757" lon="9.273661759032422"><ele>401.0</ele><time>2026-03-28T15:30:23Z</time></trkpt><trkpt lat="44.945372826932875" lon="9.273684348858684"><ele>401.0</ele><time>2026-03-28T15:30:24Z</time></trkpt><trkpt lat="44.945221819725255" lon="9.273708346093615"><ele>401.0</ele><time>2026-03-28T15:30:25Z</time></trkpt><trkpt lat="44.945072148665965" lon="9.273727261322332"><ele>401.0</ele><time>2026-03-28T15:30:26Z</time></trkpt><trkpt lat="44.94494596493051" lon="9.273742745309288"><ele>401.0</ele><time>2026-03-28T15:30:27Z</time></trkpt><trkpt lat="44.94483565484538" lon="9.273757311738445"><ele>400.8</ele><time>2026-03-28T15:30:28Z</time></trkpt><trkpt lat="44.944743400484455" lon="9.27376409736869"><ele>400.6</ele><time>2026-03-28T15:30:29Z</time></trkpt><trkpt lat="44.944654081913846" lon="9.273772265656104"><ele>400.4</ele><time>2026-03-28T15:30:30Z</time></trkpt><trkpt lat="44.9445647660987" lon="9.273805519854239"><ele>400.2</ele><time>2026-03-28T15:30:31Z</time></trkpt><trkpt lat="44.94446657774121" lon="9.273843908040185"><ele>400.0</ele><time>2026-03-28T15:30:32Z</time></trkpt><trkpt lat="44.94439426903923" lon="9.273916675837851"><ele>400.0</ele><time>2026-03-28T15:30:33Z</time></trkpt><trkpt lat="44.9442958863522" lon="9.273980420197988"><ele>400.0</ele><time>2026-03-28T15:30:34Z</time></trkpt><trkpt lat="44.94420495366499" lon="9.274068445434203"><ele>400.0</ele><time>2026-03-28T15:30:35Z</time></trkpt><trkpt lat="44.94411182881024" lon="9.274150030377271"><ele>400.0</ele><time>2026-03-28T15:30:36Z</time></trkpt><trkpt lat="44.94401494746702" lon="9.274244161535583"><ele>400.0</ele><time>2026-03-28T15:30:37Z</time></trkpt><trkpt lat="44.943908112421376" lon="9.274317847437496"><ele>401.5</ele><time>2026-03-28T15:30:38Z</time></trkpt><trkpt lat="44.943807476906976" lon="9.274401732615445"><ele>403.0</ele><time>2026-03-28T15:30:39Z</time></trkpt><trkpt lat="44.94370113580982" lon="9.274486537845991"><ele>404.5</ele><time>2026-03-28T15:30:40Z</time></trkpt><trkpt lat="44.94358683315076" lon="9.274551795512256"><ele>406.0</ele><time>2026-03-28T15:30:41Z</time></trkpt><trkpt lat="44.94345915560328" lon="9.274607097151723"><ele>405.25</ele><time>2026-03-28T15:30:42Z</time></trkpt><trkpt lat="44.94332214891995" lon="9.2746670677062"><ele>404.5</ele><time>2026-03-28T15:30:43Z</time></trkpt><trkpt lat="44.943176256203" lon="9.274709999333982"><ele>403.75</ele><time>2026-03-28T15:30:44Z</time></trkpt><trkpt lat="44.943034706415155" lon="9.27474573498152"><ele>403.0</ele><time>2026-03-28T15:30:45Z</time></trkpt><trkpt lat="44.94291103781999" lon="9.274759226191076"><ele>403.0</ele><time>2026-03-28T15:30:46Z</time></trkpt><trkpt lat="44.942802266633066" lon="9.274751738314333"><ele>403.0</ele><time>2026-03-28T15:30:47Z</time></trkpt><trkpt lat="44.94269878334366" lon="9.274686024333228"><ele>403.0</ele><time>2026-03-28T15:30:48Z</time></trkpt><trkpt lat="44.94258089037849" lon="9.274624326805935"><ele>403.0</ele><time>2026-03-28T15:30:49Z</time></trkpt><trkpt lat="44.94247192750988" lon="9.274476413151751"><ele>402.33333333333337</ele><time>2026-03-28T15:30:50Z</time></trkpt><trkpt lat="44.942328492979435" lon="9.274338109476476"><ele>401.66666666666663</ele><time>2026-03-28T15:30:51Z</time></trkpt><trkpt lat="44.94218263454928" lon="9.274177652697285"><ele>401.0</ele><time>2026-03-28T15:30:52Z</time></trkpt><trkpt lat="44.942024716389014" lon="9.274024624659887"><ele>400.75</ele><time>2026-03-28T15:30:53Z</time></trkpt><trkpt lat="44.941889998572584" lon="9.273893091861229"><ele>400.5</ele><time>2026-03-28T15:30:54Z</time></trkpt><trkpt lat="44.94177366222698" lon="9.273769020286414"><ele>400.25</ele><time>2026-03-28T15:30:55Z</time></trkpt><trkpt lat="44.941663223446554" lon="9.273648476352523"><ele>400.0</ele><time>2026-03-28T15:30:56Z</time></trkpt><trkpt lat="44.94155387790084" lon="9.273532647062277"><ele>400.0</ele><time>2026-03-28T15:30:57Z</time></trkpt><trkpt lat="44.94144402236849" lon="9.273423669893122"><ele>400.0</ele><time>2026-03-28T15:30:58Z</time></trkpt><trkpt lat="44.941342320053195" lon="9.273327491170836"><ele>400.0</ele><time>2026-03-28T15:30:59Z</time></trkpt><trkpt lat="44.94125055027762" lon="9.273261141587623"><ele>400.0</ele><time>2026-03-28T15:31:00Z</time></trkpt><trkpt lat="44.941161915169005" lon="9.273233853421418"><ele>400.0</ele><time>2026-03-28T15:31:01Z</time></trkpt><trkpt lat="44.9410738170106" lon="9.273253823939172"><ele>400.0</ele><time>2026-03-28T15:31:02Z</time></trkpt><trkpt lat="44.940975314970515" lon="9.273307294969282"><ele>400.0</ele><time>2026-03-28T15:31:03Z</time></trkpt><trkpt lat="44.94085891798591" lon="9.273384295335193"><ele>400.0</ele><time>2026-03-28T15:31:04Z</time></trkpt><trkpt lat="44.94073038812192" lon="9.27347378625615"><ele>400.25</ele><time>2026-03-28T15:31:05Z</time></trkpt><trkpt lat="44.940605328525486" lon="9.273571476251496"><ele>400.5</ele><time>2026-03-28T15:31:06Z</time></trkpt><trkpt lat="44.94049473967" lon="9.273652464813521"><ele>400.75</ele><time>2026-03-28T15:31:07Z</time></trkpt><trkpt lat="44.94039167255319" lon="9.273702921410568"><ele>401.0</ele><time>2026-03-28T15:31:08Z</time></trkpt><trkpt lat="44.940270239552326" lon="9.273707219386147"><ele>401.0</ele><time>2026-03-28T15:31:09Z</time></trkpt><trkpt lat="44.940146657864034" lon="9.273669214145594"><ele>401.0</ele><time>2026-03-28T15:31:10Z</time></trkpt><trkpt lat="44.94001666194328" lon="9.27359280346925"><ele>401.0</ele><time>2026-03-28T15:31:11Z</time></trkpt><trkpt lat="44.93987317441977" lon="9.273526233545828"><ele>401.0</ele><time>2026-03-28T15:31:12Z</time></trkpt><trkpt lat="44.939725074927495" lon="9.273431919908958"><ele>400.5</ele><time>2026-03-28T15:31:13Z</time></trkpt><trkpt lat="44.939577881474364" lon="9.273362883379477"><ele>400.0</ele><time>2026-03-28T15:31:14Z</time></trkpt><trkpt lat="44.93943300729269" lon="9.273330457356268"><ele>399.5</ele><time>2026-03-28T15:31:15Z</time></trkpt><trkpt lat="44.93928644530486" lon="9.27333668611444"><ele>399.0</ele><time>2026-03-28T15:31:16Z</time></trkpt><trkpt lat="44.939122849952824" lon="9.27337787205674"><ele>400.75</ele><time>2026-03-28T15:31:17Z</time></trkpt><trkpt lat="44.93896511430217" lon="9.273447058348754"><ele>402.5</ele><time>2026-03-28T15:31:18Z</time></trkpt><trkpt lat="44.938830051736566" lon="9.27351037731566"><ele>404.25</ele><time>2026-03-28T15:31:19Z</time></trkpt><trkpt lat="44.93870959286431" lon="9.273546852664202"><ele>406.0</ele><time>2026-03-28T15:31:20Z</time></trkpt><trkpt lat="44.93860236274812" lon="9.273661480046322"><ele>406.0</ele><time>2026-03-28T15:31:21Z</time></trkpt><trkpt lat="44.93849557749201" lon="9.273786256859479"><ele>406.0</ele><time>2026-03-28T15:31:22Z</time></trkpt><trkpt lat="44.938401381970046" lon="9.273867615676208"><ele>406.0</ele><time>2026-03-28T15:31:23Z</time></trkpt><trkpt lat="44.9383105875406" lon="9.273916976402294"><ele>406.0</ele><time>2026-03-28T15:31:24Z</time></trkpt><trkpt lat="44.93820923554065" lon="9.273863537438036"><ele>406.0</ele><time>2026-03-28T15:31:25Z</time></trkpt><trkpt lat="44.93807886417297" lon="9.273829199765313"><ele>406.0</ele><time>2026-03-28T15:31:26Z</time></trkpt><trkpt lat="44.937938642696935" lon="9.273827849058693"><ele>406.0</ele><time>2026-03-28T15:31:27Z</time></trkpt><trkpt lat="44.93778971228925" lon="9.273864202549628"><ele>406.0</ele><time>2026-03-28T15:31:28Z</time></trkpt><trkpt lat="44.93762850273416" lon="9.273943410239877"><ele>410.33333333333337</ele><time>2026-03-28T15:31:29Z</time></trkpt><trkpt lat="44.937461827524125" lon="9.27405737463481"><ele>414.66666666666663</ele><time>2026-03-28T15:31:30Z</time></trkpt><trkpt lat="44.93727443939029" lon="9.274158426412248"><ele>419.0</ele><time>2026-03-28T15:31:31Z</time></trkpt><trkpt lat="44.93709955953326" lon="9.274231943809937"><ele>419.0</ele><time>2026-03-28T15:31:32Z</time></trkpt><trkpt lat="44.936953606485154" lon="9.274314127608188"><ele>419.0</ele><time>2026-03-28T15:31:33Z</time></trkpt><trkpt lat="44.93681148798776" lon="9.274450462733164"><ele>419.0</ele><time>2026-03-28T15:31:34Z</time></trkpt><trkpt lat="44.936685583999676" lon="9.274617877759427"><ele>423.0</ele><time>2026-03-28T15:31:35Z</time></trkpt><trkpt lat="44.936586686825116" lon="9.274786987125555"><ele>427.0</ele><time>2026-03-28T15:31:36Z</time></trkpt><trkpt lat="44.936510146286885" lon="9.274997177924519"><ele>431.0</ele><time>2026-03-28T15:31:37Z</time></trkpt><trkpt lat="44.93645792634934" lon="9.275188429594841"><ele>431.0</ele><time>2026-03-28T15:31:38Z</time></trkpt><trkpt lat="44.93638056610265" lon="9.275313635119579"><ele>431.0</ele><time>2026-03-28T15:31:39Z</time></trkpt><trkpt lat="44.936303189916785" lon="9.275436709026405"><ele>431.0</ele><time>2026-03-28T15:31:40Z</time></trkpt><trkpt lat="44.93617199849039" lon="9.275444966548333"><ele>431.0</ele><time>2026-03-28T15:31:41Z</time></trkpt><trkpt lat="44.93605453506394" lon="9.275380764702494"><ele>431.0</ele><time>2026-03-28T15:31:42Z</time></trkpt><trkpt lat="44.93591955507932" lon="9.275304279374753"><ele>431.0</ele><time>2026-03-28T15:31:43Z</time></trkpt><trkpt lat="44.935773410701515" lon="9.275199924258073"><ele>431.0</ele><time>2026-03-28T15:31:44Z</time></trkpt><trkpt lat="44.9356314254209" lon="9.275053477747795"><ele>431.25</ele><time>2026-03-28T15:31:45Z</time></trkpt><trkpt lat="44.93548703493885" lon="9.274944806743223"><ele>431.5</ele><time>2026-03-28T15:31:46Z</time></trkpt><trkpt lat="44.93535974439176" lon="9.274900667183768"><ele>431.75</ele><time>2026-03-28T15:31:47Z</time></trkpt><trkpt lat="44.93523071459301" lon="9.274888614625684"><ele>432.0</ele><time>2026-03-28T15:31:48Z</time></trkpt><trkpt lat="44.93509682541395" lon="9.274905044422582"><ele>435.33333333333337</ele><time>2026-03-28T15:31:49Z</time></trkpt><trkpt lat="44.9349515378923" lon="9.274961269252698"><ele>438.6666666666667</ele><time>2026-03-28T15:31:50Z</time></trkpt><trkpt lat="44.934780353110256" lon="9.275069203097962"><ele>442.0</ele><time>2026-03-28T15:31:51Z</time></trkpt><trkpt lat="44.93457274362479" lon="9.275209945883125"><ele>442.0</ele><time>2026-03-28T15:31:52Z</time></trkpt><trkpt lat="44.93440813095153" lon="9.27531237544196"><ele>442.0</ele><time>2026-03-28T15:31:53Z</time></trkpt><trkpt lat="44.9342876473201" lon="9.27539426873386"><ele>442.0</ele><time>2026-03-28T15:31:54Z</time></trkpt><trkpt lat="44.93419160624578" lon="9.27545118032212"><ele>442.0</ele><time>2026-03-28T15:31:55Z</time></trkpt><trkpt lat="44.93410435733231" lon="9.275498589086022"><ele>442.40000000000003</ele><time>2026-03-28T15:31:56Z</time></trkpt><trkpt lat="44.93403650931301" lon="9.275499822725347"><ele>442.80000000000007</ele><time>2026-03-28T15:31:57Z</time></trkpt><trkpt lat="44.933985471237506" lon="9.275552152121666"><ele>443.2</ele><time>2026-03-28T15:31:58Z</time></trkpt><trkpt lat="44.933908832202036" lon="9.27570113585841"><ele>443.6</ele><time>2026-03-28T15:32:00Z</time></trkpt><trkpt lat="44.93383283817255" lon="9.275786170144045"><ele>444.0</ele><time>2026-03-28T15:32:01Z</time></trkpt><trkpt lat="44.93373225110951" lon="9.27587073523458"><ele>443.25</ele><time>2026-03-28T15:32:02Z</time></trkpt><trkpt lat="44.93365416126992" lon="9.276000823180318"><ele>442.5</ele><time>2026-03-28T15:32:03Z</time></trkpt><trkpt lat="44.933600984944924" lon="9.276176310449758"><ele>441.75</ele><time>2026-03-28T15:32:04Z</time></trkpt><trkpt lat="44.93356447153742" lon="9.276380645890116"><ele>441.0</ele><time>2026-03-28T15:32:05Z</time></trkpt><trkpt lat="44.933526157590364" lon="9.276608454649658"><ele>441.0</ele><time>2026-03-28T15:32:06Z</time></trkpt><trkpt lat="44.933485455200035" lon="9.276822176711068"><ele>441.0</ele><time>2026-03-28T15:32:07Z</time></trkpt><trkpt lat="44.93344381645404" lon="9.277017440163466"><ele>441.0</ele><time>2026-03-28T15:32:08Z</time></trkpt><trkpt lat="44.93340735051391" lon="9.27720014518998"><ele>441.0</ele><time>2026-03-28T15:32:09Z</time></trkpt><trkpt lat="44.93337343831916" lon="9.277361415969018"><ele>440.3333333333333</ele><time>2026-03-28T15:32:10Z</time></trkpt><trkpt lat="44.93333883194699" lon="9.277508869912356"><ele>439.66666666666663</ele><time>2026-03-28T15:32:11Z</time></trkpt><trkpt lat="44.93330666411082" lon="9.277637498446655"><ele>439.0</ele><time>2026-03-28T15:32:12Z</time></trkpt><trkpt lat="44.933289222474755" lon="9.277742884172634"><ele>438.3333333333333</ele><time>2026-03-28T15:32:13Z</time></trkpt><trkpt lat="44.93328668554585" lon="9.27783856879791"><ele>437.66666666666663</ele><time>2026-03-28T15:32:14Z</time></trkpt><trkpt lat="44.93330157960071" lon="9.277928778223187"><ele>437.0</ele><time>2026-03-28T15:32:15Z</time></trkpt><trkpt lat="44.93335323310378" lon="9.27798950311031"><ele>436.3333333333333</ele><time>2026-03-28T15:32:16Z</time></trkpt><trkpt lat="44.93341545922845" lon="9.278033749642642"><ele>435.66666666666663</ele><time>2026-03-28T15:32:17Z</time></trkpt><trkpt lat="44.93349202048303" lon="9.278060218074405"><ele>435.0</ele><time>2026-03-28T15:32:18Z</time></trkpt><trkpt lat="44.9335783755889" lon="9.278084135856957"><ele>434.33333333333337</ele><time>2026-03-28T15:32:19Z</time></trkpt><trkpt lat="44.93366702228574" lon="9.27800469034234"><ele>433.6666666666667</ele><time>2026-03-28T15:32:20Z</time></trkpt><trkpt lat="44.93375729643343" lon="9.277931467884132"><ele>433.0</ele><time>2026-03-28T15:32:21Z</time></trkpt><trkpt lat="44.93384382032016" lon="9.277857458160392"><ele>433.00000000000006</ele><time>2026-03-28T15:32:22Z</time></trkpt><trkpt lat="44.93392331540048" lon="9.277791635180924"><ele>433.0</ele><time>2026-03-28T15:32:23Z</time></trkpt><trkpt lat="44.93400123754411" lon="9.277744412341484"><ele>433.0</ele><time>2026-03-28T15:32:24Z</time></trkpt><trkpt lat="44.93407965244105" lon="9.277727916023021"><ele>433.0</ele><time>2026-03-28T15:32:25Z</time></trkpt><trkpt lat="44.93416316056609" lon="9.277746031555413"><ele>433.00000000000006</ele><time>2026-03-28T15:32:26Z</time></trkpt><trkpt lat="44.934250359910266" lon="9.277795687408593"><ele>433.0</ele><time>2026-03-28T15:32:27Z</time></trkpt><trkpt lat="44.9343341508403" lon="9.277878448229647"><ele>433.2</ele><time>2026-03-28T15:32:28Z</time></trkpt><trkpt lat="44.93439646187648" lon="9.27797259646874"><ele>433.4</ele><time>2026-03-28T15:32:29Z</time></trkpt><trkpt lat="44.934450199153105" lon="9.278095840406838"><ele>433.59999999999997</ele><time>2026-03-28T15:32:30Z</time></trkpt><trkpt lat="44.93448245096429" lon="9.278251716332152"><ele>433.79999999999995</ele><time>2026-03-28T15:32:31Z</time></trkpt><trkpt lat="44.93449585956605" lon="9.278395200076746"><ele>434.0</ele><time>2026-03-28T15:32:32Z</time></trkpt><trkpt lat="44.93449115169151" lon="9.27852376764895"><ele>434.0</ele><time>2026-03-28T15:32:33Z</time></trkpt><trkpt lat="44.93445220623162" lon="9.278649218406185"><ele>434.0</ele><time>2026-03-28T15:32:34Z</time></trkpt><trkpt lat="44.93438585736508" lon="9.27876539713573"><ele>434.0</ele><time>2026-03-28T15:32:35Z</time></trkpt><trkpt lat="44.9342915726955" lon="9.278865093738187"><ele>434.0</ele><time>2026-03-28T15:32:36Z</time></trkpt><trkpt lat="44.93417717040776" lon="9.278947424447006"><ele>434.0</ele><time>2026-03-28T15:32:37Z</time></trkpt><trkpt lat="44.93405307344503" lon="9.278994961964733"><ele>430.2</ele><time>2026-03-28T15:32:38Z</time></trkpt><trkpt lat="44.93394449761635" lon="9.279037093979397"><ele>426.4</ele><time>2026-03-28T15:32:39Z</time></trkpt><trkpt lat="44.93384925230989" lon="9.279107340523334"><ele>422.6</ele><time>2026-03-28T15:32:40Z</time></trkpt><trkpt lat="44.93377499542834" lon="9.279192014817413"><ele>418.8</ele><time>2026-03-28T15:32:41Z</time></trkpt><trkpt lat="44.93371857751268" lon="9.279301403901632"><ele>415.0</ele><time>2026-03-28T15:32:42Z</time></trkpt><trkpt lat="44.933684584225524" lon="9.279440121285784"><ele>415.0</ele><time>2026-03-28T15:32:43Z</time></trkpt><trkpt lat="44.93368174056653" lon="9.279611865911711"><ele>415.0</ele><time>2026-03-28T15:32:44Z</time></trkpt><trkpt lat="44.93369955499036" lon="9.279821770740789"><ele>415.0</ele><time>2026-03-28T15:32:45Z</time></trkpt><trkpt lat="44.9337202247188" lon="9.280059868670932"><ele>415.0</ele><time>2026-03-28T15:32:46Z</time></trkpt><trkpt lat="44.933734155499224" lon="9.280337934599194"><ele>410.0</ele><time>2026-03-28T15:32:47Z</time></trkpt><trkpt lat="44.93374228838049" lon="9.280616063883842"><ele>405.0</ele><time>2026-03-28T15:32:48Z</time></trkpt><trkpt lat="44.93374874382804" lon="9.280867238959317"><ele>400.0</ele><time>2026-03-28T15:32:49Z</time></trkpt><trkpt lat="44.933756854763644" lon="9.281101972964045"><ele>400.0</ele><time>2026-03-28T15:32:50Z</time></trkpt><trkpt lat="44.933770172288696" lon="9.28132652655677"><ele>400.0</ele><time>2026-03-28T15:32:51Z</time></trkpt><trkpt lat="44.93379153054127" lon="9.281536951481218"><ele>400.0</ele><time>2026-03-28T15:32:52Z</time></trkpt><trkpt lat="44.933823186581954" lon="9.281729303226646"><ele>399.0</ele><time>2026-03-28T15:32:53Z</time></trkpt><trkpt lat="44.93385593839231" lon="9.281910307692277"><ele>398.0</ele><time>2026-03-28T15:32:54Z</time></trkpt><trkpt lat="44.93387857381528" lon="9.28207209773685"><ele>397.0</ele><time>2026-03-28T15:32:55Z</time></trkpt><trkpt lat="44.933887329056475" lon="9.28221371231004"><ele>396.0</ele><time>2026-03-28T15:32:56Z</time></trkpt><trkpt lat="44.93387132333123" lon="9.282344608582424"><ele>395.0</ele><time>2026-03-28T15:32:57Z</time></trkpt><trkpt lat="44.93381578269517" lon="9.282458302745743"><ele>395.6</ele><time>2026-03-28T15:32:58Z</time></trkpt><trkpt lat="44.93376342544642" lon="9.282535103532691"><ele>396.2</ele><time>2026-03-28T15:32:59Z</time></trkpt><trkpt lat="44.933676016070194" lon="9.282563695033176"><ele>396.79999999999995</ele><time>2026-03-28T15:33:00Z</time></trkpt><trkpt lat="44.93357991602729" lon="9.282601200956439"><ele>397.4</ele><time>2026-03-28T15:33:01Z</time></trkpt><trkpt lat="44.93347456778824" lon="9.282606478517824"><ele>398.0</ele><time>2026-03-28T15:33:02Z</time></trkpt><trkpt lat="44.933383838720125" lon="9.282627469467585"><ele>397.99999999999994</ele><time>2026-03-28T15:33:03Z</time></trkpt><trkpt lat="44.93330829934887" lon="9.282675995550244"><ele>398.0</ele><time>2026-03-28T15:33:04Z</time></trkpt><trkpt lat="44.93324212301124" lon="9.282749072548437"><ele>398.0</ele><time>2026-03-28T15:33:05Z</time></trkpt><trkpt lat="44.93319795471089" lon="9.282853408715056"><ele>398.0</ele><time>2026-03-28T15:33:06Z</time></trkpt><trkpt lat="44.93318406159778" lon="9.282982415093189"><ele>397.99999999999994</ele><time>2026-03-28T15:33:07Z</time></trkpt><trkpt lat="44.933203463545546" lon="9.28311844554814"><ele>398.0</ele><time>2026-03-28T15:33:08Z</time></trkpt><trkpt lat="44.93325285418231" lon="9.283248084966353"><ele>396.75</ele><time>2026-03-28T15:33:09Z</time></trkpt><trkpt lat="44.93332542800402" lon="9.28336391361465"><ele>395.5</ele><time>2026-03-28T15:33:10Z</time></trkpt><trkpt lat="44.933426583276976" lon="9.283480249029141"><ele>394.25</ele><time>2026-03-28T15:33:11Z</time></trkpt><trkpt lat="44.93351944867104" lon="9.283585488801096"><ele>393.0</ele><time>2026-03-28T15:33:12Z</time></trkpt><trkpt lat="44.93357255717269" lon="9.283701467282448"><ele>391.0</ele><time>2026-03-28T15:33:13Z</time></trkpt><trkpt lat="44.933628086085186" lon="9.283796212825521"><ele>389.0</ele><time>2026-03-28T15:33:14Z</time></trkpt><trkpt lat="44.93364468875567" lon="9.283920236278187"><ele>387.0</ele><time>2026-03-28T15:33:15Z</time></trkpt><trkpt lat="44.9336383252952" lon="9.28404507014504"><ele>385.0</ele><time>2026-03-28T15:33:16Z</time></trkpt><trkpt lat="44.933608146130496" lon="9.284180693440295"><ele>383.0</ele><time>2026-03-28T15:33:17Z</time></trkpt><trkpt lat="44.93356527570522" lon="9.284320095332246"><ele>381.75</ele><time>2026-03-28T15:33:18Z</time></trkpt><trkpt lat="44.93353447035294" lon="9.28447245025947"><ele>380.5</ele><time>2026-03-28T15:33:19Z</time></trkpt><trkpt lat="44.933525361261715" lon="9.284660793755911"><ele>379.25</ele><time>2026-03-28T15:33:20Z</time></trkpt><trkpt lat="44.933542119789486" lon="9.284875577666437"><ele>378.0</ele><time>2026-03-28T15:33:21Z</time></trkpt><trkpt lat="44.933571943335046" lon="9.285065148195981"><ele>377.59999999999997</ele><time>2026-03-28T15:33:22Z</time></trkpt><trkpt lat="44.93360163084743" lon="9.28523721272103"><ele>377.2</ele><time>2026-03-28T15:33:23Z</time></trkpt><trkpt lat="44.933632784405475" lon="9.285387661429214"><ele>376.8</ele><time>2026-03-28T15:33:24Z</time></trkpt><trkpt lat="44.933681393697974" lon="9.285508873934287"><ele>376.4</ele><time>2026-03-28T15:33:25Z</time></trkpt><trkpt lat="44.9337578256722" lon="9.285602794973464"><ele>376.0</ele><time>2026-03-28T15:33:26Z</time></trkpt><trkpt lat="44.933853417108224" lon="9.285663603118953"><ele>377.0</ele><time>2026-03-28T15:33:27Z</time></trkpt><trkpt lat="44.933967996177515" lon="9.28569969068285"><ele>378.0</ele><time>2026-03-28T15:33:28Z</time></trkpt><trkpt lat="44.93409868288925" lon="9.285727392903409"><ele>379.0</ele><time>2026-03-28T15:33:29Z</time></trkpt><trkpt lat="44.93423856976433" lon="9.285751506037125"><ele>380.0</ele><time>2026-03-28T15:33:30Z</time></trkpt><trkpt lat="44.93439125267761" lon="9.285777678849524"><ele>380.0</ele><time>2026-03-28T15:33:31Z</time></trkpt><trkpt lat="44.9345740488" lon="9.285807214247326"><ele>380.0</ele><time>2026-03-28T15:33:32Z</time></trkpt><trkpt lat="44.93475148384198" lon="9.28585445853009"><ele>380.0</ele><time>2026-03-28T15:33:33Z</time></trkpt><trkpt lat="44.93493517718047" lon="9.285871987938538"><ele>381.0</ele><time>2026-03-28T15:33:34Z</time></trkpt><trkpt lat="44.935118806977194" lon="9.285904611723218"><ele>382.0</ele><time>2026-03-28T15:33:35Z</time></trkpt><trkpt lat="44.93528231138073" lon="9.285933542509197"><ele>383.0</ele><time>2026-03-28T15:33:36Z</time></trkpt><trkpt lat="44.93542535851266" lon="9.285954411740326"><ele>383.0</ele><time>2026-03-28T15:33:37Z</time></trkpt><trkpt lat="44.93553758417558" lon="9.285969610800844"><ele>383.0</ele><time>2026-03-28T15:33:38Z</time></trkpt><trkpt lat="44.935638851373724" lon="9.285983620603236"><ele>383.0</ele><time>2026-03-28T15:33:39Z</time></trkpt><trkpt lat="44.935729584225605" lon="9.285995275528366"><ele>383.0</ele><time>2026-03-28T15:33:40Z</time></trkpt><trkpt lat="44.93582725832121" lon="9.286007790327414"><ele>383.0</ele><time>2026-03-28T15:33:41Z</time></trkpt><trkpt lat="44.93592928370039" lon="9.286026856368597"><ele>384.0</ele><time>2026-03-28T15:33:42Z</time></trkpt><trkpt lat="44.93604029251651" lon="9.286048063256493"><ele>385.0</ele><time>2026-03-28T15:33:43Z</time></trkpt><trkpt lat="44.93615701902896" lon="9.286070043018173"><ele>386.0</ele><time>2026-03-28T15:33:44Z</time></trkpt><trkpt lat="44.93626100129289" lon="9.286065942741317"><ele>387.0</ele><time>2026-03-28T15:33:45Z</time></trkpt><trkpt lat="44.936367206285034" lon="9.286071181482619"><ele>388.0</ele><time>2026-03-28T15:33:46Z</time></trkpt><trkpt lat="44.93647119285161" lon="9.28609784411111"><ele>388.0</ele><time>2026-03-28T15:33:47Z</time></trkpt><trkpt lat="44.93658207916944" lon="9.286144232611091"><ele>388.0</ele><time>2026-03-28T15:33:48Z</time></trkpt><trkpt lat="44.93669151082336" lon="9.286198968607883"><ele>388.0</ele><time>2026-03-28T15:33:49Z</time></trkpt><trkpt lat="44.93678742851587" lon="9.286246404638481"><ele>388.0</ele><time>2026-03-28T15:33:50Z</time></trkpt><trkpt lat="44.936882256212904" lon="9.286309489051437"><ele>388.0</ele><time>2026-03-28T15:33:51Z</time></trkpt><trkpt lat="44.93698372342648" lon="9.286380135387565"><ele>391.25</ele><time>2026-03-28T15:33:52Z</time></trkpt><trkpt lat="44.93708410967186" lon="9.286450919052662"><ele>394.5</ele><time>2026-03-28T15:33:53Z</time></trkpt><trkpt lat="44.9371903548063" lon="9.286499526966988"><ele>397.75</ele><time>2026-03-28T15:33:54Z</time></trkpt><trkpt lat="44.93730728026014" lon="9.286511201562865"><ele>401.0</ele><time>2026-03-28T15:33:55Z</time></trkpt><trkpt lat="44.93743571967276" lon="9.286481904344411"><ele>398.66666666666663</ele><time>2026-03-28T15:33:56Z</time></trkpt><trkpt lat="44.937570753933265" lon="9.286423773057491"><ele>396.33333333333337</ele><time>2026-03-28T15:33:57Z</time></trkpt><trkpt lat="44.937713342210856" lon="9.286340475904248"><ele>394.0</ele><time>2026-03-28T15:33:58Z</time></trkpt><trkpt lat="44.93785767843233" lon="9.286254447900578"><ele>394.0</ele><time>2026-03-28T15:33:59Z</time></trkpt><trkpt lat="44.93798784757412" lon="9.286201421285064"><ele>394.0</ele><time>2026-03-28T15:34:00Z</time></trkpt><trkpt lat="44.938102268273205" lon="9.28610189963096"><ele>394.0</ele><time>2026-03-28T15:34:01Z</time></trkpt><trkpt lat="44.93822019903843" lon="9.286029918447868"><ele>394.0</ele><time>2026-03-28T15:34:02Z</time></trkpt><trkpt lat="44.938331831834645" lon="9.28597634303992"><ele>392.75</ele><time>2026-03-28T15:34:03Z</time></trkpt><trkpt lat="44.938437192236734" lon="9.28595686863484"><ele>391.5</ele><time>2026-03-28T15:34:04Z</time></trkpt><trkpt lat="44.938539912811464" lon="9.285982898936789"><ele>390.25</ele><time>2026-03-28T15:34:05Z</time></trkpt><trkpt lat="44.93865162663596" lon="9.286036112249205"><ele>389.0</ele><time>2026-03-28T15:34:06Z</time></trkpt><trkpt lat="44.93878234669101" lon="9.286085935277102"><ele>389.0</ele><time>2026-03-28T15:34:07Z</time></trkpt><trkpt lat="44.93892264194883" lon="9.286134365429357"><ele>389.0</ele><time>2026-03-28T15:34:08Z</time></trkpt><trkpt lat="44.93904446234027" lon="9.286186434133267"><ele>389.0</ele><time>2026-03-28T15:34:09Z</time></trkpt><trkpt lat="44.93915754262053" lon="9.286249622925745"><ele>389.0</ele><time>2026-03-28T15:34:10Z</time></trkpt><trkpt lat="44.939261895629365" lon="9.286325709386926"><ele>389.66666666666663</ele><time>2026-03-28T15:34:11Z</time></trkpt><trkpt lat="44.93935378987912" lon="9.286405294447288"><ele>390.3333333333333</ele><time>2026-03-28T15:34:12Z</time></trkpt><trkpt lat="44.93942665429478" lon="9.286494564056804"><ele>391.0</ele><time>2026-03-28T15:34:13Z</time></trkpt><trkpt lat="44.939474021526664" lon="9.286597946235222"><ele>391.66666666666663</ele><time>2026-03-28T15:34:14Z</time></trkpt><trkpt lat="44.93951500696425" lon="9.286690376751574"><ele>392.3333333333333</ele><time>2026-03-28T15:34:15Z</time></trkpt><trkpt lat="44.93956657144865" lon="9.286762651094948"><ele>393.0</ele><time>2026-03-28T15:34:16Z</time></trkpt><trkpt lat="44.93963219566834" lon="9.286786034374705"><ele>393.0</ele><time>2026-03-28T15:34:17Z</time></trkpt><trkpt lat="44.939696279584275" lon="9.28675766303421"><ele>393.0</ele><time>2026-03-28T15:34:18Z</time></trkpt><trkpt lat="44.93975901959311" lon="9.286705559734383"><ele>393.0</ele><time>2026-03-28T15:34:19Z</time></trkpt><trkpt lat="44.93977833053935" lon="9.286575870526717"><ele>393.0</ele><time>2026-03-28T15:34:20Z</time></trkpt><trkpt lat="44.93982909326905" lon="9.286442809629254"><ele>393.0</ele><time>2026-03-28T15:34:21Z</time></trkpt><trkpt lat="44.9398699039713" lon="9.286284130898672"><ele>393.0</ele><time>2026-03-28T15:34:22Z</time></trkpt><trkpt lat="44.93990739105098" lon="9.286097591408177"><ele>393.0</ele><time>2026-03-28T15:34:23Z</time></trkpt><trkpt lat="44.93998304161599" lon="9.285915070107635"><ele>393.0</ele><time>2026-03-28T15:34:24Z</time></trkpt><trkpt lat="44.940099295799016" lon="9.285749344969737"><ele>393.0</ele><time>2026-03-28T15:34:25Z</time></trkpt><trkpt lat="44.940206109069734" lon="9.285561520765098"><ele>393.0</ele><time>2026-03-28T15:34:26Z</time></trkpt><trkpt lat="44.940287473451036" lon="9.285381427481594"><ele>393.0</ele><time>2026-03-28T15:34:27Z</time></trkpt><trkpt lat="44.940390821029396" lon="9.285252514460899"><ele>393.0</ele><time>2026-03-28T15:34:28Z</time></trkpt><trkpt lat="44.94047592867095" lon="9.285125838320614"><ele>393.0</ele><time>2026-03-28T15:34:29Z</time></trkpt><trkpt lat="44.940580628698164" lon="9.285066431132556"><ele>393.0</ele><time>2026-03-28T15:34:30Z</time></trkpt><trkpt lat="44.940698054321565" lon="9.285058921423975"><ele>393.0</ele><time>2026-03-28T15:34:31Z</time></trkpt><trkpt lat="44.94082585501559" lon="9.285030147094382"><ele>391.0</ele><time>2026-03-28T15:34:32Z</time></trkpt><trkpt lat="44.94095658340034" lon="9.284977878406979"><ele>389.0</ele><time>2026-03-28T15:34:33Z</time></trkpt><trkpt lat="44.94108761263785" lon="9.284891534639645"><ele>387.0</ele><time>2026-03-28T15:34:34Z</time></trkpt><trkpt lat="44.94120362456839" lon="9.284776620595041"><ele>385.0</ele><time>2026-03-28T15:34:35Z</time></trkpt><trkpt lat="44.9412974322228" lon="9.28467526069768"><ele>385.0</ele><time>2026-03-28T15:34:36Z</time></trkpt><trkpt lat="44.94137799021849" lon="9.284579754625193"><ele>385.0</ele><time>2026-03-28T15:34:37Z</time></trkpt><trkpt lat="44.941481452843206" lon="9.284541547519886"><ele>385.0</ele><time>2026-03-28T15:34:38Z</time></trkpt><trkpt lat="44.94160219388994" lon="9.284540291731302"><ele>385.0</ele><time>2026-03-28T15:34:39Z</time></trkpt><trkpt lat="44.941733570249106" lon="9.284560564924387"><ele>383.8</ele><time>2026-03-28T15:34:40Z</time></trkpt><trkpt lat="44.94186546577377" lon="9.284592518980874"><ele>382.6</ele><time>2026-03-28T15:34:41Z</time></trkpt><trkpt lat="44.94195526784234" lon="9.284641455628115"><ele>381.4</ele><time>2026-03-28T15:34:42Z</time></trkpt><trkpt lat="44.942023513433604" lon="9.284713159723655"><ele>380.2</ele><time>2026-03-28T15:34:43Z</time></trkpt><trkpt lat="44.94209283461695" lon="9.284801620616287"><ele>379.0</ele><time>2026-03-28T15:34:44Z</time></trkpt><trkpt lat="44.94217424368593" lon="9.284919680860906"><ele>380.5</ele><time>2026-03-28T15:34:45Z</time></trkpt><trkpt lat="44.942265895358574" lon="9.28505377363333"><ele>382.0</ele><time>2026-03-28T15:34:46Z</time></trkpt><trkpt lat="44.94237520368895" lon="9.285192580971504"><ele>383.5</ele><time>2026-03-28T15:34:47Z</time></trkpt><trkpt lat="44.942500191303466" lon="9.285328994633403"><ele>385.0</ele><time>2026-03-28T15:34:48Z</time></trkpt><trkpt lat="44.94261079443821" lon="9.285452270479924"><ele>385.0</ele><time>2026-03-28T15:34:49Z</time></trkpt><trkpt lat="44.94271715004676" lon="9.28556198662502"><ele>385.0</ele><time>2026-03-28T15:34:50Z</time></trkpt><trkpt lat="44.94283688998084" lon="9.285641080198053"><ele>385.0</ele><time>2026-03-28T15:34:51Z</time></trkpt><trkpt lat="44.94297568810554" lon="9.28569877527591"><ele>385.0</ele><time>2026-03-28T15:34:52Z</time></trkpt><trkpt lat="44.94309316884386" lon="9.285735521204225"><ele>386.0</ele><time>2026-03-28T15:34:53Z</time></trkpt><trkpt lat="44.94319954373223" lon="9.285748714810326"><ele>387.0</ele><time>2026-03-28T15:34:54Z</time></trkpt><trkpt lat="44.94331008177265" lon="9.285729074085598"><ele>388.0</ele><time>2026-03-28T15:34:55Z</time></trkpt><trkpt lat="44.943424433947854" lon="9.285671925102339"><ele>389.0</ele><time>2026-03-28T15:34:56Z</time></trkpt><trkpt lat="44.94353570176838" lon="9.285588701005192"><ele>389.0</ele><time>2026-03-28T15:34:57Z</time></trkpt><trkpt lat="44.943654984525615" lon="9.285507725359102"><ele>389.0</ele><time>2026-03-28T15:34:58Z</time></trkpt><trkpt lat="44.94377935617811" lon="9.285435546569195"><ele>389.0</ele><time>2026-03-28T15:34:59Z</time></trkpt><trkpt lat="44.94389505235012" lon="9.285372647643662"><ele>389.0</ele><time>2026-03-28T15:35:00Z</time></trkpt><trkpt lat="44.9439985524524" lon="9.285325291886533"><ele>389.0</ele><time>2026-03-28T15:35:01Z</time></trkpt><trkpt lat="44.94410951182873" lon="9.28529614620742"><ele>389.0</ele><time>2026-03-28T15:35:02Z</time></trkpt><trkpt lat="44.94421605698711" lon="9.285296234320501"><ele>389.0</ele><time>2026-03-28T15:35:03Z</time></trkpt><trkpt lat="44.944312068850195" lon="9.285312270854533"><ele>389.0</ele><time>2026-03-28T15:35:04Z</time></trkpt><trkpt lat="44.94440131209542" lon="9.285356497381569"><ele>389.0</ele><time>2026-03-28T15:35:05Z</time></trkpt><trkpt lat="44.94448476025636" lon="9.285407485187859"><ele>388.2</ele><time>2026-03-28T15:35:06Z</time></trkpt><trkpt lat="44.94454597319182" lon="9.28548772610999"><ele>387.4</ele><time>2026-03-28T15:35:07Z</time></trkpt><trkpt lat="44.9446133036546" lon="9.28559291280049"><ele>386.6</ele><time>2026-03-28T15:35:08Z</time></trkpt><trkpt lat="44.94468580084947" lon="9.285715339387762"><ele>385.8</ele><time>2026-03-28T15:35:09Z</time></trkpt><trkpt lat="44.9447697628531" lon="9.285864388258572"><ele>385.0</ele><time>2026-03-28T15:35:10Z</time></trkpt><trkpt lat="44.94487216098508" lon="9.286031785335082"><ele>385.0</ele><time>2026-03-28T15:35:11Z</time></trkpt><trkpt lat="44.944984723891075" lon="9.286207018829652"><ele>385.0</ele><time>2026-03-28T15:35:12Z</time></trkpt><trkpt lat="44.945096809942385" lon="9.286414069401037"><ele>385.0</ele><time>2026-03-28T15:35:13Z</time></trkpt><trkpt lat="44.94521676845976" lon="9.286602373911245"><ele>383.0</ele><time>2026-03-28T15:35:14Z</time></trkpt><trkpt lat="44.94531478949031" lon="9.286782627453958"><ele>381.0</ele><time>2026-03-28T15:35:15Z</time></trkpt><trkpt lat="44.94540069544118" lon="9.286921170236104"><ele>379.0</ele><time>2026-03-28T15:35:16Z</time></trkpt><trkpt lat="44.9454814350404" lon="9.2870123273241"><ele>377.0</ele><time>2026-03-28T15:35:17Z</time></trkpt><trkpt lat="44.94556852257202" lon="9.287068562526473"><ele>377.0</ele><time>2026-03-28T15:35:18Z</time></trkpt><trkpt lat="44.945653191264824" lon="9.287112796121775"><ele>377.0</ele><time>2026-03-28T15:35:19Z</time></trkpt><trkpt lat="44.94571299245926" lon="9.287181382584604"><ele>377.0</ele><time>2026-03-28T15:35:20Z</time></trkpt><trkpt lat="44.945757151995736" lon="9.287277050372985"><ele>377.0</ele><time>2026-03-28T15:35:21Z</time></trkpt><trkpt lat="44.945795459929215" lon="9.287417225042814"><ele>377.0</ele><time>2026-03-28T15:35:22Z</time></trkpt><trkpt lat="44.94580566863671" lon="9.287551411101587"><ele>377.40000000000003</ele><time>2026-03-28T15:35:23Z</time></trkpt><trkpt lat="44.94578859753999" lon="9.287676608886331"><ele>377.8</ele><time>2026-03-28T15:35:24Z</time></trkpt><trkpt lat="44.9457781978596" lon="9.28781359639444"><ele>378.2</ele><time>2026-03-28T15:35:25Z</time></trkpt><trkpt lat="44.94575255299482" lon="9.287956629776073"><ele>378.6</ele><time>2026-03-28T15:35:26Z</time></trkpt><trkpt lat="44.94572614581406" lon="9.288101803523174"><ele>379.0</ele><time>2026-03-28T15:35:27Z</time></trkpt><trkpt lat="44.94572425447616" lon="9.2882553083882"><ele>379.25</ele><time>2026-03-28T15:35:28Z</time></trkpt><trkpt lat="44.94575757727252" lon="9.288410914649274"><ele>379.5</ele><time>2026-03-28T15:35:29Z</time></trkpt><trkpt lat="44.94581627495026" lon="9.288564329316836"><ele>379.75</ele><time>2026-03-28T15:35:30Z</time></trkpt><trkpt lat="44.945896167010574" lon="9.288710361911901"><ele>380.0</ele><time>2026-03-28T15:35:31Z</time></trkpt><trkpt lat="44.94599417021622" lon="9.288825255389176"><ele>378.6666666666667</ele><time>2026-03-28T15:35:32Z</time></trkpt><trkpt lat="44.946106301428216" lon="9.288895802104022"><ele>377.3333333333333</ele><time>2026-03-28T15:35:33Z</time></trkpt><trkpt lat="44.94624446613212" lon="9.28892568700177"><ele>376.0</ele><time>2026-03-28T15:35:34Z</time></trkpt><trkpt lat="44.94643830639547" lon="9.288937205724402"><ele>376.0</ele><time>2026-03-28T15:35:35Z</time></trkpt><trkpt lat="44.94658844587088" lon="9.28897412424672"><ele>376.0</ele><time>2026-03-28T15:35:36Z</time></trkpt><trkpt lat="44.94672433590032" lon="9.289002493554928"><ele>376.0</ele><time>2026-03-28T15:35:37Z</time></trkpt><trkpt lat="44.94684300823513" lon="9.289040925840633"><ele>376.0</ele><time>2026-03-28T15:35:38Z</time></trkpt><trkpt lat="44.946930890488446" lon="9.289133379510139"><ele>373.5</ele><time>2026-03-28T15:35:39Z</time></trkpt><trkpt lat="44.94699561083656" lon="9.289239850685197"><ele>371.0</ele><time>2026-03-28T15:35:40Z</time></trkpt><trkpt lat="44.947075615180175" lon="9.289348471442008"><ele>368.5</ele><time>2026-03-28T15:35:41Z</time></trkpt><trkpt lat="44.947150763893426" lon="9.289491117037027"><ele>366.0</ele><time>2026-03-28T15:35:42Z</time></trkpt><trkpt lat="44.94723328496114" lon="9.289658382801031"><ele>368.3333333333333</ele><time>2026-03-28T15:35:43Z</time></trkpt><trkpt lat="44.94731751411379" lon="9.289836964073558"><ele>370.66666666666663</ele><time>2026-03-28T15:35:44Z</time></trkpt><trkpt lat="44.94741603113604" lon="9.290021485640663"><ele>373.0</ele><time>2026-03-28T15:35:45Z</time></trkpt><trkpt lat="44.94751733744834" lon="9.290203327668241"><ele>372.25</ele><time>2026-03-28T15:35:46Z</time></trkpt><trkpt lat="44.9476074861754" lon="9.290368479742655"><ele>371.5</ele><time>2026-03-28T15:35:47Z</time></trkpt><trkpt lat="44.947699124082945" lon="9.290529019664726"><ele>370.75</ele><time>2026-03-28T15:35:48Z</time></trkpt><trkpt lat="44.94779663471019" lon="9.290672909065766"><ele>370.0</ele><time>2026-03-28T15:35:49Z</time></trkpt><trkpt lat="44.947912025395006" lon="9.290795536530494"><ele>370.0</ele><time>2026-03-28T15:35:50Z</time></trkpt><trkpt lat="44.94804110571794" lon="9.290896703798309"><ele>370.0</ele><time>2026-03-28T15:35:51Z</time></trkpt><trkpt lat="44.94816119083365" lon="9.290990370848187"><ele>370.0</ele><time>2026-03-28T15:35:52Z</time></trkpt><trkpt lat="44.94826811511269" lon="9.291108769599678"><ele>370.0</ele><time>2026-03-28T15:35:53Z</time></trkpt><trkpt lat="44.948360452689855" lon="9.291236725805083"><ele>370.25</ele><time>2026-03-28T15:35:54Z</time></trkpt><trkpt lat="44.94845750906491" lon="9.291340292675681"><ele>370.5</ele><time>2026-03-28T15:35:55Z</time></trkpt><trkpt lat="44.94858398576004" lon="9.291402941210327"><ele>370.75</ele><time>2026-03-28T15:35:56Z</time></trkpt><trkpt lat="44.94872220199238" lon="9.291439012584421"><ele>371.0</ele><time>2026-03-28T15:35:57Z</time></trkpt><trkpt lat="44.948873130064996" lon="9.291512805633312"><ele>371.0</ele><time>2026-03-28T15:35:58Z</time></trkpt><trkpt lat="44.94902882784595" lon="9.29161023625318"><ele>371.0</ele><time>2026-03-28T15:35:59Z</time></trkpt><trkpt lat="44.94916922016235" lon="9.291689104561144"><ele>371.0</ele><time>2026-03-28T15:36:00Z</time></trkpt><trkpt lat="44.94928228239553" lon="9.29176116057175"><ele>371.0</ele><time>2026-03-28T15:36:01Z</time></trkpt><trkpt lat="44.94938410399486" lon="9.291836568131314"><ele>370.20000000000005</ele><time>2026-03-28T15:36:02Z</time></trkpt><trkpt lat="44.94946177972065" lon="9.291922131894577"><ele>369.40000000000003</ele><time>2026-03-28T15:36:03Z</time></trkpt><trkpt lat="44.94951646273512" lon="9.292024384641564"><ele>368.6</ele><time>2026-03-28T15:36:04Z</time></trkpt><trkpt lat="44.9495764080809" lon="9.292158170349705"><ele>367.8</ele><time>2026-03-28T15:36:05Z</time></trkpt><trkpt lat="44.949638389498645" lon="9.292313152606333"><ele>367.0</ele><time>2026-03-28T15:36:06Z</time></trkpt><trkpt lat="44.94969488175518" lon="9.292475718398656"><ele>367.0</ele><time>2026-03-28T15:36:07Z</time></trkpt><trkpt lat="44.949750353432826" lon="9.292609570811821"><ele>367.0</ele><time>2026-03-28T15:36:08Z</time></trkpt><trkpt lat="44.94981832123865" lon="9.29269691577242"><ele>367.0</ele><time>2026-03-28T15:36:09Z</time></trkpt><trkpt lat="44.94991282711476" lon="9.292719013480486"><ele>367.0</ele><time>2026-03-28T15:36:10Z</time></trkpt><trkpt lat="44.95002145347282" lon="9.29270492599214"><ele>367.0</ele><time>2026-03-28T15:36:11Z</time></trkpt><trkpt lat="44.95012921773804" lon="9.292680312018081"><ele>365.8333333333333</ele><time>2026-03-28T15:36:12Z</time></trkpt><trkpt lat="44.95024256274924" lon="9.292693083065252"><ele>364.66666666666663</ele><time>2026-03-28T15:36:13Z</time></trkpt><trkpt lat="44.95033733989753" lon="9.292695100209839"><ele>363.5</ele><time>2026-03-28T15:36:14Z</time></trkpt><trkpt lat="44.950418893526034" lon="9.292696574961436"><ele>362.3333333333333</ele><time>2026-03-28T15:36:15Z</time></trkpt><trkpt lat="44.9504844642677" lon="9.292692901731133"><ele>361.1666666666667</ele><time>2026-03-28T15:36:16Z</time></trkpt><trkpt lat="44.9505579511309" lon="9.292708463150296"><ele>360.0</ele><time>2026-03-28T15:36:18Z</time></trkpt><trkpt lat="44.950654483537534" lon="9.292801351717449"><ele>360.0</ele><time>2026-03-28T15:36:29Z</time></trkpt><trkpt lat="44.95075573870613" lon="9.292791382208897"><ele>360.0</ele><time>2026-03-28T15:36:30Z</time></trkpt><trkpt lat="44.950850219782794" lon="9.292824153572669"><ele>360.0</ele><time>2026-03-28T15:36:31Z</time></trkpt><trkpt lat="44.9509498312491" lon="9.29287388982383"><ele>360.0</ele><time>2026-03-28T15:36:32Z</time></trkpt><trkpt lat="44.951053060114255" lon="9.29292315757492"><ele>360.0</ele><time>2026-03-28T15:36:33Z</time></trkpt><trkpt lat="44.95117733620728" lon="9.292955678951092"><ele>359.0</ele><time>2026-03-28T15:36:34Z</time></trkpt><trkpt lat="44.951301280445776" lon="9.292964585988175"><ele>358.0</ele><time>2026-03-28T15:36:35Z</time></trkpt><trkpt lat="44.951412023171045" lon="9.292967120849307"><ele>357.0</ele><time>2026-03-28T15:36:36Z</time></trkpt><trkpt lat="44.95151944151046" lon="9.292977716714876"><ele>356.0</ele><time>2026-03-28T15:36:37Z</time></trkpt><trkpt lat="44.951619565437014" lon="9.293008160559744"><ele>355.0</ele><time>2026-03-28T15:36:38Z</time></trkpt><trkpt lat="44.9517188377978" lon="9.29307081040179"><ele>349.0</ele><time>2026-03-28T15:36:39Z</time></trkpt><trkpt lat="44.95181622212256" lon="9.293171993335799"><ele>354.0</ele><time>2026-03-28T15:36:40Z</time></trkpt><trkpt lat="44.951922287281825" lon="9.293300909762456"><ele>354.0</ele><time>2026-03-28T15:36:41Z</time></trkpt><trkpt lat="44.952041080504884" lon="9.293424485160878"><ele>354.0</ele><time>2026-03-28T15:36:42Z</time></trkpt></trkseg></trk></gpx>